<?xml version="1.0" encoding="UTF-8" standalone="no" ?>
<gpx xmlns="http://www.topografix.com/GPX/1/1" xmlns:xsi="http://www.w3.org/2001/XMLSchema-instance" xsi:schemaLocation="http://www.topografix.com/GPX/1/1 http://www.topografix.com/GPX/1/1/gpx.xsd" version="1.1" creator="VisuGPX - https://www.visugpx.com">
  <metadata>
    <name>Cols de la Traversette et du Porc</name>
    <desc><![CDATA[Rando difficile]]></desc>
  </metadata>
  <trk>
    <name><![CDATA[2016-09-02 17:15:07]]></name>
    <trkseg>
      <trkpt lat="44.73744" lon="6.99679">
        <ele>1794.92</ele>
        <time>2016-09-02T07:28:22Z</time>
      </trkpt>
      <trkpt lat="44.73744" lon="6.99679">
        <ele>1794.92</ele>
        <time>2016-09-02T07:28:23Z</time>
      </trkpt>
      <trkpt lat="44.73744" lon="6.99678">
        <ele>1796.36</ele>
        <time>2016-09-02T07:29:06Z</time>
      </trkpt>
      <trkpt lat="44.73743" lon="6.99678">
        <ele>1796.36</ele>
        <time>2016-09-02T07:29:10Z</time>
      </trkpt>
      <trkpt lat="44.73744" lon="6.99675">
        <ele>1796.84</ele>
        <time>2016-09-02T07:29:37Z</time>
      </trkpt>
      <trkpt lat="44.73745" lon="6.99675">
        <ele>1795.88</ele>
        <time>2016-09-02T07:29:45Z</time>
      </trkpt>
      <trkpt lat="44.73741" lon="6.99674">
        <ele>1795.88</ele>
        <time>2016-09-02T07:30:07Z</time>
      </trkpt>
      <trkpt lat="44.73741" lon="6.99677">
        <ele>1796.84</ele>
        <time>2016-09-02T07:30:27Z</time>
      </trkpt>
      <trkpt lat="44.73738" lon="6.99681">
        <ele>1796.84</ele>
        <time>2016-09-02T07:30:42Z</time>
      </trkpt>
      <trkpt lat="44.73732" lon="6.9969">
        <ele>1796.84</ele>
        <time>2016-09-02T07:30:57Z</time>
      </trkpt>
      <trkpt lat="44.73731" lon="6.99688">
        <ele>1796.84</ele>
        <time>2016-09-02T07:31:20Z</time>
      </trkpt>
      <trkpt lat="44.73728" lon="6.9969">
        <ele>1796.84</ele>
        <time>2016-09-02T07:31:34Z</time>
      </trkpt>
      <trkpt lat="44.73728" lon="6.99691">
        <ele>1796.84</ele>
        <time>2016-09-02T07:31:54Z</time>
      </trkpt>
      <trkpt lat="44.73727" lon="6.99697">
        <ele>1796.84</ele>
        <time>2016-09-02T07:32:02Z</time>
      </trkpt>
      <trkpt lat="44.73718" lon="6.99715">
        <ele>1796.84</ele>
        <time>2016-09-02T07:32:17Z</time>
      </trkpt>
      <trkpt lat="44.73708" lon="6.99728">
        <ele>1797.8</ele>
        <time>2016-09-02T07:32:28Z</time>
      </trkpt>
      <trkpt lat="44.73704" lon="6.99737">
        <ele>1798.76</ele>
        <time>2016-09-02T07:32:39Z</time>
      </trkpt>
      <trkpt lat="44.73702" lon="6.99741">
        <ele>1799.24</ele>
        <time>2016-09-02T07:32:43Z</time>
      </trkpt>
      <trkpt lat="44.7369" lon="6.99751">
        <ele>1801.17</ele>
        <time>2016-09-02T07:32:57Z</time>
      </trkpt>
      <trkpt lat="44.7368" lon="6.99767">
        <ele>1801.65</ele>
        <time>2016-09-02T07:33:12Z</time>
      </trkpt>
      <trkpt lat="44.73666" lon="6.99786">
        <ele>1802.13</ele>
        <time>2016-09-02T07:33:30Z</time>
      </trkpt>
      <trkpt lat="44.73655" lon="6.99798">
        <ele>1804.05</ele>
        <time>2016-09-02T07:33:44Z</time>
      </trkpt>
      <trkpt lat="44.73647" lon="6.99807">
        <ele>1805.97</ele>
        <time>2016-09-02T07:33:56Z</time>
      </trkpt>
      <trkpt lat="44.73646" lon="6.99807">
        <ele>1805.97</ele>
        <time>2016-09-02T07:33:57Z</time>
      </trkpt>
      <trkpt lat="44.73637" lon="6.99813">
        <ele>1807.42</ele>
        <time>2016-09-02T07:34:10Z</time>
      </trkpt>
      <trkpt lat="44.73628" lon="6.99817">
        <ele>1808.86</ele>
        <time>2016-09-02T07:34:23Z</time>
      </trkpt>
      <trkpt lat="44.73625" lon="6.99819">
        <ele>1808.86</ele>
        <time>2016-09-02T07:34:26Z</time>
      </trkpt>
      <trkpt lat="44.73609" lon="6.99835">
        <ele>1810.3</ele>
        <time>2016-09-02T07:34:45Z</time>
      </trkpt>
      <trkpt lat="44.73598" lon="6.99852">
        <ele>1811.74</ele>
        <time>2016-09-02T07:35:01Z</time>
      </trkpt>
      <trkpt lat="44.73581" lon="6.99861">
        <ele>1812.22</ele>
        <time>2016-09-02T07:35:18Z</time>
      </trkpt>
      <trkpt lat="44.73568" lon="6.99876">
        <ele>1814.63</ele>
        <time>2016-09-02T07:35:35Z</time>
      </trkpt>
      <trkpt lat="44.73568" lon="6.99886">
        <ele>1815.59</ele>
        <time>2016-09-02T07:35:49Z</time>
      </trkpt>
      <trkpt lat="44.73566" lon="6.99887">
        <ele>1815.59</ele>
        <time>2016-09-02T07:35:53Z</time>
      </trkpt>
      <trkpt lat="44.73553" lon="6.99888">
        <ele>1814.15</ele>
        <time>2016-09-02T07:36:04Z</time>
      </trkpt>
      <trkpt lat="44.73546" lon="6.99887">
        <ele>1814.15</ele>
        <time>2016-09-02T07:36:13Z</time>
      </trkpt>
      <trkpt lat="44.73539" lon="6.99888">
        <ele>1814.15</ele>
        <time>2016-09-02T07:36:22Z</time>
      </trkpt>
      <trkpt lat="44.73524" lon="6.99882">
        <ele>1813.66</ele>
        <time>2016-09-02T07:36:35Z</time>
      </trkpt>
      <trkpt lat="44.73511" lon="6.99869">
        <ele>1813.66</ele>
        <time>2016-09-02T07:36:49Z</time>
      </trkpt>
      <trkpt lat="44.735" lon="6.99848">
        <ele>1812.7</ele>
        <time>2016-09-02T07:37:04Z</time>
      </trkpt>
      <trkpt lat="44.73493" lon="6.99829">
        <ele>1812.22</ele>
        <time>2016-09-02T07:37:19Z</time>
      </trkpt>
      <trkpt lat="44.73494" lon="6.99827">
        <ele>1812.22</ele>
        <time>2016-09-02T07:37:29Z</time>
      </trkpt>
      <trkpt lat="44.73492" lon="6.99837">
        <ele>1811.74</ele>
        <time>2016-09-02T07:37:36Z</time>
      </trkpt>
      <trkpt lat="44.7348" lon="6.99858">
        <ele>1813.18</ele>
        <time>2016-09-02T07:37:51Z</time>
      </trkpt>
      <trkpt lat="44.73472" lon="6.99872">
        <ele>1814.63</ele>
        <time>2016-09-02T07:38:05Z</time>
      </trkpt>
      <trkpt lat="44.73473" lon="6.99871">
        <ele>1814.63</ele>
        <time>2016-09-02T07:38:06Z</time>
      </trkpt>
      <trkpt lat="44.7348" lon="6.99857">
        <ele>1813.18</ele>
        <time>2016-09-02T07:38:15Z</time>
      </trkpt>
      <trkpt lat="44.73489" lon="6.99842">
        <ele>1812.22</ele>
        <time>2016-09-02T07:38:26Z</time>
      </trkpt>
      <trkpt lat="44.73494" lon="6.99831">
        <ele>1811.26</ele>
        <time>2016-09-02T07:38:38Z</time>
      </trkpt>
      <trkpt lat="44.73492" lon="6.99826">
        <ele>1811.26</ele>
        <time>2016-09-02T07:38:46Z</time>
      </trkpt>
      <trkpt lat="44.73499" lon="6.99806">
        <ele>1810.78</ele>
        <time>2016-09-02T07:39:02Z</time>
      </trkpt>
      <trkpt lat="44.73499" lon="6.99806">
        <ele>1811.74</ele>
        <time>2016-09-02T07:39:06Z</time>
      </trkpt>
      <trkpt lat="44.73493" lon="6.99804">
        <ele>1811.74</ele>
        <time>2016-09-02T07:39:17Z</time>
      </trkpt>
      <trkpt lat="44.73495" lon="6.99791">
        <ele>1813.66</ele>
        <time>2016-09-02T07:39:30Z</time>
      </trkpt>
      <trkpt lat="44.73502" lon="6.99782">
        <ele>1816.55</ele>
        <time>2016-09-02T07:39:43Z</time>
      </trkpt>
      <trkpt lat="44.73506" lon="6.99773">
        <ele>1818.95</ele>
        <time>2016-09-02T07:39:57Z</time>
      </trkpt>
      <trkpt lat="44.73507" lon="6.99768">
        <ele>1819.91</ele>
        <time>2016-09-02T07:40:09Z</time>
      </trkpt>
      <trkpt lat="44.73504" lon="6.9977">
        <ele>1820.39</ele>
        <time>2016-09-02T07:40:21Z</time>
      </trkpt>
      <trkpt lat="44.73501" lon="6.99772">
        <ele>1820.39</ele>
        <time>2016-09-02T07:40:25Z</time>
      </trkpt>
      <trkpt lat="44.73497" lon="6.99772">
        <ele>1820.87</ele>
        <time>2016-09-02T07:40:30Z</time>
      </trkpt>
      <trkpt lat="44.7349" lon="6.99774">
        <ele>1822.8</ele>
        <time>2016-09-02T07:40:37Z</time>
      </trkpt>
      <trkpt lat="44.73478" lon="6.99777">
        <ele>1823.76</ele>
        <time>2016-09-02T07:40:48Z</time>
      </trkpt>
      <trkpt lat="44.73462" lon="6.99781">
        <ele>1825.2</ele>
        <time>2016-09-02T07:41:03Z</time>
      </trkpt>
      <trkpt lat="44.73452" lon="6.99784">
        <ele>1826.16</ele>
        <time>2016-09-02T07:41:14Z</time>
      </trkpt>
      <trkpt lat="44.7344" lon="6.99786">
        <ele>1827.6</ele>
        <time>2016-09-02T07:41:28Z</time>
      </trkpt>
      <trkpt lat="44.73437" lon="6.99785">
        <ele>1828.08</ele>
        <time>2016-09-02T07:41:32Z</time>
      </trkpt>
      <trkpt lat="44.73425" lon="6.99782">
        <ele>1830.01</ele>
        <time>2016-09-02T07:41:45Z</time>
      </trkpt>
      <trkpt lat="44.73416" lon="6.9978">
        <ele>1831.45</ele>
        <time>2016-09-02T07:41:57Z</time>
      </trkpt>
      <trkpt lat="44.73403" lon="6.99789">
        <ele>1832.89</ele>
        <time>2016-09-02T07:42:11Z</time>
      </trkpt>
      <trkpt lat="44.73395" lon="6.99796">
        <ele>1835.29</ele>
        <time>2016-09-02T07:42:24Z</time>
      </trkpt>
      <trkpt lat="44.7339" lon="6.99804">
        <ele>1836.74</ele>
        <time>2016-09-02T07:42:36Z</time>
      </trkpt>
      <trkpt lat="44.73384" lon="6.9981">
        <ele>1839.14</ele>
        <time>2016-09-02T07:42:47Z</time>
      </trkpt>
      <trkpt lat="44.73378" lon="6.99821">
        <ele>1841.06</ele>
        <time>2016-09-02T07:43:01Z</time>
      </trkpt>
      <trkpt lat="44.73372" lon="6.99827">
        <ele>1843.47</ele>
        <time>2016-09-02T07:43:15Z</time>
      </trkpt>
      <trkpt lat="44.73366" lon="6.99839">
        <ele>1845.39</ele>
        <time>2016-09-02T07:43:30Z</time>
      </trkpt>
      <trkpt lat="44.73357" lon="6.99846">
        <ele>1847.31</ele>
        <time>2016-09-02T07:43:43Z</time>
      </trkpt>
      <trkpt lat="44.73351" lon="6.99853">
        <ele>1849.23</ele>
        <time>2016-09-02T07:43:56Z</time>
      </trkpt>
      <trkpt lat="44.73343" lon="6.99864">
        <ele>1851.16</ele>
        <time>2016-09-02T07:44:09Z</time>
      </trkpt>
      <trkpt lat="44.73341" lon="6.99877">
        <ele>1853.08</ele>
        <time>2016-09-02T07:44:22Z</time>
      </trkpt>
      <trkpt lat="44.73338" lon="6.99888">
        <ele>1854.52</ele>
        <time>2016-09-02T07:44:35Z</time>
      </trkpt>
      <trkpt lat="44.73327" lon="6.99897">
        <ele>1855.96</ele>
        <time>2016-09-02T07:44:49Z</time>
      </trkpt>
      <trkpt lat="44.73316" lon="6.99905">
        <ele>1857.4</ele>
        <time>2016-09-02T07:45:03Z</time>
      </trkpt>
      <trkpt lat="44.73315" lon="6.99903">
        <ele>1857.4</ele>
        <time>2016-09-02T07:45:04Z</time>
      </trkpt>
      <trkpt lat="44.73304" lon="6.99889">
        <ele>1858.37</ele>
        <time>2016-09-02T07:45:18Z</time>
      </trkpt>
      <trkpt lat="44.73289" lon="6.99884">
        <ele>1859.33</ele>
        <time>2016-09-02T07:45:32Z</time>
      </trkpt>
      <trkpt lat="44.73284" lon="6.99882">
        <ele>1859.81</ele>
        <time>2016-09-02T07:45:36Z</time>
      </trkpt>
      <trkpt lat="44.7328" lon="6.99879">
        <ele>1859.81</ele>
        <time>2016-09-02T07:45:40Z</time>
      </trkpt>
      <trkpt lat="44.73272" lon="6.99869">
        <ele>1860.29</ele>
        <time>2016-09-02T07:45:54Z</time>
      </trkpt>
      <trkpt lat="44.73267" lon="6.99865">
        <ele>1861.73</ele>
        <time>2016-09-02T07:46:04Z</time>
      </trkpt>
      <trkpt lat="44.73259" lon="6.99869">
        <ele>1863.17</ele>
        <time>2016-09-02T07:46:16Z</time>
      </trkpt>
      <trkpt lat="44.73254" lon="6.99862">
        <ele>1865.58</ele>
        <time>2016-09-02T07:46:28Z</time>
      </trkpt>
      <trkpt lat="44.73251" lon="6.99866">
        <ele>1865.58</ele>
        <time>2016-09-02T07:46:38Z</time>
      </trkpt>
      <trkpt lat="44.73252" lon="6.99873">
        <ele>1865.58</ele>
        <time>2016-09-02T07:46:46Z</time>
      </trkpt>
      <trkpt lat="44.73255" lon="6.99882">
        <ele>1865.58</ele>
        <time>2016-09-02T07:47:00Z</time>
      </trkpt>
      <trkpt lat="44.73252" lon="6.99886">
        <ele>1866.06</ele>
        <time>2016-09-02T07:47:15Z</time>
      </trkpt>
      <trkpt lat="44.73255" lon="6.99891">
        <ele>1867.5</ele>
        <time>2016-09-02T07:47:25Z</time>
      </trkpt>
      <trkpt lat="44.73262" lon="6.99893">
        <ele>1868.94</ele>
        <time>2016-09-02T07:47:37Z</time>
      </trkpt>
      <trkpt lat="44.73257" lon="6.99898">
        <ele>1871.34</ele>
        <time>2016-09-02T07:47:49Z</time>
      </trkpt>
      <trkpt lat="44.73256" lon="6.99902">
        <ele>1872.79</ele>
        <time>2016-09-02T07:47:58Z</time>
      </trkpt>
      <trkpt lat="44.73258" lon="6.99904">
        <ele>1875.19</ele>
        <time>2016-09-02T07:48:11Z</time>
      </trkpt>
      <trkpt lat="44.73252" lon="6.9991">
        <ele>1877.59</ele>
        <time>2016-09-02T07:48:23Z</time>
      </trkpt>
      <trkpt lat="44.73252" lon="6.99915">
        <ele>1879.51</ele>
        <time>2016-09-02T07:48:35Z</time>
      </trkpt>
      <trkpt lat="44.73244" lon="6.99916">
        <ele>1881.92</ele>
        <time>2016-09-02T07:48:48Z</time>
      </trkpt>
      <trkpt lat="44.73237" lon="6.99917">
        <ele>1884.32</ele>
        <time>2016-09-02T07:49:03Z</time>
      </trkpt>
      <trkpt lat="44.73231" lon="6.99915">
        <ele>1886.72</ele>
        <time>2016-09-02T07:49:16Z</time>
      </trkpt>
      <trkpt lat="44.73223" lon="6.9991">
        <ele>1888.17</ele>
        <time>2016-09-02T07:49:29Z</time>
      </trkpt>
      <trkpt lat="44.73213" lon="6.99909">
        <ele>1890.09</ele>
        <time>2016-09-02T07:49:42Z</time>
      </trkpt>
      <trkpt lat="44.73201" lon="6.99909">
        <ele>1891.53</ele>
        <time>2016-09-02T07:49:57Z</time>
      </trkpt>
      <trkpt lat="44.732" lon="6.99909">
        <ele>1891.53</ele>
        <time>2016-09-02T07:49:58Z</time>
      </trkpt>
      <trkpt lat="44.73191" lon="6.99911">
        <ele>1892.97</ele>
        <time>2016-09-02T07:50:08Z</time>
      </trkpt>
      <trkpt lat="44.73188" lon="6.99913">
        <ele>1892.97</ele>
        <time>2016-09-02T07:50:12Z</time>
      </trkpt>
      <trkpt lat="44.73181" lon="6.99923">
        <ele>1895.38</ele>
        <time>2016-09-02T07:50:24Z</time>
      </trkpt>
      <trkpt lat="44.73174" lon="6.99929">
        <ele>1896.34</ele>
        <time>2016-09-02T07:50:36Z</time>
      </trkpt>
      <trkpt lat="44.73173" lon="6.9993">
        <ele>1896.34</ele>
        <time>2016-09-02T07:50:52Z</time>
      </trkpt>
      <trkpt lat="44.73173" lon="6.99931">
        <ele>1895.38</ele>
        <time>2016-09-02T07:51:10Z</time>
      </trkpt>
      <trkpt lat="44.73174" lon="6.9993">
        <ele>1895.38</ele>
        <time>2016-09-02T07:51:32Z</time>
      </trkpt>
      <trkpt lat="44.73172" lon="6.9993">
        <ele>1895.38</ele>
        <time>2016-09-02T07:51:59Z</time>
      </trkpt>
      <trkpt lat="44.73172" lon="6.99927">
        <ele>1896.82</ele>
        <time>2016-09-02T07:52:20Z</time>
      </trkpt>
      <trkpt lat="44.73174" lon="6.99929">
        <ele>1896.82</ele>
        <time>2016-09-02T07:52:34Z</time>
      </trkpt>
      <trkpt lat="44.73173" lon="6.99935">
        <ele>1896.82</ele>
        <time>2016-09-02T07:52:39Z</time>
      </trkpt>
      <trkpt lat="44.73173" lon="6.99938">
        <ele>1896.82</ele>
        <time>2016-09-02T07:52:41Z</time>
      </trkpt>
      <trkpt lat="44.73171" lon="6.99942">
        <ele>1896.82</ele>
        <time>2016-09-02T07:52:44Z</time>
      </trkpt>
      <trkpt lat="44.73167" lon="6.99948">
        <ele>1896.82</ele>
        <time>2016-09-02T07:52:49Z</time>
      </trkpt>
      <trkpt lat="44.73166" lon="6.99949">
        <ele>1896.82</ele>
        <time>2016-09-02T07:52:51Z</time>
      </trkpt>
      <trkpt lat="44.73161" lon="6.99953">
        <ele>1898.26</ele>
        <time>2016-09-02T07:52:56Z</time>
      </trkpt>
      <trkpt lat="44.7315" lon="6.99962">
        <ele>1896.82</ele>
        <time>2016-09-02T07:53:07Z</time>
      </trkpt>
      <trkpt lat="44.73148" lon="6.99963">
        <ele>1896.82</ele>
        <time>2016-09-02T07:53:09Z</time>
      </trkpt>
      <trkpt lat="44.73133" lon="6.99974">
        <ele>1896.82</ele>
        <time>2016-09-02T07:53:24Z</time>
      </trkpt>
      <trkpt lat="44.73131" lon="6.99975">
        <ele>1896.82</ele>
        <time>2016-09-02T07:53:25Z</time>
      </trkpt>
      <trkpt lat="44.73118" lon="6.99976">
        <ele>1896.82</ele>
        <time>2016-09-02T07:53:40Z</time>
      </trkpt>
      <trkpt lat="44.73115" lon="6.99981">
        <ele>1896.82</ele>
        <time>2016-09-02T07:53:43Z</time>
      </trkpt>
      <trkpt lat="44.73109" lon="6.99985">
        <ele>1896.82</ele>
        <time>2016-09-02T07:53:49Z</time>
      </trkpt>
      <trkpt lat="44.73092" lon="6.99993">
        <ele>1895.86</ele>
        <time>2016-09-02T07:54:06Z</time>
      </trkpt>
      <trkpt lat="44.73086" lon="6.99997">
        <ele>1895.86</ele>
        <time>2016-09-02T07:54:12Z</time>
      </trkpt>
      <trkpt lat="44.73076" lon="7.00016">
        <ele>1895.86</ele>
        <time>2016-09-02T07:54:27Z</time>
      </trkpt>
      <trkpt lat="44.73072" lon="7.00017">
        <ele>1895.86</ele>
        <time>2016-09-02T07:54:29Z</time>
      </trkpt>
      <trkpt lat="44.73061" lon="7.00025">
        <ele>1897.3</ele>
        <time>2016-09-02T07:54:42Z</time>
      </trkpt>
      <trkpt lat="44.73059" lon="7.00026">
        <ele>1897.3</ele>
        <time>2016-09-02T07:54:44Z</time>
      </trkpt>
      <trkpt lat="44.73049" lon="7.00038">
        <ele>1898.74</ele>
        <time>2016-09-02T07:54:58Z</time>
      </trkpt>
      <trkpt lat="44.73048" lon="7.00061">
        <ele>1899.7</ele>
        <time>2016-09-02T07:55:14Z</time>
      </trkpt>
      <trkpt lat="44.73046" lon="7.00074">
        <ele>1900.66</ele>
        <time>2016-09-02T07:55:28Z</time>
      </trkpt>
      <trkpt lat="44.7304" lon="7.00092">
        <ele>1901.63</ele>
        <time>2016-09-02T07:55:44Z</time>
      </trkpt>
      <trkpt lat="44.7303" lon="7.00104">
        <ele>1902.11</ele>
        <time>2016-09-02T07:55:54Z</time>
      </trkpt>
      <trkpt lat="44.73016" lon="7.0011">
        <ele>1902.59</ele>
        <time>2016-09-02T07:56:09Z</time>
      </trkpt>
      <trkpt lat="44.73011" lon="7.00108">
        <ele>1900.66</ele>
        <time>2016-09-02T07:56:13Z</time>
      </trkpt>
      <trkpt lat="44.73001" lon="7.00113">
        <ele>1899.7</ele>
        <time>2016-09-02T07:56:24Z</time>
      </trkpt>
      <trkpt lat="44.72997" lon="7.00116">
        <ele>1899.7</ele>
        <time>2016-09-02T07:56:30Z</time>
      </trkpt>
      <trkpt lat="44.72987" lon="7.00126">
        <ele>1898.26</ele>
        <time>2016-09-02T07:56:43Z</time>
      </trkpt>
      <trkpt lat="44.72984" lon="7.00129">
        <ele>1897.3</ele>
        <time>2016-09-02T07:56:47Z</time>
      </trkpt>
      <trkpt lat="44.72987" lon="7.00139">
        <ele>1896.34</ele>
        <time>2016-09-02T07:56:59Z</time>
      </trkpt>
      <trkpt lat="44.72994" lon="7.00132">
        <ele>1894.9</ele>
        <time>2016-09-02T07:57:06Z</time>
      </trkpt>
      <trkpt lat="44.73001" lon="7.00144">
        <ele>1894.42</ele>
        <time>2016-09-02T07:57:18Z</time>
      </trkpt>
      <trkpt lat="44.72998" lon="7.00155">
        <ele>1894.42</ele>
        <time>2016-09-02T07:57:31Z</time>
      </trkpt>
      <trkpt lat="44.73003" lon="7.00161">
        <ele>1895.86</ele>
        <time>2016-09-02T07:57:40Z</time>
      </trkpt>
      <trkpt lat="44.72997" lon="7.00167">
        <ele>1898.26</ele>
        <time>2016-09-02T07:57:52Z</time>
      </trkpt>
      <trkpt lat="44.72982" lon="7.00169">
        <ele>1898.26</ele>
        <time>2016-09-02T07:58:08Z</time>
      </trkpt>
      <trkpt lat="44.72969" lon="7.00175">
        <ele>1899.7</ele>
        <time>2016-09-02T07:58:23Z</time>
      </trkpt>
      <trkpt lat="44.72957" lon="7.00179">
        <ele>1900.18</ele>
        <time>2016-09-02T07:58:36Z</time>
      </trkpt>
      <trkpt lat="44.72952" lon="7.00186">
        <ele>1901.63</ele>
        <time>2016-09-02T07:58:46Z</time>
      </trkpt>
      <trkpt lat="44.72947" lon="7.00194">
        <ele>1903.55</ele>
        <time>2016-09-02T07:58:57Z</time>
      </trkpt>
      <trkpt lat="44.72944" lon="7.00205">
        <ele>1905.95</ele>
        <time>2016-09-02T07:59:09Z</time>
      </trkpt>
      <trkpt lat="44.7294" lon="7.00214">
        <ele>1908.83</ele>
        <time>2016-09-02T07:59:22Z</time>
      </trkpt>
      <trkpt lat="44.72938" lon="7.00225">
        <ele>1911.24</ele>
        <time>2016-09-02T07:59:35Z</time>
      </trkpt>
      <trkpt lat="44.7294" lon="7.00228">
        <ele>1913.64</ele>
        <time>2016-09-02T07:59:48Z</time>
      </trkpt>
      <trkpt lat="44.72939" lon="7.00235">
        <ele>1915.56</ele>
        <time>2016-09-02T07:59:59Z</time>
      </trkpt>
      <trkpt lat="44.7293" lon="7.00252">
        <ele>1917.49</ele>
        <time>2016-09-02T08:00:15Z</time>
      </trkpt>
      <trkpt lat="44.72919" lon="7.00268">
        <ele>1918.93</ele>
        <time>2016-09-02T08:00:30Z</time>
      </trkpt>
      <trkpt lat="44.72917" lon="7.00278">
        <ele>1919.89</ele>
        <time>2016-09-02T08:00:38Z</time>
      </trkpt>
      <trkpt lat="44.72911" lon="7.00295">
        <ele>1921.33</ele>
        <time>2016-09-02T08:00:53Z</time>
      </trkpt>
      <trkpt lat="44.72908" lon="7.00313">
        <ele>1924.22</ele>
        <time>2016-09-02T08:01:08Z</time>
      </trkpt>
      <trkpt lat="44.72916" lon="7.00328">
        <ele>1926.62</ele>
        <time>2016-09-02T08:01:24Z</time>
      </trkpt>
      <trkpt lat="44.7292" lon="7.00342">
        <ele>1929.02</ele>
        <time>2016-09-02T08:01:39Z</time>
      </trkpt>
      <trkpt lat="44.72918" lon="7.00354">
        <ele>1931.43</ele>
        <time>2016-09-02T08:01:55Z</time>
      </trkpt>
      <trkpt lat="44.72921" lon="7.00363">
        <ele>1933.83</ele>
        <time>2016-09-02T08:02:08Z</time>
      </trkpt>
      <trkpt lat="44.72918" lon="7.00368">
        <ele>1933.83</ele>
        <time>2016-09-02T08:02:13Z</time>
      </trkpt>
      <trkpt lat="44.72915" lon="7.00373">
        <ele>1934.31</ele>
        <time>2016-09-02T08:02:17Z</time>
      </trkpt>
      <trkpt lat="44.72903" lon="7.00386">
        <ele>1935.27</ele>
        <time>2016-09-02T08:02:32Z</time>
      </trkpt>
      <trkpt lat="44.72894" lon="7.004">
        <ele>1936.71</ele>
        <time>2016-09-02T08:02:45Z</time>
      </trkpt>
      <trkpt lat="44.72882" lon="7.00415">
        <ele>1937.67</ele>
        <time>2016-09-02T08:03:01Z</time>
      </trkpt>
      <trkpt lat="44.72871" lon="7.0043">
        <ele>1938.64</ele>
        <time>2016-09-02T08:03:15Z</time>
      </trkpt>
      <trkpt lat="44.72859" lon="7.00443">
        <ele>1940.08</ele>
        <time>2016-09-02T08:03:29Z</time>
      </trkpt>
      <trkpt lat="44.72849" lon="7.00455">
        <ele>1941.52</ele>
        <time>2016-09-02T08:03:42Z</time>
      </trkpt>
      <trkpt lat="44.72837" lon="7.00469">
        <ele>1942.96</ele>
        <time>2016-09-02T08:03:56Z</time>
      </trkpt>
      <trkpt lat="44.72828" lon="7.00483">
        <ele>1943.92</ele>
        <time>2016-09-02T08:04:08Z</time>
      </trkpt>
      <trkpt lat="44.72822" lon="7.00495">
        <ele>1944.4</ele>
        <time>2016-09-02T08:04:21Z</time>
      </trkpt>
      <trkpt lat="44.72813" lon="7.00509">
        <ele>1945.85</ele>
        <time>2016-09-02T08:04:34Z</time>
      </trkpt>
      <trkpt lat="44.72801" lon="7.00525">
        <ele>1947.29</ele>
        <time>2016-09-02T08:04:49Z</time>
      </trkpt>
      <trkpt lat="44.72801" lon="7.00526">
        <ele>1947.29</ele>
        <time>2016-09-02T08:04:50Z</time>
      </trkpt>
      <trkpt lat="44.72795" lon="7.00535">
        <ele>1949.21</ele>
        <time>2016-09-02T08:04:59Z</time>
      </trkpt>
      <trkpt lat="44.7278" lon="7.00549">
        <ele>1949.21</ele>
        <time>2016-09-02T08:05:14Z</time>
      </trkpt>
      <trkpt lat="44.72771" lon="7.00564">
        <ele>1949.69</ele>
        <time>2016-09-02T08:05:27Z</time>
      </trkpt>
      <trkpt lat="44.72766" lon="7.00571">
        <ele>1950.65</ele>
        <time>2016-09-02T08:05:34Z</time>
      </trkpt>
      <trkpt lat="44.72758" lon="7.00586">
        <ele>1953.06</ele>
        <time>2016-09-02T08:05:49Z</time>
      </trkpt>
      <trkpt lat="44.72748" lon="7.00601">
        <ele>1954.98</ele>
        <time>2016-09-02T08:06:03Z</time>
      </trkpt>
      <trkpt lat="44.72746" lon="7.00602">
        <ele>1954.98</ele>
        <time>2016-09-02T08:06:05Z</time>
      </trkpt>
      <trkpt lat="44.72732" lon="7.00609">
        <ele>1955.94</ele>
        <time>2016-09-02T08:06:20Z</time>
      </trkpt>
      <trkpt lat="44.72725" lon="7.00611">
        <ele>1956.42</ele>
        <time>2016-09-02T08:06:26Z</time>
      </trkpt>
      <trkpt lat="44.72712" lon="7.00622">
        <ele>1957.86</ele>
        <time>2016-09-02T08:06:39Z</time>
      </trkpt>
      <trkpt lat="44.727" lon="7.00634">
        <ele>1958.34</ele>
        <time>2016-09-02T08:06:53Z</time>
      </trkpt>
      <trkpt lat="44.72684" lon="7.00638">
        <ele>1959.3</ele>
        <time>2016-09-02T08:07:08Z</time>
      </trkpt>
      <trkpt lat="44.7268" lon="7.00637">
        <ele>1959.3</ele>
        <time>2016-09-02T08:07:12Z</time>
      </trkpt>
      <trkpt lat="44.72662" lon="7.00628">
        <ele>1960.75</ele>
        <time>2016-09-02T08:07:28Z</time>
      </trkpt>
      <trkpt lat="44.72654" lon="7.00629">
        <ele>1961.23</ele>
        <time>2016-09-02T08:07:35Z</time>
      </trkpt>
      <trkpt lat="44.7264" lon="7.00636">
        <ele>1962.19</ele>
        <time>2016-09-02T08:07:50Z</time>
      </trkpt>
      <trkpt lat="44.72633" lon="7.00647">
        <ele>1963.63</ele>
        <time>2016-09-02T08:08:01Z</time>
      </trkpt>
      <trkpt lat="44.72626" lon="7.00665">
        <ele>1965.07</ele>
        <time>2016-09-02T08:08:16Z</time>
      </trkpt>
      <trkpt lat="44.72621" lon="7.00679">
        <ele>1966.51</ele>
        <time>2016-09-02T08:08:27Z</time>
      </trkpt>
      <trkpt lat="44.72615" lon="7.00699">
        <ele>1967.96</ele>
        <time>2016-09-02T08:08:42Z</time>
      </trkpt>
      <trkpt lat="44.72612" lon="7.00716">
        <ele>1968.92</ele>
        <time>2016-09-02T08:08:52Z</time>
      </trkpt>
      <trkpt lat="44.72608" lon="7.00722">
        <ele>1969.4</ele>
        <time>2016-09-02T08:08:58Z</time>
      </trkpt>
      <trkpt lat="44.72604" lon="7.00724">
        <ele>1969.4</ele>
        <time>2016-09-02T08:09:01Z</time>
      </trkpt>
      <trkpt lat="44.72588" lon="7.00723">
        <ele>1969.88</ele>
        <time>2016-09-02T08:09:14Z</time>
      </trkpt>
      <trkpt lat="44.7257" lon="7.00718">
        <ele>1969.88</ele>
        <time>2016-09-02T08:09:29Z</time>
      </trkpt>
      <trkpt lat="44.72565" lon="7.00721">
        <ele>1969.88</ele>
        <time>2016-09-02T08:09:33Z</time>
      </trkpt>
      <trkpt lat="44.72549" lon="7.00731">
        <ele>1969.88</ele>
        <time>2016-09-02T08:09:49Z</time>
      </trkpt>
      <trkpt lat="44.72535" lon="7.00751">
        <ele>1969.88</ele>
        <time>2016-09-02T08:10:06Z</time>
      </trkpt>
      <trkpt lat="44.72524" lon="7.0077">
        <ele>1970.36</ele>
        <time>2016-09-02T08:10:21Z</time>
      </trkpt>
      <trkpt lat="44.72517" lon="7.0078">
        <ele>1970.84</ele>
        <time>2016-09-02T08:10:29Z</time>
      </trkpt>
      <trkpt lat="44.72515" lon="7.00781">
        <ele>1970.84</ele>
        <time>2016-09-02T08:10:31Z</time>
      </trkpt>
      <trkpt lat="44.72499" lon="7.00787">
        <ele>1972.28</ele>
        <time>2016-09-02T08:10:45Z</time>
      </trkpt>
      <trkpt lat="44.72496" lon="7.00788">
        <ele>1972.76</ele>
        <time>2016-09-02T08:10:47Z</time>
      </trkpt>
      <trkpt lat="44.72484" lon="7.00794">
        <ele>1973.24</ele>
        <time>2016-09-02T08:10:59Z</time>
      </trkpt>
      <trkpt lat="44.72483" lon="7.00812">
        <ele>1973.72</ele>
        <time>2016-09-02T08:11:12Z</time>
      </trkpt>
      <trkpt lat="44.72483" lon="7.00834">
        <ele>1974.2</ele>
        <time>2016-09-02T08:11:25Z</time>
      </trkpt>
      <trkpt lat="44.72484" lon="7.00865">
        <ele>1974.2</ele>
        <time>2016-09-02T08:11:43Z</time>
      </trkpt>
      <trkpt lat="44.72474" lon="7.00888">
        <ele>1974.2</ele>
        <time>2016-09-02T08:11:58Z</time>
      </trkpt>
      <trkpt lat="44.72462" lon="7.00902">
        <ele>1974.2</ele>
        <time>2016-09-02T08:12:11Z</time>
      </trkpt>
      <trkpt lat="44.7246" lon="7.00905">
        <ele>1974.2</ele>
        <time>2016-09-02T08:12:14Z</time>
      </trkpt>
      <trkpt lat="44.72454" lon="7.00914">
        <ele>1974.2</ele>
        <time>2016-09-02T08:12:21Z</time>
      </trkpt>
      <trkpt lat="44.72451" lon="7.0092">
        <ele>1974.69</ele>
        <time>2016-09-02T08:12:25Z</time>
      </trkpt>
      <trkpt lat="44.72443" lon="7.0094">
        <ele>1974.69</ele>
        <time>2016-09-02T08:12:40Z</time>
      </trkpt>
      <trkpt lat="44.72437" lon="7.00958">
        <ele>1974.69</ele>
        <time>2016-09-02T08:12:52Z</time>
      </trkpt>
      <trkpt lat="44.72434" lon="7.00963">
        <ele>1974.69</ele>
        <time>2016-09-02T08:12:56Z</time>
      </trkpt>
      <trkpt lat="44.72423" lon="7.00988">
        <ele>1974.69</ele>
        <time>2016-09-02T08:13:13Z</time>
      </trkpt>
      <trkpt lat="44.72414" lon="7.01009">
        <ele>1974.69</ele>
        <time>2016-09-02T08:13:28Z</time>
      </trkpt>
      <trkpt lat="44.72405" lon="7.01032">
        <ele>1975.17</ele>
        <time>2016-09-02T08:13:44Z</time>
      </trkpt>
      <trkpt lat="44.72397" lon="7.01054">
        <ele>1975.17</ele>
        <time>2016-09-02T08:14:00Z</time>
      </trkpt>
      <trkpt lat="44.7239" lon="7.01078">
        <ele>1975.65</ele>
        <time>2016-09-02T08:14:15Z</time>
      </trkpt>
      <trkpt lat="44.72381" lon="7.01099">
        <ele>1975.65</ele>
        <time>2016-09-02T08:14:30Z</time>
      </trkpt>
      <trkpt lat="44.72375" lon="7.01114">
        <ele>1975.65</ele>
        <time>2016-09-02T08:14:40Z</time>
      </trkpt>
      <trkpt lat="44.72374" lon="7.01121">
        <ele>1975.65</ele>
        <time>2016-09-02T08:14:44Z</time>
      </trkpt>
      <trkpt lat="44.72369" lon="7.0114">
        <ele>1976.61</ele>
        <time>2016-09-02T08:14:58Z</time>
      </trkpt>
      <trkpt lat="44.72365" lon="7.01155">
        <ele>1976.61</ele>
        <time>2016-09-02T08:15:09Z</time>
      </trkpt>
      <trkpt lat="44.72363" lon="7.01158">
        <ele>1976.61</ele>
        <time>2016-09-02T08:15:11Z</time>
      </trkpt>
      <trkpt lat="44.72357" lon="7.01167">
        <ele>1978.05</ele>
        <time>2016-09-02T08:15:18Z</time>
      </trkpt>
      <trkpt lat="44.72345" lon="7.01175">
        <ele>1978.53</ele>
        <time>2016-09-02T08:15:30Z</time>
      </trkpt>
      <trkpt lat="44.72344" lon="7.01177">
        <ele>1978.53</ele>
        <time>2016-09-02T08:15:32Z</time>
      </trkpt>
      <trkpt lat="44.72329" lon="7.0119">
        <ele>1979.01</ele>
        <time>2016-09-02T08:15:48Z</time>
      </trkpt>
      <trkpt lat="44.7232" lon="7.01198">
        <ele>1979.01</ele>
        <time>2016-09-02T08:15:57Z</time>
      </trkpt>
      <trkpt lat="44.72304" lon="7.01213">
        <ele>1979.49</ele>
        <time>2016-09-02T08:16:13Z</time>
      </trkpt>
      <trkpt lat="44.72289" lon="7.01229">
        <ele>1979.97</ele>
        <time>2016-09-02T08:16:30Z</time>
      </trkpt>
      <trkpt lat="44.72286" lon="7.01231">
        <ele>1980.45</ele>
        <time>2016-09-02T08:16:33Z</time>
      </trkpt>
      <trkpt lat="44.72274" lon="7.01245">
        <ele>1979.97</ele>
        <time>2016-09-02T08:16:47Z</time>
      </trkpt>
      <trkpt lat="44.72258" lon="7.01261">
        <ele>1981.41</ele>
        <time>2016-09-02T08:17:03Z</time>
      </trkpt>
      <trkpt lat="44.72245" lon="7.01272">
        <ele>1981.9</ele>
        <time>2016-09-02T08:17:16Z</time>
      </trkpt>
      <trkpt lat="44.72234" lon="7.01281">
        <ele>1983.34</ele>
        <time>2016-09-02T08:17:28Z</time>
      </trkpt>
      <trkpt lat="44.72221" lon="7.01293">
        <ele>1984.3</ele>
        <time>2016-09-02T08:17:43Z</time>
      </trkpt>
      <trkpt lat="44.72207" lon="7.01302">
        <ele>1985.74</ele>
        <time>2016-09-02T08:17:57Z</time>
      </trkpt>
      <trkpt lat="44.72188" lon="7.01311">
        <ele>1985.74</ele>
        <time>2016-09-02T08:18:13Z</time>
      </trkpt>
      <trkpt lat="44.72174" lon="7.01317">
        <ele>1987.18</ele>
        <time>2016-09-02T08:18:26Z</time>
      </trkpt>
      <trkpt lat="44.72168" lon="7.01323">
        <ele>1987.18</ele>
        <time>2016-09-02T08:18:33Z</time>
      </trkpt>
      <trkpt lat="44.72151" lon="7.01341">
        <ele>1987.66</ele>
        <time>2016-09-02T08:18:49Z</time>
      </trkpt>
      <trkpt lat="44.72138" lon="7.01355">
        <ele>1987.66</ele>
        <time>2016-09-02T08:19:03Z</time>
      </trkpt>
      <trkpt lat="44.72126" lon="7.01365">
        <ele>1988.14</ele>
        <time>2016-09-02T08:19:16Z</time>
      </trkpt>
      <trkpt lat="44.72111" lon="7.01376">
        <ele>1988.62</ele>
        <time>2016-09-02T08:19:30Z</time>
      </trkpt>
      <trkpt lat="44.72109" lon="7.01377">
        <ele>1988.62</ele>
        <time>2016-09-02T08:19:32Z</time>
      </trkpt>
      <trkpt lat="44.72089" lon="7.01389">
        <ele>1989.1</ele>
        <time>2016-09-02T08:19:50Z</time>
      </trkpt>
      <trkpt lat="44.72069" lon="7.01405">
        <ele>1988.62</ele>
        <time>2016-09-02T08:20:08Z</time>
      </trkpt>
      <trkpt lat="44.72053" lon="7.0142">
        <ele>1987.66</ele>
        <time>2016-09-02T08:20:23Z</time>
      </trkpt>
      <trkpt lat="44.72037" lon="7.01436">
        <ele>1985.74</ele>
        <time>2016-09-02T08:20:38Z</time>
      </trkpt>
      <trkpt lat="44.72022" lon="7.01444">
        <ele>1985.26</ele>
        <time>2016-09-02T08:20:51Z</time>
      </trkpt>
      <trkpt lat="44.7202" lon="7.01445">
        <ele>1985.26</ele>
        <time>2016-09-02T08:20:53Z</time>
      </trkpt>
      <trkpt lat="44.72008" lon="7.01448">
        <ele>1984.78</ele>
        <time>2016-09-02T08:21:02Z</time>
      </trkpt>
      <trkpt lat="44.71992" lon="7.01458">
        <ele>1984.78</ele>
        <time>2016-09-02T08:21:16Z</time>
      </trkpt>
      <trkpt lat="44.71973" lon="7.01466">
        <ele>1984.78</ele>
        <time>2016-09-02T08:21:32Z</time>
      </trkpt>
      <trkpt lat="44.71961" lon="7.01475">
        <ele>1984.78</ele>
        <time>2016-09-02T08:21:43Z</time>
      </trkpt>
      <trkpt lat="44.71947" lon="7.01491">
        <ele>1984.78</ele>
        <time>2016-09-02T08:21:59Z</time>
      </trkpt>
      <trkpt lat="44.71938" lon="7.01504">
        <ele>1986.22</ele>
        <time>2016-09-02T08:22:11Z</time>
      </trkpt>
      <trkpt lat="44.71933" lon="7.01512">
        <ele>1986.7</ele>
        <time>2016-09-02T08:22:17Z</time>
      </trkpt>
      <trkpt lat="44.71925" lon="7.01522">
        <ele>1987.66</ele>
        <time>2016-09-02T08:22:26Z</time>
      </trkpt>
      <trkpt lat="44.71917" lon="7.01538">
        <ele>1989.1</ele>
        <time>2016-09-02T08:22:40Z</time>
      </trkpt>
      <trkpt lat="44.71914" lon="7.01544">
        <ele>1989.59</ele>
        <time>2016-09-02T08:22:48Z</time>
      </trkpt>
      <trkpt lat="44.71908" lon="7.0155">
        <ele>1989.59</ele>
        <time>2016-09-02T08:22:58Z</time>
      </trkpt>
      <trkpt lat="44.71908" lon="7.01554">
        <ele>1990.55</ele>
        <time>2016-09-02T08:23:26Z</time>
      </trkpt>
      <trkpt lat="44.71906" lon="7.01557">
        <ele>1990.55</ele>
        <time>2016-09-02T08:23:29Z</time>
      </trkpt>
      <trkpt lat="44.71901" lon="7.01566">
        <ele>1991.03</ele>
        <time>2016-09-02T08:23:36Z</time>
      </trkpt>
      <trkpt lat="44.71896" lon="7.01569">
        <ele>1991.51</ele>
        <time>2016-09-02T08:23:41Z</time>
      </trkpt>
      <trkpt lat="44.71894" lon="7.01571">
        <ele>1991.99</ele>
        <time>2016-09-02T08:23:44Z</time>
      </trkpt>
      <trkpt lat="44.71892" lon="7.01574">
        <ele>1991.99</ele>
        <time>2016-09-02T08:23:46Z</time>
      </trkpt>
      <trkpt lat="44.71879" lon="7.0159">
        <ele>1993.43</ele>
        <time>2016-09-02T08:24:02Z</time>
      </trkpt>
      <trkpt lat="44.71873" lon="7.01596">
        <ele>1993.91</ele>
        <time>2016-09-02T08:24:08Z</time>
      </trkpt>
      <trkpt lat="44.71867" lon="7.01598">
        <ele>1993.91</ele>
        <time>2016-09-02T08:24:13Z</time>
      </trkpt>
      <trkpt lat="44.71852" lon="7.01612">
        <ele>1994.87</ele>
        <time>2016-09-02T08:24:28Z</time>
      </trkpt>
      <trkpt lat="44.71841" lon="7.01621">
        <ele>1996.32</ele>
        <time>2016-09-02T08:24:38Z</time>
      </trkpt>
      <trkpt lat="44.71839" lon="7.01622">
        <ele>1996.8</ele>
        <time>2016-09-02T08:24:40Z</time>
      </trkpt>
      <trkpt lat="44.71827" lon="7.01639">
        <ele>1998.24</ele>
        <time>2016-09-02T08:24:56Z</time>
      </trkpt>
      <trkpt lat="44.71817" lon="7.01655">
        <ele>1999.2</ele>
        <time>2016-09-02T08:25:11Z</time>
      </trkpt>
      <trkpt lat="44.71807" lon="7.01672">
        <ele>2000.64</ele>
        <time>2016-09-02T08:25:25Z</time>
      </trkpt>
      <trkpt lat="44.71796" lon="7.0169">
        <ele>2002.08</ele>
        <time>2016-09-02T08:25:40Z</time>
      </trkpt>
      <trkpt lat="44.71784" lon="7.01702">
        <ele>2004.01</ele>
        <time>2016-09-02T08:25:55Z</time>
      </trkpt>
      <trkpt lat="44.71771" lon="7.01713">
        <ele>2004.49</ele>
        <time>2016-09-02T08:26:08Z</time>
      </trkpt>
      <trkpt lat="44.71763" lon="7.01719">
        <ele>2004.97</ele>
        <time>2016-09-02T08:26:16Z</time>
      </trkpt>
      <trkpt lat="44.71749" lon="7.01736">
        <ele>2006.41</ele>
        <time>2016-09-02T08:26:30Z</time>
      </trkpt>
      <trkpt lat="44.71748" lon="7.01739">
        <ele>2006.41</ele>
        <time>2016-09-02T08:26:32Z</time>
      </trkpt>
      <trkpt lat="44.71736" lon="7.01755">
        <ele>2006.89</ele>
        <time>2016-09-02T08:26:46Z</time>
      </trkpt>
      <trkpt lat="44.71727" lon="7.01767">
        <ele>2007.37</ele>
        <time>2016-09-02T08:26:57Z</time>
      </trkpt>
      <trkpt lat="44.71714" lon="7.01779">
        <ele>2007.85</ele>
        <time>2016-09-02T08:27:10Z</time>
      </trkpt>
      <trkpt lat="44.71698" lon="7.018">
        <ele>2008.81</ele>
        <time>2016-09-02T08:27:26Z</time>
      </trkpt>
      <trkpt lat="44.7169" lon="7.0183">
        <ele>2009.29</ele>
        <time>2016-09-02T08:27:44Z</time>
      </trkpt>
      <trkpt lat="44.71681" lon="7.01858">
        <ele>2009.29</ele>
        <time>2016-09-02T08:28:01Z</time>
      </trkpt>
      <trkpt lat="44.71671" lon="7.01876">
        <ele>2009.77</ele>
        <time>2016-09-02T08:28:15Z</time>
      </trkpt>
      <trkpt lat="44.71659" lon="7.01899">
        <ele>2009.77</ele>
        <time>2016-09-02T08:28:30Z</time>
      </trkpt>
      <trkpt lat="44.71646" lon="7.01925">
        <ele>2010.25</ele>
        <time>2016-09-02T08:28:48Z</time>
      </trkpt>
      <trkpt lat="44.71632" lon="7.01948">
        <ele>2010.25</ele>
        <time>2016-09-02T08:29:05Z</time>
      </trkpt>
      <trkpt lat="44.71618" lon="7.0197">
        <ele>2010.25</ele>
        <time>2016-09-02T08:29:22Z</time>
      </trkpt>
      <trkpt lat="44.71614" lon="7.01975">
        <ele>2010.25</ele>
        <time>2016-09-02T08:29:26Z</time>
      </trkpt>
      <trkpt lat="44.7161" lon="7.0198">
        <ele>2010.25</ele>
        <time>2016-09-02T08:29:30Z</time>
      </trkpt>
      <trkpt lat="44.71601" lon="7.02002">
        <ele>2010.25</ele>
        <time>2016-09-02T08:29:45Z</time>
      </trkpt>
      <trkpt lat="44.71601" lon="7.02004">
        <ele>2010.25</ele>
        <time>2016-09-02T08:29:46Z</time>
      </trkpt>
      <trkpt lat="44.71598" lon="7.02017">
        <ele>2010.25</ele>
        <time>2016-09-02T08:29:53Z</time>
      </trkpt>
      <trkpt lat="44.71589" lon="7.02037">
        <ele>2010.25</ele>
        <time>2016-09-02T08:30:06Z</time>
      </trkpt>
      <trkpt lat="44.71573" lon="7.0206">
        <ele>2010.73</ele>
        <time>2016-09-02T08:30:23Z</time>
      </trkpt>
      <trkpt lat="44.71553" lon="7.02071">
        <ele>2010.73</ele>
        <time>2016-09-02T08:30:40Z</time>
      </trkpt>
      <trkpt lat="44.71549" lon="7.02072">
        <ele>2009.29</ele>
        <time>2016-09-02T08:30:43Z</time>
      </trkpt>
      <trkpt lat="44.7153" lon="7.02082">
        <ele>2008.33</ele>
        <time>2016-09-02T08:30:59Z</time>
      </trkpt>
      <trkpt lat="44.71525" lon="7.02084">
        <ele>2007.85</ele>
        <time>2016-09-02T08:31:03Z</time>
      </trkpt>
      <trkpt lat="44.71521" lon="7.02087">
        <ele>2007.85</ele>
        <time>2016-09-02T08:31:07Z</time>
      </trkpt>
      <trkpt lat="44.715" lon="7.02096">
        <ele>2007.85</ele>
        <time>2016-09-02T08:31:25Z</time>
      </trkpt>
      <trkpt lat="44.71488" lon="7.02112">
        <ele>2008.81</ele>
        <time>2016-09-02T08:31:39Z</time>
      </trkpt>
      <trkpt lat="44.7148" lon="7.02124">
        <ele>2008.81</ele>
        <time>2016-09-02T08:31:48Z</time>
      </trkpt>
      <trkpt lat="44.71469" lon="7.0214">
        <ele>2009.29</ele>
        <time>2016-09-02T08:32:01Z</time>
      </trkpt>
      <trkpt lat="44.71466" lon="7.02144">
        <ele>2009.29</ele>
        <time>2016-09-02T08:32:04Z</time>
      </trkpt>
      <trkpt lat="44.71452" lon="7.02158">
        <ele>2009.77</ele>
        <time>2016-09-02T08:32:17Z</time>
      </trkpt>
      <trkpt lat="44.71437" lon="7.02168">
        <ele>2010.25</ele>
        <time>2016-09-02T08:32:33Z</time>
      </trkpt>
      <trkpt lat="44.71434" lon="7.0217">
        <ele>2010.73</ele>
        <time>2016-09-02T08:32:36Z</time>
      </trkpt>
      <trkpt lat="44.71432" lon="7.02171">
        <ele>2010.73</ele>
        <time>2016-09-02T08:32:38Z</time>
      </trkpt>
      <trkpt lat="44.71419" lon="7.0218">
        <ele>2011.7</ele>
        <time>2016-09-02T08:32:51Z</time>
      </trkpt>
      <trkpt lat="44.71403" lon="7.02186">
        <ele>2012.66</ele>
        <time>2016-09-02T08:33:06Z</time>
      </trkpt>
      <trkpt lat="44.71383" lon="7.0219">
        <ele>2013.62</ele>
        <time>2016-09-02T08:33:22Z</time>
      </trkpt>
      <trkpt lat="44.71365" lon="7.02195">
        <ele>2013.62</ele>
        <time>2016-09-02T08:33:37Z</time>
      </trkpt>
      <trkpt lat="44.71346" lon="7.02195">
        <ele>2014.58</ele>
        <time>2016-09-02T08:33:52Z</time>
      </trkpt>
      <trkpt lat="44.71327" lon="7.02195">
        <ele>2015.06</ele>
        <time>2016-09-02T08:34:07Z</time>
      </trkpt>
      <trkpt lat="44.71307" lon="7.02203">
        <ele>2015.54</ele>
        <time>2016-09-02T08:34:23Z</time>
      </trkpt>
      <trkpt lat="44.71291" lon="7.02226">
        <ele>2016.02</ele>
        <time>2016-09-02T08:34:40Z</time>
      </trkpt>
      <trkpt lat="44.71279" lon="7.02256">
        <ele>2016.02</ele>
        <time>2016-09-02T08:34:55Z</time>
      </trkpt>
      <trkpt lat="44.71276" lon="7.02263">
        <ele>2015.06</ele>
        <time>2016-09-02T08:35:00Z</time>
      </trkpt>
      <trkpt lat="44.71267" lon="7.02287">
        <ele>2015.06</ele>
        <time>2016-09-02T08:35:14Z</time>
      </trkpt>
      <trkpt lat="44.71254" lon="7.02316">
        <ele>2015.06</ele>
        <time>2016-09-02T08:35:32Z</time>
      </trkpt>
      <trkpt lat="44.71241" lon="7.02343">
        <ele>2016.98</ele>
        <time>2016-09-02T08:35:49Z</time>
      </trkpt>
      <trkpt lat="44.71228" lon="7.02366">
        <ele>2017.46</ele>
        <time>2016-09-02T08:36:05Z</time>
      </trkpt>
      <trkpt lat="44.71218" lon="7.02387">
        <ele>2017.94</ele>
        <time>2016-09-02T08:36:20Z</time>
      </trkpt>
      <trkpt lat="44.71207" lon="7.02414">
        <ele>2018.91</ele>
        <time>2016-09-02T08:36:38Z</time>
      </trkpt>
      <trkpt lat="44.712" lon="7.0244">
        <ele>2019.87</ele>
        <time>2016-09-02T08:36:54Z</time>
      </trkpt>
      <trkpt lat="44.71196" lon="7.02466">
        <ele>2020.83</ele>
        <time>2016-09-02T08:37:09Z</time>
      </trkpt>
      <trkpt lat="44.71188" lon="7.02491">
        <ele>2021.31</ele>
        <time>2016-09-02T08:37:24Z</time>
      </trkpt>
      <trkpt lat="44.71174" lon="7.02513">
        <ele>2022.27</ele>
        <time>2016-09-02T08:37:40Z</time>
      </trkpt>
      <trkpt lat="44.71163" lon="7.02538">
        <ele>2024.19</ele>
        <time>2016-09-02T08:37:56Z</time>
      </trkpt>
      <trkpt lat="44.71149" lon="7.02549">
        <ele>2026.12</ele>
        <time>2016-09-02T08:38:10Z</time>
      </trkpt>
      <trkpt lat="44.71137" lon="7.02557">
        <ele>2027.08</ele>
        <time>2016-09-02T08:38:21Z</time>
      </trkpt>
      <trkpt lat="44.71124" lon="7.02563">
        <ele>2027.56</ele>
        <time>2016-09-02T08:38:32Z</time>
      </trkpt>
      <trkpt lat="44.71113" lon="7.0258">
        <ele>2029</ele>
        <time>2016-09-02T08:38:47Z</time>
      </trkpt>
      <trkpt lat="44.71108" lon="7.02587">
        <ele>2030.92</ele>
        <time>2016-09-02T08:38:56Z</time>
      </trkpt>
      <trkpt lat="44.71104" lon="7.02592">
        <ele>2031.4</ele>
        <time>2016-09-02T08:39:01Z</time>
      </trkpt>
      <trkpt lat="44.71098" lon="7.02594">
        <ele>2033.33</ele>
        <time>2016-09-02T08:39:19Z</time>
      </trkpt>
      <trkpt lat="44.71095" lon="7.02595">
        <ele>2033.33</ele>
        <time>2016-09-02T08:39:52Z</time>
      </trkpt>
      <trkpt lat="44.71098" lon="7.02599">
        <ele>2033.33</ele>
        <time>2016-09-02T08:40:17Z</time>
      </trkpt>
      <trkpt lat="44.71096" lon="7.02606">
        <ele>2035.25</ele>
        <time>2016-09-02T08:40:32Z</time>
      </trkpt>
      <trkpt lat="44.7109" lon="7.02611">
        <ele>2037.65</ele>
        <time>2016-09-02T08:40:46Z</time>
      </trkpt>
      <trkpt lat="44.71081" lon="7.0261">
        <ele>2041.02</ele>
        <time>2016-09-02T08:41:01Z</time>
      </trkpt>
      <trkpt lat="44.71075" lon="7.02614">
        <ele>2042.94</ele>
        <time>2016-09-02T08:41:14Z</time>
      </trkpt>
      <trkpt lat="44.71075" lon="7.02614">
        <ele>2043.42</ele>
        <time>2016-09-02T08:41:15Z</time>
      </trkpt>
      <trkpt lat="44.71067" lon="7.02619">
        <ele>2045.34</ele>
        <time>2016-09-02T08:41:28Z</time>
      </trkpt>
      <trkpt lat="44.71061" lon="7.02631">
        <ele>2048.23</ele>
        <time>2016-09-02T08:41:44Z</time>
      </trkpt>
      <trkpt lat="44.7106" lon="7.02636">
        <ele>2049.19</ele>
        <time>2016-09-02T08:41:48Z</time>
      </trkpt>
      <trkpt lat="44.71048" lon="7.02651">
        <ele>2050.63</ele>
        <time>2016-09-02T08:42:04Z</time>
      </trkpt>
      <trkpt lat="44.71041" lon="7.02665">
        <ele>2053.03</ele>
        <time>2016-09-02T08:42:19Z</time>
      </trkpt>
      <trkpt lat="44.71038" lon="7.02675">
        <ele>2055.92</ele>
        <time>2016-09-02T08:42:32Z</time>
      </trkpt>
      <trkpt lat="44.71033" lon="7.02686">
        <ele>2057.84</ele>
        <time>2016-09-02T08:42:46Z</time>
      </trkpt>
      <trkpt lat="44.71026" lon="7.02698">
        <ele>2059.76</ele>
        <time>2016-09-02T08:42:59Z</time>
      </trkpt>
      <trkpt lat="44.71016" lon="7.02706">
        <ele>2058.32</ele>
        <time>2016-09-02T08:43:12Z</time>
      </trkpt>
      <trkpt lat="44.71005" lon="7.02722">
        <ele>2057.84</ele>
        <time>2016-09-02T08:43:27Z</time>
      </trkpt>
      <trkpt lat="44.71001" lon="7.02726">
        <ele>2057.84</ele>
        <time>2016-09-02T08:43:32Z</time>
      </trkpt>
      <trkpt lat="44.70989" lon="7.02743">
        <ele>2057.84</ele>
        <time>2016-09-02T08:43:49Z</time>
      </trkpt>
      <trkpt lat="44.70982" lon="7.02761">
        <ele>2060.24</ele>
        <time>2016-09-02T08:44:03Z</time>
      </trkpt>
      <trkpt lat="44.70975" lon="7.02778">
        <ele>2061.2</ele>
        <time>2016-09-02T08:44:16Z</time>
      </trkpt>
      <trkpt lat="44.70973" lon="7.0278">
        <ele>2061.2</ele>
        <time>2016-09-02T08:44:18Z</time>
      </trkpt>
      <trkpt lat="44.70958" lon="7.02799">
        <ele>2061.68</ele>
        <time>2016-09-02T08:44:34Z</time>
      </trkpt>
      <trkpt lat="44.70957" lon="7.028">
        <ele>2061.68</ele>
        <time>2016-09-02T08:44:35Z</time>
      </trkpt>
      <trkpt lat="44.70949" lon="7.02807">
        <ele>2060.24</ele>
        <time>2016-09-02T08:44:45Z</time>
      </trkpt>
      <trkpt lat="44.7094" lon="7.0282">
        <ele>2060.24</ele>
        <time>2016-09-02T08:44:57Z</time>
      </trkpt>
      <trkpt lat="44.70937" lon="7.02828">
        <ele>2061.2</ele>
        <time>2016-09-02T08:45:03Z</time>
      </trkpt>
      <trkpt lat="44.7093" lon="7.02845">
        <ele>2062.65</ele>
        <time>2016-09-02T08:45:16Z</time>
      </trkpt>
      <trkpt lat="44.70925" lon="7.02857">
        <ele>2065.53</ele>
        <time>2016-09-02T08:45:31Z</time>
      </trkpt>
      <trkpt lat="44.70921" lon="7.02869">
        <ele>2067.45</ele>
        <time>2016-09-02T08:45:45Z</time>
      </trkpt>
      <trkpt lat="44.70923" lon="7.02874">
        <ele>2070.34</ele>
        <time>2016-09-02T08:46:00Z</time>
      </trkpt>
      <trkpt lat="44.70919" lon="7.02877">
        <ele>2072.26</ele>
        <time>2016-09-02T08:46:11Z</time>
      </trkpt>
      <trkpt lat="44.70916" lon="7.02883">
        <ele>2074.66</ele>
        <time>2016-09-02T08:46:24Z</time>
      </trkpt>
      <trkpt lat="44.70916" lon="7.02889">
        <ele>2077.55</ele>
        <time>2016-09-02T08:46:37Z</time>
      </trkpt>
      <trkpt lat="44.70913" lon="7.02898">
        <ele>2079.95</ele>
        <time>2016-09-02T08:46:49Z</time>
      </trkpt>
      <trkpt lat="44.70913" lon="7.02901">
        <ele>2081.87</ele>
        <time>2016-09-02T08:47:00Z</time>
      </trkpt>
      <trkpt lat="44.70919" lon="7.02898">
        <ele>2084.28</ele>
        <time>2016-09-02T08:47:12Z</time>
      </trkpt>
      <trkpt lat="44.70916" lon="7.02908">
        <ele>2086.2</ele>
        <time>2016-09-02T08:47:24Z</time>
      </trkpt>
      <trkpt lat="44.70913" lon="7.02917">
        <ele>2088.6</ele>
        <time>2016-09-02T08:47:36Z</time>
      </trkpt>
      <trkpt lat="44.70911" lon="7.02928">
        <ele>2091.49</ele>
        <time>2016-09-02T08:47:50Z</time>
      </trkpt>
      <trkpt lat="44.70909" lon="7.02938">
        <ele>2093.89</ele>
        <time>2016-09-02T08:48:03Z</time>
      </trkpt>
      <trkpt lat="44.70906" lon="7.02949">
        <ele>2094.37</ele>
        <time>2016-09-02T08:48:12Z</time>
      </trkpt>
      <trkpt lat="44.70905" lon="7.02959">
        <ele>2095.81</ele>
        <time>2016-09-02T08:48:20Z</time>
      </trkpt>
      <trkpt lat="44.709" lon="7.02972">
        <ele>2097.25</ele>
        <time>2016-09-02T08:48:32Z</time>
      </trkpt>
      <trkpt lat="44.70895" lon="7.02986">
        <ele>2099.66</ele>
        <time>2016-09-02T08:48:46Z</time>
      </trkpt>
      <trkpt lat="44.70895" lon="7.02988">
        <ele>2099.66</ele>
        <time>2016-09-02T08:48:48Z</time>
      </trkpt>
      <trkpt lat="44.70892" lon="7.03004">
        <ele>2103.02</ele>
        <time>2016-09-02T08:49:03Z</time>
      </trkpt>
      <trkpt lat="44.70892" lon="7.03007">
        <ele>2103.5</ele>
        <time>2016-09-02T08:49:06Z</time>
      </trkpt>
      <trkpt lat="44.70888" lon="7.03022">
        <ele>2104.94</ele>
        <time>2016-09-02T08:49:20Z</time>
      </trkpt>
      <trkpt lat="44.70888" lon="7.03035">
        <ele>2107.83</ele>
        <time>2016-09-02T08:49:33Z</time>
      </trkpt>
      <trkpt lat="44.70886" lon="7.03046">
        <ele>2110.23</ele>
        <time>2016-09-02T08:49:46Z</time>
      </trkpt>
      <trkpt lat="44.70884" lon="7.03057">
        <ele>2112.63</ele>
        <time>2016-09-02T08:49:58Z</time>
      </trkpt>
      <trkpt lat="44.70883" lon="7.03066">
        <ele>2115.52</ele>
        <time>2016-09-02T08:50:11Z</time>
      </trkpt>
      <trkpt lat="44.70884" lon="7.03072">
        <ele>2118.4</ele>
        <time>2016-09-02T08:50:22Z</time>
      </trkpt>
      <trkpt lat="44.70885" lon="7.03082">
        <ele>2120.81</ele>
        <time>2016-09-02T08:50:34Z</time>
      </trkpt>
      <trkpt lat="44.70886" lon="7.03093">
        <ele>2123.21</ele>
        <time>2016-09-02T08:50:47Z</time>
      </trkpt>
      <trkpt lat="44.70886" lon="7.03096">
        <ele>2123.21</ele>
        <time>2016-09-02T08:50:49Z</time>
      </trkpt>
      <trkpt lat="44.70891" lon="7.03107">
        <ele>2126.57</ele>
        <time>2016-09-02T08:51:04Z</time>
      </trkpt>
      <trkpt lat="44.70891" lon="7.03122">
        <ele>2128.98</ele>
        <time>2016-09-02T08:51:18Z</time>
      </trkpt>
      <trkpt lat="44.70891" lon="7.03134">
        <ele>2131.86</ele>
        <time>2016-09-02T08:51:31Z</time>
      </trkpt>
      <trkpt lat="44.70894" lon="7.03143">
        <ele>2134.74</ele>
        <time>2016-09-02T08:51:44Z</time>
      </trkpt>
      <trkpt lat="44.70896" lon="7.03142">
        <ele>2135.71</ele>
        <time>2016-09-02T08:51:57Z</time>
      </trkpt>
      <trkpt lat="44.70895" lon="7.03143">
        <ele>2134.74</ele>
        <time>2016-09-02T08:52:11Z</time>
      </trkpt>
      <trkpt lat="44.70894" lon="7.0314">
        <ele>2134.74</ele>
        <time>2016-09-02T08:52:28Z</time>
      </trkpt>
      <trkpt lat="44.70896" lon="7.03142">
        <ele>2136.19</ele>
        <time>2016-09-02T08:52:44Z</time>
      </trkpt>
      <trkpt lat="44.70897" lon="7.03146">
        <ele>2136.19</ele>
        <time>2016-09-02T08:52:51Z</time>
      </trkpt>
      <trkpt lat="44.70901" lon="7.03147">
        <ele>2136.67</ele>
        <time>2016-09-02T08:53:02Z</time>
      </trkpt>
      <trkpt lat="44.70904" lon="7.03146">
        <ele>2136.67</ele>
        <time>2016-09-02T08:53:05Z</time>
      </trkpt>
      <trkpt lat="44.70917" lon="7.03145">
        <ele>2136.67</ele>
        <time>2016-09-02T08:53:22Z</time>
      </trkpt>
      <trkpt lat="44.7092" lon="7.03157">
        <ele>2139.55</ele>
        <time>2016-09-02T08:53:35Z</time>
      </trkpt>
      <trkpt lat="44.7092" lon="7.03167">
        <ele>2141.95</ele>
        <time>2016-09-02T08:53:47Z</time>
      </trkpt>
      <trkpt lat="44.70919" lon="7.03179">
        <ele>2144.84</ele>
        <time>2016-09-02T08:54:01Z</time>
      </trkpt>
      <trkpt lat="44.70911" lon="7.03191">
        <ele>2146.76</ele>
        <time>2016-09-02T08:54:15Z</time>
      </trkpt>
      <trkpt lat="44.70902" lon="7.03207">
        <ele>2148.68</ele>
        <time>2016-09-02T08:54:31Z</time>
      </trkpt>
      <trkpt lat="44.70898" lon="7.03222">
        <ele>2151.09</ele>
        <time>2016-09-02T08:54:45Z</time>
      </trkpt>
      <trkpt lat="44.70894" lon="7.03232">
        <ele>2153.49</ele>
        <time>2016-09-02T08:54:58Z</time>
      </trkpt>
      <trkpt lat="44.70904" lon="7.03232">
        <ele>2155.41</ele>
        <time>2016-09-02T08:55:12Z</time>
      </trkpt>
      <trkpt lat="44.70914" lon="7.03237">
        <ele>2157.82</ele>
        <time>2016-09-02T08:55:28Z</time>
      </trkpt>
      <trkpt lat="44.70907" lon="7.03251">
        <ele>2160.22</ele>
        <time>2016-09-02T08:55:42Z</time>
      </trkpt>
      <trkpt lat="44.70899" lon="7.03266">
        <ele>2162.14</ele>
        <time>2016-09-02T08:55:57Z</time>
      </trkpt>
      <trkpt lat="44.70896" lon="7.03278">
        <ele>2164.06</ele>
        <time>2016-09-02T08:56:08Z</time>
      </trkpt>
      <trkpt lat="44.70892" lon="7.0329">
        <ele>2165.51</ele>
        <time>2016-09-02T08:56:22Z</time>
      </trkpt>
      <trkpt lat="44.7089" lon="7.03293">
        <ele>2165.51</ele>
        <time>2016-09-02T08:56:24Z</time>
      </trkpt>
      <trkpt lat="44.70892" lon="7.03298">
        <ele>2166.95</ele>
        <time>2016-09-02T08:56:37Z</time>
      </trkpt>
      <trkpt lat="44.70897" lon="7.03304">
        <ele>2169.83</ele>
        <time>2016-09-02T08:56:50Z</time>
      </trkpt>
      <trkpt lat="44.70896" lon="7.03317">
        <ele>2171.76</ele>
        <time>2016-09-02T08:57:03Z</time>
      </trkpt>
      <trkpt lat="44.70898" lon="7.03325">
        <ele>2174.64</ele>
        <time>2016-09-02T08:57:15Z</time>
      </trkpt>
      <trkpt lat="44.709" lon="7.03335">
        <ele>2177.04</ele>
        <time>2016-09-02T08:57:27Z</time>
      </trkpt>
      <trkpt lat="44.70902" lon="7.03351">
        <ele>2179.93</ele>
        <time>2016-09-02T08:57:42Z</time>
      </trkpt>
      <trkpt lat="44.70904" lon="7.03364">
        <ele>2180.41</ele>
        <time>2016-09-02T08:57:52Z</time>
      </trkpt>
      <trkpt lat="44.70905" lon="7.03367">
        <ele>2180.41</ele>
        <time>2016-09-02T08:57:54Z</time>
      </trkpt>
      <trkpt lat="44.70906" lon="7.03389">
        <ele>2183.29</ele>
        <time>2016-09-02T08:58:10Z</time>
      </trkpt>
      <trkpt lat="44.70907" lon="7.03412">
        <ele>2184.25</ele>
        <time>2016-09-02T08:58:25Z</time>
      </trkpt>
      <trkpt lat="44.70907" lon="7.03415">
        <ele>2184.25</ele>
        <time>2016-09-02T08:58:27Z</time>
      </trkpt>
      <trkpt lat="44.70904" lon="7.03438">
        <ele>2185.21</ele>
        <time>2016-09-02T08:58:42Z</time>
      </trkpt>
      <trkpt lat="44.709" lon="7.03462">
        <ele>2185.69</ele>
        <time>2016-09-02T08:58:56Z</time>
      </trkpt>
      <trkpt lat="44.70896" lon="7.03483">
        <ele>2187.14</ele>
        <time>2016-09-02T08:59:11Z</time>
      </trkpt>
      <trkpt lat="44.70892" lon="7.03491">
        <ele>2188.58</ele>
        <time>2016-09-02T08:59:18Z</time>
      </trkpt>
      <trkpt lat="44.70884" lon="7.03506">
        <ele>2190.98</ele>
        <time>2016-09-02T08:59:32Z</time>
      </trkpt>
      <trkpt lat="44.70878" lon="7.03519">
        <ele>2192.9</ele>
        <time>2016-09-02T08:59:45Z</time>
      </trkpt>
      <trkpt lat="44.70877" lon="7.03524">
        <ele>2193.87</ele>
        <time>2016-09-02T08:59:49Z</time>
      </trkpt>
      <trkpt lat="44.70876" lon="7.0353">
        <ele>2194.35</ele>
        <time>2016-09-02T08:59:53Z</time>
      </trkpt>
      <trkpt lat="44.70879" lon="7.03548">
        <ele>2196.27</ele>
        <time>2016-09-02T09:00:07Z</time>
      </trkpt>
      <trkpt lat="44.7088" lon="7.03559">
        <ele>2196.75</ele>
        <time>2016-09-02T09:00:15Z</time>
      </trkpt>
      <trkpt lat="44.70883" lon="7.03578">
        <ele>2198.67</ele>
        <time>2016-09-02T09:00:29Z</time>
      </trkpt>
      <trkpt lat="44.70882" lon="7.03583">
        <ele>2199.15</ele>
        <time>2016-09-02T09:00:32Z</time>
      </trkpt>
      <trkpt lat="44.7088" lon="7.03604">
        <ele>2201.08</ele>
        <time>2016-09-02T09:00:48Z</time>
      </trkpt>
      <trkpt lat="44.70877" lon="7.03624">
        <ele>2203</ele>
        <time>2016-09-02T09:01:04Z</time>
      </trkpt>
      <trkpt lat="44.70876" lon="7.03629">
        <ele>2203.96</ele>
        <time>2016-09-02T09:01:08Z</time>
      </trkpt>
      <trkpt lat="44.70874" lon="7.03643">
        <ele>2206.36</ele>
        <time>2016-09-02T09:01:23Z</time>
      </trkpt>
      <trkpt lat="44.70873" lon="7.03651">
        <ele>2208.77</ele>
        <time>2016-09-02T09:01:33Z</time>
      </trkpt>
      <trkpt lat="44.70873" lon="7.03661">
        <ele>2210.69</ele>
        <time>2016-09-02T09:01:45Z</time>
      </trkpt>
      <trkpt lat="44.70871" lon="7.03675">
        <ele>2213.09</ele>
        <time>2016-09-02T09:01:59Z</time>
      </trkpt>
      <trkpt lat="44.7087" lon="7.03691">
        <ele>2215.01</ele>
        <time>2016-09-02T09:02:13Z</time>
      </trkpt>
      <trkpt lat="44.7087" lon="7.03702">
        <ele>2217.9</ele>
        <time>2016-09-02T09:02:27Z</time>
      </trkpt>
      <trkpt lat="44.70872" lon="7.037">
        <ele>2218.38</ele>
        <time>2016-09-02T09:02:31Z</time>
      </trkpt>
      <trkpt lat="44.70875" lon="7.03696">
        <ele>2218.86</ele>
        <time>2016-09-02T09:02:36Z</time>
      </trkpt>
      <trkpt lat="44.70882" lon="7.03683">
        <ele>2220.78</ele>
        <time>2016-09-02T09:02:51Z</time>
      </trkpt>
      <trkpt lat="44.70884" lon="7.03679">
        <ele>2221.26</ele>
        <time>2016-09-02T09:02:56Z</time>
      </trkpt>
      <trkpt lat="44.70891" lon="7.0368">
        <ele>2223.67</ele>
        <time>2016-09-02T09:03:10Z</time>
      </trkpt>
      <trkpt lat="44.70891" lon="7.03689">
        <ele>2224.63</ele>
        <time>2016-09-02T09:03:19Z</time>
      </trkpt>
      <trkpt lat="44.70888" lon="7.03702">
        <ele>2226.07</ele>
        <time>2016-09-02T09:03:29Z</time>
      </trkpt>
      <trkpt lat="44.70887" lon="7.03707">
        <ele>2226.55</ele>
        <time>2016-09-02T09:03:32Z</time>
      </trkpt>
      <trkpt lat="44.70881" lon="7.03719">
        <ele>2228.47</ele>
        <time>2016-09-02T09:03:46Z</time>
      </trkpt>
      <trkpt lat="44.70874" lon="7.03732">
        <ele>2231.36</ele>
        <time>2016-09-02T09:04:01Z</time>
      </trkpt>
      <trkpt lat="44.70871" lon="7.03743">
        <ele>2233.28</ele>
        <time>2016-09-02T09:04:14Z</time>
      </trkpt>
      <trkpt lat="44.70866" lon="7.03751">
        <ele>2236.16</ele>
        <time>2016-09-02T09:04:28Z</time>
      </trkpt>
      <trkpt lat="44.70864" lon="7.0376">
        <ele>2238.57</ele>
        <time>2016-09-02T09:04:41Z</time>
      </trkpt>
      <trkpt lat="44.70856" lon="7.03769">
        <ele>2240.49</ele>
        <time>2016-09-02T09:04:54Z</time>
      </trkpt>
      <trkpt lat="44.70851" lon="7.03772">
        <ele>2241.45</ele>
        <time>2016-09-02T09:05:02Z</time>
      </trkpt>
      <trkpt lat="44.70852" lon="7.03794">
        <ele>2241.93</ele>
        <time>2016-09-02T09:05:18Z</time>
      </trkpt>
      <trkpt lat="44.70844" lon="7.03818">
        <ele>2241.93</ele>
        <time>2016-09-02T09:05:35Z</time>
      </trkpt>
      <trkpt lat="44.70843" lon="7.0382">
        <ele>2242.41</ele>
        <time>2016-09-02T09:05:37Z</time>
      </trkpt>
      <trkpt lat="44.70844" lon="7.03837">
        <ele>2242.41</ele>
        <time>2016-09-02T09:05:48Z</time>
      </trkpt>
      <trkpt lat="44.70835" lon="7.03856">
        <ele>2243.37</ele>
        <time>2016-09-02T09:06:03Z</time>
      </trkpt>
      <trkpt lat="44.70831" lon="7.03872">
        <ele>2243.85</ele>
        <time>2016-09-02T09:06:14Z</time>
      </trkpt>
      <trkpt lat="44.70818" lon="7.03888">
        <ele>2245.3</ele>
        <time>2016-09-02T09:06:31Z</time>
      </trkpt>
      <trkpt lat="44.70808" lon="7.03899">
        <ele>2247.22</ele>
        <time>2016-09-02T09:06:45Z</time>
      </trkpt>
      <trkpt lat="44.70799" lon="7.03912">
        <ele>2249.14</ele>
        <time>2016-09-02T09:06:59Z</time>
      </trkpt>
      <trkpt lat="44.70799" lon="7.03913">
        <ele>2249.62</ele>
        <time>2016-09-02T09:07:00Z</time>
      </trkpt>
      <trkpt lat="44.70792" lon="7.03929">
        <ele>2251.06</ele>
        <time>2016-09-02T09:07:15Z</time>
      </trkpt>
      <trkpt lat="44.70789" lon="7.03943">
        <ele>2253.47</ele>
        <time>2016-09-02T09:07:29Z</time>
      </trkpt>
      <trkpt lat="44.70783" lon="7.03956">
        <ele>2255.39</ele>
        <time>2016-09-02T09:07:42Z</time>
      </trkpt>
      <trkpt lat="44.70781" lon="7.03957">
        <ele>2255.87</ele>
        <time>2016-09-02T09:07:44Z</time>
      </trkpt>
      <trkpt lat="44.70775" lon="7.03968">
        <ele>2258.27</ele>
        <time>2016-09-02T09:07:59Z</time>
      </trkpt>
      <trkpt lat="44.70775" lon="7.0397">
        <ele>2258.27</ele>
        <time>2016-09-02T09:08:00Z</time>
      </trkpt>
      <trkpt lat="44.70769" lon="7.0398">
        <ele>2260.68</ele>
        <time>2016-09-02T09:08:13Z</time>
      </trkpt>
      <trkpt lat="44.70767" lon="7.03994">
        <ele>2262.6</ele>
        <time>2016-09-02T09:08:25Z</time>
      </trkpt>
      <trkpt lat="44.70764" lon="7.04003">
        <ele>2263.56</ele>
        <time>2016-09-02T09:08:40Z</time>
      </trkpt>
      <trkpt lat="44.70764" lon="7.04011">
        <ele>2265</ele>
        <time>2016-09-02T09:09:06Z</time>
      </trkpt>
      <trkpt lat="44.70763" lon="7.04022">
        <ele>2266.93</ele>
        <time>2016-09-02T09:09:15Z</time>
      </trkpt>
      <trkpt lat="44.70766" lon="7.04031">
        <ele>2268.85</ele>
        <time>2016-09-02T09:09:26Z</time>
      </trkpt>
      <trkpt lat="44.7077" lon="7.04037">
        <ele>2270.29</ele>
        <time>2016-09-02T09:09:33Z</time>
      </trkpt>
      <trkpt lat="44.7078" lon="7.04043">
        <ele>2272.69</ele>
        <time>2016-09-02T09:09:48Z</time>
      </trkpt>
      <trkpt lat="44.70788" lon="7.04051">
        <ele>2275.1</ele>
        <time>2016-09-02T09:10:01Z</time>
      </trkpt>
      <trkpt lat="44.70788" lon="7.04059">
        <ele>2276.54</ele>
        <time>2016-09-02T09:10:07Z</time>
      </trkpt>
      <trkpt lat="44.70785" lon="7.04077">
        <ele>2278.94</ele>
        <time>2016-09-02T09:10:22Z</time>
      </trkpt>
      <trkpt lat="44.70779" lon="7.04092">
        <ele>2280.38</ele>
        <time>2016-09-02T09:10:35Z</time>
      </trkpt>
      <trkpt lat="44.70776" lon="7.04111">
        <ele>2283.75</ele>
        <time>2016-09-02T09:10:52Z</time>
      </trkpt>
      <trkpt lat="44.70777" lon="7.04116">
        <ele>2285.19</ele>
        <time>2016-09-02T09:10:57Z</time>
      </trkpt>
      <trkpt lat="44.70783" lon="7.04134">
        <ele>2287.11</ele>
        <time>2016-09-02T09:11:12Z</time>
      </trkpt>
      <trkpt lat="44.70785" lon="7.04153">
        <ele>2289.52</ele>
        <time>2016-09-02T09:11:27Z</time>
      </trkpt>
      <trkpt lat="44.70787" lon="7.04164">
        <ele>2290.96</ele>
        <time>2016-09-02T09:11:37Z</time>
      </trkpt>
      <trkpt lat="44.70782" lon="7.04175">
        <ele>2293.84</ele>
        <time>2016-09-02T09:11:50Z</time>
      </trkpt>
      <trkpt lat="44.70784" lon="7.04189">
        <ele>2296.25</ele>
        <time>2016-09-02T09:12:04Z</time>
      </trkpt>
      <trkpt lat="44.70786" lon="7.04193">
        <ele>2296.73</ele>
        <time>2016-09-02T09:12:09Z</time>
      </trkpt>
      <trkpt lat="44.70793" lon="7.042">
        <ele>2299.13</ele>
        <time>2016-09-02T09:12:22Z</time>
      </trkpt>
      <trkpt lat="44.70798" lon="7.04212">
        <ele>2302.01</ele>
        <time>2016-09-02T09:12:35Z</time>
      </trkpt>
      <trkpt lat="44.70802" lon="7.04223">
        <ele>2303.94</ele>
        <time>2016-09-02T09:12:47Z</time>
      </trkpt>
      <trkpt lat="44.708" lon="7.04234">
        <ele>2306.82</ele>
        <time>2016-09-02T09:12:59Z</time>
      </trkpt>
      <trkpt lat="44.708" lon="7.04235">
        <ele>2306.82</ele>
        <time>2016-09-02T09:13:00Z</time>
      </trkpt>
      <trkpt lat="44.70793" lon="7.04248">
        <ele>2309.22</ele>
        <time>2016-09-02T09:13:14Z</time>
      </trkpt>
      <trkpt lat="44.7079" lon="7.04265">
        <ele>2311.63</ele>
        <time>2016-09-02T09:13:29Z</time>
      </trkpt>
      <trkpt lat="44.70788" lon="7.0428">
        <ele>2313.55</ele>
        <time>2016-09-02T09:13:42Z</time>
      </trkpt>
      <trkpt lat="44.70788" lon="7.04285">
        <ele>2314.99</ele>
        <time>2016-09-02T09:13:46Z</time>
      </trkpt>
      <trkpt lat="44.70788" lon="7.04296">
        <ele>2316.43</ele>
        <time>2016-09-02T09:13:56Z</time>
      </trkpt>
      <trkpt lat="44.70786" lon="7.04302">
        <ele>2317.4</ele>
        <time>2016-09-02T09:14:00Z</time>
      </trkpt>
      <trkpt lat="44.70783" lon="7.04313">
        <ele>2318.84</ele>
        <time>2016-09-02T09:14:09Z</time>
      </trkpt>
      <trkpt lat="44.7078" lon="7.04321">
        <ele>2320.28</ele>
        <time>2016-09-02T09:14:18Z</time>
      </trkpt>
      <trkpt lat="44.70776" lon="7.04339">
        <ele>2322.68</ele>
        <time>2016-09-02T09:14:34Z</time>
      </trkpt>
      <trkpt lat="44.70773" lon="7.04353">
        <ele>2325.57</ele>
        <time>2016-09-02T09:14:47Z</time>
      </trkpt>
      <trkpt lat="44.70768" lon="7.04371">
        <ele>2327.49</ele>
        <time>2016-09-02T09:15:02Z</time>
      </trkpt>
      <trkpt lat="44.70767" lon="7.04376">
        <ele>2328.93</ele>
        <time>2016-09-02T09:15:07Z</time>
      </trkpt>
      <trkpt lat="44.70759" lon="7.04388">
        <ele>2331.81</ele>
        <time>2016-09-02T09:15:22Z</time>
      </trkpt>
      <trkpt lat="44.70755" lon="7.04403">
        <ele>2334.7</ele>
        <time>2016-09-02T09:15:36Z</time>
      </trkpt>
      <trkpt lat="44.70753" lon="7.04416">
        <ele>2337.1</ele>
        <time>2016-09-02T09:15:48Z</time>
      </trkpt>
      <trkpt lat="44.70752" lon="7.04427">
        <ele>2339.02</ele>
        <time>2016-09-02T09:15:59Z</time>
      </trkpt>
      <trkpt lat="44.70748" lon="7.04439">
        <ele>2341.43</ele>
        <time>2016-09-02T09:16:12Z</time>
      </trkpt>
      <trkpt lat="44.70745" lon="7.04446">
        <ele>2342.39</ele>
        <time>2016-09-02T09:16:19Z</time>
      </trkpt>
      <trkpt lat="44.7074" lon="7.04463">
        <ele>2345.27</ele>
        <time>2016-09-02T09:16:34Z</time>
      </trkpt>
      <trkpt lat="44.70734" lon="7.0448">
        <ele>2346.23</ele>
        <time>2016-09-02T09:16:47Z</time>
      </trkpt>
      <trkpt lat="44.70728" lon="7.04495">
        <ele>2348.16</ele>
        <time>2016-09-02T09:17:01Z</time>
      </trkpt>
      <trkpt lat="44.70727" lon="7.0451">
        <ele>2351.52</ele>
        <time>2016-09-02T09:17:16Z</time>
      </trkpt>
      <trkpt lat="44.70727" lon="7.04512">
        <ele>2351.52</ele>
        <time>2016-09-02T09:17:17Z</time>
      </trkpt>
      <trkpt lat="44.70726" lon="7.04525">
        <ele>2353.44</ele>
        <time>2016-09-02T09:17:28Z</time>
      </trkpt>
      <trkpt lat="44.70724" lon="7.04539">
        <ele>2356.81</ele>
        <time>2016-09-02T09:17:43Z</time>
      </trkpt>
      <trkpt lat="44.70722" lon="7.04553">
        <ele>2359.21</ele>
        <time>2016-09-02T09:17:56Z</time>
      </trkpt>
      <trkpt lat="44.70725" lon="7.04562">
        <ele>2361.14</ele>
        <time>2016-09-02T09:18:05Z</time>
      </trkpt>
      <trkpt lat="44.70727" lon="7.04569">
        <ele>2362.58</ele>
        <time>2016-09-02T09:18:12Z</time>
      </trkpt>
      <trkpt lat="44.70715" lon="7.04575">
        <ele>2365.46</ele>
        <time>2016-09-02T09:18:28Z</time>
      </trkpt>
      <trkpt lat="44.70711" lon="7.04583">
        <ele>2367.86</ele>
        <time>2016-09-02T09:18:40Z</time>
      </trkpt>
      <trkpt lat="44.70716" lon="7.04594">
        <ele>2370.27</ele>
        <time>2016-09-02T09:18:53Z</time>
      </trkpt>
      <trkpt lat="44.70721" lon="7.04603">
        <ele>2373.63</ele>
        <time>2016-09-02T09:19:06Z</time>
      </trkpt>
      <trkpt lat="44.70727" lon="7.04611">
        <ele>2375.55</ele>
        <time>2016-09-02T09:19:19Z</time>
      </trkpt>
      <trkpt lat="44.70737" lon="7.04618">
        <ele>2377.96</ele>
        <time>2016-09-02T09:19:34Z</time>
      </trkpt>
      <trkpt lat="44.7074" lon="7.0463">
        <ele>2381.32</ele>
        <time>2016-09-02T09:19:47Z</time>
      </trkpt>
      <trkpt lat="44.7074" lon="7.04641">
        <ele>2383.73</ele>
        <time>2016-09-02T09:20:00Z</time>
      </trkpt>
      <trkpt lat="44.70735" lon="7.04649">
        <ele>2386.61</ele>
        <time>2016-09-02T09:20:14Z</time>
      </trkpt>
      <trkpt lat="44.70728" lon="7.04656">
        <ele>2389.49</ele>
        <time>2016-09-02T09:20:29Z</time>
      </trkpt>
      <trkpt lat="44.70721" lon="7.04661">
        <ele>2390.94</ele>
        <time>2016-09-02T09:20:38Z</time>
      </trkpt>
      <trkpt lat="44.70709" lon="7.04657">
        <ele>2391.9</ele>
        <time>2016-09-02T09:20:52Z</time>
      </trkpt>
      <trkpt lat="44.70701" lon="7.04661">
        <ele>2393.82</ele>
        <time>2016-09-02T09:21:03Z</time>
      </trkpt>
      <trkpt lat="44.70697" lon="7.04665">
        <ele>2394.78</ele>
        <time>2016-09-02T09:21:10Z</time>
      </trkpt>
      <trkpt lat="44.70693" lon="7.04677">
        <ele>2397.18</ele>
        <time>2016-09-02T09:21:23Z</time>
      </trkpt>
      <trkpt lat="44.70687" lon="7.04685">
        <ele>2399.11</ele>
        <time>2016-09-02T09:21:34Z</time>
      </trkpt>
      <trkpt lat="44.70683" lon="7.04693">
        <ele>2401.51</ele>
        <time>2016-09-02T09:21:45Z</time>
      </trkpt>
      <trkpt lat="44.70687" lon="7.04699">
        <ele>2402.95</ele>
        <time>2016-09-02T09:21:55Z</time>
      </trkpt>
      <trkpt lat="44.70698" lon="7.04697">
        <ele>2404.39</ele>
        <time>2016-09-02T09:22:10Z</time>
      </trkpt>
      <trkpt lat="44.70698" lon="7.04705">
        <ele>2406.8</ele>
        <time>2016-09-02T09:22:22Z</time>
      </trkpt>
      <trkpt lat="44.70695" lon="7.04709">
        <ele>2407.28</ele>
        <time>2016-09-02T09:22:26Z</time>
      </trkpt>
      <trkpt lat="44.70687" lon="7.0472">
        <ele>2409.68</ele>
        <time>2016-09-02T09:22:41Z</time>
      </trkpt>
      <trkpt lat="44.70688" lon="7.04732">
        <ele>2411.6</ele>
        <time>2016-09-02T09:22:54Z</time>
      </trkpt>
      <trkpt lat="44.70693" lon="7.04736">
        <ele>2413.53</ele>
        <time>2016-09-02T09:23:07Z</time>
      </trkpt>
      <trkpt lat="44.7069" lon="7.04748">
        <ele>2415.93</ele>
        <time>2016-09-02T09:23:20Z</time>
      </trkpt>
      <trkpt lat="44.70691" lon="7.04761">
        <ele>2418.33</ele>
        <time>2016-09-02T09:23:33Z</time>
      </trkpt>
      <trkpt lat="44.7069" lon="7.04773">
        <ele>2421.22</ele>
        <time>2016-09-02T09:23:46Z</time>
      </trkpt>
      <trkpt lat="44.70688" lon="7.04785">
        <ele>2423.14</ele>
        <time>2016-09-02T09:23:58Z</time>
      </trkpt>
      <trkpt lat="44.70689" lon="7.04796">
        <ele>2425.06</ele>
        <time>2016-09-02T09:24:10Z</time>
      </trkpt>
      <trkpt lat="44.70693" lon="7.0481">
        <ele>2427.95</ele>
        <time>2016-09-02T09:24:23Z</time>
      </trkpt>
      <trkpt lat="44.70693" lon="7.04811">
        <ele>2428.43</ele>
        <time>2016-09-02T09:24:25Z</time>
      </trkpt>
      <trkpt lat="44.70695" lon="7.0482">
        <ele>2429.39</ele>
        <time>2016-09-02T09:24:32Z</time>
      </trkpt>
      <trkpt lat="44.70699" lon="7.04836">
        <ele>2430.83</ele>
        <time>2016-09-02T09:24:46Z</time>
      </trkpt>
      <trkpt lat="44.70707" lon="7.04856">
        <ele>2432.75</ele>
        <time>2016-09-02T09:25:03Z</time>
      </trkpt>
      <trkpt lat="44.70708" lon="7.04856">
        <ele>2433.23</ele>
        <time>2016-09-02T09:25:18Z</time>
      </trkpt>
      <trkpt lat="44.70709" lon="7.04857">
        <ele>2433.23</ele>
        <time>2016-09-02T09:25:37Z</time>
      </trkpt>
      <trkpt lat="44.70708" lon="7.04858">
        <ele>2433.23</ele>
        <time>2016-09-02T09:25:52Z</time>
      </trkpt>
      <trkpt lat="44.70709" lon="7.04855">
        <ele>2433.71</ele>
        <time>2016-09-02T09:26:11Z</time>
      </trkpt>
      <trkpt lat="44.70709" lon="7.04853">
        <ele>2433.71</ele>
        <time>2016-09-02T09:26:36Z</time>
      </trkpt>
      <trkpt lat="44.70712" lon="7.04859">
        <ele>2434.2</ele>
        <time>2016-09-02T09:26:54Z</time>
      </trkpt>
      <trkpt lat="44.70725" lon="7.04876">
        <ele>2436.12</ele>
        <time>2016-09-02T09:27:08Z</time>
      </trkpt>
      <trkpt lat="44.70729" lon="7.04882">
        <ele>2436.6</ele>
        <time>2016-09-02T09:27:13Z</time>
      </trkpt>
      <trkpt lat="44.70737" lon="7.04888">
        <ele>2437.56</ele>
        <time>2016-09-02T09:27:21Z</time>
      </trkpt>
      <trkpt lat="44.70738" lon="7.04889">
        <ele>2438.04</ele>
        <time>2016-09-02T09:27:23Z</time>
      </trkpt>
      <trkpt lat="44.70743" lon="7.04894">
        <ele>2438.52</ele>
        <time>2016-09-02T09:27:29Z</time>
      </trkpt>
      <trkpt lat="44.70756" lon="7.0491">
        <ele>2440.44</ele>
        <time>2016-09-02T09:27:45Z</time>
      </trkpt>
      <trkpt lat="44.70767" lon="7.04916">
        <ele>2442.85</ele>
        <time>2016-09-02T09:27:58Z</time>
      </trkpt>
      <trkpt lat="44.70774" lon="7.04921">
        <ele>2444.29</ele>
        <time>2016-09-02T09:28:05Z</time>
      </trkpt>
      <trkpt lat="44.70777" lon="7.04924">
        <ele>2444.77</ele>
        <time>2016-09-02T09:28:09Z</time>
      </trkpt>
      <trkpt lat="44.70787" lon="7.04937">
        <ele>2447.65</ele>
        <time>2016-09-02T09:28:24Z</time>
      </trkpt>
      <trkpt lat="44.70799" lon="7.04949">
        <ele>2449.58</ele>
        <time>2016-09-02T09:28:38Z</time>
      </trkpt>
      <trkpt lat="44.70805" lon="7.0496">
        <ele>2452.46</ele>
        <time>2016-09-02T09:28:51Z</time>
      </trkpt>
      <trkpt lat="44.70807" lon="7.04974">
        <ele>2453.42</ele>
        <time>2016-09-02T09:29:06Z</time>
      </trkpt>
      <trkpt lat="44.70808" lon="7.04975">
        <ele>2453.42</ele>
        <time>2016-09-02T09:29:11Z</time>
      </trkpt>
      <trkpt lat="44.70809" lon="7.0498">
        <ele>2453.9</ele>
        <time>2016-09-02T09:29:16Z</time>
      </trkpt>
      <trkpt lat="44.70809" lon="7.04985">
        <ele>2454.86</ele>
        <time>2016-09-02T09:29:20Z</time>
      </trkpt>
      <trkpt lat="44.70809" lon="7.05002">
        <ele>2456.31</ele>
        <time>2016-09-02T09:29:34Z</time>
      </trkpt>
      <trkpt lat="44.70808" lon="7.05016">
        <ele>2459.67</ele>
        <time>2016-09-02T09:29:49Z</time>
      </trkpt>
      <trkpt lat="44.7081" lon="7.05024">
        <ele>2461.59</ele>
        <time>2016-09-02T09:30:00Z</time>
      </trkpt>
      <trkpt lat="44.7081" lon="7.05035">
        <ele>2464</ele>
        <time>2016-09-02T09:30:12Z</time>
      </trkpt>
      <trkpt lat="44.7081" lon="7.05048">
        <ele>2467.84</ele>
        <time>2016-09-02T09:30:26Z</time>
      </trkpt>
      <trkpt lat="44.7081" lon="7.05062">
        <ele>2469.28</ele>
        <time>2016-09-02T09:30:38Z</time>
      </trkpt>
      <trkpt lat="44.70808" lon="7.05078">
        <ele>2471.69</ele>
        <time>2016-09-02T09:30:52Z</time>
      </trkpt>
      <trkpt lat="44.70811" lon="7.05084">
        <ele>2472.17</ele>
        <time>2016-09-02T09:30:58Z</time>
      </trkpt>
      <trkpt lat="44.70816" lon="7.05092">
        <ele>2473.61</ele>
        <time>2016-09-02T09:31:05Z</time>
      </trkpt>
      <trkpt lat="44.70823" lon="7.05107">
        <ele>2475.53</ele>
        <time>2016-09-02T09:31:19Z</time>
      </trkpt>
      <trkpt lat="44.70828" lon="7.05113">
        <ele>2476.49</ele>
        <time>2016-09-02T09:31:28Z</time>
      </trkpt>
      <trkpt lat="44.70832" lon="7.05124">
        <ele>2477.94</ele>
        <time>2016-09-02T09:31:39Z</time>
      </trkpt>
      <trkpt lat="44.70823" lon="7.05129">
        <ele>2480.34</ele>
        <time>2016-09-02T09:31:52Z</time>
      </trkpt>
      <trkpt lat="44.70819" lon="7.05139">
        <ele>2481.78</ele>
        <time>2016-09-02T09:32:04Z</time>
      </trkpt>
      <trkpt lat="44.70814" lon="7.0515">
        <ele>2483.7</ele>
        <time>2016-09-02T09:32:17Z</time>
      </trkpt>
      <trkpt lat="44.70813" lon="7.05167">
        <ele>2486.11</ele>
        <time>2016-09-02T09:32:31Z</time>
      </trkpt>
      <trkpt lat="44.70819" lon="7.05177">
        <ele>2488.03</ele>
        <time>2016-09-02T09:32:44Z</time>
      </trkpt>
      <trkpt lat="44.70816" lon="7.0519">
        <ele>2490.43</ele>
        <time>2016-09-02T09:32:57Z</time>
      </trkpt>
      <trkpt lat="44.70814" lon="7.05193">
        <ele>2490.43</ele>
        <time>2016-09-02T09:33:00Z</time>
      </trkpt>
      <trkpt lat="44.70819" lon="7.05206">
        <ele>2493.32</ele>
        <time>2016-09-02T09:33:15Z</time>
      </trkpt>
      <trkpt lat="44.70819" lon="7.05215">
        <ele>2495.24</ele>
        <time>2016-09-02T09:33:27Z</time>
      </trkpt>
      <trkpt lat="44.70815" lon="7.05224">
        <ele>2496.68</ele>
        <time>2016-09-02T09:33:39Z</time>
      </trkpt>
      <trkpt lat="44.7081" lon="7.05232">
        <ele>2499.08</ele>
        <time>2016-09-02T09:33:50Z</time>
      </trkpt>
      <trkpt lat="44.70816" lon="7.05242">
        <ele>2500.53</ele>
        <time>2016-09-02T09:34:03Z</time>
      </trkpt>
      <trkpt lat="44.70817" lon="7.05256">
        <ele>2503.41</ele>
        <time>2016-09-02T09:34:17Z</time>
      </trkpt>
      <trkpt lat="44.70816" lon="7.05261">
        <ele>2503.89</ele>
        <time>2016-09-02T09:34:29Z</time>
      </trkpt>
      <trkpt lat="44.70815" lon="7.05261">
        <ele>2504.85</ele>
        <time>2016-09-02T09:35:01Z</time>
      </trkpt>
      <trkpt lat="44.70817" lon="7.05271">
        <ele>2507.74</ele>
        <time>2016-09-02T09:35:14Z</time>
      </trkpt>
      <trkpt lat="44.70813" lon="7.0528">
        <ele>2509.66</ele>
        <time>2016-09-02T09:35:27Z</time>
      </trkpt>
      <trkpt lat="44.70813" lon="7.0528">
        <ele>2510.14</ele>
        <time>2016-09-02T09:35:30Z</time>
      </trkpt>
      <trkpt lat="44.70816" lon="7.05291">
        <ele>2512.54</ele>
        <time>2016-09-02T09:35:42Z</time>
      </trkpt>
      <trkpt lat="44.70819" lon="7.05306">
        <ele>2513.5</ele>
        <time>2016-09-02T09:35:54Z</time>
      </trkpt>
      <trkpt lat="44.7082" lon="7.05322">
        <ele>2515.43</ele>
        <time>2016-09-02T09:36:09Z</time>
      </trkpt>
      <trkpt lat="44.70818" lon="7.0533">
        <ele>2516.39</ele>
        <time>2016-09-02T09:36:17Z</time>
      </trkpt>
      <trkpt lat="44.70818" lon="7.05334">
        <ele>2518.31</ele>
        <time>2016-09-02T09:36:21Z</time>
      </trkpt>
      <trkpt lat="44.70821" lon="7.05343">
        <ele>2518.31</ele>
        <time>2016-09-02T09:36:30Z</time>
      </trkpt>
      <trkpt lat="44.70827" lon="7.05355">
        <ele>2520.23</ele>
        <time>2016-09-02T09:36:44Z</time>
      </trkpt>
      <trkpt lat="44.70831" lon="7.05366">
        <ele>2522.64</ele>
        <time>2016-09-02T09:36:56Z</time>
      </trkpt>
      <trkpt lat="44.70833" lon="7.05379">
        <ele>2524.08</ele>
        <time>2016-09-02T09:37:08Z</time>
      </trkpt>
      <trkpt lat="44.70837" lon="7.05389">
        <ele>2526</ele>
        <time>2016-09-02T09:37:21Z</time>
      </trkpt>
      <trkpt lat="44.70844" lon="7.05407">
        <ele>2527.44</ele>
        <time>2016-09-02T09:37:36Z</time>
      </trkpt>
      <trkpt lat="44.70847" lon="7.0542">
        <ele>2528.89</ele>
        <time>2016-09-02T09:37:48Z</time>
      </trkpt>
      <trkpt lat="44.70852" lon="7.05427">
        <ele>2530.33</ele>
        <time>2016-09-02T09:38:00Z</time>
      </trkpt>
      <trkpt lat="44.70858" lon="7.05429">
        <ele>2532.25</ele>
        <time>2016-09-02T09:38:13Z</time>
      </trkpt>
      <trkpt lat="44.70863" lon="7.05429">
        <ele>2533.69</ele>
        <time>2016-09-02T09:38:18Z</time>
      </trkpt>
      <trkpt lat="44.70873" lon="7.05431">
        <ele>2535.61</ele>
        <time>2016-09-02T09:38:31Z</time>
      </trkpt>
      <trkpt lat="44.70882" lon="7.0543">
        <ele>2538.02</ele>
        <time>2016-09-02T09:38:46Z</time>
      </trkpt>
      <trkpt lat="44.70888" lon="7.05426">
        <ele>2539.46</ele>
        <time>2016-09-02T09:38:57Z</time>
      </trkpt>
      <trkpt lat="44.70896" lon="7.05427">
        <ele>2542.34</ele>
        <time>2016-09-02T09:39:11Z</time>
      </trkpt>
      <trkpt lat="44.70901" lon="7.05422">
        <ele>2544.75</ele>
        <time>2016-09-02T09:39:23Z</time>
      </trkpt>
      <trkpt lat="44.70906" lon="7.05415">
        <ele>2546.67</ele>
        <time>2016-09-02T09:39:38Z</time>
      </trkpt>
      <trkpt lat="44.70912" lon="7.05426">
        <ele>2548.59</ele>
        <time>2016-09-02T09:39:51Z</time>
      </trkpt>
      <trkpt lat="44.70916" lon="7.05436">
        <ele>2551</ele>
        <time>2016-09-02T09:40:03Z</time>
      </trkpt>
      <trkpt lat="44.7092" lon="7.0544">
        <ele>2552.92</ele>
        <time>2016-09-02T09:40:14Z</time>
      </trkpt>
      <trkpt lat="44.70923" lon="7.05448">
        <ele>2554.36</ele>
        <time>2016-09-02T09:40:26Z</time>
      </trkpt>
      <trkpt lat="44.70925" lon="7.05453">
        <ele>2556.76</ele>
        <time>2016-09-02T09:40:39Z</time>
      </trkpt>
      <trkpt lat="44.70926" lon="7.05464">
        <ele>2558.69</ele>
        <time>2016-09-02T09:40:52Z</time>
      </trkpt>
      <trkpt lat="44.70929" lon="7.05463">
        <ele>2561.09</ele>
        <time>2016-09-02T09:41:04Z</time>
      </trkpt>
      <trkpt lat="44.70933" lon="7.05469">
        <ele>2563.01</ele>
        <time>2016-09-02T09:41:17Z</time>
      </trkpt>
      <trkpt lat="44.70936" lon="7.05485">
        <ele>2565.42</ele>
        <time>2016-09-02T09:41:32Z</time>
      </trkpt>
      <trkpt lat="44.70938" lon="7.05485">
        <ele>2566.38</ele>
        <time>2016-09-02T09:41:36Z</time>
      </trkpt>
      <trkpt lat="44.70946" lon="7.05493">
        <ele>2568.78</ele>
        <time>2016-09-02T09:41:50Z</time>
      </trkpt>
      <trkpt lat="44.70947" lon="7.05494">
        <ele>2568.78</ele>
        <time>2016-09-02T09:41:51Z</time>
      </trkpt>
      <trkpt lat="44.70947" lon="7.05498">
        <ele>2568.78</ele>
        <time>2016-09-02T09:41:54Z</time>
      </trkpt>
      <trkpt lat="44.70947" lon="7.05502">
        <ele>2569.74</ele>
        <time>2016-09-02T09:41:57Z</time>
      </trkpt>
      <trkpt lat="44.70948" lon="7.05507">
        <ele>2569.74</ele>
        <time>2016-09-02T09:42:01Z</time>
      </trkpt>
      <trkpt lat="44.7095" lon="7.05522">
        <ele>2571.18</ele>
        <time>2016-09-02T09:42:12Z</time>
      </trkpt>
      <trkpt lat="44.7095" lon="7.05526">
        <ele>2571.18</ele>
        <time>2016-09-02T09:42:15Z</time>
      </trkpt>
      <trkpt lat="44.70951" lon="7.05528">
        <ele>2571.66</ele>
        <time>2016-09-02T09:42:17Z</time>
      </trkpt>
      <trkpt lat="44.70951" lon="7.05532">
        <ele>2572.14</ele>
        <time>2016-09-02T09:42:20Z</time>
      </trkpt>
      <trkpt lat="44.70951" lon="7.05537">
        <ele>2572.63</ele>
        <time>2016-09-02T09:42:24Z</time>
      </trkpt>
      <trkpt lat="44.70953" lon="7.05552">
        <ele>2575.03</ele>
        <time>2016-09-02T09:42:37Z</time>
      </trkpt>
      <trkpt lat="44.70956" lon="7.05567">
        <ele>2576.47</ele>
        <time>2016-09-02T09:42:49Z</time>
      </trkpt>
      <trkpt lat="44.70961" lon="7.05585">
        <ele>2578.87</ele>
        <time>2016-09-02T09:43:04Z</time>
      </trkpt>
      <trkpt lat="44.70966" lon="7.056">
        <ele>2580.8</ele>
        <time>2016-09-02T09:43:19Z</time>
      </trkpt>
      <trkpt lat="44.70963" lon="7.05604">
        <ele>2583.2</ele>
        <time>2016-09-02T09:43:32Z</time>
      </trkpt>
      <trkpt lat="44.70963" lon="7.0561">
        <ele>2585.12</ele>
        <time>2016-09-02T09:43:42Z</time>
      </trkpt>
      <trkpt lat="44.7096" lon="7.05615">
        <ele>2587.53</ele>
        <time>2016-09-02T09:43:57Z</time>
      </trkpt>
      <trkpt lat="44.70957" lon="7.05617">
        <ele>2588.97</ele>
        <time>2016-09-02T09:44:09Z</time>
      </trkpt>
      <trkpt lat="44.70948" lon="7.05606">
        <ele>2590.41</ele>
        <time>2016-09-02T09:44:22Z</time>
      </trkpt>
      <trkpt lat="44.70945" lon="7.05609">
        <ele>2592.81</ele>
        <time>2016-09-02T09:44:34Z</time>
      </trkpt>
      <trkpt lat="44.7094" lon="7.05609">
        <ele>2595.22</ele>
        <time>2016-09-02T09:44:45Z</time>
      </trkpt>
      <trkpt lat="44.7094" lon="7.05615">
        <ele>2597.14</ele>
        <time>2016-09-02T09:45:01Z</time>
      </trkpt>
      <trkpt lat="44.70943" lon="7.05621">
        <ele>2598.1</ele>
        <time>2016-09-02T09:45:10Z</time>
      </trkpt>
      <trkpt lat="44.70947" lon="7.05633">
        <ele>2600.98</ele>
        <time>2016-09-02T09:45:26Z</time>
      </trkpt>
      <trkpt lat="44.70951" lon="7.05643">
        <ele>2603.39</ele>
        <time>2016-09-02T09:45:38Z</time>
      </trkpt>
      <trkpt lat="44.70949" lon="7.05645">
        <ele>2604.35</ele>
        <time>2016-09-02T09:45:44Z</time>
      </trkpt>
      <trkpt lat="44.70947" lon="7.05644">
        <ele>2604.35</ele>
        <time>2016-09-02T09:45:46Z</time>
      </trkpt>
      <trkpt lat="44.70944" lon="7.05643">
        <ele>2604.83</ele>
        <time>2016-09-02T09:45:48Z</time>
      </trkpt>
      <trkpt lat="44.7094" lon="7.05639">
        <ele>2604.83</ele>
        <time>2016-09-02T09:45:53Z</time>
      </trkpt>
      <trkpt lat="44.70934" lon="7.05638">
        <ele>2605.31</ele>
        <time>2016-09-02T09:45:59Z</time>
      </trkpt>
      <trkpt lat="44.70928" lon="7.05649">
        <ele>2607.71</ele>
        <time>2016-09-02T09:46:13Z</time>
      </trkpt>
      <trkpt lat="44.70928" lon="7.05658">
        <ele>2608.67</ele>
        <time>2016-09-02T09:46:20Z</time>
      </trkpt>
      <trkpt lat="44.70925" lon="7.05673">
        <ele>2610.6</ele>
        <time>2016-09-02T09:46:33Z</time>
      </trkpt>
      <trkpt lat="44.70928" lon="7.05682">
        <ele>2612.52</ele>
        <time>2016-09-02T09:46:43Z</time>
      </trkpt>
      <trkpt lat="44.70931" lon="7.05686">
        <ele>2613.48</ele>
        <time>2016-09-02T09:46:48Z</time>
      </trkpt>
      <trkpt lat="44.70927" lon="7.05691">
        <ele>2615.4</ele>
        <time>2016-09-02T09:47:00Z</time>
      </trkpt>
      <trkpt lat="44.70927" lon="7.05694">
        <ele>2616.37</ele>
        <time>2016-09-02T09:47:04Z</time>
      </trkpt>
      <trkpt lat="44.70927" lon="7.05702">
        <ele>2617.33</ele>
        <time>2016-09-02T09:47:12Z</time>
      </trkpt>
      <trkpt lat="44.70933" lon="7.05711">
        <ele>2619.73</ele>
        <time>2016-09-02T09:47:24Z</time>
      </trkpt>
      <trkpt lat="44.70942" lon="7.05713">
        <ele>2622.13</ele>
        <time>2016-09-02T09:47:38Z</time>
      </trkpt>
      <trkpt lat="44.70951" lon="7.05712">
        <ele>2624.06</ele>
        <time>2016-09-02T09:47:52Z</time>
      </trkpt>
      <trkpt lat="44.7096" lon="7.05716">
        <ele>2625.98</ele>
        <time>2016-09-02T09:48:03Z</time>
      </trkpt>
      <trkpt lat="44.70959" lon="7.05722">
        <ele>2628.38</ele>
        <time>2016-09-02T09:48:16Z</time>
      </trkpt>
      <trkpt lat="44.70962" lon="7.05729">
        <ele>2630.3</ele>
        <time>2016-09-02T09:48:28Z</time>
      </trkpt>
      <trkpt lat="44.70957" lon="7.05738">
        <ele>2632.71</ele>
        <time>2016-09-02T09:48:42Z</time>
      </trkpt>
      <trkpt lat="44.70958" lon="7.05747">
        <ele>2635.11</ele>
        <time>2016-09-02T09:48:55Z</time>
      </trkpt>
      <trkpt lat="44.70959" lon="7.05755">
        <ele>2637.51</ele>
        <time>2016-09-02T09:49:08Z</time>
      </trkpt>
      <trkpt lat="44.70965" lon="7.05759">
        <ele>2638.96</ele>
        <time>2016-09-02T09:49:20Z</time>
      </trkpt>
      <trkpt lat="44.70973" lon="7.05762">
        <ele>2640.88</ele>
        <time>2016-09-02T09:49:33Z</time>
      </trkpt>
      <trkpt lat="44.70977" lon="7.05762">
        <ele>2641.84</ele>
        <time>2016-09-02T09:49:38Z</time>
      </trkpt>
      <trkpt lat="44.70987" lon="7.05763">
        <ele>2643.76</ele>
        <time>2016-09-02T09:49:51Z</time>
      </trkpt>
      <trkpt lat="44.70992" lon="7.05764">
        <ele>2644.24</ele>
        <time>2016-09-02T09:49:57Z</time>
      </trkpt>
      <trkpt lat="44.70996" lon="7.05769">
        <ele>2644.72</ele>
        <time>2016-09-02T09:50:02Z</time>
      </trkpt>
      <trkpt lat="44.71006" lon="7.05775">
        <ele>2646.65</ele>
        <time>2016-09-02T09:50:16Z</time>
      </trkpt>
      <trkpt lat="44.71013" lon="7.05778">
        <ele>2648.09</ele>
        <time>2016-09-02T09:50:28Z</time>
      </trkpt>
      <trkpt lat="44.71025" lon="7.05778">
        <ele>2650.01</ele>
        <time>2016-09-02T09:50:43Z</time>
      </trkpt>
      <trkpt lat="44.71031" lon="7.05788">
        <ele>2651.93</ele>
        <time>2016-09-02T09:50:56Z</time>
      </trkpt>
      <trkpt lat="44.71037" lon="7.05793">
        <ele>2653.86</ele>
        <time>2016-09-02T09:51:09Z</time>
      </trkpt>
      <trkpt lat="44.71046" lon="7.05791">
        <ele>2655.78</ele>
        <time>2016-09-02T09:51:22Z</time>
      </trkpt>
      <trkpt lat="44.71058" lon="7.0579">
        <ele>2657.22</ele>
        <time>2016-09-02T09:51:36Z</time>
      </trkpt>
      <trkpt lat="44.71072" lon="7.0579">
        <ele>2658.66</ele>
        <time>2016-09-02T09:51:52Z</time>
      </trkpt>
      <trkpt lat="44.71076" lon="7.05794">
        <ele>2660.11</ele>
        <time>2016-09-02T09:51:59Z</time>
      </trkpt>
      <trkpt lat="44.71081" lon="7.05796">
        <ele>2661.55</ele>
        <time>2016-09-02T09:52:06Z</time>
      </trkpt>
      <trkpt lat="44.71088" lon="7.05801">
        <ele>2663.95</ele>
        <time>2016-09-02T09:52:18Z</time>
      </trkpt>
      <trkpt lat="44.71092" lon="7.0581">
        <ele>2665.87</ele>
        <time>2016-09-02T09:52:28Z</time>
      </trkpt>
      <trkpt lat="44.71099" lon="7.05815">
        <ele>2667.8</ele>
        <time>2016-09-02T09:52:41Z</time>
      </trkpt>
      <trkpt lat="44.71105" lon="7.05816">
        <ele>2670.68</ele>
        <time>2016-09-02T09:52:55Z</time>
      </trkpt>
      <trkpt lat="44.71109" lon="7.05819">
        <ele>2672.6</ele>
        <time>2016-09-02T09:53:07Z</time>
      </trkpt>
      <trkpt lat="44.71111" lon="7.05829">
        <ele>2675.01</ele>
        <time>2016-09-02T09:53:21Z</time>
      </trkpt>
      <trkpt lat="44.71113" lon="7.05836">
        <ele>2676.45</ele>
        <time>2016-09-02T09:53:31Z</time>
      </trkpt>
      <trkpt lat="44.71114" lon="7.05845">
        <ele>2679.33</ele>
        <time>2016-09-02T09:53:44Z</time>
      </trkpt>
      <trkpt lat="44.71116" lon="7.05861">
        <ele>2681.25</ele>
        <time>2016-09-02T09:53:57Z</time>
      </trkpt>
      <trkpt lat="44.71119" lon="7.05861">
        <ele>2682.7</ele>
        <time>2016-09-02T09:54:07Z</time>
      </trkpt>
      <trkpt lat="44.71123" lon="7.05856">
        <ele>2684.62</ele>
        <time>2016-09-02T09:54:19Z</time>
      </trkpt>
      <trkpt lat="44.71129" lon="7.05853">
        <ele>2686.54</ele>
        <time>2016-09-02T09:54:33Z</time>
      </trkpt>
      <trkpt lat="44.71128" lon="7.05852">
        <ele>2687.02</ele>
        <time>2016-09-02T09:55:00Z</time>
      </trkpt>
      <trkpt lat="44.71126" lon="7.05851">
        <ele>2687.02</ele>
        <time>2016-09-02T09:55:33Z</time>
      </trkpt>
      <trkpt lat="44.71128" lon="7.05851">
        <ele>2687.02</ele>
        <time>2016-09-02T09:55:51Z</time>
      </trkpt>
      <trkpt lat="44.71127" lon="7.05853">
        <ele>2687.02</ele>
        <time>2016-09-02T09:56:11Z</time>
      </trkpt>
      <trkpt lat="44.71128" lon="7.05852">
        <ele>2687.5</ele>
        <time>2016-09-02T09:56:44Z</time>
      </trkpt>
      <trkpt lat="44.71129" lon="7.05855">
        <ele>2687.5</ele>
        <time>2016-09-02T09:57:11Z</time>
      </trkpt>
      <trkpt lat="44.71136" lon="7.0586">
        <ele>2688.94</ele>
        <time>2016-09-02T09:57:20Z</time>
      </trkpt>
      <trkpt lat="44.71139" lon="7.05859">
        <ele>2689.43</ele>
        <time>2016-09-02T09:57:23Z</time>
      </trkpt>
      <trkpt lat="44.71148" lon="7.05858">
        <ele>2691.35</ele>
        <time>2016-09-02T09:57:36Z</time>
      </trkpt>
      <trkpt lat="44.71151" lon="7.05866">
        <ele>2693.27</ele>
        <time>2016-09-02T09:57:48Z</time>
      </trkpt>
      <trkpt lat="44.71157" lon="7.05868">
        <ele>2695.67</ele>
        <time>2016-09-02T09:57:59Z</time>
      </trkpt>
      <trkpt lat="44.71162" lon="7.05868">
        <ele>2698.08</ele>
        <time>2016-09-02T09:58:12Z</time>
      </trkpt>
      <trkpt lat="44.71161" lon="7.05877">
        <ele>2698.08</ele>
        <time>2016-09-02T09:58:25Z</time>
      </trkpt>
      <trkpt lat="44.71161" lon="7.05886">
        <ele>2699.52</ele>
        <time>2016-09-02T09:58:36Z</time>
      </trkpt>
      <trkpt lat="44.71161" lon="7.05896">
        <ele>2700.96</ele>
        <time>2016-09-02T09:58:48Z</time>
      </trkpt>
      <trkpt lat="44.71166" lon="7.05904">
        <ele>2703.36</ele>
        <time>2016-09-02T09:58:59Z</time>
      </trkpt>
      <trkpt lat="44.71166" lon="7.05913">
        <ele>2705.77</ele>
        <time>2016-09-02T09:59:11Z</time>
      </trkpt>
      <trkpt lat="44.71166" lon="7.05921">
        <ele>2708.17</ele>
        <time>2016-09-02T09:59:24Z</time>
      </trkpt>
      <trkpt lat="44.71168" lon="7.05928">
        <ele>2710.57</ele>
        <time>2016-09-02T09:59:36Z</time>
      </trkpt>
      <trkpt lat="44.71168" lon="7.05934">
        <ele>2712.5</ele>
        <time>2016-09-02T09:59:47Z</time>
      </trkpt>
      <trkpt lat="44.71173" lon="7.05934">
        <ele>2714.42</ele>
        <time>2016-09-02T09:59:58Z</time>
      </trkpt>
      <trkpt lat="44.7118" lon="7.0593">
        <ele>2715.38</ele>
        <time>2016-09-02T10:00:12Z</time>
      </trkpt>
      <trkpt lat="44.71187" lon="7.05932">
        <ele>2718.27</ele>
        <time>2016-09-02T10:00:25Z</time>
      </trkpt>
      <trkpt lat="44.71188" lon="7.05931">
        <ele>2718.27</ele>
        <time>2016-09-02T10:00:27Z</time>
      </trkpt>
      <trkpt lat="44.71191" lon="7.0593">
        <ele>2719.23</ele>
        <time>2016-09-02T10:00:32Z</time>
      </trkpt>
      <trkpt lat="44.71197" lon="7.05926">
        <ele>2720.19</ele>
        <time>2016-09-02T10:00:42Z</time>
      </trkpt>
      <trkpt lat="44.71198" lon="7.05923">
        <ele>2720.19</ele>
        <time>2016-09-02T10:00:44Z</time>
      </trkpt>
      <trkpt lat="44.71204" lon="7.05921">
        <ele>2722.11</ele>
        <time>2016-09-02T10:00:57Z</time>
      </trkpt>
      <trkpt lat="44.71211" lon="7.05925">
        <ele>2724.03</ele>
        <time>2016-09-02T10:01:11Z</time>
      </trkpt>
      <trkpt lat="44.71219" lon="7.05917">
        <ele>2725.48</ele>
        <time>2016-09-02T10:01:25Z</time>
      </trkpt>
      <trkpt lat="44.71229" lon="7.05913">
        <ele>2726.44</ele>
        <time>2016-09-02T10:01:38Z</time>
      </trkpt>
      <trkpt lat="44.71236" lon="7.05918">
        <ele>2727.88</ele>
        <time>2016-09-02T10:01:49Z</time>
      </trkpt>
      <trkpt lat="44.71237" lon="7.05924">
        <ele>2728.36</ele>
        <time>2016-09-02T10:01:55Z</time>
      </trkpt>
      <trkpt lat="44.71244" lon="7.05923">
        <ele>2729.8</ele>
        <time>2016-09-02T10:02:08Z</time>
      </trkpt>
      <trkpt lat="44.71251" lon="7.05916">
        <ele>2731.24</ele>
        <time>2016-09-02T10:02:21Z</time>
      </trkpt>
      <trkpt lat="44.71254" lon="7.05911">
        <ele>2732.2</ele>
        <time>2016-09-02T10:02:26Z</time>
      </trkpt>
      <trkpt lat="44.71257" lon="7.05908">
        <ele>2732.2</ele>
        <time>2016-09-02T10:02:29Z</time>
      </trkpt>
      <trkpt lat="44.71266" lon="7.05904">
        <ele>2734.13</ele>
        <time>2016-09-02T10:02:42Z</time>
      </trkpt>
      <trkpt lat="44.71269" lon="7.05893">
        <ele>2736.53</ele>
        <time>2016-09-02T10:02:55Z</time>
      </trkpt>
      <trkpt lat="44.71276" lon="7.05894">
        <ele>2738.93</ele>
        <time>2016-09-02T10:03:07Z</time>
      </trkpt>
      <trkpt lat="44.71282" lon="7.05896">
        <ele>2740.86</ele>
        <time>2016-09-02T10:03:20Z</time>
      </trkpt>
      <trkpt lat="44.7129" lon="7.059">
        <ele>2743.26</ele>
        <time>2016-09-02T10:03:33Z</time>
      </trkpt>
      <trkpt lat="44.71299" lon="7.059">
        <ele>2746.62</ele>
        <time>2016-09-02T10:03:48Z</time>
      </trkpt>
      <trkpt lat="44.71299" lon="7.05891">
        <ele>2748.55</ele>
        <time>2016-09-02T10:04:00Z</time>
      </trkpt>
      <trkpt lat="44.71302" lon="7.05882">
        <ele>2749.99</ele>
        <time>2016-09-02T10:04:09Z</time>
      </trkpt>
      <trkpt lat="44.713" lon="7.05865">
        <ele>2751.43</ele>
        <time>2016-09-02T10:04:23Z</time>
      </trkpt>
      <trkpt lat="44.71301" lon="7.0585">
        <ele>2752.87</ele>
        <time>2016-09-02T10:04:38Z</time>
      </trkpt>
      <trkpt lat="44.71304" lon="7.05848">
        <ele>2754.8</ele>
        <time>2016-09-02T10:04:44Z</time>
      </trkpt>
      <trkpt lat="44.71311" lon="7.05847">
        <ele>2756.72</ele>
        <time>2016-09-02T10:04:57Z</time>
      </trkpt>
      <trkpt lat="44.71318" lon="7.05851">
        <ele>2758.16</ele>
        <time>2016-09-02T10:05:09Z</time>
      </trkpt>
      <trkpt lat="44.71328" lon="7.05848">
        <ele>2760.08</ele>
        <time>2016-09-02T10:05:21Z</time>
      </trkpt>
      <trkpt lat="44.71336" lon="7.05849">
        <ele>2762.49</ele>
        <time>2016-09-02T10:05:35Z</time>
      </trkpt>
      <trkpt lat="44.71343" lon="7.05851">
        <ele>2764.89</ele>
        <time>2016-09-02T10:05:49Z</time>
      </trkpt>
      <trkpt lat="44.71349" lon="7.05854">
        <ele>2766.81</ele>
        <time>2016-09-02T10:06:00Z</time>
      </trkpt>
      <trkpt lat="44.71353" lon="7.05863">
        <ele>2768.73</ele>
        <time>2016-09-02T10:06:13Z</time>
      </trkpt>
      <trkpt lat="44.71357" lon="7.05872">
        <ele>2771.14</ele>
        <time>2016-09-02T10:06:26Z</time>
      </trkpt>
      <trkpt lat="44.7136" lon="7.05887">
        <ele>2772.1</ele>
        <time>2016-09-02T10:06:40Z</time>
      </trkpt>
      <trkpt lat="44.71366" lon="7.05896">
        <ele>2774.5</ele>
        <time>2016-09-02T10:06:53Z</time>
      </trkpt>
      <trkpt lat="44.71371" lon="7.05906">
        <ele>2776.42</ele>
        <time>2016-09-02T10:07:06Z</time>
      </trkpt>
      <trkpt lat="44.71369" lon="7.05921">
        <ele>2778.35</ele>
        <time>2016-09-02T10:07:20Z</time>
      </trkpt>
      <trkpt lat="44.71371" lon="7.0593">
        <ele>2781.23</ele>
        <time>2016-09-02T10:07:34Z</time>
      </trkpt>
      <trkpt lat="44.71376" lon="7.05934">
        <ele>2784.12</ele>
        <time>2016-09-02T10:07:48Z</time>
      </trkpt>
      <trkpt lat="44.71378" lon="7.05942">
        <ele>2786.04</ele>
        <time>2016-09-02T10:08:00Z</time>
      </trkpt>
      <trkpt lat="44.71382" lon="7.05952">
        <ele>2787.96</ele>
        <time>2016-09-02T10:08:13Z</time>
      </trkpt>
      <trkpt lat="44.71381" lon="7.05961">
        <ele>2789.4</ele>
        <time>2016-09-02T10:08:24Z</time>
      </trkpt>
      <trkpt lat="44.71381" lon="7.05977">
        <ele>2790.36</ele>
        <time>2016-09-02T10:08:36Z</time>
      </trkpt>
      <trkpt lat="44.71382" lon="7.05988">
        <ele>2792.29</ele>
        <time>2016-09-02T10:08:48Z</time>
      </trkpt>
      <trkpt lat="44.7138" lon="7.06003">
        <ele>2792.77</ele>
        <time>2016-09-02T10:08:59Z</time>
      </trkpt>
      <trkpt lat="44.71375" lon="7.06019">
        <ele>2794.21</ele>
        <time>2016-09-02T10:09:11Z</time>
      </trkpt>
      <trkpt lat="44.71373" lon="7.06031">
        <ele>2797.09</ele>
        <time>2016-09-02T10:09:23Z</time>
      </trkpt>
      <trkpt lat="44.71371" lon="7.06045">
        <ele>2799.5</ele>
        <time>2016-09-02T10:09:37Z</time>
      </trkpt>
      <trkpt lat="44.7137" lon="7.06053">
        <ele>2801.9</ele>
        <time>2016-09-02T10:09:49Z</time>
      </trkpt>
      <trkpt lat="44.71369" lon="7.06064">
        <ele>2803.82</ele>
        <time>2016-09-02T10:10:03Z</time>
      </trkpt>
      <trkpt lat="44.71368" lon="7.06073">
        <ele>2805.75</ele>
        <time>2016-09-02T10:10:14Z</time>
      </trkpt>
      <trkpt lat="44.71368" lon="7.06083">
        <ele>2808.63</ele>
        <time>2016-09-02T10:10:29Z</time>
      </trkpt>
      <trkpt lat="44.71366" lon="7.06098">
        <ele>2811.51</ele>
        <time>2016-09-02T10:10:48Z</time>
      </trkpt>
      <trkpt lat="44.71364" lon="7.06109">
        <ele>2813.44</ele>
        <time>2016-09-02T10:11:02Z</time>
      </trkpt>
      <trkpt lat="44.71362" lon="7.06112">
        <ele>2813.44</ele>
        <time>2016-09-02T10:11:05Z</time>
      </trkpt>
      <trkpt lat="44.71357" lon="7.06122">
        <ele>2813.44</ele>
        <time>2016-09-02T10:11:17Z</time>
      </trkpt>
      <trkpt lat="44.71353" lon="7.06138">
        <ele>2814.4</ele>
        <time>2016-09-02T10:11:31Z</time>
      </trkpt>
      <trkpt lat="44.71353" lon="7.06149">
        <ele>2816.8</ele>
        <time>2016-09-02T10:11:44Z</time>
      </trkpt>
      <trkpt lat="44.71353" lon="7.06158">
        <ele>2819.2</ele>
        <time>2016-09-02T10:11:57Z</time>
      </trkpt>
      <trkpt lat="44.71351" lon="7.06166">
        <ele>2821.61</ele>
        <time>2016-09-02T10:12:10Z</time>
      </trkpt>
      <trkpt lat="44.71349" lon="7.06177">
        <ele>2823.05</ele>
        <time>2016-09-02T10:12:22Z</time>
      </trkpt>
      <trkpt lat="44.71348" lon="7.06187">
        <ele>2824.97</ele>
        <time>2016-09-02T10:12:34Z</time>
      </trkpt>
      <trkpt lat="44.71348" lon="7.0619">
        <ele>2825.45</ele>
        <time>2016-09-02T10:12:38Z</time>
      </trkpt>
      <trkpt lat="44.71351" lon="7.06204">
        <ele>2827.37</ele>
        <time>2016-09-02T10:12:51Z</time>
      </trkpt>
      <trkpt lat="44.71353" lon="7.06213">
        <ele>2829.3</ele>
        <time>2016-09-02T10:13:02Z</time>
      </trkpt>
      <trkpt lat="44.71352" lon="7.06219">
        <ele>2832.18</ele>
        <time>2016-09-02T10:13:14Z</time>
      </trkpt>
      <trkpt lat="44.71352" lon="7.06231">
        <ele>2834.58</ele>
        <time>2016-09-02T10:13:29Z</time>
      </trkpt>
      <trkpt lat="44.71353" lon="7.06239">
        <ele>2836.99</ele>
        <time>2016-09-02T10:13:44Z</time>
      </trkpt>
      <trkpt lat="44.71351" lon="7.06246">
        <ele>2839.87</ele>
        <time>2016-09-02T10:13:58Z</time>
      </trkpt>
      <trkpt lat="44.71347" lon="7.06257">
        <ele>2841.31</ele>
        <time>2016-09-02T10:14:12Z</time>
      </trkpt>
      <trkpt lat="44.71347" lon="7.06266">
        <ele>2843.72</ele>
        <time>2016-09-02T10:14:24Z</time>
      </trkpt>
      <trkpt lat="44.7135" lon="7.06274">
        <ele>2846.12</ele>
        <time>2016-09-02T10:14:39Z</time>
      </trkpt>
      <trkpt lat="44.7135" lon="7.06284">
        <ele>2848.52</ele>
        <time>2016-09-02T10:14:51Z</time>
      </trkpt>
      <trkpt lat="44.7135" lon="7.06299">
        <ele>2849.97</ele>
        <time>2016-09-02T10:15:05Z</time>
      </trkpt>
      <trkpt lat="44.71345" lon="7.0631">
        <ele>2851.41</ele>
        <time>2016-09-02T10:15:18Z</time>
      </trkpt>
      <trkpt lat="44.71343" lon="7.06319">
        <ele>2852.37</ele>
        <time>2016-09-02T10:15:26Z</time>
      </trkpt>
      <trkpt lat="44.71339" lon="7.06331">
        <ele>2853.81</ele>
        <time>2016-09-02T10:15:40Z</time>
      </trkpt>
      <trkpt lat="44.71339" lon="7.06343">
        <ele>2856.21</ele>
        <time>2016-09-02T10:15:51Z</time>
      </trkpt>
      <trkpt lat="44.71333" lon="7.06358">
        <ele>2856.69</ele>
        <time>2016-09-02T10:16:04Z</time>
      </trkpt>
      <trkpt lat="44.71328" lon="7.0637">
        <ele>2857.18</ele>
        <time>2016-09-02T10:16:15Z</time>
      </trkpt>
      <trkpt lat="44.71319" lon="7.06385">
        <ele>2857.66</ele>
        <time>2016-09-02T10:16:28Z</time>
      </trkpt>
      <trkpt lat="44.71316" lon="7.06394">
        <ele>2859.1</ele>
        <time>2016-09-02T10:16:39Z</time>
      </trkpt>
      <trkpt lat="44.71314" lon="7.06404">
        <ele>2860.54</ele>
        <time>2016-09-02T10:16:51Z</time>
      </trkpt>
      <trkpt lat="44.71312" lon="7.06403">
        <ele>2859.1</ele>
        <time>2016-09-02T10:16:56Z</time>
      </trkpt>
      <trkpt lat="44.71306" lon="7.06409">
        <ele>2858.14</ele>
        <time>2016-09-02T10:17:07Z</time>
      </trkpt>
      <trkpt lat="44.71299" lon="7.06418">
        <ele>2855.73</ele>
        <time>2016-09-02T10:17:18Z</time>
      </trkpt>
      <trkpt lat="44.71292" lon="7.06433">
        <ele>2855.25</ele>
        <time>2016-09-02T10:17:31Z</time>
      </trkpt>
      <trkpt lat="44.7129" lon="7.06442">
        <ele>2856.69</ele>
        <time>2016-09-02T10:17:40Z</time>
      </trkpt>
      <trkpt lat="44.71282" lon="7.06455">
        <ele>2857.18</ele>
        <time>2016-09-02T10:17:53Z</time>
      </trkpt>
      <trkpt lat="44.71277" lon="7.0646">
        <ele>2857.18</ele>
        <time>2016-09-02T10:17:59Z</time>
      </trkpt>
      <trkpt lat="44.71274" lon="7.06463">
        <ele>2855.73</ele>
        <time>2016-09-02T10:18:02Z</time>
      </trkpt>
      <trkpt lat="44.71262" lon="7.06472">
        <ele>2854.29</ele>
        <time>2016-09-02T10:18:17Z</time>
      </trkpt>
      <trkpt lat="44.71257" lon="7.0648">
        <ele>2853.33</ele>
        <time>2016-09-02T10:18:31Z</time>
      </trkpt>
      <trkpt lat="44.71247" lon="7.06486">
        <ele>2853.33</ele>
        <time>2016-09-02T10:18:43Z</time>
      </trkpt>
      <trkpt lat="44.71247" lon="7.06488">
        <ele>2854.29</ele>
        <time>2016-09-02T10:18:46Z</time>
      </trkpt>
      <trkpt lat="44.71241" lon="7.06488">
        <ele>2856.69</ele>
        <time>2016-09-02T10:18:57Z</time>
      </trkpt>
      <trkpt lat="44.71237" lon="7.06495">
        <ele>2859.1</ele>
        <time>2016-09-02T10:19:09Z</time>
      </trkpt>
      <trkpt lat="44.71227" lon="7.06501">
        <ele>2860.54</ele>
        <time>2016-09-02T10:19:23Z</time>
      </trkpt>
      <trkpt lat="44.71215" lon="7.06505">
        <ele>2862.46</ele>
        <time>2016-09-02T10:19:38Z</time>
      </trkpt>
      <trkpt lat="44.71211" lon="7.0651">
        <ele>2864.39</ele>
        <time>2016-09-02T10:19:47Z</time>
      </trkpt>
      <trkpt lat="44.71215" lon="7.06522">
        <ele>2866.31</ele>
        <time>2016-09-02T10:20:00Z</time>
      </trkpt>
      <trkpt lat="44.71218" lon="7.06526">
        <ele>2868.71</ele>
        <time>2016-09-02T10:20:13Z</time>
      </trkpt>
      <trkpt lat="44.71217" lon="7.06527">
        <ele>2870.63</ele>
        <time>2016-09-02T10:20:23Z</time>
      </trkpt>
      <trkpt lat="44.71209" lon="7.06531">
        <ele>2872.08</ele>
        <time>2016-09-02T10:20:35Z</time>
      </trkpt>
      <trkpt lat="44.71206" lon="7.06537">
        <ele>2872.56</ele>
        <time>2016-09-02T10:20:46Z</time>
      </trkpt>
      <trkpt lat="44.71205" lon="7.06541">
        <ele>2872.56</ele>
        <time>2016-09-02T10:21:02Z</time>
      </trkpt>
      <trkpt lat="44.71203" lon="7.06542">
        <ele>2873.04</ele>
        <time>2016-09-02T10:21:25Z</time>
      </trkpt>
      <trkpt lat="44.71203" lon="7.06541">
        <ele>2873.52</ele>
        <time>2016-09-02T10:21:53Z</time>
      </trkpt>
      <trkpt lat="44.71203" lon="7.06541">
        <ele>2874</ele>
        <time>2016-09-02T10:22:19Z</time>
      </trkpt>
      <trkpt lat="44.71202" lon="7.06537">
        <ele>2874.48</ele>
        <time>2016-09-02T10:22:32Z</time>
      </trkpt>
      <trkpt lat="44.71205" lon="7.06538">
        <ele>2874.48</ele>
        <time>2016-09-02T10:22:44Z</time>
      </trkpt>
      <trkpt lat="44.71205" lon="7.06536">
        <ele>2874.48</ele>
        <time>2016-09-02T10:22:48Z</time>
      </trkpt>
      <trkpt lat="44.71204" lon="7.06535">
        <ele>2874.48</ele>
        <time>2016-09-02T10:22:49Z</time>
      </trkpt>
      <trkpt lat="44.71196" lon="7.06535">
        <ele>2874.48</ele>
        <time>2016-09-02T10:23:02Z</time>
      </trkpt>
      <trkpt lat="44.71194" lon="7.06547">
        <ele>2876.4</ele>
        <time>2016-09-02T10:23:16Z</time>
      </trkpt>
      <trkpt lat="44.71198" lon="7.06552">
        <ele>2878.81</ele>
        <time>2016-09-02T10:23:26Z</time>
      </trkpt>
      <trkpt lat="44.71203" lon="7.06558">
        <ele>2880.73</ele>
        <time>2016-09-02T10:23:37Z</time>
      </trkpt>
      <trkpt lat="44.71201" lon="7.06563">
        <ele>2883.61</ele>
        <time>2016-09-02T10:23:51Z</time>
      </trkpt>
      <trkpt lat="44.71193" lon="7.06566">
        <ele>2885.05</ele>
        <time>2016-09-02T10:24:03Z</time>
      </trkpt>
      <trkpt lat="44.71185" lon="7.0657">
        <ele>2886.02</ele>
        <time>2016-09-02T10:24:17Z</time>
      </trkpt>
      <trkpt lat="44.7118" lon="7.06574">
        <ele>2887.94</ele>
        <time>2016-09-02T10:24:29Z</time>
      </trkpt>
      <trkpt lat="44.71183" lon="7.06578">
        <ele>2889.86</ele>
        <time>2016-09-02T10:24:41Z</time>
      </trkpt>
      <trkpt lat="44.71182" lon="7.06583">
        <ele>2891.78</ele>
        <time>2016-09-02T10:24:54Z</time>
      </trkpt>
      <trkpt lat="44.71176" lon="7.0659">
        <ele>2894.67</ele>
        <time>2016-09-02T10:25:09Z</time>
      </trkpt>
      <trkpt lat="44.71168" lon="7.06585">
        <ele>2896.11</ele>
        <time>2016-09-02T10:25:22Z</time>
      </trkpt>
      <trkpt lat="44.71165" lon="7.06588">
        <ele>2897.55</ele>
        <time>2016-09-02T10:25:36Z</time>
      </trkpt>
      <trkpt lat="44.71166" lon="7.06594">
        <ele>2900.44</ele>
        <time>2016-09-02T10:25:51Z</time>
      </trkpt>
      <trkpt lat="44.71161" lon="7.06594">
        <ele>2902.36</ele>
        <time>2016-09-02T10:26:02Z</time>
      </trkpt>
      <trkpt lat="44.71153" lon="7.06596">
        <ele>2904.28</ele>
        <time>2016-09-02T10:26:15Z</time>
      </trkpt>
      <trkpt lat="44.71152" lon="7.066">
        <ele>2906.2</ele>
        <time>2016-09-02T10:26:26Z</time>
      </trkpt>
      <trkpt lat="44.71148" lon="7.06603">
        <ele>2909.09</ele>
        <time>2016-09-02T10:26:40Z</time>
      </trkpt>
      <trkpt lat="44.71145" lon="7.06601">
        <ele>2910.53</ele>
        <time>2016-09-02T10:26:52Z</time>
      </trkpt>
      <trkpt lat="44.71138" lon="7.06603">
        <ele>2912.93</ele>
        <time>2016-09-02T10:27:03Z</time>
      </trkpt>
      <trkpt lat="44.71133" lon="7.06605">
        <ele>2915.34</ele>
        <time>2016-09-02T10:27:14Z</time>
      </trkpt>
      <trkpt lat="44.71126" lon="7.06605">
        <ele>2917.26</ele>
        <time>2016-09-02T10:27:28Z</time>
      </trkpt>
      <trkpt lat="44.71125" lon="7.06611">
        <ele>2919.18</ele>
        <time>2016-09-02T10:27:41Z</time>
      </trkpt>
      <trkpt lat="44.71121" lon="7.06611">
        <ele>2921.1</ele>
        <time>2016-09-02T10:27:53Z</time>
      </trkpt>
      <trkpt lat="44.71113" lon="7.06613">
        <ele>2923.03</ele>
        <time>2016-09-02T10:28:05Z</time>
      </trkpt>
      <trkpt lat="44.71104" lon="7.06615">
        <ele>2925.43</ele>
        <time>2016-09-02T10:28:19Z</time>
      </trkpt>
      <trkpt lat="44.71098" lon="7.06619">
        <ele>2928.31</ele>
        <time>2016-09-02T10:28:32Z</time>
      </trkpt>
      <trkpt lat="44.71094" lon="7.06627">
        <ele>2930.72</ele>
        <time>2016-09-02T10:28:45Z</time>
      </trkpt>
      <trkpt lat="44.71091" lon="7.06633">
        <ele>2931.68</ele>
        <time>2016-09-02T10:28:57Z</time>
      </trkpt>
      <trkpt lat="44.7109" lon="7.06634">
        <ele>2932.16</ele>
        <time>2016-09-02T10:29:22Z</time>
      </trkpt>
      <trkpt lat="44.71092" lon="7.06634">
        <ele>2932.16</ele>
        <time>2016-09-02T10:29:35Z</time>
      </trkpt>
      <trkpt lat="44.7109" lon="7.06632">
        <ele>2932.16</ele>
        <time>2016-09-02T10:29:50Z</time>
      </trkpt>
      <trkpt lat="44.71089" lon="7.06632">
        <ele>2932.64</ele>
        <time>2016-09-02T10:30:08Z</time>
      </trkpt>
      <trkpt lat="44.7109" lon="7.06633">
        <ele>2932.64</ele>
        <time>2016-09-02T10:30:34Z</time>
      </trkpt>
      <trkpt lat="44.7109" lon="7.06633">
        <ele>2933.12</ele>
        <time>2016-09-02T10:30:51Z</time>
      </trkpt>
      <trkpt lat="44.71091" lon="7.06635">
        <ele>2933.12</ele>
        <time>2016-09-02T10:31:07Z</time>
      </trkpt>
      <trkpt lat="44.71089" lon="7.06635">
        <ele>2933.12</ele>
        <time>2016-09-02T10:31:20Z</time>
      </trkpt>
      <trkpt lat="44.71089" lon="7.06634">
        <ele>2933.6</ele>
        <time>2016-09-02T10:31:37Z</time>
      </trkpt>
      <trkpt lat="44.71089" lon="7.06635">
        <ele>2933.6</ele>
        <time>2016-09-02T10:31:57Z</time>
      </trkpt>
      <trkpt lat="44.7109" lon="7.06634">
        <ele>2933.6</ele>
        <time>2016-09-02T10:32:14Z</time>
      </trkpt>
      <trkpt lat="44.7109" lon="7.06634">
        <ele>2934.08</ele>
        <time>2016-09-02T10:32:25Z</time>
      </trkpt>
      <trkpt lat="44.7109" lon="7.06633">
        <ele>2933.12</ele>
        <time>2016-09-02T10:32:32Z</time>
      </trkpt>
      <trkpt lat="44.7109" lon="7.06633">
        <ele>2984.07</ele>
        <time>2016-09-02T10:32:57Z</time>
      </trkpt>
      <trkpt lat="44.7109" lon="7.06633">
        <ele>2984.07</ele>
        <time>2016-09-02T10:32:58Z</time>
      </trkpt>
      <trkpt lat="44.7109" lon="7.06633">
        <ele>2949.94</ele>
        <time>2016-09-02T10:33:01Z</time>
      </trkpt>
      <trkpt lat="44.7109" lon="7.06633">
        <ele>2949.94</ele>
        <time>2016-09-02T10:33:02Z</time>
      </trkpt>
      <trkpt lat="44.71085" lon="7.06634">
        <ele>2949.46</ele>
        <time>2016-09-02T10:33:19Z</time>
      </trkpt>
      <trkpt lat="44.71084" lon="7.06634">
        <ele>2950.42</ele>
        <time>2016-09-02T10:33:21Z</time>
      </trkpt>
      <trkpt lat="44.71082" lon="7.06636">
        <ele>2950.42</ele>
        <time>2016-09-02T10:33:34Z</time>
      </trkpt>
      <trkpt lat="44.71081" lon="7.06636">
        <ele>2949.46</ele>
        <time>2016-09-02T10:33:48Z</time>
      </trkpt>
      <trkpt lat="44.71081" lon="7.06635">
        <ele>2948.5</ele>
        <time>2016-09-02T10:34:14Z</time>
      </trkpt>
      <trkpt lat="44.71082" lon="7.06635">
        <ele>2948.5</ele>
        <time>2016-09-02T10:34:42Z</time>
      </trkpt>
      <trkpt lat="44.71082" lon="7.06636">
        <ele>2948.5</ele>
        <time>2016-09-02T10:35:17Z</time>
      </trkpt>
      <trkpt lat="44.71083" lon="7.06636">
        <ele>2948.5</ele>
        <time>2016-09-02T10:35:49Z</time>
      </trkpt>
      <trkpt lat="44.71083" lon="7.06636">
        <ele>2949.46</ele>
        <time>2016-09-02T10:36:26Z</time>
      </trkpt>
      <trkpt lat="44.71083" lon="7.06635">
        <ele>2949.46</ele>
        <time>2016-09-02T10:36:54Z</time>
      </trkpt>
      <trkpt lat="44.71082" lon="7.06635">
        <ele>2949.46</ele>
        <time>2016-09-02T10:37:34Z</time>
      </trkpt>
      <trkpt lat="44.71082" lon="7.06635">
        <ele>2949.46</ele>
        <time>2016-09-02T10:38:06Z</time>
      </trkpt>
      <trkpt lat="44.71082" lon="7.06636">
        <ele>2949.46</ele>
        <time>2016-09-02T10:38:43Z</time>
      </trkpt>
      <trkpt lat="44.71082" lon="7.06636">
        <ele>2949.46</ele>
        <time>2016-09-02T10:39:15Z</time>
      </trkpt>
      <trkpt lat="44.71082" lon="7.06635">
        <ele>2949.46</ele>
        <time>2016-09-02T10:39:52Z</time>
      </trkpt>
      <trkpt lat="44.71082" lon="7.06635">
        <ele>2949.46</ele>
        <time>2016-09-02T10:40:22Z</time>
      </trkpt>
      <trkpt lat="44.71083" lon="7.06634">
        <ele>2949.46</ele>
        <time>2016-09-02T10:41:05Z</time>
      </trkpt>
      <trkpt lat="44.71082" lon="7.06633">
        <ele>2949.46</ele>
        <time>2016-09-02T10:41:44Z</time>
      </trkpt>
      <trkpt lat="44.71081" lon="7.06636">
        <ele>2948.98</ele>
        <time>2016-09-02T10:42:21Z</time>
      </trkpt>
      <trkpt lat="44.71083" lon="7.06634">
        <ele>2948.98</ele>
        <time>2016-09-02T10:42:57Z</time>
      </trkpt>
      <trkpt lat="44.71082" lon="7.06634">
        <ele>2948.98</ele>
        <time>2016-09-02T10:43:33Z</time>
      </trkpt>
      <trkpt lat="44.71082" lon="7.06634">
        <ele>2949.46</ele>
        <time>2016-09-02T10:44:06Z</time>
      </trkpt>
      <trkpt lat="44.71082" lon="7.06636">
        <ele>2949.46</ele>
        <time>2016-09-02T10:44:43Z</time>
      </trkpt>
      <trkpt lat="44.71082" lon="7.06635">
        <ele>2949.46</ele>
        <time>2016-09-02T10:45:19Z</time>
      </trkpt>
      <trkpt lat="44.71082" lon="7.06634">
        <ele>2948.98</ele>
        <time>2016-09-02T10:45:59Z</time>
      </trkpt>
      <trkpt lat="44.71081" lon="7.06634">
        <ele>2948.98</ele>
        <time>2016-09-02T10:46:37Z</time>
      </trkpt>
      <trkpt lat="44.71082" lon="7.06634">
        <ele>2948.98</ele>
        <time>2016-09-02T10:47:15Z</time>
      </trkpt>
      <trkpt lat="44.71081" lon="7.06634">
        <ele>2948.98</ele>
        <time>2016-09-02T10:47:48Z</time>
      </trkpt>
      <trkpt lat="44.7108" lon="7.06637">
        <ele>2948.5</ele>
        <time>2016-09-02T10:48:18Z</time>
      </trkpt>
      <trkpt lat="44.71078" lon="7.06639">
        <ele>2948.5</ele>
        <time>2016-09-02T10:48:54Z</time>
      </trkpt>
      <trkpt lat="44.71079" lon="7.0664">
        <ele>2948.5</ele>
        <time>2016-09-02T10:49:36Z</time>
      </trkpt>
      <trkpt lat="44.71079" lon="7.0664">
        <ele>2949.46</ele>
        <time>2016-09-02T10:50:14Z</time>
      </trkpt>
      <trkpt lat="44.71081" lon="7.06638">
        <ele>2949.94</ele>
        <time>2016-09-02T10:50:46Z</time>
      </trkpt>
      <trkpt lat="44.71084" lon="7.06635">
        <ele>2949.94</ele>
        <time>2016-09-02T10:51:16Z</time>
      </trkpt>
      <trkpt lat="44.71083" lon="7.06637">
        <ele>2949.94</ele>
        <time>2016-09-02T10:52:03Z</time>
      </trkpt>
      <trkpt lat="44.71082" lon="7.06637">
        <ele>2949.94</ele>
        <time>2016-09-02T10:52:46Z</time>
      </trkpt>
      <trkpt lat="44.71083" lon="7.06636">
        <ele>2949.94</ele>
        <time>2016-09-02T10:53:24Z</time>
      </trkpt>
      <trkpt lat="44.71083" lon="7.06636">
        <ele>2949.94</ele>
        <time>2016-09-02T10:54:16Z</time>
      </trkpt>
      <trkpt lat="44.71082" lon="7.06637">
        <ele>2949.94</ele>
        <time>2016-09-02T10:54:41Z</time>
      </trkpt>
      <trkpt lat="44.71082" lon="7.06638">
        <ele>2950.42</ele>
        <time>2016-09-02T10:54:55Z</time>
      </trkpt>
      <trkpt lat="44.71082" lon="7.06637">
        <ele>2950.42</ele>
        <time>2016-09-02T10:55:10Z</time>
      </trkpt>
      <trkpt lat="44.71082" lon="7.06636">
        <ele>2950.42</ele>
        <time>2016-09-02T10:55:30Z</time>
      </trkpt>
      <trkpt lat="44.71087" lon="7.06639">
        <ele>2948.98</ele>
        <time>2016-09-02T10:55:39Z</time>
      </trkpt>
      <trkpt lat="44.71091" lon="7.06648">
        <ele>2946.1</ele>
        <time>2016-09-02T10:55:50Z</time>
      </trkpt>
      <trkpt lat="44.71088" lon="7.06656">
        <ele>2942.73</ele>
        <time>2016-09-02T10:56:02Z</time>
      </trkpt>
      <trkpt lat="44.7109" lon="7.06658">
        <ele>2942.73</ele>
        <time>2016-09-02T10:56:05Z</time>
      </trkpt>
      <trkpt lat="44.71092" lon="7.0666">
        <ele>2942.25</ele>
        <time>2016-09-02T10:56:08Z</time>
      </trkpt>
      <trkpt lat="44.71095" lon="7.06665">
        <ele>2939.37</ele>
        <time>2016-09-02T10:56:19Z</time>
      </trkpt>
      <trkpt lat="44.71102" lon="7.06672">
        <ele>2936</ele>
        <time>2016-09-02T10:56:29Z</time>
      </trkpt>
      <trkpt lat="44.71107" lon="7.0668">
        <ele>2934.08</ele>
        <time>2016-09-02T10:56:41Z</time>
      </trkpt>
      <trkpt lat="44.71111" lon="7.0669">
        <ele>2931.68</ele>
        <time>2016-09-02T10:56:50Z</time>
      </trkpt>
      <trkpt lat="44.71109" lon="7.06691">
        <ele>2930.24</ele>
        <time>2016-09-02T10:56:53Z</time>
      </trkpt>
      <trkpt lat="44.71112" lon="7.06698">
        <ele>2927.35</ele>
        <time>2016-09-02T10:57:05Z</time>
      </trkpt>
      <trkpt lat="44.71118" lon="7.06699">
        <ele>2924.47</ele>
        <time>2016-09-02T10:57:17Z</time>
      </trkpt>
      <trkpt lat="44.71123" lon="7.06703">
        <ele>2921.1</ele>
        <time>2016-09-02T10:57:30Z</time>
      </trkpt>
      <trkpt lat="44.71123" lon="7.06705">
        <ele>2920.14</ele>
        <time>2016-09-02T10:57:32Z</time>
      </trkpt>
      <trkpt lat="44.71119" lon="7.06704">
        <ele>2919.66</ele>
        <time>2016-09-02T10:57:38Z</time>
      </trkpt>
      <trkpt lat="44.71119" lon="7.06706">
        <ele>2918.22</ele>
        <time>2016-09-02T10:57:44Z</time>
      </trkpt>
      <trkpt lat="44.71124" lon="7.06712">
        <ele>2916.3</ele>
        <time>2016-09-02T10:57:53Z</time>
      </trkpt>
      <trkpt lat="44.71124" lon="7.06714">
        <ele>2916.3</ele>
        <time>2016-09-02T10:57:54Z</time>
      </trkpt>
      <trkpt lat="44.71127" lon="7.06713">
        <ele>2915.82</ele>
        <time>2016-09-02T10:58:09Z</time>
      </trkpt>
      <trkpt lat="44.71127" lon="7.06727">
        <ele>2914.37</ele>
        <time>2016-09-02T10:58:27Z</time>
      </trkpt>
      <trkpt lat="44.71127" lon="7.0673">
        <ele>2913.89</ele>
        <time>2016-09-02T10:58:30Z</time>
      </trkpt>
      <trkpt lat="44.7113" lon="7.06739">
        <ele>2911.01</ele>
        <time>2016-09-02T10:58:41Z</time>
      </trkpt>
      <trkpt lat="44.71133" lon="7.06749">
        <ele>2907.65</ele>
        <time>2016-09-02T10:58:53Z</time>
      </trkpt>
      <trkpt lat="44.71134" lon="7.06751">
        <ele>2906.2</ele>
        <time>2016-09-02T10:59:06Z</time>
      </trkpt>
      <trkpt lat="44.71133" lon="7.06753">
        <ele>2906.2</ele>
        <time>2016-09-02T10:59:40Z</time>
      </trkpt>
      <trkpt lat="44.71138" lon="7.06759">
        <ele>2903.32</ele>
        <time>2016-09-02T10:59:55Z</time>
      </trkpt>
      <trkpt lat="44.71142" lon="7.06752">
        <ele>2899.95</ele>
        <time>2016-09-02T11:00:07Z</time>
      </trkpt>
      <trkpt lat="44.71143" lon="7.06757">
        <ele>2899.47</ele>
        <time>2016-09-02T11:00:19Z</time>
      </trkpt>
      <trkpt lat="44.71143" lon="7.06763">
        <ele>2897.55</ele>
        <time>2016-09-02T11:00:43Z</time>
      </trkpt>
      <trkpt lat="44.71144" lon="7.06764">
        <ele>2897.07</ele>
        <time>2016-09-02T11:01:10Z</time>
      </trkpt>
      <trkpt lat="44.71146" lon="7.06774">
        <ele>2894.19</ele>
        <time>2016-09-02T11:01:22Z</time>
      </trkpt>
      <trkpt lat="44.7115" lon="7.06783">
        <ele>2891.78</ele>
        <time>2016-09-02T11:01:37Z</time>
      </trkpt>
      <trkpt lat="44.71153" lon="7.0679">
        <ele>2889.38</ele>
        <time>2016-09-02T11:01:47Z</time>
      </trkpt>
      <trkpt lat="44.71153" lon="7.06793">
        <ele>2888.9</ele>
        <time>2016-09-02T11:01:49Z</time>
      </trkpt>
      <trkpt lat="44.71152" lon="7.06794">
        <ele>2888.9</ele>
        <time>2016-09-02T11:01:50Z</time>
      </trkpt>
      <trkpt lat="44.71151" lon="7.06795">
        <ele>2888.42</ele>
        <time>2016-09-02T11:01:51Z</time>
      </trkpt>
      <trkpt lat="44.71152" lon="7.06796">
        <ele>2887.94</ele>
        <time>2016-09-02T11:02:07Z</time>
      </trkpt>
      <trkpt lat="44.71155" lon="7.06802">
        <ele>2885.53</ele>
        <time>2016-09-02T11:02:17Z</time>
      </trkpt>
      <trkpt lat="44.71159" lon="7.06796">
        <ele>2883.13</ele>
        <time>2016-09-02T11:02:27Z</time>
      </trkpt>
      <trkpt lat="44.7116" lon="7.06796">
        <ele>2883.13</ele>
        <time>2016-09-02T11:02:28Z</time>
      </trkpt>
      <trkpt lat="44.71161" lon="7.06795">
        <ele>2882.17</ele>
        <time>2016-09-02T11:02:29Z</time>
      </trkpt>
      <trkpt lat="44.71166" lon="7.06788">
        <ele>2879.29</ele>
        <time>2016-09-02T11:02:40Z</time>
      </trkpt>
      <trkpt lat="44.71167" lon="7.06791">
        <ele>2878.32</ele>
        <time>2016-09-02T11:02:42Z</time>
      </trkpt>
      <trkpt lat="44.7117" lon="7.06793">
        <ele>2877.84</ele>
        <time>2016-09-02T11:02:50Z</time>
      </trkpt>
      <trkpt lat="44.71173" lon="7.06782">
        <ele>2875.44</ele>
        <time>2016-09-02T11:02:58Z</time>
      </trkpt>
      <trkpt lat="44.71178" lon="7.06765">
        <ele>2873.04</ele>
        <time>2016-09-02T11:03:11Z</time>
      </trkpt>
      <trkpt lat="44.71187" lon="7.06745">
        <ele>2870.63</ele>
        <time>2016-09-02T11:03:26Z</time>
      </trkpt>
      <trkpt lat="44.71188" lon="7.06744">
        <ele>2870.15</ele>
        <time>2016-09-02T11:03:27Z</time>
      </trkpt>
      <trkpt lat="44.71195" lon="7.06733">
        <ele>2867.75</ele>
        <time>2016-09-02T11:03:38Z</time>
      </trkpt>
      <trkpt lat="44.71199" lon="7.06727">
        <ele>2866.31</ele>
        <time>2016-09-02T11:03:44Z</time>
      </trkpt>
      <trkpt lat="44.71204" lon="7.0672">
        <ele>2865.35</ele>
        <time>2016-09-02T11:03:51Z</time>
      </trkpt>
      <trkpt lat="44.71207" lon="7.06717">
        <ele>2864.39</ele>
        <time>2016-09-02T11:03:55Z</time>
      </trkpt>
      <trkpt lat="44.71215" lon="7.06714">
        <ele>2861.5</ele>
        <time>2016-09-02T11:04:07Z</time>
      </trkpt>
      <trkpt lat="44.7122" lon="7.06708">
        <ele>2860.54</ele>
        <time>2016-09-02T11:04:19Z</time>
      </trkpt>
      <trkpt lat="44.71223" lon="7.06705">
        <ele>2860.06</ele>
        <time>2016-09-02T11:04:23Z</time>
      </trkpt>
      <trkpt lat="44.71225" lon="7.06703">
        <ele>2860.06</ele>
        <time>2016-09-02T11:04:25Z</time>
      </trkpt>
      <trkpt lat="44.71233" lon="7.06705">
        <ele>2856.69</ele>
        <time>2016-09-02T11:04:36Z</time>
      </trkpt>
      <trkpt lat="44.71232" lon="7.06708">
        <ele>2856.21</ele>
        <time>2016-09-02T11:04:38Z</time>
      </trkpt>
      <trkpt lat="44.71228" lon="7.0672">
        <ele>2855.73</ele>
        <time>2016-09-02T11:04:46Z</time>
      </trkpt>
      <trkpt lat="44.71231" lon="7.06722">
        <ele>2853.81</ele>
        <time>2016-09-02T11:04:52Z</time>
      </trkpt>
      <trkpt lat="44.71239" lon="7.06714">
        <ele>2850.45</ele>
        <time>2016-09-02T11:05:02Z</time>
      </trkpt>
      <trkpt lat="44.71246" lon="7.06718">
        <ele>2848.04</ele>
        <time>2016-09-02T11:05:12Z</time>
      </trkpt>
      <trkpt lat="44.71245" lon="7.06719">
        <ele>2847.56</ele>
        <time>2016-09-02T11:05:13Z</time>
      </trkpt>
      <trkpt lat="44.71242" lon="7.06733">
        <ele>2844.68</ele>
        <time>2016-09-02T11:05:25Z</time>
      </trkpt>
      <trkpt lat="44.71244" lon="7.06736">
        <ele>2842.28</ele>
        <time>2016-09-02T11:05:34Z</time>
      </trkpt>
      <trkpt lat="44.71245" lon="7.06735">
        <ele>2841.31</ele>
        <time>2016-09-02T11:05:35Z</time>
      </trkpt>
      <trkpt lat="44.71245" lon="7.06735">
        <ele>2841.31</ele>
        <time>2016-09-02T11:05:36Z</time>
      </trkpt>
      <trkpt lat="44.71254" lon="7.06736">
        <ele>2838.43</ele>
        <time>2016-09-02T11:05:46Z</time>
      </trkpt>
      <trkpt lat="44.71255" lon="7.06741">
        <ele>2837.95</ele>
        <time>2016-09-02T11:05:49Z</time>
      </trkpt>
      <trkpt lat="44.71252" lon="7.06747">
        <ele>2836.03</ele>
        <time>2016-09-02T11:05:54Z</time>
      </trkpt>
      <trkpt lat="44.71248" lon="7.06752">
        <ele>2835.55</ele>
        <time>2016-09-02T11:05:59Z</time>
      </trkpt>
      <trkpt lat="44.71242" lon="7.06762">
        <ele>2831.7</ele>
        <time>2016-09-02T11:06:10Z</time>
      </trkpt>
      <trkpt lat="44.71247" lon="7.06767">
        <ele>2829.3</ele>
        <time>2016-09-02T11:06:21Z</time>
      </trkpt>
      <trkpt lat="44.71248" lon="7.06775">
        <ele>2825.93</ele>
        <time>2016-09-02T11:06:32Z</time>
      </trkpt>
      <trkpt lat="44.71256" lon="7.06779">
        <ele>2823.53</ele>
        <time>2016-09-02T11:06:42Z</time>
      </trkpt>
      <trkpt lat="44.71265" lon="7.06783">
        <ele>2820.16</ele>
        <time>2016-09-02T11:06:54Z</time>
      </trkpt>
      <trkpt lat="44.71278" lon="7.06784">
        <ele>2819.68</ele>
        <time>2016-09-02T11:07:07Z</time>
      </trkpt>
      <trkpt lat="44.71291" lon="7.06784">
        <ele>2817.28</ele>
        <time>2016-09-02T11:07:20Z</time>
      </trkpt>
      <trkpt lat="44.713" lon="7.06793">
        <ele>2814.88</ele>
        <time>2016-09-02T11:07:32Z</time>
      </trkpt>
      <trkpt lat="44.71295" lon="7.06801">
        <ele>2813.44</ele>
        <time>2016-09-02T11:07:41Z</time>
      </trkpt>
      <trkpt lat="44.71294" lon="7.06802">
        <ele>2813.44</ele>
        <time>2016-09-02T11:07:42Z</time>
      </trkpt>
      <trkpt lat="44.71293" lon="7.06802">
        <ele>2812.96</ele>
        <time>2016-09-02T11:07:43Z</time>
      </trkpt>
      <trkpt lat="44.7129" lon="7.06805">
        <ele>2811.51</ele>
        <time>2016-09-02T11:07:54Z</time>
      </trkpt>
      <trkpt lat="44.7129" lon="7.06803">
        <ele>2811.51</ele>
        <time>2016-09-02T11:08:11Z</time>
      </trkpt>
      <trkpt lat="44.7128" lon="7.06801">
        <ele>2811.03</ele>
        <time>2016-09-02T11:08:26Z</time>
      </trkpt>
      <trkpt lat="44.71273" lon="7.06806">
        <ele>2811.03</ele>
        <time>2016-09-02T11:08:35Z</time>
      </trkpt>
      <trkpt lat="44.71268" lon="7.06806">
        <ele>2812.47</ele>
        <time>2016-09-02T11:08:44Z</time>
      </trkpt>
      <trkpt lat="44.71263" lon="7.06811">
        <ele>2810.55</ele>
        <time>2016-09-02T11:08:52Z</time>
      </trkpt>
      <trkpt lat="44.71258" lon="7.06814">
        <ele>2809.11</ele>
        <time>2016-09-02T11:08:57Z</time>
      </trkpt>
      <trkpt lat="44.71257" lon="7.06814">
        <ele>2808.15</ele>
        <time>2016-09-02T11:08:58Z</time>
      </trkpt>
      <trkpt lat="44.71254" lon="7.06814">
        <ele>2807.67</ele>
        <time>2016-09-02T11:09:00Z</time>
      </trkpt>
      <trkpt lat="44.71242" lon="7.06816">
        <ele>2803.82</ele>
        <time>2016-09-02T11:09:11Z</time>
      </trkpt>
      <trkpt lat="44.71236" lon="7.06819">
        <ele>2802.38</ele>
        <time>2016-09-02T11:09:17Z</time>
      </trkpt>
      <trkpt lat="44.71238" lon="7.06822">
        <ele>2800.94</ele>
        <time>2016-09-02T11:09:22Z</time>
      </trkpt>
      <trkpt lat="44.71239" lon="7.06823">
        <ele>2800.94</ele>
        <time>2016-09-02T11:09:23Z</time>
      </trkpt>
      <trkpt lat="44.7125" lon="7.06829">
        <ele>2797.57</ele>
        <time>2016-09-02T11:09:33Z</time>
      </trkpt>
      <trkpt lat="44.7126" lon="7.06835">
        <ele>2794.21</ele>
        <time>2016-09-02T11:09:44Z</time>
      </trkpt>
      <trkpt lat="44.71269" lon="7.06841">
        <ele>2790.36</ele>
        <time>2016-09-02T11:09:57Z</time>
      </trkpt>
      <trkpt lat="44.71266" lon="7.06845">
        <ele>2789.4</ele>
        <time>2016-09-02T11:10:02Z</time>
      </trkpt>
      <trkpt lat="44.71265" lon="7.06846">
        <ele>2788.44</ele>
        <time>2016-09-02T11:10:03Z</time>
      </trkpt>
      <trkpt lat="44.71263" lon="7.06846">
        <ele>2788.44</ele>
        <time>2016-09-02T11:10:04Z</time>
      </trkpt>
      <trkpt lat="44.71262" lon="7.06845">
        <ele>2788.44</ele>
        <time>2016-09-02T11:10:05Z</time>
      </trkpt>
      <trkpt lat="44.71261" lon="7.06845">
        <ele>2787.96</ele>
        <time>2016-09-02T11:10:06Z</time>
      </trkpt>
      <trkpt lat="44.71259" lon="7.06846">
        <ele>2787.96</ele>
        <time>2016-09-02T11:10:07Z</time>
      </trkpt>
      <trkpt lat="44.71258" lon="7.06846">
        <ele>2787.96</ele>
        <time>2016-09-02T11:10:08Z</time>
      </trkpt>
      <trkpt lat="44.71256" lon="7.06848">
        <ele>2787</ele>
        <time>2016-09-02T11:10:10Z</time>
      </trkpt>
      <trkpt lat="44.71257" lon="7.06853">
        <ele>2785.56</ele>
        <time>2016-09-02T11:10:17Z</time>
      </trkpt>
      <trkpt lat="44.71261" lon="7.06859">
        <ele>2782.19</ele>
        <time>2016-09-02T11:10:26Z</time>
      </trkpt>
      <trkpt lat="44.71255" lon="7.06862">
        <ele>2779.79</ele>
        <time>2016-09-02T11:10:35Z</time>
      </trkpt>
      <trkpt lat="44.71251" lon="7.06862">
        <ele>2778.35</ele>
        <time>2016-09-02T11:10:40Z</time>
      </trkpt>
      <trkpt lat="44.71258" lon="7.06872">
        <ele>2774.98</ele>
        <time>2016-09-02T11:10:51Z</time>
      </trkpt>
      <trkpt lat="44.71251" lon="7.06878">
        <ele>2772.1</ele>
        <time>2016-09-02T11:11:01Z</time>
      </trkpt>
      <trkpt lat="44.71248" lon="7.06886">
        <ele>2769.21</ele>
        <time>2016-09-02T11:11:13Z</time>
      </trkpt>
      <trkpt lat="44.71246" lon="7.0689">
        <ele>2767.77</ele>
        <time>2016-09-02T11:11:18Z</time>
      </trkpt>
      <trkpt lat="44.7124" lon="7.06895">
        <ele>2764.41</ele>
        <time>2016-09-02T11:11:27Z</time>
      </trkpt>
      <trkpt lat="44.71246" lon="7.06901">
        <ele>2762</ele>
        <time>2016-09-02T11:11:38Z</time>
      </trkpt>
      <trkpt lat="44.7124" lon="7.06909">
        <ele>2758.64</ele>
        <time>2016-09-02T11:11:49Z</time>
      </trkpt>
      <trkpt lat="44.71239" lon="7.06909">
        <ele>2758.16</ele>
        <time>2016-09-02T11:11:50Z</time>
      </trkpt>
      <trkpt lat="44.71236" lon="7.0691">
        <ele>2757.68</ele>
        <time>2016-09-02T11:11:53Z</time>
      </trkpt>
      <trkpt lat="44.71234" lon="7.06912">
        <ele>2756.72</ele>
        <time>2016-09-02T11:11:56Z</time>
      </trkpt>
      <trkpt lat="44.71232" lon="7.06913">
        <ele>2756.72</ele>
        <time>2016-09-02T11:11:58Z</time>
      </trkpt>
      <trkpt lat="44.71229" lon="7.06912">
        <ele>2756.24</ele>
        <time>2016-09-02T11:12:01Z</time>
      </trkpt>
      <trkpt lat="44.71228" lon="7.06918">
        <ele>2753.83</ele>
        <time>2016-09-02T11:12:12Z</time>
      </trkpt>
      <trkpt lat="44.71232" lon="7.06925">
        <ele>2752.39</ele>
        <time>2016-09-02T11:12:19Z</time>
      </trkpt>
      <trkpt lat="44.71239" lon="7.06934">
        <ele>2750.47</ele>
        <time>2016-09-02T11:12:27Z</time>
      </trkpt>
      <trkpt lat="44.7124" lon="7.06936">
        <ele>2750.47</ele>
        <time>2016-09-02T11:12:28Z</time>
      </trkpt>
      <trkpt lat="44.7124" lon="7.06947">
        <ele>2747.1</ele>
        <time>2016-09-02T11:12:39Z</time>
      </trkpt>
      <trkpt lat="44.71239" lon="7.0695">
        <ele>2747.1</ele>
        <time>2016-09-02T11:12:41Z</time>
      </trkpt>
      <trkpt lat="44.71231" lon="7.06956">
        <ele>2743.26</ele>
        <time>2016-09-02T11:12:51Z</time>
      </trkpt>
      <trkpt lat="44.71229" lon="7.06955">
        <ele>2742.78</ele>
        <time>2016-09-02T11:12:53Z</time>
      </trkpt>
      <trkpt lat="44.71229" lon="7.06966">
        <ele>2739.89</ele>
        <time>2016-09-02T11:13:05Z</time>
      </trkpt>
      <trkpt lat="44.71229" lon="7.06967">
        <ele>2739.41</ele>
        <time>2016-09-02T11:13:06Z</time>
      </trkpt>
      <trkpt lat="44.71227" lon="7.06971">
        <ele>2738.45</ele>
        <time>2016-09-02T11:13:10Z</time>
      </trkpt>
      <trkpt lat="44.71225" lon="7.06972">
        <ele>2737.97</ele>
        <time>2016-09-02T11:13:12Z</time>
      </trkpt>
      <trkpt lat="44.71213" lon="7.06967">
        <ele>2735.09</ele>
        <time>2016-09-02T11:13:25Z</time>
      </trkpt>
      <trkpt lat="44.71209" lon="7.06964">
        <ele>2734.61</ele>
        <time>2016-09-02T11:13:29Z</time>
      </trkpt>
      <trkpt lat="44.7121" lon="7.0697">
        <ele>2732.68</ele>
        <time>2016-09-02T11:13:36Z</time>
      </trkpt>
      <trkpt lat="44.71211" lon="7.06972">
        <ele>2732.68</ele>
        <time>2016-09-02T11:13:37Z</time>
      </trkpt>
      <trkpt lat="44.71211" lon="7.06973">
        <ele>2732.68</ele>
        <time>2016-09-02T11:13:38Z</time>
      </trkpt>
      <trkpt lat="44.71211" lon="7.06998">
        <ele>2730.28</ele>
        <time>2016-09-02T11:13:54Z</time>
      </trkpt>
      <trkpt lat="44.71211" lon="7.07001">
        <ele>2731.72</ele>
        <time>2016-09-02T11:13:56Z</time>
      </trkpt>
      <trkpt lat="44.71207" lon="7.07015">
        <ele>2732.2</ele>
        <time>2016-09-02T11:14:05Z</time>
      </trkpt>
      <trkpt lat="44.71206" lon="7.07017">
        <ele>2732.2</ele>
        <time>2016-09-02T11:14:06Z</time>
      </trkpt>
      <trkpt lat="44.712" lon="7.07035">
        <ele>2734.61</ele>
        <time>2016-09-02T11:14:22Z</time>
      </trkpt>
      <trkpt lat="44.71198" lon="7.07042">
        <ele>2733.17</ele>
        <time>2016-09-02T11:14:26Z</time>
      </trkpt>
      <trkpt lat="44.71186" lon="7.07064">
        <ele>2731.24</ele>
        <time>2016-09-02T11:14:42Z</time>
      </trkpt>
      <trkpt lat="44.71182" lon="7.07067">
        <ele>2730.76</ele>
        <time>2016-09-02T11:14:45Z</time>
      </trkpt>
      <trkpt lat="44.7118" lon="7.07071">
        <ele>2729.8</ele>
        <time>2016-09-02T11:14:48Z</time>
      </trkpt>
      <trkpt lat="44.71179" lon="7.07072">
        <ele>2729.32</ele>
        <time>2016-09-02T11:14:49Z</time>
      </trkpt>
      <trkpt lat="44.71173" lon="7.0708">
        <ele>2727.4</ele>
        <time>2016-09-02T11:14:56Z</time>
      </trkpt>
      <trkpt lat="44.71172" lon="7.07081">
        <ele>2726.92</ele>
        <time>2016-09-02T11:14:57Z</time>
      </trkpt>
      <trkpt lat="44.71169" lon="7.07082">
        <ele>2726.44</ele>
        <time>2016-09-02T11:15:00Z</time>
      </trkpt>
      <trkpt lat="44.71168" lon="7.07083">
        <ele>2726.44</ele>
        <time>2016-09-02T11:15:01Z</time>
      </trkpt>
      <trkpt lat="44.71167" lon="7.07083">
        <ele>2725.96</ele>
        <time>2016-09-02T11:15:02Z</time>
      </trkpt>
      <trkpt lat="44.71166" lon="7.07083">
        <ele>2725.96</ele>
        <time>2016-09-02T11:15:03Z</time>
      </trkpt>
      <trkpt lat="44.71165" lon="7.07084">
        <ele>2725.48</ele>
        <time>2016-09-02T11:15:04Z</time>
      </trkpt>
      <trkpt lat="44.71164" lon="7.07084">
        <ele>2725.48</ele>
        <time>2016-09-02T11:15:05Z</time>
      </trkpt>
      <trkpt lat="44.71163" lon="7.07085">
        <ele>2725.48</ele>
        <time>2016-09-02T11:15:06Z</time>
      </trkpt>
      <trkpt lat="44.71162" lon="7.07086">
        <ele>2724.51</ele>
        <time>2016-09-02T11:15:07Z</time>
      </trkpt>
      <trkpt lat="44.71161" lon="7.07087">
        <ele>2724.51</ele>
        <time>2016-09-02T11:15:08Z</time>
      </trkpt>
      <trkpt lat="44.7116" lon="7.07089">
        <ele>2724.51</ele>
        <time>2016-09-02T11:15:09Z</time>
      </trkpt>
      <trkpt lat="44.71159" lon="7.0709">
        <ele>2724.51</ele>
        <time>2016-09-02T11:15:10Z</time>
      </trkpt>
      <trkpt lat="44.71153" lon="7.07107">
        <ele>2725.96</ele>
        <time>2016-09-02T11:15:23Z</time>
      </trkpt>
      <trkpt lat="44.71149" lon="7.07117">
        <ele>2726.44</ele>
        <time>2016-09-02T11:15:31Z</time>
      </trkpt>
      <trkpt lat="44.71142" lon="7.07121">
        <ele>2726.44</ele>
        <time>2016-09-02T11:15:38Z</time>
      </trkpt>
      <trkpt lat="44.71141" lon="7.07124">
        <ele>2726.44</ele>
        <time>2016-09-02T11:15:41Z</time>
      </trkpt>
      <trkpt lat="44.71141" lon="7.07134">
        <ele>2725.96</ele>
        <time>2016-09-02T11:15:48Z</time>
      </trkpt>
      <trkpt lat="44.7114" lon="7.07137">
        <ele>2725.96</ele>
        <time>2016-09-02T11:15:50Z</time>
      </trkpt>
      <trkpt lat="44.71138" lon="7.0714">
        <ele>2725.96</ele>
        <time>2016-09-02T11:15:53Z</time>
      </trkpt>
      <trkpt lat="44.71136" lon="7.07142">
        <ele>2725.96</ele>
        <time>2016-09-02T11:15:55Z</time>
      </trkpt>
      <trkpt lat="44.71135" lon="7.07162">
        <ele>2726.92</ele>
        <time>2016-09-02T11:16:10Z</time>
      </trkpt>
      <trkpt lat="44.71127" lon="7.07178">
        <ele>2727.88</ele>
        <time>2016-09-02T11:16:22Z</time>
      </trkpt>
      <trkpt lat="44.71125" lon="7.07181">
        <ele>2727.88</ele>
        <time>2016-09-02T11:16:25Z</time>
      </trkpt>
      <trkpt lat="44.7112" lon="7.07199">
        <ele>2729.32</ele>
        <time>2016-09-02T11:16:40Z</time>
      </trkpt>
      <trkpt lat="44.71118" lon="7.07202">
        <ele>2729.8</ele>
        <time>2016-09-02T11:16:43Z</time>
      </trkpt>
      <trkpt lat="44.71112" lon="7.07208">
        <ele>2730.28</ele>
        <time>2016-09-02T11:16:51Z</time>
      </trkpt>
      <trkpt lat="44.71108" lon="7.0721">
        <ele>2728.36</ele>
        <time>2016-09-02T11:16:55Z</time>
      </trkpt>
      <trkpt lat="44.71099" lon="7.07229">
        <ele>2728.36</ele>
        <time>2016-09-02T11:17:08Z</time>
      </trkpt>
      <trkpt lat="44.71095" lon="7.07233">
        <ele>2728.36</ele>
        <time>2016-09-02T11:17:12Z</time>
      </trkpt>
      <trkpt lat="44.71079" lon="7.07236">
        <ele>2725.48</ele>
        <time>2016-09-02T11:17:26Z</time>
      </trkpt>
      <trkpt lat="44.71064" lon="7.07245">
        <ele>2724.03</ele>
        <time>2016-09-02T11:17:39Z</time>
      </trkpt>
      <trkpt lat="44.71052" lon="7.07252">
        <ele>2723.07</ele>
        <time>2016-09-02T11:17:54Z</time>
      </trkpt>
      <trkpt lat="44.7105" lon="7.07256">
        <ele>2723.07</ele>
        <time>2016-09-02T11:18:18Z</time>
      </trkpt>
      <trkpt lat="44.71051" lon="7.07253">
        <ele>2722.59</ele>
        <time>2016-09-02T11:18:29Z</time>
      </trkpt>
      <trkpt lat="44.71046" lon="7.07256">
        <ele>2721.15</ele>
        <time>2016-09-02T11:18:42Z</time>
      </trkpt>
      <trkpt lat="44.71039" lon="7.07265">
        <ele>2718.27</ele>
        <time>2016-09-02T11:18:51Z</time>
      </trkpt>
      <trkpt lat="44.71022" lon="7.07262">
        <ele>2717.3</ele>
        <time>2016-09-02T11:19:03Z</time>
      </trkpt>
      <trkpt lat="44.71017" lon="7.07264">
        <ele>2717.3</ele>
        <time>2016-09-02T11:19:08Z</time>
      </trkpt>
      <trkpt lat="44.71001" lon="7.07259">
        <ele>2716.82</ele>
        <time>2016-09-02T11:19:20Z</time>
      </trkpt>
      <trkpt lat="44.70988" lon="7.07233">
        <ele>2716.82</ele>
        <time>2016-09-02T11:19:39Z</time>
      </trkpt>
      <trkpt lat="44.70981" lon="7.07218">
        <ele>2716.82</ele>
        <time>2016-09-02T11:19:49Z</time>
      </trkpt>
      <trkpt lat="44.7097" lon="7.07191">
        <ele>2715.86</ele>
        <time>2016-09-02T11:20:05Z</time>
      </trkpt>
      <trkpt lat="44.70958" lon="7.07176">
        <ele>2713.94</ele>
        <time>2016-09-02T11:20:18Z</time>
      </trkpt>
      <trkpt lat="44.70952" lon="7.07169">
        <ele>2713.46</ele>
        <time>2016-09-02T11:20:24Z</time>
      </trkpt>
      <trkpt lat="44.70943" lon="7.07143">
        <ele>2712.5</ele>
        <time>2016-09-02T11:20:39Z</time>
      </trkpt>
      <trkpt lat="44.7094" lon="7.07138">
        <ele>2712.5</ele>
        <time>2016-09-02T11:20:43Z</time>
      </trkpt>
      <trkpt lat="44.70932" lon="7.07119">
        <ele>2708.65</ele>
        <time>2016-09-02T11:20:56Z</time>
      </trkpt>
      <trkpt lat="44.70931" lon="7.07116">
        <ele>2707.69</ele>
        <time>2016-09-02T11:20:58Z</time>
      </trkpt>
      <trkpt lat="44.70925" lon="7.07099">
        <ele>2704.81</ele>
        <time>2016-09-02T11:21:09Z</time>
      </trkpt>
      <trkpt lat="44.70922" lon="7.07093">
        <ele>2702.4</ele>
        <time>2016-09-02T11:21:15Z</time>
      </trkpt>
      <trkpt lat="44.70922" lon="7.07092">
        <ele>2702.88</ele>
        <time>2016-09-02T11:21:16Z</time>
      </trkpt>
      <trkpt lat="44.70919" lon="7.07086">
        <ele>2699.52</ele>
        <time>2016-09-02T11:21:24Z</time>
      </trkpt>
      <trkpt lat="44.70919" lon="7.07085">
        <ele>2699.52</ele>
        <time>2016-09-02T11:21:25Z</time>
      </trkpt>
      <trkpt lat="44.70919" lon="7.07083">
        <ele>2698.56</ele>
        <time>2016-09-02T11:21:27Z</time>
      </trkpt>
      <trkpt lat="44.70912" lon="7.07079">
        <ele>2695.19</ele>
        <time>2016-09-02T11:21:36Z</time>
      </trkpt>
      <trkpt lat="44.70911" lon="7.07079">
        <ele>2694.71</ele>
        <time>2016-09-02T11:21:38Z</time>
      </trkpt>
      <trkpt lat="44.70909" lon="7.07072">
        <ele>2692.31</ele>
        <time>2016-09-02T11:21:47Z</time>
      </trkpt>
      <trkpt lat="44.70906" lon="7.07072">
        <ele>2691.35</ele>
        <time>2016-09-02T11:21:51Z</time>
      </trkpt>
      <trkpt lat="44.70901" lon="7.07072">
        <ele>2688.94</ele>
        <time>2016-09-02T11:21:58Z</time>
      </trkpt>
      <trkpt lat="44.70899" lon="7.0707">
        <ele>2688.46</ele>
        <time>2016-09-02T11:22:01Z</time>
      </trkpt>
      <trkpt lat="44.70897" lon="7.07069">
        <ele>2687.98</ele>
        <time>2016-09-02T11:22:03Z</time>
      </trkpt>
      <trkpt lat="44.70883" lon="7.07074">
        <ele>2685.58</ele>
        <time>2016-09-02T11:22:16Z</time>
      </trkpt>
      <trkpt lat="44.70868" lon="7.07066">
        <ele>2682.22</ele>
        <time>2016-09-02T11:22:30Z</time>
      </trkpt>
      <trkpt lat="44.70854" lon="7.07062">
        <ele>2678.85</ele>
        <time>2016-09-02T11:22:43Z</time>
      </trkpt>
      <trkpt lat="44.70846" lon="7.07059">
        <ele>2675.97</ele>
        <time>2016-09-02T11:22:52Z</time>
      </trkpt>
      <trkpt lat="44.70846" lon="7.0707">
        <ele>2673.08</ele>
        <time>2016-09-02T11:23:03Z</time>
      </trkpt>
      <trkpt lat="44.70845" lon="7.07075">
        <ele>2671.64</ele>
        <time>2016-09-02T11:23:07Z</time>
      </trkpt>
      <trkpt lat="44.70838" lon="7.07079">
        <ele>2668.76</ele>
        <time>2016-09-02T11:23:20Z</time>
      </trkpt>
      <trkpt lat="44.70831" lon="7.07085">
        <ele>2665.87</ele>
        <time>2016-09-02T11:23:30Z</time>
      </trkpt>
      <trkpt lat="44.70829" lon="7.0709">
        <ele>2664.43</ele>
        <time>2016-09-02T11:23:35Z</time>
      </trkpt>
      <trkpt lat="44.70822" lon="7.07108">
        <ele>2661.55</ele>
        <time>2016-09-02T11:23:49Z</time>
      </trkpt>
      <trkpt lat="44.70816" lon="7.07116">
        <ele>2658.18</ele>
        <time>2016-09-02T11:24:00Z</time>
      </trkpt>
      <trkpt lat="44.70815" lon="7.07125">
        <ele>2655.78</ele>
        <time>2016-09-02T11:24:08Z</time>
      </trkpt>
      <trkpt lat="44.70812" lon="7.0713">
        <ele>2653.86</ele>
        <time>2016-09-02T11:24:14Z</time>
      </trkpt>
      <trkpt lat="44.70812" lon="7.07134">
        <ele>2652.9</ele>
        <time>2016-09-02T11:24:17Z</time>
      </trkpt>
      <trkpt lat="44.70812" lon="7.07143">
        <ele>2651.45</ele>
        <time>2016-09-02T11:24:23Z</time>
      </trkpt>
      <trkpt lat="44.70807" lon="7.07143">
        <ele>2650.49</ele>
        <time>2016-09-02T11:24:28Z</time>
      </trkpt>
      <trkpt lat="44.70803" lon="7.07141">
        <ele>2648.57</ele>
        <time>2016-09-02T11:24:37Z</time>
      </trkpt>
      <trkpt lat="44.70802" lon="7.0715">
        <ele>2646.17</ele>
        <time>2016-09-02T11:24:44Z</time>
      </trkpt>
      <trkpt lat="44.70802" lon="7.07152">
        <ele>2645.69</ele>
        <time>2016-09-02T11:24:45Z</time>
      </trkpt>
      <trkpt lat="44.70804" lon="7.07166">
        <ele>2643.76</ele>
        <time>2016-09-02T11:24:54Z</time>
      </trkpt>
      <trkpt lat="44.70803" lon="7.07178">
        <ele>2642.32</ele>
        <time>2016-09-02T11:25:01Z</time>
      </trkpt>
      <trkpt lat="44.70801" lon="7.07179">
        <ele>2641.84</ele>
        <time>2016-09-02T11:25:03Z</time>
      </trkpt>
      <trkpt lat="44.70795" lon="7.07177">
        <ele>2637.99</ele>
        <time>2016-09-02T11:25:17Z</time>
      </trkpt>
      <trkpt lat="44.70792" lon="7.07192">
        <ele>2635.11</ele>
        <time>2016-09-02T11:25:27Z</time>
      </trkpt>
      <trkpt lat="44.70791" lon="7.07208">
        <ele>2633.19</ele>
        <time>2016-09-02T11:25:37Z</time>
      </trkpt>
      <trkpt lat="44.70781" lon="7.07233">
        <ele>2630.79</ele>
        <time>2016-09-02T11:25:55Z</time>
      </trkpt>
      <trkpt lat="44.70775" lon="7.07238">
        <ele>2627.9</ele>
        <time>2016-09-02T11:26:07Z</time>
      </trkpt>
      <trkpt lat="44.70774" lon="7.07238">
        <ele>2627.42</ele>
        <time>2016-09-02T11:26:09Z</time>
      </trkpt>
      <trkpt lat="44.70769" lon="7.07242">
        <ele>2624.06</ele>
        <time>2016-09-02T11:26:21Z</time>
      </trkpt>
      <trkpt lat="44.70768" lon="7.07243">
        <ele>2623.58</ele>
        <time>2016-09-02T11:26:22Z</time>
      </trkpt>
      <trkpt lat="44.70766" lon="7.07247">
        <ele>2622.13</ele>
        <time>2016-09-02T11:26:26Z</time>
      </trkpt>
      <trkpt lat="44.70761" lon="7.07255">
        <ele>2619.25</ele>
        <time>2016-09-02T11:26:35Z</time>
      </trkpt>
      <trkpt lat="44.70758" lon="7.07249">
        <ele>2617.81</ele>
        <time>2016-09-02T11:26:41Z</time>
      </trkpt>
      <trkpt lat="44.70754" lon="7.07246">
        <ele>2615.88</ele>
        <time>2016-09-02T11:26:51Z</time>
      </trkpt>
      <trkpt lat="44.70753" lon="7.07254">
        <ele>2614.44</ele>
        <time>2016-09-02T11:26:58Z</time>
      </trkpt>
      <trkpt lat="44.7075" lon="7.07265">
        <ele>2611.08</ele>
        <time>2016-09-02T11:27:10Z</time>
      </trkpt>
      <trkpt lat="44.70749" lon="7.07269">
        <ele>2610.12</ele>
        <time>2016-09-02T11:27:13Z</time>
      </trkpt>
      <trkpt lat="44.70746" lon="7.07272">
        <ele>2608.19</ele>
        <time>2016-09-02T11:27:22Z</time>
      </trkpt>
      <trkpt lat="44.70741" lon="7.07266">
        <ele>2605.31</ele>
        <time>2016-09-02T11:27:35Z</time>
      </trkpt>
      <trkpt lat="44.70738" lon="7.07275">
        <ele>2602.91</ele>
        <time>2016-09-02T11:27:45Z</time>
      </trkpt>
      <trkpt lat="44.70738" lon="7.07281">
        <ele>2601.46</ele>
        <time>2016-09-02T11:27:49Z</time>
      </trkpt>
      <trkpt lat="44.70739" lon="7.0729">
        <ele>2600.02</ele>
        <time>2016-09-02T11:27:56Z</time>
      </trkpt>
      <trkpt lat="44.70738" lon="7.07291">
        <ele>2598.58</ele>
        <time>2016-09-02T11:27:58Z</time>
      </trkpt>
      <trkpt lat="44.70732" lon="7.07286">
        <ele>2597.14</ele>
        <time>2016-09-02T11:28:13Z</time>
      </trkpt>
      <trkpt lat="44.7073" lon="7.07283">
        <ele>2596.18</ele>
        <time>2016-09-02T11:28:29Z</time>
      </trkpt>
      <trkpt lat="44.70723" lon="7.07279">
        <ele>2593.29</ele>
        <time>2016-09-02T11:28:39Z</time>
      </trkpt>
      <trkpt lat="44.70722" lon="7.07288">
        <ele>2589.93</ele>
        <time>2016-09-02T11:28:50Z</time>
      </trkpt>
      <trkpt lat="44.70719" lon="7.07283">
        <ele>2589.45</ele>
        <time>2016-09-02T11:29:01Z</time>
      </trkpt>
      <trkpt lat="44.70719" lon="7.07281">
        <ele>2590.41</ele>
        <time>2016-09-02T11:29:14Z</time>
      </trkpt>
      <trkpt lat="44.70719" lon="7.07284">
        <ele>2590.41</ele>
        <time>2016-09-02T11:29:44Z</time>
      </trkpt>
      <trkpt lat="44.70709" lon="7.07275">
        <ele>2591.85</ele>
        <time>2016-09-02T11:29:55Z</time>
      </trkpt>
      <trkpt lat="44.70698" lon="7.07268">
        <ele>2593.29</ele>
        <time>2016-09-02T11:30:08Z</time>
      </trkpt>
      <trkpt lat="44.7069" lon="7.07257">
        <ele>2595.7</ele>
        <time>2016-09-02T11:30:21Z</time>
      </trkpt>
      <trkpt lat="44.70684" lon="7.07249">
        <ele>2598.1</ele>
        <time>2016-09-02T11:30:34Z</time>
      </trkpt>
      <trkpt lat="44.70677" lon="7.0724">
        <ele>2600.02</ele>
        <time>2016-09-02T11:30:47Z</time>
      </trkpt>
      <trkpt lat="44.70671" lon="7.07234">
        <ele>2601.95</ele>
        <time>2016-09-02T11:30:59Z</time>
      </trkpt>
      <trkpt lat="44.70664" lon="7.07231">
        <ele>2604.35</ele>
        <time>2016-09-02T11:31:14Z</time>
      </trkpt>
      <trkpt lat="44.70654" lon="7.07225">
        <ele>2605.31</ele>
        <time>2016-09-02T11:31:26Z</time>
      </trkpt>
      <trkpt lat="44.70645" lon="7.07219">
        <ele>2607.23</ele>
        <time>2016-09-02T11:31:41Z</time>
      </trkpt>
      <trkpt lat="44.70642" lon="7.07218">
        <ele>2608.19</ele>
        <time>2016-09-02T11:31:46Z</time>
      </trkpt>
      <trkpt lat="44.70636" lon="7.07214">
        <ele>2610.12</ele>
        <time>2016-09-02T11:31:56Z</time>
      </trkpt>
      <trkpt lat="44.70628" lon="7.07211">
        <ele>2611.56</ele>
        <time>2016-09-02T11:32:10Z</time>
      </trkpt>
      <trkpt lat="44.70626" lon="7.07215">
        <ele>2611.56</ele>
        <time>2016-09-02T11:32:15Z</time>
      </trkpt>
      <trkpt lat="44.70622" lon="7.07218">
        <ele>2610.6</ele>
        <time>2016-09-02T11:32:20Z</time>
      </trkpt>
      <trkpt lat="44.70612" lon="7.07222">
        <ele>2609.64</ele>
        <time>2016-09-02T11:32:33Z</time>
      </trkpt>
      <trkpt lat="44.70605" lon="7.07228">
        <ele>2606.75</ele>
        <time>2016-09-02T11:32:44Z</time>
      </trkpt>
      <trkpt lat="44.70595" lon="7.07241">
        <ele>2604.83</ele>
        <time>2016-09-02T11:32:58Z</time>
      </trkpt>
      <trkpt lat="44.70588" lon="7.07253">
        <ele>2602.91</ele>
        <time>2016-09-02T11:33:11Z</time>
      </trkpt>
      <trkpt lat="44.70584" lon="7.07257">
        <ele>2602.91</ele>
        <time>2016-09-02T11:33:16Z</time>
      </trkpt>
      <trkpt lat="44.70578" lon="7.07261">
        <ele>2602.43</ele>
        <time>2016-09-02T11:33:26Z</time>
      </trkpt>
      <trkpt lat="44.70571" lon="7.07267">
        <ele>2600.5</ele>
        <time>2016-09-02T11:33:40Z</time>
      </trkpt>
      <trkpt lat="44.70563" lon="7.0727">
        <ele>2600.5</ele>
        <time>2016-09-02T11:33:51Z</time>
      </trkpt>
      <trkpt lat="44.70562" lon="7.07271">
        <ele>2600.5</ele>
        <time>2016-09-02T11:33:52Z</time>
      </trkpt>
      <trkpt lat="44.70557" lon="7.07271">
        <ele>2600.5</ele>
        <time>2016-09-02T11:34:01Z</time>
      </trkpt>
      <trkpt lat="44.70554" lon="7.07274">
        <ele>2600.5</ele>
        <time>2016-09-02T11:34:06Z</time>
      </trkpt>
      <trkpt lat="44.70548" lon="7.07275">
        <ele>2600.98</ele>
        <time>2016-09-02T11:34:13Z</time>
      </trkpt>
      <trkpt lat="44.70543" lon="7.07277">
        <ele>2600.5</ele>
        <time>2016-09-02T11:34:24Z</time>
      </trkpt>
      <trkpt lat="44.70535" lon="7.0728">
        <ele>2600.5</ele>
        <time>2016-09-02T11:34:37Z</time>
      </trkpt>
      <trkpt lat="44.70535" lon="7.0728">
        <ele>2600.5</ele>
        <time>2016-09-02T11:34:38Z</time>
      </trkpt>
      <trkpt lat="44.70528" lon="7.07282">
        <ele>2601.95</ele>
        <time>2016-09-02T11:34:45Z</time>
      </trkpt>
      <trkpt lat="44.70522" lon="7.07285">
        <ele>2601.95</ele>
        <time>2016-09-02T11:34:52Z</time>
      </trkpt>
      <trkpt lat="44.70516" lon="7.07287">
        <ele>2600.98</ele>
        <time>2016-09-02T11:34:58Z</time>
      </trkpt>
      <trkpt lat="44.70515" lon="7.07287">
        <ele>2600.98</ele>
        <time>2016-09-02T11:35:00Z</time>
      </trkpt>
      <trkpt lat="44.70503" lon="7.07293">
        <ele>2600.02</ele>
        <time>2016-09-02T11:35:14Z</time>
      </trkpt>
      <trkpt lat="44.70499" lon="7.07297">
        <ele>2598.58</ele>
        <time>2016-09-02T11:35:20Z</time>
      </trkpt>
      <trkpt lat="44.70497" lon="7.07298">
        <ele>2598.58</ele>
        <time>2016-09-02T11:35:22Z</time>
      </trkpt>
      <trkpt lat="44.70487" lon="7.07304">
        <ele>2596.66</ele>
        <time>2016-09-02T11:35:32Z</time>
      </trkpt>
      <trkpt lat="44.70486" lon="7.07304">
        <ele>2596.66</ele>
        <time>2016-09-02T11:35:34Z</time>
      </trkpt>
      <trkpt lat="44.70484" lon="7.07306">
        <ele>2596.66</ele>
        <time>2016-09-02T11:35:36Z</time>
      </trkpt>
      <trkpt lat="44.70476" lon="7.07304">
        <ele>2596.66</ele>
        <time>2016-09-02T11:35:47Z</time>
      </trkpt>
      <trkpt lat="44.70468" lon="7.07304">
        <ele>2595.22</ele>
        <time>2016-09-02T11:35:58Z</time>
      </trkpt>
      <trkpt lat="44.7046" lon="7.07312">
        <ele>2593.29</ele>
        <time>2016-09-02T11:36:10Z</time>
      </trkpt>
      <trkpt lat="44.70459" lon="7.07312">
        <ele>2592.33</ele>
        <time>2016-09-02T11:36:11Z</time>
      </trkpt>
      <trkpt lat="44.70455" lon="7.07315">
        <ele>2591.37</ele>
        <time>2016-09-02T11:36:16Z</time>
      </trkpt>
      <trkpt lat="44.70451" lon="7.0732">
        <ele>2590.89</ele>
        <time>2016-09-02T11:36:21Z</time>
      </trkpt>
      <trkpt lat="44.70444" lon="7.07326">
        <ele>2591.85</ele>
        <time>2016-09-02T11:36:30Z</time>
      </trkpt>
      <trkpt lat="44.70435" lon="7.07336">
        <ele>2593.77</ele>
        <time>2016-09-02T11:36:42Z</time>
      </trkpt>
      <trkpt lat="44.70424" lon="7.07343">
        <ele>2594.25</ele>
        <time>2016-09-02T11:36:54Z</time>
      </trkpt>
      <trkpt lat="44.70421" lon="7.07347">
        <ele>2594.25</ele>
        <time>2016-09-02T11:36:57Z</time>
      </trkpt>
      <trkpt lat="44.70418" lon="7.07355">
        <ele>2592.81</ele>
        <time>2016-09-02T11:37:05Z</time>
      </trkpt>
      <trkpt lat="44.70414" lon="7.07361">
        <ele>2589.93</ele>
        <time>2016-09-02T11:37:13Z</time>
      </trkpt>
      <trkpt lat="44.70412" lon="7.07361">
        <ele>2588.49</ele>
        <time>2016-09-02T11:37:18Z</time>
      </trkpt>
      <trkpt lat="44.70416" lon="7.0737">
        <ele>2585.12</ele>
        <time>2016-09-02T11:37:31Z</time>
      </trkpt>
      <trkpt lat="44.70408" lon="7.0737">
        <ele>2582.24</ele>
        <time>2016-09-02T11:37:41Z</time>
      </trkpt>
      <trkpt lat="44.70404" lon="7.07372">
        <ele>2578.87</ele>
        <time>2016-09-02T11:37:53Z</time>
      </trkpt>
      <trkpt lat="44.70406" lon="7.07374">
        <ele>2578.87</ele>
        <time>2016-09-02T11:37:55Z</time>
      </trkpt>
      <trkpt lat="44.70406" lon="7.07378">
        <ele>2574.55</ele>
        <time>2016-09-02T11:38:07Z</time>
      </trkpt>
      <trkpt lat="44.704" lon="7.07376">
        <ele>2572.14</ele>
        <time>2016-09-02T11:38:16Z</time>
      </trkpt>
      <trkpt lat="44.70391" lon="7.07378">
        <ele>2570.22</ele>
        <time>2016-09-02T11:38:27Z</time>
      </trkpt>
      <trkpt lat="44.70383" lon="7.07383">
        <ele>2568.3</ele>
        <time>2016-09-02T11:38:35Z</time>
      </trkpt>
      <trkpt lat="44.70374" lon="7.07389">
        <ele>2567.34</ele>
        <time>2016-09-02T11:38:45Z</time>
      </trkpt>
      <trkpt lat="44.70364" lon="7.07394">
        <ele>2565.9</ele>
        <time>2016-09-02T11:38:56Z</time>
      </trkpt>
      <trkpt lat="44.70361" lon="7.07397">
        <ele>2568.3</ele>
        <time>2016-09-02T11:39:01Z</time>
      </trkpt>
      <trkpt lat="44.70354" lon="7.07405">
        <ele>2569.74</ele>
        <time>2016-09-02T11:39:14Z</time>
      </trkpt>
      <trkpt lat="44.7035" lon="7.07411">
        <ele>2568.3</ele>
        <time>2016-09-02T11:39:22Z</time>
      </trkpt>
      <trkpt lat="44.70347" lon="7.07414">
        <ele>2566.38</ele>
        <time>2016-09-02T11:39:33Z</time>
      </trkpt>
      <trkpt lat="44.70347" lon="7.0742">
        <ele>2563.49</ele>
        <time>2016-09-02T11:39:44Z</time>
      </trkpt>
      <trkpt lat="44.70344" lon="7.07419">
        <ele>2563.49</ele>
        <time>2016-09-02T11:39:54Z</time>
      </trkpt>
      <trkpt lat="44.70342" lon="7.07417">
        <ele>2563.01</ele>
        <time>2016-09-02T11:40:13Z</time>
      </trkpt>
      <trkpt lat="44.70342" lon="7.07423">
        <ele>2562.53</ele>
        <time>2016-09-02T11:40:30Z</time>
      </trkpt>
      <trkpt lat="44.70338" lon="7.07431">
        <ele>2560.61</ele>
        <time>2016-09-02T11:40:36Z</time>
      </trkpt>
      <trkpt lat="44.70336" lon="7.07436">
        <ele>2560.13</ele>
        <time>2016-09-02T11:40:49Z</time>
      </trkpt>
      <trkpt lat="44.70335" lon="7.07448">
        <ele>2558.69</ele>
        <time>2016-09-02T11:41:01Z</time>
      </trkpt>
      <trkpt lat="44.70334" lon="7.07469">
        <ele>2558.21</ele>
        <time>2016-09-02T11:41:15Z</time>
      </trkpt>
      <trkpt lat="44.70333" lon="7.07468">
        <ele>2559.65</ele>
        <time>2016-09-02T11:41:27Z</time>
      </trkpt>
      <trkpt lat="44.7033" lon="7.07473">
        <ele>2560.13</ele>
        <time>2016-09-02T11:41:35Z</time>
      </trkpt>
      <trkpt lat="44.7033" lon="7.07477">
        <ele>2560.61</ele>
        <time>2016-09-02T11:41:38Z</time>
      </trkpt>
      <trkpt lat="44.70332" lon="7.07487">
        <ele>2563.01</ele>
        <time>2016-09-02T11:41:51Z</time>
      </trkpt>
      <trkpt lat="44.70329" lon="7.0749">
        <ele>2565.9</ele>
        <time>2016-09-02T11:42:03Z</time>
      </trkpt>
      <trkpt lat="44.70324" lon="7.0749">
        <ele>2567.34</ele>
        <time>2016-09-02T11:42:12Z</time>
      </trkpt>
      <trkpt lat="44.70321" lon="7.07492">
        <ele>2567.82</ele>
        <time>2016-09-02T11:42:16Z</time>
      </trkpt>
      <trkpt lat="44.70318" lon="7.07495">
        <ele>2568.3</ele>
        <time>2016-09-02T11:42:19Z</time>
      </trkpt>
      <trkpt lat="44.70317" lon="7.07501">
        <ele>2568.3</ele>
        <time>2016-09-02T11:42:24Z</time>
      </trkpt>
      <trkpt lat="44.70316" lon="7.07507">
        <ele>2566.86</ele>
        <time>2016-09-02T11:42:29Z</time>
      </trkpt>
      <trkpt lat="44.70308" lon="7.07519">
        <ele>2564.93</ele>
        <time>2016-09-02T11:42:42Z</time>
      </trkpt>
      <trkpt lat="44.70305" lon="7.07524">
        <ele>2563.97</ele>
        <time>2016-09-02T11:42:47Z</time>
      </trkpt>
      <trkpt lat="44.70296" lon="7.07531">
        <ele>2562.05</ele>
        <time>2016-09-02T11:43:01Z</time>
      </trkpt>
      <trkpt lat="44.70293" lon="7.0754">
        <ele>2560.13</ele>
        <time>2016-09-02T11:43:08Z</time>
      </trkpt>
      <trkpt lat="44.70288" lon="7.07542">
        <ele>2558.21</ele>
        <time>2016-09-02T11:43:13Z</time>
      </trkpt>
      <trkpt lat="44.70285" lon="7.07543">
        <ele>2557.24</ele>
        <time>2016-09-02T11:43:17Z</time>
      </trkpt>
      <trkpt lat="44.7028" lon="7.07551">
        <ele>2555.8</ele>
        <time>2016-09-02T11:43:25Z</time>
      </trkpt>
      <trkpt lat="44.70268" lon="7.07548">
        <ele>2553.88</ele>
        <time>2016-09-02T11:43:35Z</time>
      </trkpt>
      <trkpt lat="44.70257" lon="7.07553">
        <ele>2552.92</ele>
        <time>2016-09-02T11:43:47Z</time>
      </trkpt>
      <trkpt lat="44.70248" lon="7.07563">
        <ele>2555.32</ele>
        <time>2016-09-02T11:43:58Z</time>
      </trkpt>
      <trkpt lat="44.70246" lon="7.07571">
        <ele>2555.8</ele>
        <time>2016-09-02T11:44:03Z</time>
      </trkpt>
      <trkpt lat="44.70244" lon="7.07574">
        <ele>2555.8</ele>
        <time>2016-09-02T11:44:06Z</time>
      </trkpt>
      <trkpt lat="44.70235" lon="7.07589">
        <ele>2555.32</ele>
        <time>2016-09-02T11:44:20Z</time>
      </trkpt>
      <trkpt lat="44.70232" lon="7.07595">
        <ele>2552.92</ele>
        <time>2016-09-02T11:44:27Z</time>
      </trkpt>
      <trkpt lat="44.7023" lon="7.07599">
        <ele>2551.48</ele>
        <time>2016-09-02T11:44:32Z</time>
      </trkpt>
      <trkpt lat="44.70227" lon="7.07605">
        <ele>2550.51</ele>
        <time>2016-09-02T11:44:37Z</time>
      </trkpt>
      <trkpt lat="44.70217" lon="7.07618">
        <ele>2549.07</ele>
        <time>2016-09-02T11:44:47Z</time>
      </trkpt>
      <trkpt lat="44.7022" lon="7.07622">
        <ele>2545.71</ele>
        <time>2016-09-02T11:44:58Z</time>
      </trkpt>
      <trkpt lat="44.70214" lon="7.07625">
        <ele>2545.23</ele>
        <time>2016-09-02T11:45:06Z</time>
      </trkpt>
      <trkpt lat="44.70205" lon="7.07629">
        <ele>2542.34</ele>
        <time>2016-09-02T11:45:19Z</time>
      </trkpt>
      <trkpt lat="44.70198" lon="7.07631">
        <ele>2538.5</ele>
        <time>2016-09-02T11:45:28Z</time>
      </trkpt>
      <trkpt lat="44.70195" lon="7.07632">
        <ele>2537.06</ele>
        <time>2016-09-02T11:45:32Z</time>
      </trkpt>
      <trkpt lat="44.70194" lon="7.0763">
        <ele>2535.61</ele>
        <time>2016-09-02T11:45:45Z</time>
      </trkpt>
      <trkpt lat="44.70188" lon="7.07635">
        <ele>2533.69</ele>
        <time>2016-09-02T11:46:02Z</time>
      </trkpt>
      <trkpt lat="44.70184" lon="7.07636">
        <ele>2530.81</ele>
        <time>2016-09-02T11:46:13Z</time>
      </trkpt>
      <trkpt lat="44.70182" lon="7.0764">
        <ele>2529.37</ele>
        <time>2016-09-02T11:46:25Z</time>
      </trkpt>
      <trkpt lat="44.7018" lon="7.07641">
        <ele>2528.89</ele>
        <time>2016-09-02T11:46:35Z</time>
      </trkpt>
      <trkpt lat="44.70181" lon="7.07639">
        <ele>2528.4</ele>
        <time>2016-09-02T11:46:52Z</time>
      </trkpt>
      <trkpt lat="44.7018" lon="7.0764">
        <ele>2527.92</ele>
        <time>2016-09-02T11:47:06Z</time>
      </trkpt>
      <trkpt lat="44.70179" lon="7.0764">
        <ele>2526.48</ele>
        <time>2016-09-02T11:47:22Z</time>
      </trkpt>
      <trkpt lat="44.70177" lon="7.07644">
        <ele>2525.52</ele>
        <time>2016-09-02T11:47:33Z</time>
      </trkpt>
      <trkpt lat="44.70179" lon="7.07643">
        <ele>2525.52</ele>
        <time>2016-09-02T11:47:52Z</time>
      </trkpt>
      <trkpt lat="44.70176" lon="7.07644">
        <ele>2526.48</ele>
        <time>2016-09-02T11:48:05Z</time>
      </trkpt>
      <trkpt lat="44.70176" lon="7.07644">
        <ele>2526.96</ele>
        <time>2016-09-02T11:48:06Z</time>
      </trkpt>
      <trkpt lat="44.70174" lon="7.07641">
        <ele>2527.92</ele>
        <time>2016-09-02T11:48:10Z</time>
      </trkpt>
      <trkpt lat="44.7017" lon="7.07645">
        <ele>2529.37</ele>
        <time>2016-09-02T11:48:17Z</time>
      </trkpt>
      <trkpt lat="44.70164" lon="7.07648">
        <ele>2531.77</ele>
        <time>2016-09-02T11:48:29Z</time>
      </trkpt>
      <trkpt lat="44.70162" lon="7.0765">
        <ele>2533.69</ele>
        <time>2016-09-02T11:48:40Z</time>
      </trkpt>
      <trkpt lat="44.70162" lon="7.07639">
        <ele>2536.1</ele>
        <time>2016-09-02T11:48:54Z</time>
      </trkpt>
      <trkpt lat="44.70156" lon="7.07642">
        <ele>2538.98</ele>
        <time>2016-09-02T11:49:08Z</time>
      </trkpt>
      <trkpt lat="44.70152" lon="7.07641">
        <ele>2540.42</ele>
        <time>2016-09-02T11:49:20Z</time>
      </trkpt>
      <trkpt lat="44.70151" lon="7.07637">
        <ele>2542.34</ele>
        <time>2016-09-02T11:49:30Z</time>
      </trkpt>
      <trkpt lat="44.70147" lon="7.07641">
        <ele>2543.79</ele>
        <time>2016-09-02T11:49:39Z</time>
      </trkpt>
      <trkpt lat="44.70144" lon="7.0764">
        <ele>2545.71</ele>
        <time>2016-09-02T11:49:51Z</time>
      </trkpt>
      <trkpt lat="44.70144" lon="7.07643">
        <ele>2546.19</ele>
        <time>2016-09-02T11:49:56Z</time>
      </trkpt>
      <trkpt lat="44.70144" lon="7.07656">
        <ele>2548.11</ele>
        <time>2016-09-02T11:50:10Z</time>
      </trkpt>
      <trkpt lat="44.70145" lon="7.07663">
        <ele>2550.03</ele>
        <time>2016-09-02T11:50:22Z</time>
      </trkpt>
      <trkpt lat="44.70144" lon="7.07666">
        <ele>2552.92</ele>
        <time>2016-09-02T11:50:33Z</time>
      </trkpt>
      <trkpt lat="44.70142" lon="7.07666">
        <ele>2553.88</ele>
        <time>2016-09-02T11:50:43Z</time>
      </trkpt>
      <trkpt lat="44.70138" lon="7.07665">
        <ele>2556.28</ele>
        <time>2016-09-02T11:50:56Z</time>
      </trkpt>
      <trkpt lat="44.70137" lon="7.07673">
        <ele>2558.21</ele>
        <time>2016-09-02T11:51:08Z</time>
      </trkpt>
      <trkpt lat="44.70135" lon="7.07668">
        <ele>2560.61</ele>
        <time>2016-09-02T11:51:18Z</time>
      </trkpt>
      <trkpt lat="44.7013" lon="7.07666">
        <ele>2562.53</ele>
        <time>2016-09-02T11:51:30Z</time>
      </trkpt>
      <trkpt lat="44.70128" lon="7.07661">
        <ele>2564.93</ele>
        <time>2016-09-02T11:51:43Z</time>
      </trkpt>
      <trkpt lat="44.70122" lon="7.07661">
        <ele>2566.86</ele>
        <time>2016-09-02T11:51:56Z</time>
      </trkpt>
      <trkpt lat="44.70119" lon="7.07665">
        <ele>2568.78</ele>
        <time>2016-09-02T11:52:09Z</time>
      </trkpt>
      <trkpt lat="44.70117" lon="7.07666">
        <ele>2570.7</ele>
        <time>2016-09-02T11:52:20Z</time>
      </trkpt>
      <trkpt lat="44.70115" lon="7.07663">
        <ele>2572.63</ele>
        <time>2016-09-02T11:52:33Z</time>
      </trkpt>
      <trkpt lat="44.70113" lon="7.07659">
        <ele>2574.55</ele>
        <time>2016-09-02T11:52:45Z</time>
      </trkpt>
      <trkpt lat="44.70113" lon="7.07657">
        <ele>2575.51</ele>
        <time>2016-09-02T11:53:07Z</time>
      </trkpt>
      <trkpt lat="44.70115" lon="7.07653">
        <ele>2576.95</ele>
        <time>2016-09-02T11:53:20Z</time>
      </trkpt>
      <trkpt lat="44.70108" lon="7.07654">
        <ele>2579.35</ele>
        <time>2016-09-02T11:53:32Z</time>
      </trkpt>
      <trkpt lat="44.70104" lon="7.07651">
        <ele>2581.28</ele>
        <time>2016-09-02T11:53:43Z</time>
      </trkpt>
      <trkpt lat="44.70101" lon="7.07654">
        <ele>2583.2</ele>
        <time>2016-09-02T11:53:54Z</time>
      </trkpt>
      <trkpt lat="44.70098" lon="7.0766">
        <ele>2585.12</ele>
        <time>2016-09-02T11:54:06Z</time>
      </trkpt>
      <trkpt lat="44.70093" lon="7.07667">
        <ele>2587.53</ele>
        <time>2016-09-02T11:54:19Z</time>
      </trkpt>
      <trkpt lat="44.70088" lon="7.07673">
        <ele>2590.41</ele>
        <time>2016-09-02T11:54:33Z</time>
      </trkpt>
      <trkpt lat="44.70083" lon="7.07684">
        <ele>2591.37</ele>
        <time>2016-09-02T11:54:43Z</time>
      </trkpt>
      <trkpt lat="44.70075" lon="7.07695">
        <ele>2591.85</ele>
        <time>2016-09-02T11:54:56Z</time>
      </trkpt>
      <trkpt lat="44.70072" lon="7.07694">
        <ele>2593.77</ele>
        <time>2016-09-02T11:55:10Z</time>
      </trkpt>
      <trkpt lat="44.7007" lon="7.07694">
        <ele>2595.7</ele>
        <time>2016-09-02T11:55:22Z</time>
      </trkpt>
      <trkpt lat="44.70067" lon="7.07695">
        <ele>2597.14</ele>
        <time>2016-09-02T11:55:31Z</time>
      </trkpt>
      <trkpt lat="44.70063" lon="7.07694">
        <ele>2599.06</ele>
        <time>2016-09-02T11:55:41Z</time>
      </trkpt>
      <trkpt lat="44.70059" lon="7.07694">
        <ele>2600.98</ele>
        <time>2016-09-02T11:55:52Z</time>
      </trkpt>
      <trkpt lat="44.70054" lon="7.07696">
        <ele>2602.43</ele>
        <time>2016-09-02T11:56:05Z</time>
      </trkpt>
      <trkpt lat="44.70055" lon="7.07704">
        <ele>2604.83</ele>
        <time>2016-09-02T11:56:19Z</time>
      </trkpt>
      <trkpt lat="44.70055" lon="7.07705">
        <ele>2604.83</ele>
        <time>2016-09-02T11:56:20Z</time>
      </trkpt>
      <trkpt lat="44.70057" lon="7.07712">
        <ele>2605.79</ele>
        <time>2016-09-02T11:56:27Z</time>
      </trkpt>
      <trkpt lat="44.70053" lon="7.07719">
        <ele>2607.71</ele>
        <time>2016-09-02T11:56:39Z</time>
      </trkpt>
      <trkpt lat="44.70047" lon="7.07722">
        <ele>2610.12</ele>
        <time>2016-09-02T11:56:51Z</time>
      </trkpt>
      <trkpt lat="44.70039" lon="7.07719">
        <ele>2612.52</ele>
        <time>2016-09-02T11:57:04Z</time>
      </trkpt>
      <trkpt lat="44.70038" lon="7.07711">
        <ele>2613</ele>
        <time>2016-09-02T11:57:18Z</time>
      </trkpt>
      <trkpt lat="44.70038" lon="7.0771">
        <ele>2613.48</ele>
        <time>2016-09-02T11:57:38Z</time>
      </trkpt>
      <trkpt lat="44.70039" lon="7.07709">
        <ele>2613.48</ele>
        <time>2016-09-02T11:57:57Z</time>
      </trkpt>
      <trkpt lat="44.70038" lon="7.07705">
        <ele>2613.48</ele>
        <time>2016-09-02T11:58:25Z</time>
      </trkpt>
      <trkpt lat="44.70038" lon="7.07707">
        <ele>2613.48</ele>
        <time>2016-09-02T11:58:42Z</time>
      </trkpt>
      <trkpt lat="44.70039" lon="7.07711">
        <ele>2613</ele>
        <time>2016-09-02T11:59:03Z</time>
      </trkpt>
      <trkpt lat="44.70037" lon="7.0771">
        <ele>2613</ele>
        <time>2016-09-02T11:59:29Z</time>
      </trkpt>
      <trkpt lat="44.70033" lon="7.0771">
        <ele>2613.48</ele>
        <time>2016-09-02T11:59:40Z</time>
      </trkpt>
      <trkpt lat="44.70029" lon="7.07709">
        <ele>2614.44</ele>
        <time>2016-09-02T11:59:46Z</time>
      </trkpt>
      <trkpt lat="44.70024" lon="7.07706">
        <ele>2615.4</ele>
        <time>2016-09-02T11:59:52Z</time>
      </trkpt>
      <trkpt lat="44.70015" lon="7.077">
        <ele>2617.33</ele>
        <time>2016-09-02T12:00:04Z</time>
      </trkpt>
      <trkpt lat="44.70009" lon="7.07695">
        <ele>2618.29</ele>
        <time>2016-09-02T12:00:14Z</time>
      </trkpt>
      <trkpt lat="44.70004" lon="7.07689">
        <ele>2620.69</ele>
        <time>2016-09-02T12:00:27Z</time>
      </trkpt>
      <trkpt lat="44.69999" lon="7.07682">
        <ele>2623.09</ele>
        <time>2016-09-02T12:00:40Z</time>
      </trkpt>
      <trkpt lat="44.69998" lon="7.07681">
        <ele>2623.09</ele>
        <time>2016-09-02T12:00:44Z</time>
      </trkpt>
      <trkpt lat="44.69993" lon="7.07679">
        <ele>2625.5</ele>
        <time>2016-09-02T12:00:54Z</time>
      </trkpt>
      <trkpt lat="44.6999" lon="7.07673">
        <ele>2626.46</ele>
        <time>2016-09-02T12:01:03Z</time>
      </trkpt>
      <trkpt lat="44.69985" lon="7.07667">
        <ele>2628.38</ele>
        <time>2016-09-02T12:01:18Z</time>
      </trkpt>
      <trkpt lat="44.69981" lon="7.07655">
        <ele>2630.79</ele>
        <time>2016-09-02T12:01:34Z</time>
      </trkpt>
      <trkpt lat="44.69975" lon="7.07649">
        <ele>2633.19</ele>
        <time>2016-09-02T12:01:47Z</time>
      </trkpt>
      <trkpt lat="44.69971" lon="7.07645">
        <ele>2635.59</ele>
        <time>2016-09-02T12:02:00Z</time>
      </trkpt>
      <trkpt lat="44.69966" lon="7.07641">
        <ele>2637.99</ele>
        <time>2016-09-02T12:02:11Z</time>
      </trkpt>
      <trkpt lat="44.69963" lon="7.07639">
        <ele>2639.44</ele>
        <time>2016-09-02T12:02:23Z</time>
      </trkpt>
      <trkpt lat="44.69959" lon="7.07631">
        <ele>2641.36</ele>
        <time>2016-09-02T12:02:37Z</time>
      </trkpt>
      <trkpt lat="44.69957" lon="7.07626">
        <ele>2644.24</ele>
        <time>2016-09-02T12:02:51Z</time>
      </trkpt>
      <trkpt lat="44.69955" lon="7.07625">
        <ele>2645.21</ele>
        <time>2016-09-02T12:02:57Z</time>
      </trkpt>
      <trkpt lat="44.69952" lon="7.07622">
        <ele>2646.65</ele>
        <time>2016-09-02T12:03:08Z</time>
      </trkpt>
      <trkpt lat="44.69946" lon="7.07621">
        <ele>2648.57</ele>
        <time>2016-09-02T12:03:20Z</time>
      </trkpt>
      <trkpt lat="44.69943" lon="7.07617">
        <ele>2650.49</ele>
        <time>2016-09-02T12:03:32Z</time>
      </trkpt>
      <trkpt lat="44.69942" lon="7.0761">
        <ele>2652.9</ele>
        <time>2016-09-02T12:03:46Z</time>
      </trkpt>
      <trkpt lat="44.69938" lon="7.07607">
        <ele>2655.78</ele>
        <time>2016-09-02T12:03:58Z</time>
      </trkpt>
      <trkpt lat="44.69935" lon="7.07602">
        <ele>2658.18</ele>
        <time>2016-09-02T12:04:13Z</time>
      </trkpt>
      <trkpt lat="44.69931" lon="7.076">
        <ele>2660.59</ele>
        <time>2016-09-02T12:04:27Z</time>
      </trkpt>
      <trkpt lat="44.69928" lon="7.07595">
        <ele>2662.51</ele>
        <time>2016-09-02T12:04:40Z</time>
      </trkpt>
      <trkpt lat="44.69924" lon="7.07596">
        <ele>2664.43</ele>
        <time>2016-09-02T12:04:51Z</time>
      </trkpt>
      <trkpt lat="44.69922" lon="7.07596">
        <ele>2665.87</ele>
        <time>2016-09-02T12:05:01Z</time>
      </trkpt>
      <trkpt lat="44.6992" lon="7.076">
        <ele>2668.28</ele>
        <time>2016-09-02T12:05:12Z</time>
      </trkpt>
      <trkpt lat="44.69918" lon="7.07597">
        <ele>2669.72</ele>
        <time>2016-09-02T12:05:23Z</time>
      </trkpt>
      <trkpt lat="44.69916" lon="7.07601">
        <ele>2671.16</ele>
        <time>2016-09-02T12:05:35Z</time>
      </trkpt>
      <trkpt lat="44.69915" lon="7.07608">
        <ele>2673.56</ele>
        <time>2016-09-02T12:05:47Z</time>
      </trkpt>
      <trkpt lat="44.6991" lon="7.07602">
        <ele>2675.01</ele>
        <time>2016-09-02T12:05:58Z</time>
      </trkpt>
      <trkpt lat="44.69904" lon="7.07601">
        <ele>2677.41</ele>
        <time>2016-09-02T12:06:12Z</time>
      </trkpt>
      <trkpt lat="44.69903" lon="7.07607">
        <ele>2678.85</ele>
        <time>2016-09-02T12:06:23Z</time>
      </trkpt>
      <trkpt lat="44.69901" lon="7.07615">
        <ele>2680.77</ele>
        <time>2016-09-02T12:06:36Z</time>
      </trkpt>
      <trkpt lat="44.69893" lon="7.07611">
        <ele>2683.66</ele>
        <time>2016-09-02T12:06:50Z</time>
      </trkpt>
      <trkpt lat="44.69885" lon="7.07604">
        <ele>2685.1</ele>
        <time>2016-09-02T12:07:03Z</time>
      </trkpt>
      <trkpt lat="44.6988" lon="7.07598">
        <ele>2687.02</ele>
        <time>2016-09-02T12:07:15Z</time>
      </trkpt>
      <trkpt lat="44.69874" lon="7.07595">
        <ele>2688.94</ele>
        <time>2016-09-02T12:07:27Z</time>
      </trkpt>
      <trkpt lat="44.69872" lon="7.07602">
        <ele>2691.35</ele>
        <time>2016-09-02T12:07:36Z</time>
      </trkpt>
      <trkpt lat="44.69871" lon="7.07604">
        <ele>2691.83</ele>
        <time>2016-09-02T12:07:39Z</time>
      </trkpt>
      <trkpt lat="44.69867" lon="7.07609">
        <ele>2693.75</ele>
        <time>2016-09-02T12:07:52Z</time>
      </trkpt>
      <trkpt lat="44.69862" lon="7.07599">
        <ele>2696.15</ele>
        <time>2016-09-02T12:08:05Z</time>
      </trkpt>
      <trkpt lat="44.69859" lon="7.07592">
        <ele>2697.12</ele>
        <time>2016-09-02T12:08:17Z</time>
      </trkpt>
      <trkpt lat="44.69857" lon="7.07594">
        <ele>2697.6</ele>
        <time>2016-09-02T12:08:42Z</time>
      </trkpt>
      <trkpt lat="44.69857" lon="7.07588">
        <ele>2697.6</ele>
        <time>2016-09-02T12:08:50Z</time>
      </trkpt>
      <trkpt lat="44.69855" lon="7.0758">
        <ele>2700</ele>
        <time>2016-09-02T12:09:02Z</time>
      </trkpt>
      <trkpt lat="44.6985" lon="7.07585">
        <ele>2702.4</ele>
        <time>2016-09-02T12:09:13Z</time>
      </trkpt>
      <trkpt lat="44.69849" lon="7.07591">
        <ele>2703.85</ele>
        <time>2016-09-02T12:09:25Z</time>
      </trkpt>
      <trkpt lat="44.6985" lon="7.076">
        <ele>2706.73</ele>
        <time>2016-09-02T12:09:37Z</time>
      </trkpt>
      <trkpt lat="44.69847" lon="7.07607">
        <ele>2708.65</ele>
        <time>2016-09-02T12:09:49Z</time>
      </trkpt>
      <trkpt lat="44.69848" lon="7.07612">
        <ele>2711.54</ele>
        <time>2016-09-02T12:10:03Z</time>
      </trkpt>
      <trkpt lat="44.69845" lon="7.07619">
        <ele>2713.46</ele>
        <time>2016-09-02T12:10:16Z</time>
      </trkpt>
      <trkpt lat="44.6984" lon="7.07618">
        <ele>2715.38</ele>
        <time>2016-09-02T12:10:28Z</time>
      </trkpt>
      <trkpt lat="44.69836" lon="7.07609">
        <ele>2717.3</ele>
        <time>2016-09-02T12:10:39Z</time>
      </trkpt>
      <trkpt lat="44.69834" lon="7.07602">
        <ele>2718.27</ele>
        <time>2016-09-02T12:10:50Z</time>
      </trkpt>
      <trkpt lat="44.69831" lon="7.07602">
        <ele>2720.67</ele>
        <time>2016-09-02T12:11:05Z</time>
      </trkpt>
      <trkpt lat="44.69828" lon="7.07604">
        <ele>2721.63</ele>
        <time>2016-09-02T12:11:16Z</time>
      </trkpt>
      <trkpt lat="44.69825" lon="7.07609">
        <ele>2723.55</ele>
        <time>2016-09-02T12:11:24Z</time>
      </trkpt>
      <trkpt lat="44.69823" lon="7.07611">
        <ele>2723.55</ele>
        <time>2016-09-02T12:11:28Z</time>
      </trkpt>
      <trkpt lat="44.69816" lon="7.07619">
        <ele>2726.44</ele>
        <time>2016-09-02T12:11:41Z</time>
      </trkpt>
      <trkpt lat="44.69807" lon="7.07625">
        <ele>2727.4</ele>
        <time>2016-09-02T12:11:52Z</time>
      </trkpt>
      <trkpt lat="44.69804" lon="7.07628">
        <ele>2727.4</ele>
        <time>2016-09-02T12:11:56Z</time>
      </trkpt>
      <trkpt lat="44.69794" lon="7.07639">
        <ele>2729.32</ele>
        <time>2016-09-02T12:12:09Z</time>
      </trkpt>
      <trkpt lat="44.69789" lon="7.07642">
        <ele>2729.8</ele>
        <time>2016-09-02T12:12:14Z</time>
      </trkpt>
      <trkpt lat="44.69776" lon="7.07641">
        <ele>2730.76</ele>
        <time>2016-09-02T12:12:28Z</time>
      </trkpt>
      <trkpt lat="44.69773" lon="7.0764">
        <ele>2730.76</ele>
        <time>2016-09-02T12:12:31Z</time>
      </trkpt>
      <trkpt lat="44.69762" lon="7.07641">
        <ele>2732.68</ele>
        <time>2016-09-02T12:12:44Z</time>
      </trkpt>
      <trkpt lat="44.69754" lon="7.07643">
        <ele>2734.61</ele>
        <time>2016-09-02T12:12:56Z</time>
      </trkpt>
      <trkpt lat="44.69746" lon="7.07642">
        <ele>2737.49</ele>
        <time>2016-09-02T12:13:09Z</time>
      </trkpt>
      <trkpt lat="44.69742" lon="7.07639">
        <ele>2737.97</ele>
        <time>2016-09-02T12:13:14Z</time>
      </trkpt>
      <trkpt lat="44.6974" lon="7.07637">
        <ele>2737.97</ele>
        <time>2016-09-02T12:13:16Z</time>
      </trkpt>
      <trkpt lat="44.69728" lon="7.0764">
        <ele>2739.41</ele>
        <time>2016-09-02T12:13:31Z</time>
      </trkpt>
      <trkpt lat="44.69727" lon="7.07639">
        <ele>2739.41</ele>
        <time>2016-09-02T12:13:32Z</time>
      </trkpt>
      <trkpt lat="44.69717" lon="7.07632">
        <ele>2738.45</ele>
        <time>2016-09-02T12:13:41Z</time>
      </trkpt>
      <trkpt lat="44.69716" lon="7.07631">
        <ele>2737.49</ele>
        <time>2016-09-02T12:13:43Z</time>
      </trkpt>
      <trkpt lat="44.69705" lon="7.07627">
        <ele>2736.05</ele>
        <time>2016-09-02T12:13:52Z</time>
      </trkpt>
      <trkpt lat="44.69701" lon="7.07618">
        <ele>2736.05</ele>
        <time>2016-09-02T12:14:07Z</time>
      </trkpt>
      <trkpt lat="44.69695" lon="7.07615">
        <ele>2737.49</ele>
        <time>2016-09-02T12:14:21Z</time>
      </trkpt>
      <trkpt lat="44.69695" lon="7.07614">
        <ele>2737.49</ele>
        <time>2016-09-02T12:14:22Z</time>
      </trkpt>
      <trkpt lat="44.69691" lon="7.07612">
        <ele>2736.05</ele>
        <time>2016-09-02T12:14:26Z</time>
      </trkpt>
      <trkpt lat="44.6969" lon="7.07612">
        <ele>2736.05</ele>
        <time>2016-09-02T12:14:27Z</time>
      </trkpt>
      <trkpt lat="44.69677" lon="7.07609">
        <ele>2734.61</ele>
        <time>2016-09-02T12:14:41Z</time>
      </trkpt>
      <trkpt lat="44.69666" lon="7.07606">
        <ele>2734.61</ele>
        <time>2016-09-02T12:14:56Z</time>
      </trkpt>
      <trkpt lat="44.69666" lon="7.07606">
        <ele>2734.13</ele>
        <time>2016-09-02T12:15:03Z</time>
      </trkpt>
      <trkpt lat="44.69669" lon="7.07618">
        <ele>2734.13</ele>
        <time>2016-09-02T12:15:18Z</time>
      </trkpt>
      <trkpt lat="44.6967" lon="7.07618">
        <ele>2734.13</ele>
        <time>2016-09-02T12:15:44Z</time>
      </trkpt>
      <trkpt lat="44.69669" lon="7.0761">
        <ele>2734.13</ele>
        <time>2016-09-02T12:15:58Z</time>
      </trkpt>
      <trkpt lat="44.69669" lon="7.07608">
        <ele>2734.13</ele>
        <time>2016-09-02T12:16:22Z</time>
      </trkpt>
      <trkpt lat="44.69673" lon="7.07607">
        <ele>2734.13</ele>
        <time>2016-09-02T12:16:50Z</time>
      </trkpt>
      <trkpt lat="44.6967" lon="7.07605">
        <ele>2734.61</ele>
        <time>2016-09-02T12:17:16Z</time>
      </trkpt>
      <trkpt lat="44.6967" lon="7.07609">
        <ele>2734.61</ele>
        <time>2016-09-02T12:17:39Z</time>
      </trkpt>
      <trkpt lat="44.69671" lon="7.07612">
        <ele>2735.09</ele>
        <time>2016-09-02T12:18:07Z</time>
      </trkpt>
      <trkpt lat="44.6967" lon="7.07609">
        <ele>2735.57</ele>
        <time>2016-09-02T12:18:44Z</time>
      </trkpt>
      <trkpt lat="44.69683" lon="7.07604">
        <ele>2737.01</ele>
        <time>2016-09-02T12:18:58Z</time>
      </trkpt>
      <trkpt lat="44.69686" lon="7.07594">
        <ele>2738.93</ele>
        <time>2016-09-02T12:19:10Z</time>
      </trkpt>
      <trkpt lat="44.69688" lon="7.07585">
        <ele>2740.38</ele>
        <time>2016-09-02T12:19:21Z</time>
      </trkpt>
      <trkpt lat="44.69681" lon="7.07577">
        <ele>2740.38</ele>
        <time>2016-09-02T12:19:29Z</time>
      </trkpt>
      <trkpt lat="44.69677" lon="7.07559">
        <ele>2740.38</ele>
        <time>2016-09-02T12:19:44Z</time>
      </trkpt>
      <trkpt lat="44.69678" lon="7.07551">
        <ele>2741.82</ele>
        <time>2016-09-02T12:19:55Z</time>
      </trkpt>
      <trkpt lat="44.69686" lon="7.07544">
        <ele>2741.34</ele>
        <time>2016-09-02T12:20:07Z</time>
      </trkpt>
      <trkpt lat="44.69689" lon="7.07537">
        <ele>2740.86</ele>
        <time>2016-09-02T12:20:18Z</time>
      </trkpt>
      <trkpt lat="44.69689" lon="7.07528">
        <ele>2740.86</ele>
        <time>2016-09-02T12:20:30Z</time>
      </trkpt>
      <trkpt lat="44.69691" lon="7.07521">
        <ele>2739.89</ele>
        <time>2016-09-02T12:20:41Z</time>
      </trkpt>
      <trkpt lat="44.69694" lon="7.07515">
        <ele>2738.93</ele>
        <time>2016-09-02T12:20:53Z</time>
      </trkpt>
      <trkpt lat="44.69697" lon="7.07512">
        <ele>2740.38</ele>
        <time>2016-09-02T12:21:02Z</time>
      </trkpt>
      <trkpt lat="44.69701" lon="7.07505">
        <ele>2741.34</ele>
        <time>2016-09-02T12:21:16Z</time>
      </trkpt>
      <trkpt lat="44.69697" lon="7.07499">
        <ele>2741.82</ele>
        <time>2016-09-02T12:21:29Z</time>
      </trkpt>
      <trkpt lat="44.69701" lon="7.07487">
        <ele>2743.26</ele>
        <time>2016-09-02T12:21:43Z</time>
      </trkpt>
      <trkpt lat="44.69705" lon="7.07475">
        <ele>2745.66</ele>
        <time>2016-09-02T12:21:56Z</time>
      </trkpt>
      <trkpt lat="44.69712" lon="7.07466">
        <ele>2747.59</ele>
        <time>2016-09-02T12:22:11Z</time>
      </trkpt>
      <trkpt lat="44.69715" lon="7.07456">
        <ele>2749.99</ele>
        <time>2016-09-02T12:22:26Z</time>
      </trkpt>
      <trkpt lat="44.69718" lon="7.07448">
        <ele>2749.99</ele>
        <time>2016-09-02T12:22:36Z</time>
      </trkpt>
      <trkpt lat="44.69723" lon="7.0744">
        <ele>2748.07</ele>
        <time>2016-09-02T12:22:45Z</time>
      </trkpt>
      <trkpt lat="44.69728" lon="7.07427">
        <ele>2748.07</ele>
        <time>2016-09-02T12:22:59Z</time>
      </trkpt>
      <trkpt lat="44.69732" lon="7.07418">
        <ele>2751.43</ele>
        <time>2016-09-02T12:23:12Z</time>
      </trkpt>
      <trkpt lat="44.69733" lon="7.07411">
        <ele>2753.83</ele>
        <time>2016-09-02T12:23:26Z</time>
      </trkpt>
      <trkpt lat="44.69735" lon="7.07407">
        <ele>2756.24</ele>
        <time>2016-09-02T12:23:39Z</time>
      </trkpt>
      <trkpt lat="44.69732" lon="7.07401">
        <ele>2758.16</ele>
        <time>2016-09-02T12:23:57Z</time>
      </trkpt>
      <trkpt lat="44.69732" lon="7.07397">
        <ele>2760.08</ele>
        <time>2016-09-02T12:24:08Z</time>
      </trkpt>
      <trkpt lat="44.69727" lon="7.07394">
        <ele>2762.97</ele>
        <time>2016-09-02T12:24:22Z</time>
      </trkpt>
      <trkpt lat="44.69729" lon="7.07387">
        <ele>2765.37</ele>
        <time>2016-09-02T12:24:36Z</time>
      </trkpt>
      <trkpt lat="44.69732" lon="7.07377">
        <ele>2767.29</ele>
        <time>2016-09-02T12:24:51Z</time>
      </trkpt>
      <trkpt lat="44.69736" lon="7.07367">
        <ele>2769.7</ele>
        <time>2016-09-02T12:25:05Z</time>
      </trkpt>
      <trkpt lat="44.69736" lon="7.0736">
        <ele>2771.62</ele>
        <time>2016-09-02T12:25:17Z</time>
      </trkpt>
      <trkpt lat="44.69738" lon="7.07351">
        <ele>2773.54</ele>
        <time>2016-09-02T12:25:33Z</time>
      </trkpt>
      <trkpt lat="44.6974" lon="7.07345">
        <ele>2775.94</ele>
        <time>2016-09-02T12:25:44Z</time>
      </trkpt>
      <trkpt lat="44.69744" lon="7.07335">
        <ele>2777.87</ele>
        <time>2016-09-02T12:25:56Z</time>
      </trkpt>
      <trkpt lat="44.69748" lon="7.07331">
        <ele>2780.75</ele>
        <time>2016-09-02T12:26:12Z</time>
      </trkpt>
      <trkpt lat="44.69752" lon="7.0732">
        <ele>2783.15</ele>
        <time>2016-09-02T12:26:26Z</time>
      </trkpt>
      <trkpt lat="44.6975" lon="7.07319">
        <ele>2785.08</ele>
        <time>2016-09-02T12:26:42Z</time>
      </trkpt>
      <trkpt lat="44.69748" lon="7.07324">
        <ele>2785.08</ele>
        <time>2016-09-02T12:26:58Z</time>
      </trkpt>
      <trkpt lat="44.69748" lon="7.07322">
        <ele>2785.08</ele>
        <time>2016-09-02T12:27:13Z</time>
      </trkpt>
      <trkpt lat="44.69746" lon="7.07332">
        <ele>2785.08</ele>
        <time>2016-09-02T12:27:39Z</time>
      </trkpt>
      <trkpt lat="44.69748" lon="7.07323">
        <ele>2783.63</ele>
        <time>2016-09-02T12:27:58Z</time>
      </trkpt>
      <trkpt lat="44.69749" lon="7.07328">
        <ele>2783.63</ele>
        <time>2016-09-02T12:28:25Z</time>
      </trkpt>
      <trkpt lat="44.6975" lon="7.07327">
        <ele>2785.08</ele>
        <time>2016-09-02T12:28:43Z</time>
      </trkpt>
      <trkpt lat="44.69749" lon="7.07324">
        <ele>2785.08</ele>
        <time>2016-09-02T12:28:58Z</time>
      </trkpt>
      <trkpt lat="44.6975" lon="7.07325">
        <ele>2785.08</ele>
        <time>2016-09-02T12:29:26Z</time>
      </trkpt>
      <trkpt lat="44.6975" lon="7.07323">
        <ele>2786.52</ele>
        <time>2016-09-02T12:29:42Z</time>
      </trkpt>
      <trkpt lat="44.69748" lon="7.0732">
        <ele>2789.4</ele>
        <time>2016-09-02T12:29:54Z</time>
      </trkpt>
      <trkpt lat="44.69747" lon="7.07314">
        <ele>2791.81</ele>
        <time>2016-09-02T12:30:03Z</time>
      </trkpt>
      <trkpt lat="44.69741" lon="7.07311">
        <ele>2794.21</ele>
        <time>2016-09-02T12:30:15Z</time>
      </trkpt>
      <trkpt lat="44.69738" lon="7.07311">
        <ele>2795.65</ele>
        <time>2016-09-02T12:30:26Z</time>
      </trkpt>
      <trkpt lat="44.69739" lon="7.07308">
        <ele>2797.57</ele>
        <time>2016-09-02T12:30:40Z</time>
      </trkpt>
      <trkpt lat="44.69737" lon="7.073">
        <ele>2799.5</ele>
        <time>2016-09-02T12:30:51Z</time>
      </trkpt>
      <trkpt lat="44.6974" lon="7.0729">
        <ele>2801.42</ele>
        <time>2016-09-02T12:31:04Z</time>
      </trkpt>
      <trkpt lat="44.69743" lon="7.07279">
        <ele>2802.86</ele>
        <time>2016-09-02T12:31:16Z</time>
      </trkpt>
      <trkpt lat="44.69751" lon="7.07272">
        <ele>2804.78</ele>
        <time>2016-09-02T12:31:29Z</time>
      </trkpt>
      <trkpt lat="44.69752" lon="7.07276">
        <ele>2804.78</ele>
        <time>2016-09-02T12:31:53Z</time>
      </trkpt>
      <trkpt lat="44.69755" lon="7.0727">
        <ele>2805.75</ele>
        <time>2016-09-02T12:32:06Z</time>
      </trkpt>
      <trkpt lat="44.69754" lon="7.07266">
        <ele>2808.63</ele>
        <time>2016-09-02T12:32:18Z</time>
      </trkpt>
      <trkpt lat="44.69757" lon="7.07264">
        <ele>2811.03</ele>
        <time>2016-09-02T12:32:29Z</time>
      </trkpt>
      <trkpt lat="44.69754" lon="7.07265">
        <ele>2811.51</ele>
        <time>2016-09-02T12:32:42Z</time>
      </trkpt>
      <trkpt lat="44.69753" lon="7.07264">
        <ele>2812.47</ele>
        <time>2016-09-02T12:33:02Z</time>
      </trkpt>
      <trkpt lat="44.6975" lon="7.0726">
        <ele>2815.84</ele>
        <time>2016-09-02T12:33:15Z</time>
      </trkpt>
      <trkpt lat="44.69748" lon="7.07259">
        <ele>2818.72</ele>
        <time>2016-09-02T12:33:31Z</time>
      </trkpt>
      <trkpt lat="44.69747" lon="7.07263">
        <ele>2819.2</ele>
        <time>2016-09-02T12:33:52Z</time>
      </trkpt>
      <trkpt lat="44.69746" lon="7.0726">
        <ele>2819.68</ele>
        <time>2016-09-02T12:34:04Z</time>
      </trkpt>
      <trkpt lat="44.69745" lon="7.07255">
        <ele>2823.05</ele>
        <time>2016-09-02T12:34:18Z</time>
      </trkpt>
      <trkpt lat="44.69741" lon="7.07253">
        <ele>2824.97</ele>
        <time>2016-09-02T12:34:31Z</time>
      </trkpt>
      <trkpt lat="44.69741" lon="7.07251">
        <ele>2825.45</ele>
        <time>2016-09-02T12:34:50Z</time>
      </trkpt>
      <trkpt lat="44.69744" lon="7.07251">
        <ele>2825.45</ele>
        <time>2016-09-02T12:35:07Z</time>
      </trkpt>
      <trkpt lat="44.69746" lon="7.07246">
        <ele>2826.89</ele>
        <time>2016-09-02T12:35:19Z</time>
      </trkpt>
      <trkpt lat="44.69748" lon="7.07249">
        <ele>2828.34</ele>
        <time>2016-09-02T12:35:35Z</time>
      </trkpt>
      <trkpt lat="44.69746" lon="7.07248">
        <ele>2829.78</ele>
        <time>2016-09-02T12:35:59Z</time>
      </trkpt>
      <trkpt lat="44.69743" lon="7.07243">
        <ele>2832.18</ele>
        <time>2016-09-02T12:36:12Z</time>
      </trkpt>
      <trkpt lat="44.69742" lon="7.0724">
        <ele>2834.58</ele>
        <time>2016-09-02T12:36:26Z</time>
      </trkpt>
      <trkpt lat="44.69736" lon="7.07238">
        <ele>2835.55</ele>
        <time>2016-09-02T12:36:39Z</time>
      </trkpt>
      <trkpt lat="44.69734" lon="7.07234">
        <ele>2836.51</ele>
        <time>2016-09-02T12:36:52Z</time>
      </trkpt>
      <trkpt lat="44.69735" lon="7.07232">
        <ele>2839.87</ele>
        <time>2016-09-02T12:37:09Z</time>
      </trkpt>
      <trkpt lat="44.69737" lon="7.07232">
        <ele>2841.31</ele>
        <time>2016-09-02T12:37:23Z</time>
      </trkpt>
      <trkpt lat="44.69742" lon="7.07232">
        <ele>2841.31</ele>
        <time>2016-09-02T12:37:45Z</time>
      </trkpt>
      <trkpt lat="44.69742" lon="7.07229">
        <ele>2842.76</ele>
        <time>2016-09-02T12:38:01Z</time>
      </trkpt>
      <trkpt lat="44.69743" lon="7.07227">
        <ele>2845.64</ele>
        <time>2016-09-02T12:38:15Z</time>
      </trkpt>
      <trkpt lat="44.69744" lon="7.07225">
        <ele>2848.52</ele>
        <time>2016-09-02T12:38:28Z</time>
      </trkpt>
      <trkpt lat="44.69746" lon="7.07229">
        <ele>2849.48</ele>
        <time>2016-09-02T12:38:40Z</time>
      </trkpt>
      <trkpt lat="44.69739" lon="7.07225">
        <ele>2851.41</ele>
        <time>2016-09-02T12:38:53Z</time>
      </trkpt>
      <trkpt lat="44.69734" lon="7.07224">
        <ele>2853.33</ele>
        <time>2016-09-02T12:39:03Z</time>
      </trkpt>
      <trkpt lat="44.6973" lon="7.07223">
        <ele>2854.77</ele>
        <time>2016-09-02T12:39:14Z</time>
      </trkpt>
      <trkpt lat="44.69728" lon="7.07223">
        <ele>2857.18</ele>
        <time>2016-09-02T12:39:27Z</time>
      </trkpt>
      <trkpt lat="44.69722" lon="7.07221">
        <ele>2858.62</ele>
        <time>2016-09-02T12:39:44Z</time>
      </trkpt>
      <trkpt lat="44.69721" lon="7.07217">
        <ele>2859.1</ele>
        <time>2016-09-02T12:40:06Z</time>
      </trkpt>
      <trkpt lat="44.6972" lon="7.07213">
        <ele>2859.58</ele>
        <time>2016-09-02T12:40:23Z</time>
      </trkpt>
      <trkpt lat="44.69719" lon="7.07209">
        <ele>2861.98</ele>
        <time>2016-09-02T12:40:36Z</time>
      </trkpt>
      <trkpt lat="44.69719" lon="7.07207">
        <ele>2863.9</ele>
        <time>2016-09-02T12:40:46Z</time>
      </trkpt>
      <trkpt lat="44.69719" lon="7.07208">
        <ele>2866.31</ele>
        <time>2016-09-02T12:41:00Z</time>
      </trkpt>
      <trkpt lat="44.69717" lon="7.07205">
        <ele>2869.67</ele>
        <time>2016-09-02T12:41:16Z</time>
      </trkpt>
      <trkpt lat="44.69712" lon="7.07204">
        <ele>2872.08</ele>
        <time>2016-09-02T12:41:31Z</time>
      </trkpt>
      <trkpt lat="44.69711" lon="7.07199">
        <ele>2873.52</ele>
        <time>2016-09-02T12:41:42Z</time>
      </trkpt>
      <trkpt lat="44.69708" lon="7.07196">
        <ele>2875.92</ele>
        <time>2016-09-02T12:41:55Z</time>
      </trkpt>
      <trkpt lat="44.69713" lon="7.07195">
        <ele>2877.84</ele>
        <time>2016-09-02T12:42:09Z</time>
      </trkpt>
      <trkpt lat="44.69715" lon="7.07198">
        <ele>2878.32</ele>
        <time>2016-09-02T12:42:26Z</time>
      </trkpt>
      <trkpt lat="44.69712" lon="7.07196">
        <ele>2879.29</ele>
        <time>2016-09-02T12:42:45Z</time>
      </trkpt>
      <trkpt lat="44.69707" lon="7.07194">
        <ele>2880.73</ele>
        <time>2016-09-02T12:42:57Z</time>
      </trkpt>
      <trkpt lat="44.69708" lon="7.07189">
        <ele>2882.17</ele>
        <time>2016-09-02T12:43:07Z</time>
      </trkpt>
      <trkpt lat="44.69713" lon="7.07188">
        <ele>2884.57</ele>
        <time>2016-09-02T12:43:19Z</time>
      </trkpt>
      <trkpt lat="44.69705" lon="7.07184">
        <ele>2886.5</ele>
        <time>2016-09-02T12:43:34Z</time>
      </trkpt>
      <trkpt lat="44.69704" lon="7.07179">
        <ele>2886.98</ele>
        <time>2016-09-02T12:43:51Z</time>
      </trkpt>
      <trkpt lat="44.69701" lon="7.07175">
        <ele>2887.94</ele>
        <time>2016-09-02T12:44:12Z</time>
      </trkpt>
      <trkpt lat="44.697" lon="7.07175">
        <ele>2888.42</ele>
        <time>2016-09-02T12:44:23Z</time>
      </trkpt>
      <trkpt lat="44.69704" lon="7.07177">
        <ele>2888.9</ele>
        <time>2016-09-02T12:44:41Z</time>
      </trkpt>
      <trkpt lat="44.69712" lon="7.07178">
        <ele>2890.82</ele>
        <time>2016-09-02T12:44:54Z</time>
      </trkpt>
      <trkpt lat="44.69714" lon="7.07178">
        <ele>2893.23</ele>
        <time>2016-09-02T12:45:06Z</time>
      </trkpt>
      <trkpt lat="44.69719" lon="7.07179">
        <ele>2895.15</ele>
        <time>2016-09-02T12:45:19Z</time>
      </trkpt>
      <trkpt lat="44.69721" lon="7.07178">
        <ele>2896.11</ele>
        <time>2016-09-02T12:45:32Z</time>
      </trkpt>
      <trkpt lat="44.6972" lon="7.07175">
        <ele>2898.03</ele>
        <time>2016-09-02T12:45:47Z</time>
      </trkpt>
      <trkpt lat="44.69718" lon="7.07173">
        <ele>2900.44</ele>
        <time>2016-09-02T12:46:02Z</time>
      </trkpt>
      <trkpt lat="44.69717" lon="7.07172">
        <ele>2901.4</ele>
        <time>2016-09-02T12:46:18Z</time>
      </trkpt>
      <trkpt lat="44.69711" lon="7.07173">
        <ele>2902.36</ele>
        <time>2016-09-02T12:46:29Z</time>
      </trkpt>
      <trkpt lat="44.69705" lon="7.07174">
        <ele>2902.84</ele>
        <time>2016-09-02T12:46:40Z</time>
      </trkpt>
      <trkpt lat="44.69702" lon="7.07172">
        <ele>2903.8</ele>
        <time>2016-09-02T12:46:52Z</time>
      </trkpt>
      <trkpt lat="44.69699" lon="7.0717">
        <ele>2906.2</ele>
        <time>2016-09-02T12:47:04Z</time>
      </trkpt>
      <trkpt lat="44.69694" lon="7.07166">
        <ele>2906.68</ele>
        <time>2016-09-02T12:47:18Z</time>
      </trkpt>
      <trkpt lat="44.69694" lon="7.07165">
        <ele>2907.16</ele>
        <time>2016-09-02T12:47:32Z</time>
      </trkpt>
      <trkpt lat="44.69692" lon="7.07162">
        <ele>2907.16</ele>
        <time>2016-09-02T12:47:44Z</time>
      </trkpt>
      <trkpt lat="44.69691" lon="7.07161">
        <ele>2907.65</ele>
        <time>2016-09-02T12:47:54Z</time>
      </trkpt>
      <trkpt lat="44.69691" lon="7.07161">
        <ele>2907.65</ele>
        <time>2016-09-02T12:48:15Z</time>
      </trkpt>
      <trkpt lat="44.69694" lon="7.0716">
        <ele>2907.65</ele>
        <time>2016-09-02T12:48:32Z</time>
      </trkpt>
      <trkpt lat="44.69694" lon="7.0716">
        <ele>2900.44</ele>
        <time>2016-09-02T12:48:43Z</time>
      </trkpt>
      <trkpt lat="44.69694" lon="7.0716">
        <ele>2900.44</ele>
        <time>2016-09-02T12:48:44Z</time>
      </trkpt>
      <trkpt lat="44.69693" lon="7.07161">
        <ele>2920.14</ele>
        <time>2016-09-02T12:48:47Z</time>
      </trkpt>
      <trkpt lat="44.69693" lon="7.07161">
        <ele>2920.14</ele>
        <time>2016-09-02T12:48:48Z</time>
      </trkpt>
      <trkpt lat="44.69696" lon="7.07161">
        <ele>2920.14</ele>
        <time>2016-09-02T12:49:07Z</time>
      </trkpt>
      <trkpt lat="44.69694" lon="7.07161">
        <ele>2918.7</ele>
        <time>2016-09-02T12:49:19Z</time>
      </trkpt>
      <trkpt lat="44.69694" lon="7.0716">
        <ele>2918.7</ele>
        <time>2016-09-02T12:49:56Z</time>
      </trkpt>
      <trkpt lat="44.69694" lon="7.07161">
        <ele>2919.18</ele>
        <time>2016-09-02T12:50:24Z</time>
      </trkpt>
      <trkpt lat="44.69694" lon="7.07162">
        <ele>2919.18</ele>
        <time>2016-09-02T12:50:51Z</time>
      </trkpt>
      <trkpt lat="44.69695" lon="7.0716">
        <ele>2919.18</ele>
        <time>2016-09-02T12:51:25Z</time>
      </trkpt>
      <trkpt lat="44.69697" lon="7.07162">
        <ele>2919.18</ele>
        <time>2016-09-02T12:52:04Z</time>
      </trkpt>
      <trkpt lat="44.69695" lon="7.07161">
        <ele>2920.62</ele>
        <time>2016-09-02T12:52:09Z</time>
      </trkpt>
      <trkpt lat="44.69694" lon="7.0716">
        <ele>2920.62</ele>
        <time>2016-09-02T12:52:30Z</time>
      </trkpt>
      <trkpt lat="44.69692" lon="7.07163">
        <ele>2920.62</ele>
        <time>2016-09-02T12:52:53Z</time>
      </trkpt>
      <trkpt lat="44.69691" lon="7.07165">
        <ele>2920.62</ele>
        <time>2016-09-02T12:52:55Z</time>
      </trkpt>
      <trkpt lat="44.69684" lon="7.07165">
        <ele>2920.62</ele>
        <time>2016-09-02T12:53:08Z</time>
      </trkpt>
      <trkpt lat="44.69677" lon="7.07159">
        <ele>2918.22</ele>
        <time>2016-09-02T12:53:21Z</time>
      </trkpt>
      <trkpt lat="44.69673" lon="7.07153">
        <ele>2916.78</ele>
        <time>2016-09-02T12:53:35Z</time>
      </trkpt>
      <trkpt lat="44.69669" lon="7.07152">
        <ele>2914.37</ele>
        <time>2016-09-02T12:53:46Z</time>
      </trkpt>
      <trkpt lat="44.69664" lon="7.07151">
        <ele>2911.97</ele>
        <time>2016-09-02T12:53:59Z</time>
      </trkpt>
      <trkpt lat="44.69662" lon="7.0715">
        <ele>2911.01</ele>
        <time>2016-09-02T12:54:11Z</time>
      </trkpt>
      <trkpt lat="44.69664" lon="7.07149">
        <ele>2911.01</ele>
        <time>2016-09-02T12:54:14Z</time>
      </trkpt>
      <trkpt lat="44.69668" lon="7.07143">
        <ele>2909.57</ele>
        <time>2016-09-02T12:54:27Z</time>
      </trkpt>
      <trkpt lat="44.69669" lon="7.07138">
        <ele>2908.61</ele>
        <time>2016-09-02T12:54:37Z</time>
      </trkpt>
      <trkpt lat="44.69674" lon="7.07133">
        <ele>2907.65</ele>
        <time>2016-09-02T12:54:48Z</time>
      </trkpt>
      <trkpt lat="44.69673" lon="7.0713">
        <ele>2906.2</ele>
        <time>2016-09-02T12:55:00Z</time>
      </trkpt>
      <trkpt lat="44.69672" lon="7.07124">
        <ele>2902.84</ele>
        <time>2016-09-02T12:55:12Z</time>
      </trkpt>
      <trkpt lat="44.69665" lon="7.07122">
        <ele>2899.95</ele>
        <time>2016-09-02T12:55:23Z</time>
      </trkpt>
      <trkpt lat="44.69664" lon="7.07113">
        <ele>2897.55</ele>
        <time>2016-09-02T12:55:35Z</time>
      </trkpt>
      <trkpt lat="44.69663" lon="7.07108">
        <ele>2894.19</ele>
        <time>2016-09-02T12:55:48Z</time>
      </trkpt>
      <trkpt lat="44.69663" lon="7.07107">
        <ele>2894.19</ele>
        <time>2016-09-02T12:55:49Z</time>
      </trkpt>
      <trkpt lat="44.69658" lon="7.07102">
        <ele>2891.78</ele>
        <time>2016-09-02T12:56:03Z</time>
      </trkpt>
      <trkpt lat="44.69652" lon="7.07099">
        <ele>2888.9</ele>
        <time>2016-09-02T12:56:15Z</time>
      </trkpt>
      <trkpt lat="44.6965" lon="7.07094">
        <ele>2886.5</ele>
        <time>2016-09-02T12:56:28Z</time>
      </trkpt>
      <trkpt lat="44.69647" lon="7.0709">
        <ele>2885.53</ele>
        <time>2016-09-02T12:56:44Z</time>
      </trkpt>
      <trkpt lat="44.69645" lon="7.07091">
        <ele>2884.57</ele>
        <time>2016-09-02T12:56:58Z</time>
      </trkpt>
      <trkpt lat="44.69639" lon="7.07089">
        <ele>2882.17</ele>
        <time>2016-09-02T12:57:13Z</time>
      </trkpt>
      <trkpt lat="44.69634" lon="7.07089">
        <ele>2880.25</ele>
        <time>2016-09-02T12:57:26Z</time>
      </trkpt>
      <trkpt lat="44.69629" lon="7.07088">
        <ele>2878.32</ele>
        <time>2016-09-02T12:57:37Z</time>
      </trkpt>
      <trkpt lat="44.69626" lon="7.07086">
        <ele>2877.36</ele>
        <time>2016-09-02T12:57:47Z</time>
      </trkpt>
      <trkpt lat="44.69621" lon="7.07085">
        <ele>2875.44</ele>
        <time>2016-09-02T12:58:00Z</time>
      </trkpt>
      <trkpt lat="44.69616" lon="7.07085">
        <ele>2872.56</ele>
        <time>2016-09-02T12:58:11Z</time>
      </trkpt>
      <trkpt lat="44.69614" lon="7.07078">
        <ele>2870.15</ele>
        <time>2016-09-02T12:58:26Z</time>
      </trkpt>
      <trkpt lat="44.69612" lon="7.07071">
        <ele>2867.27</ele>
        <time>2016-09-02T12:58:37Z</time>
      </trkpt>
      <trkpt lat="44.6961" lon="7.07064">
        <ele>2864.39</ele>
        <time>2016-09-02T12:58:48Z</time>
      </trkpt>
      <trkpt lat="44.69605" lon="7.0706">
        <ele>2861.98</ele>
        <time>2016-09-02T12:59:01Z</time>
      </trkpt>
      <trkpt lat="44.69603" lon="7.07065">
        <ele>2859.58</ele>
        <time>2016-09-02T12:59:16Z</time>
      </trkpt>
      <trkpt lat="44.69602" lon="7.07063">
        <ele>2857.66</ele>
        <time>2016-09-02T12:59:29Z</time>
      </trkpt>
      <trkpt lat="44.696" lon="7.07062">
        <ele>2855.73</ele>
        <time>2016-09-02T12:59:44Z</time>
      </trkpt>
      <trkpt lat="44.69598" lon="7.07066">
        <ele>2854.29</ele>
        <time>2016-09-02T12:59:55Z</time>
      </trkpt>
      <trkpt lat="44.69597" lon="7.07066">
        <ele>2853.33</ele>
        <time>2016-09-02T13:00:11Z</time>
      </trkpt>
      <trkpt lat="44.69594" lon="7.07068">
        <ele>2851.89</ele>
        <time>2016-09-02T13:00:16Z</time>
      </trkpt>
      <trkpt lat="44.69591" lon="7.07066">
        <ele>2849.48</ele>
        <time>2016-09-02T13:00:27Z</time>
      </trkpt>
      <trkpt lat="44.69588" lon="7.07065">
        <ele>2848.04</ele>
        <time>2016-09-02T13:00:38Z</time>
      </trkpt>
      <trkpt lat="44.69586" lon="7.07065">
        <ele>2846.6</ele>
        <time>2016-09-02T13:00:42Z</time>
      </trkpt>
      <trkpt lat="44.69583" lon="7.07062">
        <ele>2843.72</ele>
        <time>2016-09-02T13:00:53Z</time>
      </trkpt>
      <trkpt lat="44.69578" lon="7.07061">
        <ele>2841.79</ele>
        <time>2016-09-02T13:01:03Z</time>
      </trkpt>
      <trkpt lat="44.69573" lon="7.07061">
        <ele>2839.39</ele>
        <time>2016-09-02T13:01:12Z</time>
      </trkpt>
      <trkpt lat="44.69572" lon="7.07066">
        <ele>2834.58</ele>
        <time>2016-09-02T13:01:25Z</time>
      </trkpt>
      <trkpt lat="44.69572" lon="7.07066">
        <ele>2834.58</ele>
        <time>2016-09-02T13:01:26Z</time>
      </trkpt>
      <trkpt lat="44.69571" lon="7.07069">
        <ele>2833.14</ele>
        <time>2016-09-02T13:01:36Z</time>
      </trkpt>
      <trkpt lat="44.69568" lon="7.0707">
        <ele>2829.78</ele>
        <time>2016-09-02T13:01:46Z</time>
      </trkpt>
      <trkpt lat="44.69565" lon="7.07071">
        <ele>2827.85</ele>
        <time>2016-09-02T13:01:57Z</time>
      </trkpt>
      <trkpt lat="44.69564" lon="7.07069">
        <ele>2824.97</ele>
        <time>2016-09-02T13:02:11Z</time>
      </trkpt>
      <trkpt lat="44.69563" lon="7.07065">
        <ele>2823.05</ele>
        <time>2016-09-02T13:02:22Z</time>
      </trkpt>
      <trkpt lat="44.69561" lon="7.07062">
        <ele>2821.13</ele>
        <time>2016-09-02T13:02:33Z</time>
      </trkpt>
      <trkpt lat="44.69559" lon="7.0706">
        <ele>2818.72</ele>
        <time>2016-09-02T13:02:44Z</time>
      </trkpt>
      <trkpt lat="44.69561" lon="7.07064">
        <ele>2818.72</ele>
        <time>2016-09-02T13:03:09Z</time>
      </trkpt>
      <trkpt lat="44.69559" lon="7.07059">
        <ele>2817.76</ele>
        <time>2016-09-02T13:03:21Z</time>
      </trkpt>
      <trkpt lat="44.69557" lon="7.07059">
        <ele>2815.36</ele>
        <time>2016-09-02T13:03:33Z</time>
      </trkpt>
      <trkpt lat="44.69556" lon="7.07053">
        <ele>2812.96</ele>
        <time>2016-09-02T13:03:45Z</time>
      </trkpt>
      <trkpt lat="44.69552" lon="7.07053">
        <ele>2809.11</ele>
        <time>2016-09-02T13:04:00Z</time>
      </trkpt>
      <trkpt lat="44.69546" lon="7.07057">
        <ele>2806.23</ele>
        <time>2016-09-02T13:04:13Z</time>
      </trkpt>
      <trkpt lat="44.69542" lon="7.07059">
        <ele>2804.78</ele>
        <time>2016-09-02T13:04:24Z</time>
      </trkpt>
      <trkpt lat="44.69542" lon="7.07055">
        <ele>2801.42</ele>
        <time>2016-09-02T13:04:35Z</time>
      </trkpt>
      <trkpt lat="44.69541" lon="7.07052">
        <ele>2798.05</ele>
        <time>2016-09-02T13:04:49Z</time>
      </trkpt>
      <trkpt lat="44.69535" lon="7.07053">
        <ele>2794.69</ele>
        <time>2016-09-02T13:05:01Z</time>
      </trkpt>
      <trkpt lat="44.69535" lon="7.07049">
        <ele>2793.25</ele>
        <time>2016-09-02T13:05:07Z</time>
      </trkpt>
      <trkpt lat="44.6953" lon="7.0705">
        <ele>2790.84</ele>
        <time>2016-09-02T13:05:17Z</time>
      </trkpt>
      <trkpt lat="44.69526" lon="7.07057">
        <ele>2787.96</ele>
        <time>2016-09-02T13:05:28Z</time>
      </trkpt>
      <trkpt lat="44.69521" lon="7.07054">
        <ele>2786.04</ele>
        <time>2016-09-02T13:05:36Z</time>
      </trkpt>
      <trkpt lat="44.69518" lon="7.07045">
        <ele>2782.67</ele>
        <time>2016-09-02T13:05:48Z</time>
      </trkpt>
      <trkpt lat="44.69518" lon="7.07038">
        <ele>2779.31</ele>
        <time>2016-09-02T13:06:00Z</time>
      </trkpt>
      <trkpt lat="44.69516" lon="7.07039">
        <ele>2779.31</ele>
        <time>2016-09-02T13:06:04Z</time>
      </trkpt>
      <trkpt lat="44.69513" lon="7.07047">
        <ele>2776.91</ele>
        <time>2016-09-02T13:06:16Z</time>
      </trkpt>
      <trkpt lat="44.69515" lon="7.07045">
        <ele>2776.42</ele>
        <time>2016-09-02T13:06:43Z</time>
      </trkpt>
      <trkpt lat="44.69512" lon="7.07038">
        <ele>2774.02</ele>
        <time>2016-09-02T13:06:57Z</time>
      </trkpt>
      <trkpt lat="44.69502" lon="7.07031">
        <ele>2770.66</ele>
        <time>2016-09-02T13:07:11Z</time>
      </trkpt>
      <trkpt lat="44.69504" lon="7.07021">
        <ele>2767.77</ele>
        <time>2016-09-02T13:07:24Z</time>
      </trkpt>
      <trkpt lat="44.69503" lon="7.07014">
        <ele>2764.89</ele>
        <time>2016-09-02T13:07:32Z</time>
      </trkpt>
      <trkpt lat="44.69506" lon="7.07003">
        <ele>2762</ele>
        <time>2016-09-02T13:07:44Z</time>
      </trkpt>
      <trkpt lat="44.69506" lon="7.06993">
        <ele>2758.64</ele>
        <time>2016-09-02T13:07:57Z</time>
      </trkpt>
      <trkpt lat="44.69499" lon="7.06991">
        <ele>2755.28</ele>
        <time>2016-09-02T13:08:08Z</time>
      </trkpt>
      <trkpt lat="44.69499" lon="7.06978">
        <ele>2751.43</ele>
        <time>2016-09-02T13:08:20Z</time>
      </trkpt>
      <trkpt lat="44.695" lon="7.06975">
        <ele>2749.51</ele>
        <time>2016-09-02T13:08:30Z</time>
      </trkpt>
      <trkpt lat="44.69496" lon="7.0697">
        <ele>2747.1</ele>
        <time>2016-09-02T13:08:40Z</time>
      </trkpt>
      <trkpt lat="44.69492" lon="7.06965">
        <ele>2744.22</ele>
        <time>2016-09-02T13:08:49Z</time>
      </trkpt>
      <trkpt lat="44.69494" lon="7.06955">
        <ele>2740.86</ele>
        <time>2016-09-02T13:09:00Z</time>
      </trkpt>
      <trkpt lat="44.69495" lon="7.06945">
        <ele>2738.45</ele>
        <time>2016-09-02T13:09:10Z</time>
      </trkpt>
      <trkpt lat="44.69493" lon="7.06944">
        <ele>2737.49</ele>
        <time>2016-09-02T13:09:13Z</time>
      </trkpt>
      <trkpt lat="44.6949" lon="7.06945">
        <ele>2737.01</ele>
        <time>2016-09-02T13:09:15Z</time>
      </trkpt>
      <trkpt lat="44.69483" lon="7.06937">
        <ele>2733.17</ele>
        <time>2016-09-02T13:09:28Z</time>
      </trkpt>
      <trkpt lat="44.69485" lon="7.06926">
        <ele>2729.8</ele>
        <time>2016-09-02T13:09:39Z</time>
      </trkpt>
      <trkpt lat="44.69482" lon="7.06921">
        <ele>2726.92</ele>
        <time>2016-09-02T13:09:52Z</time>
      </trkpt>
      <trkpt lat="44.69473" lon="7.06918">
        <ele>2724.03</ele>
        <time>2016-09-02T13:10:03Z</time>
      </trkpt>
      <trkpt lat="44.69469" lon="7.06913">
        <ele>2721.63</ele>
        <time>2016-09-02T13:10:13Z</time>
      </trkpt>
      <trkpt lat="44.69474" lon="7.06904">
        <ele>2720.67</ele>
        <time>2016-09-02T13:10:23Z</time>
      </trkpt>
      <trkpt lat="44.69479" lon="7.06893">
        <ele>2719.23</ele>
        <time>2016-09-02T13:10:36Z</time>
      </trkpt>
      <trkpt lat="44.69476" lon="7.06882">
        <ele>2715.86</ele>
        <time>2016-09-02T13:10:49Z</time>
      </trkpt>
      <trkpt lat="44.69476" lon="7.06873">
        <ele>2713.46</ele>
        <time>2016-09-02T13:11:00Z</time>
      </trkpt>
      <trkpt lat="44.69475" lon="7.06865">
        <ele>2711.06</ele>
        <time>2016-09-02T13:11:09Z</time>
      </trkpt>
      <trkpt lat="44.69478" lon="7.06857">
        <ele>2710.09</ele>
        <time>2016-09-02T13:11:21Z</time>
      </trkpt>
      <trkpt lat="44.69482" lon="7.06845">
        <ele>2710.09</ele>
        <time>2016-09-02T13:11:34Z</time>
      </trkpt>
      <trkpt lat="44.69481" lon="7.06832">
        <ele>2706.73</ele>
        <time>2016-09-02T13:11:46Z</time>
      </trkpt>
      <trkpt lat="44.69482" lon="7.0682">
        <ele>2704.33</ele>
        <time>2016-09-02T13:11:59Z</time>
      </trkpt>
      <trkpt lat="44.69478" lon="7.06808">
        <ele>2702.88</ele>
        <time>2016-09-02T13:12:07Z</time>
      </trkpt>
      <trkpt lat="44.69474" lon="7.06792">
        <ele>2700</ele>
        <time>2016-09-02T13:12:21Z</time>
      </trkpt>
      <trkpt lat="44.69474" lon="7.06778">
        <ele>2698.08</ele>
        <time>2016-09-02T13:12:32Z</time>
      </trkpt>
      <trkpt lat="44.69465" lon="7.06761">
        <ele>2697.12</ele>
        <time>2016-09-02T13:12:46Z</time>
      </trkpt>
      <trkpt lat="44.69465" lon="7.06759">
        <ele>2696.64</ele>
        <time>2016-09-02T13:12:47Z</time>
      </trkpt>
      <trkpt lat="44.69461" lon="7.06742">
        <ele>2694.71</ele>
        <time>2016-09-02T13:12:57Z</time>
      </trkpt>
      <trkpt lat="44.6946" lon="7.0674">
        <ele>2694.23</ele>
        <time>2016-09-02T13:12:59Z</time>
      </trkpt>
      <trkpt lat="44.69456" lon="7.0672">
        <ele>2691.35</ele>
        <time>2016-09-02T13:13:13Z</time>
      </trkpt>
      <trkpt lat="44.69456" lon="7.06702">
        <ele>2688.94</ele>
        <time>2016-09-02T13:13:26Z</time>
      </trkpt>
      <trkpt lat="44.69457" lon="7.06699">
        <ele>2688.94</ele>
        <time>2016-09-02T13:13:28Z</time>
      </trkpt>
      <trkpt lat="44.69458" lon="7.06694">
        <ele>2687.5</ele>
        <time>2016-09-02T13:13:32Z</time>
      </trkpt>
      <trkpt lat="44.6945" lon="7.06675">
        <ele>2684.14</ele>
        <time>2016-09-02T13:13:45Z</time>
      </trkpt>
      <trkpt lat="44.69445" lon="7.06661">
        <ele>2681.73</ele>
        <time>2016-09-02T13:13:57Z</time>
      </trkpt>
      <trkpt lat="44.69439" lon="7.0664">
        <ele>2678.85</ele>
        <time>2016-09-02T13:14:11Z</time>
      </trkpt>
      <trkpt lat="44.69443" lon="7.06627">
        <ele>2676.93</ele>
        <time>2016-09-02T13:14:22Z</time>
      </trkpt>
      <trkpt lat="44.69448" lon="7.06615">
        <ele>2676.45</ele>
        <time>2016-09-02T13:14:36Z</time>
      </trkpt>
      <trkpt lat="44.69454" lon="7.06616">
        <ele>2676.45</ele>
        <time>2016-09-02T13:14:50Z</time>
      </trkpt>
      <trkpt lat="44.6946" lon="7.06622">
        <ele>2677.89</ele>
        <time>2016-09-02T13:14:57Z</time>
      </trkpt>
      <trkpt lat="44.69475" lon="7.06629">
        <ele>2679.33</ele>
        <time>2016-09-02T13:15:10Z</time>
      </trkpt>
      <trkpt lat="44.69484" lon="7.06632">
        <ele>2679.33</ele>
        <time>2016-09-02T13:15:18Z</time>
      </trkpt>
      <trkpt lat="44.69489" lon="7.0663">
        <ele>2678.37</ele>
        <time>2016-09-02T13:15:22Z</time>
      </trkpt>
      <trkpt lat="44.69492" lon="7.06625">
        <ele>2675.01</ele>
        <time>2016-09-02T13:15:30Z</time>
      </trkpt>
      <trkpt lat="44.69493" lon="7.06625">
        <ele>2674.52</ele>
        <time>2016-09-02T13:15:31Z</time>
      </trkpt>
      <trkpt lat="44.69491" lon="7.0662">
        <ele>2671.64</ele>
        <time>2016-09-02T13:15:42Z</time>
      </trkpt>
      <trkpt lat="44.69491" lon="7.06614">
        <ele>2668.76</ele>
        <time>2016-09-02T13:15:51Z</time>
      </trkpt>
      <trkpt lat="44.69492" lon="7.06611">
        <ele>2667.31</ele>
        <time>2016-09-02T13:15:54Z</time>
      </trkpt>
      <trkpt lat="44.69491" lon="7.06601">
        <ele>2663.95</ele>
        <time>2016-09-02T13:16:05Z</time>
      </trkpt>
      <trkpt lat="44.69486" lon="7.06592">
        <ele>2661.07</ele>
        <time>2016-09-02T13:16:16Z</time>
      </trkpt>
      <trkpt lat="44.69483" lon="7.06583">
        <ele>2657.7</ele>
        <time>2016-09-02T13:16:27Z</time>
      </trkpt>
      <trkpt lat="44.69479" lon="7.06578">
        <ele>2655.78</ele>
        <time>2016-09-02T13:16:39Z</time>
      </trkpt>
      <trkpt lat="44.69479" lon="7.06572">
        <ele>2654.34</ele>
        <time>2016-09-02T13:16:44Z</time>
      </trkpt>
      <trkpt lat="44.69476" lon="7.06571">
        <ele>2653.86</ele>
        <time>2016-09-02T13:16:47Z</time>
      </trkpt>
      <trkpt lat="44.69474" lon="7.06566">
        <ele>2653.86</ele>
        <time>2016-09-02T13:17:05Z</time>
      </trkpt>
      <trkpt lat="44.69475" lon="7.0656">
        <ele>2652.9</ele>
        <time>2016-09-02T13:17:23Z</time>
      </trkpt>
      <trkpt lat="44.69474" lon="7.06568">
        <ele>2652.42</ele>
        <time>2016-09-02T13:17:48Z</time>
      </trkpt>
      <trkpt lat="44.69472" lon="7.06561">
        <ele>2651.93</ele>
        <time>2016-09-02T13:18:11Z</time>
      </trkpt>
      <trkpt lat="44.69472" lon="7.06553">
        <ele>2650.01</ele>
        <time>2016-09-02T13:18:25Z</time>
      </trkpt>
      <trkpt lat="44.69473" lon="7.06547">
        <ele>2650.01</ele>
        <time>2016-09-02T13:18:29Z</time>
      </trkpt>
      <trkpt lat="44.69473" lon="7.06542">
        <ele>2650.01</ele>
        <time>2016-09-02T13:18:32Z</time>
      </trkpt>
      <trkpt lat="44.69474" lon="7.06537">
        <ele>2649.53</ele>
        <time>2016-09-02T13:18:35Z</time>
      </trkpt>
      <trkpt lat="44.69475" lon="7.06518">
        <ele>2648.09</ele>
        <time>2016-09-02T13:18:46Z</time>
      </trkpt>
      <trkpt lat="44.69473" lon="7.06499">
        <ele>2646.17</ele>
        <time>2016-09-02T13:18:57Z</time>
      </trkpt>
      <trkpt lat="44.69471" lon="7.06496">
        <ele>2645.21</ele>
        <time>2016-09-02T13:19:00Z</time>
      </trkpt>
      <trkpt lat="44.69468" lon="7.0649">
        <ele>2644.24</ele>
        <time>2016-09-02T13:19:05Z</time>
      </trkpt>
      <trkpt lat="44.6947" lon="7.06479">
        <ele>2644.24</ele>
        <time>2016-09-02T13:19:13Z</time>
      </trkpt>
      <trkpt lat="44.69478" lon="7.06474">
        <ele>2645.69</ele>
        <time>2016-09-02T13:19:22Z</time>
      </trkpt>
      <trkpt lat="44.69485" lon="7.06463">
        <ele>2647.13</ele>
        <time>2016-09-02T13:19:36Z</time>
      </trkpt>
      <trkpt lat="44.69485" lon="7.06462">
        <ele>2647.13</ele>
        <time>2016-09-02T13:19:37Z</time>
      </trkpt>
      <trkpt lat="44.69485" lon="7.0646">
        <ele>2645.69</ele>
        <time>2016-09-02T13:19:39Z</time>
      </trkpt>
      <trkpt lat="44.69485" lon="7.06455">
        <ele>2645.69</ele>
        <time>2016-09-02T13:19:43Z</time>
      </trkpt>
      <trkpt lat="44.69486" lon="7.06452">
        <ele>2645.69</ele>
        <time>2016-09-02T13:19:46Z</time>
      </trkpt>
      <trkpt lat="44.69485" lon="7.06444">
        <ele>2646.65</ele>
        <time>2016-09-02T13:19:53Z</time>
      </trkpt>
      <trkpt lat="44.69486" lon="7.06442">
        <ele>2647.61</ele>
        <time>2016-09-02T13:19:56Z</time>
      </trkpt>
      <trkpt lat="44.69493" lon="7.06434">
        <ele>2647.13</ele>
        <time>2016-09-02T13:20:11Z</time>
      </trkpt>
      <trkpt lat="44.69496" lon="7.06431">
        <ele>2647.61</ele>
        <time>2016-09-02T13:20:15Z</time>
      </trkpt>
      <trkpt lat="44.695" lon="7.06421">
        <ele>2646.65</ele>
        <time>2016-09-02T13:20:26Z</time>
      </trkpt>
      <trkpt lat="44.69497" lon="7.06411">
        <ele>2646.17</ele>
        <time>2016-09-02T13:20:33Z</time>
      </trkpt>
      <trkpt lat="44.69493" lon="7.06402">
        <ele>2646.17</ele>
        <time>2016-09-02T13:20:41Z</time>
      </trkpt>
      <trkpt lat="44.69492" lon="7.06399">
        <ele>2647.13</ele>
        <time>2016-09-02T13:20:43Z</time>
      </trkpt>
      <trkpt lat="44.69481" lon="7.06381">
        <ele>2648.09</ele>
        <time>2016-09-02T13:20:57Z</time>
      </trkpt>
      <trkpt lat="44.69479" lon="7.06374">
        <ele>2646.65</ele>
        <time>2016-09-02T13:21:01Z</time>
      </trkpt>
      <trkpt lat="44.69467" lon="7.06353">
        <ele>2646.17</ele>
        <time>2016-09-02T13:21:17Z</time>
      </trkpt>
      <trkpt lat="44.6946" lon="7.06349">
        <ele>2646.17</ele>
        <time>2016-09-02T13:21:23Z</time>
      </trkpt>
      <trkpt lat="44.69455" lon="7.06343">
        <ele>2646.17</ele>
        <time>2016-09-02T13:21:28Z</time>
      </trkpt>
      <trkpt lat="44.69444" lon="7.06323">
        <ele>2645.21</ele>
        <time>2016-09-02T13:21:43Z</time>
      </trkpt>
      <trkpt lat="44.69443" lon="7.06322">
        <ele>2645.21</ele>
        <time>2016-09-02T13:21:44Z</time>
      </trkpt>
      <trkpt lat="44.69443" lon="7.06316">
        <ele>2645.21</ele>
        <time>2016-09-02T13:21:48Z</time>
      </trkpt>
      <trkpt lat="44.69435" lon="7.06306">
        <ele>2646.17</ele>
        <time>2016-09-02T13:21:57Z</time>
      </trkpt>
      <trkpt lat="44.69442" lon="7.0629">
        <ele>2646.17</ele>
        <time>2016-09-02T13:22:10Z</time>
      </trkpt>
      <trkpt lat="44.69441" lon="7.06289">
        <ele>2646.17</ele>
        <time>2016-09-02T13:22:11Z</time>
      </trkpt>
      <trkpt lat="44.6944" lon="7.06281">
        <ele>2644.72</ele>
        <time>2016-09-02T13:22:17Z</time>
      </trkpt>
      <trkpt lat="44.69438" lon="7.06274">
        <ele>2642.32</ele>
        <time>2016-09-02T13:22:23Z</time>
      </trkpt>
      <trkpt lat="44.69437" lon="7.0627">
        <ele>2640.4</ele>
        <time>2016-09-02T13:22:27Z</time>
      </trkpt>
      <trkpt lat="44.69435" lon="7.06266">
        <ele>2639.92</ele>
        <time>2016-09-02T13:22:31Z</time>
      </trkpt>
      <trkpt lat="44.69433" lon="7.06253">
        <ele>2635.59</ele>
        <time>2016-09-02T13:22:44Z</time>
      </trkpt>
      <trkpt lat="44.69434" lon="7.06245">
        <ele>2632.71</ele>
        <time>2016-09-02T13:22:56Z</time>
      </trkpt>
      <trkpt lat="44.69434" lon="7.06234">
        <ele>2631.27</ele>
        <time>2016-09-02T13:23:07Z</time>
      </trkpt>
      <trkpt lat="44.69432" lon="7.06223">
        <ele>2627.42</ele>
        <time>2016-09-02T13:23:20Z</time>
      </trkpt>
      <trkpt lat="44.69433" lon="7.06215">
        <ele>2625.5</ele>
        <time>2016-09-02T13:23:31Z</time>
      </trkpt>
      <trkpt lat="44.69432" lon="7.06206">
        <ele>2622.13</ele>
        <time>2016-09-02T13:23:42Z</time>
      </trkpt>
      <trkpt lat="44.69433" lon="7.06198">
        <ele>2619.73</ele>
        <time>2016-09-02T13:23:51Z</time>
      </trkpt>
      <trkpt lat="44.69433" lon="7.06191">
        <ele>2615.88</ele>
        <time>2016-09-02T13:24:02Z</time>
      </trkpt>
      <trkpt lat="44.69429" lon="7.0619">
        <ele>2613.48</ele>
        <time>2016-09-02T13:24:12Z</time>
      </trkpt>
      <trkpt lat="44.69422" lon="7.06189">
        <ele>2611.08</ele>
        <time>2016-09-02T13:24:22Z</time>
      </trkpt>
      <trkpt lat="44.69421" lon="7.06184">
        <ele>2608.19</ele>
        <time>2016-09-02T13:24:35Z</time>
      </trkpt>
      <trkpt lat="44.69421" lon="7.06179">
        <ele>2607.23</ele>
        <time>2016-09-02T13:24:48Z</time>
      </trkpt>
      <trkpt lat="44.6942" lon="7.06171">
        <ele>2604.35</ele>
        <time>2016-09-02T13:25:01Z</time>
      </trkpt>
      <trkpt lat="44.69417" lon="7.06167">
        <ele>2601.95</ele>
        <time>2016-09-02T13:25:13Z</time>
      </trkpt>
      <trkpt lat="44.69414" lon="7.06164">
        <ele>2600.98</ele>
        <time>2016-09-02T13:25:23Z</time>
      </trkpt>
      <trkpt lat="44.69414" lon="7.06162">
        <ele>2600.02</ele>
        <time>2016-09-02T13:25:38Z</time>
      </trkpt>
      <trkpt lat="44.69415" lon="7.06152">
        <ele>2600.02</ele>
        <time>2016-09-02T13:25:48Z</time>
      </trkpt>
      <trkpt lat="44.69416" lon="7.06146">
        <ele>2599.06</ele>
        <time>2016-09-02T13:25:54Z</time>
      </trkpt>
      <trkpt lat="44.69417" lon="7.06135">
        <ele>2598.58</ele>
        <time>2016-09-02T13:26:04Z</time>
      </trkpt>
      <trkpt lat="44.69418" lon="7.06133">
        <ele>2597.14</ele>
        <time>2016-09-02T13:26:17Z</time>
      </trkpt>
      <trkpt lat="44.69421" lon="7.06124">
        <ele>2596.18</ele>
        <time>2016-09-02T13:26:28Z</time>
      </trkpt>
      <trkpt lat="44.69422" lon="7.06122">
        <ele>2596.18</ele>
        <time>2016-09-02T13:26:36Z</time>
      </trkpt>
      <trkpt lat="44.69423" lon="7.06117">
        <ele>2595.7</ele>
        <time>2016-09-02T13:26:40Z</time>
      </trkpt>
      <trkpt lat="44.69425" lon="7.06108">
        <ele>2595.22</ele>
        <time>2016-09-02T13:26:54Z</time>
      </trkpt>
      <trkpt lat="44.69427" lon="7.06105">
        <ele>2595.22</ele>
        <time>2016-09-02T13:26:58Z</time>
      </trkpt>
      <trkpt lat="44.69428" lon="7.06097">
        <ele>2595.7</ele>
        <time>2016-09-02T13:27:09Z</time>
      </trkpt>
      <trkpt lat="44.69427" lon="7.06088">
        <ele>2595.7</ele>
        <time>2016-09-02T13:27:20Z</time>
      </trkpt>
      <trkpt lat="44.69429" lon="7.06082">
        <ele>2597.14</ele>
        <time>2016-09-02T13:27:27Z</time>
      </trkpt>
      <trkpt lat="44.6943" lon="7.06072">
        <ele>2597.14</ele>
        <time>2016-09-02T13:27:38Z</time>
      </trkpt>
      <trkpt lat="44.69433" lon="7.06064">
        <ele>2597.62</ele>
        <time>2016-09-02T13:27:47Z</time>
      </trkpt>
      <trkpt lat="44.69435" lon="7.06052">
        <ele>2597.62</ele>
        <time>2016-09-02T13:27:58Z</time>
      </trkpt>
      <trkpt lat="44.69433" lon="7.06045">
        <ele>2596.66</ele>
        <time>2016-09-02T13:28:02Z</time>
      </trkpt>
      <trkpt lat="44.69433" lon="7.06043">
        <ele>2596.66</ele>
        <time>2016-09-02T13:28:03Z</time>
      </trkpt>
      <trkpt lat="44.69442" lon="7.06024">
        <ele>2598.58</ele>
        <time>2016-09-02T13:28:19Z</time>
      </trkpt>
      <trkpt lat="44.69445" lon="7.06023">
        <ele>2599.06</ele>
        <time>2016-09-02T13:28:23Z</time>
      </trkpt>
      <trkpt lat="44.69457" lon="7.06016">
        <ele>2600.02</ele>
        <time>2016-09-02T13:28:35Z</time>
      </trkpt>
      <trkpt lat="44.69461" lon="7.06009">
        <ele>2600.02</ele>
        <time>2016-09-02T13:28:41Z</time>
      </trkpt>
      <trkpt lat="44.69463" lon="7.06007">
        <ele>2600.02</ele>
        <time>2016-09-02T13:28:43Z</time>
      </trkpt>
      <trkpt lat="44.69475" lon="7.05998">
        <ele>2600.02</ele>
        <time>2016-09-02T13:28:56Z</time>
      </trkpt>
      <trkpt lat="44.69478" lon="7.05991">
        <ele>2599.54</ele>
        <time>2016-09-02T13:29:09Z</time>
      </trkpt>
      <trkpt lat="44.69478" lon="7.05991">
        <ele>2600.98</ele>
        <time>2016-09-02T13:29:32Z</time>
      </trkpt>
      <trkpt lat="44.69478" lon="7.05993">
        <ele>2600.5</ele>
        <time>2016-09-02T13:29:48Z</time>
      </trkpt>
      <trkpt lat="44.69479" lon="7.05991">
        <ele>2600.5</ele>
        <time>2016-09-02T13:29:52Z</time>
      </trkpt>
      <trkpt lat="44.6948" lon="7.05988">
        <ele>2599.06</ele>
        <time>2016-09-02T13:29:55Z</time>
      </trkpt>
      <trkpt lat="44.69484" lon="7.05975">
        <ele>2597.62</ele>
        <time>2016-09-02T13:30:08Z</time>
      </trkpt>
      <trkpt lat="44.69486" lon="7.05972">
        <ele>2596.18</ele>
        <time>2016-09-02T13:30:11Z</time>
      </trkpt>
      <trkpt lat="44.69488" lon="7.05967">
        <ele>2594.74</ele>
        <time>2016-09-02T13:30:15Z</time>
      </trkpt>
      <trkpt lat="44.69488" lon="7.05963">
        <ele>2594.74</ele>
        <time>2016-09-02T13:30:17Z</time>
      </trkpt>
      <trkpt lat="44.6949" lon="7.05958">
        <ele>2593.77</ele>
        <time>2016-09-02T13:30:22Z</time>
      </trkpt>
      <trkpt lat="44.69497" lon="7.05947">
        <ele>2591.85</ele>
        <time>2016-09-02T13:30:32Z</time>
      </trkpt>
      <trkpt lat="44.69503" lon="7.05946">
        <ele>2590.41</ele>
        <time>2016-09-02T13:30:39Z</time>
      </trkpt>
      <trkpt lat="44.69511" lon="7.05944">
        <ele>2586.56</ele>
        <time>2016-09-02T13:30:50Z</time>
      </trkpt>
      <trkpt lat="44.69511" lon="7.05943">
        <ele>2586.08</ele>
        <time>2016-09-02T13:30:51Z</time>
      </trkpt>
      <trkpt lat="44.69514" lon="7.0594">
        <ele>2585.12</ele>
        <time>2016-09-02T13:30:55Z</time>
      </trkpt>
      <trkpt lat="44.69521" lon="7.05932">
        <ele>2581.76</ele>
        <time>2016-09-02T13:31:07Z</time>
      </trkpt>
      <trkpt lat="44.69522" lon="7.05928">
        <ele>2579.84</ele>
        <time>2016-09-02T13:31:13Z</time>
      </trkpt>
      <trkpt lat="44.69528" lon="7.05923">
        <ele>2576.47</ele>
        <time>2016-09-02T13:31:24Z</time>
      </trkpt>
      <trkpt lat="44.69534" lon="7.05917">
        <ele>2573.11</ele>
        <time>2016-09-02T13:31:37Z</time>
      </trkpt>
      <trkpt lat="44.69537" lon="7.05911">
        <ele>2570.22</ele>
        <time>2016-09-02T13:31:47Z</time>
      </trkpt>
      <trkpt lat="44.69541" lon="7.05905">
        <ele>2567.34</ele>
        <time>2016-09-02T13:31:56Z</time>
      </trkpt>
      <trkpt lat="44.69544" lon="7.05897">
        <ele>2563.97</ele>
        <time>2016-09-02T13:32:07Z</time>
      </trkpt>
      <trkpt lat="44.69547" lon="7.05887">
        <ele>2561.09</ele>
        <time>2016-09-02T13:32:18Z</time>
      </trkpt>
      <trkpt lat="44.69547" lon="7.05876">
        <ele>2557.73</ele>
        <time>2016-09-02T13:32:31Z</time>
      </trkpt>
      <trkpt lat="44.69547" lon="7.05873">
        <ele>2557.73</ele>
        <time>2016-09-02T13:32:33Z</time>
      </trkpt>
      <trkpt lat="44.6955" lon="7.05861">
        <ele>2553.88</ele>
        <time>2016-09-02T13:32:47Z</time>
      </trkpt>
      <trkpt lat="44.69552" lon="7.0585">
        <ele>2551</ele>
        <time>2016-09-02T13:32:58Z</time>
      </trkpt>
      <trkpt lat="44.69555" lon="7.05842">
        <ele>2547.63</ele>
        <time>2016-09-02T13:33:10Z</time>
      </trkpt>
      <trkpt lat="44.69558" lon="7.05838">
        <ele>2546.19</ele>
        <time>2016-09-02T13:33:17Z</time>
      </trkpt>
      <trkpt lat="44.69566" lon="7.05829">
        <ele>2542.82</ele>
        <time>2016-09-02T13:33:27Z</time>
      </trkpt>
      <trkpt lat="44.69572" lon="7.05825">
        <ele>2541.86</ele>
        <time>2016-09-02T13:33:33Z</time>
      </trkpt>
      <trkpt lat="44.69578" lon="7.05809">
        <ele>2538.02</ele>
        <time>2016-09-02T13:33:47Z</time>
      </trkpt>
      <trkpt lat="44.6958" lon="7.05808">
        <ele>2537.06</ele>
        <time>2016-09-02T13:33:50Z</time>
      </trkpt>
      <trkpt lat="44.69594" lon="7.05791">
        <ele>2534.65</ele>
        <time>2016-09-02T13:34:06Z</time>
      </trkpt>
      <trkpt lat="44.69596" lon="7.05789">
        <ele>2534.17</ele>
        <time>2016-09-02T13:34:08Z</time>
      </trkpt>
      <trkpt lat="44.69599" lon="7.05781">
        <ele>2533.69</ele>
        <time>2016-09-02T13:34:13Z</time>
      </trkpt>
      <trkpt lat="44.69603" lon="7.05775">
        <ele>2532.25</ele>
        <time>2016-09-02T13:34:18Z</time>
      </trkpt>
      <trkpt lat="44.69612" lon="7.05768">
        <ele>2530.81</ele>
        <time>2016-09-02T13:34:26Z</time>
      </trkpt>
      <trkpt lat="44.69623" lon="7.05764">
        <ele>2529.85</ele>
        <time>2016-09-02T13:34:39Z</time>
      </trkpt>
      <trkpt lat="44.69627" lon="7.05754">
        <ele>2526.96</ele>
        <time>2016-09-02T13:34:49Z</time>
      </trkpt>
      <trkpt lat="44.69636" lon="7.05748">
        <ele>2525.04</ele>
        <time>2016-09-02T13:34:59Z</time>
      </trkpt>
      <trkpt lat="44.69641" lon="7.05744">
        <ele>2523.6</ele>
        <time>2016-09-02T13:35:07Z</time>
      </trkpt>
      <trkpt lat="44.69653" lon="7.05742">
        <ele>2520.23</ele>
        <time>2016-09-02T13:35:21Z</time>
      </trkpt>
      <trkpt lat="44.69659" lon="7.05734">
        <ele>2517.35</ele>
        <time>2016-09-02T13:35:31Z</time>
      </trkpt>
      <trkpt lat="44.69659" lon="7.05729">
        <ele>2516.87</ele>
        <time>2016-09-02T13:35:34Z</time>
      </trkpt>
      <trkpt lat="44.69666" lon="7.05722">
        <ele>2514.95</ele>
        <time>2016-09-02T13:35:52Z</time>
      </trkpt>
      <trkpt lat="44.69669" lon="7.05722">
        <ele>2514.95</ele>
        <time>2016-09-02T13:35:56Z</time>
      </trkpt>
      <trkpt lat="44.6968" lon="7.05716">
        <ele>2514.47</ele>
        <time>2016-09-02T13:36:09Z</time>
      </trkpt>
      <trkpt lat="44.69689" lon="7.05707">
        <ele>2513.5</ele>
        <time>2016-09-02T13:36:23Z</time>
      </trkpt>
      <trkpt lat="44.69702" lon="7.05698">
        <ele>2513.5</ele>
        <time>2016-09-02T13:36:37Z</time>
      </trkpt>
      <trkpt lat="44.69713" lon="7.05686">
        <ele>2513.02</ele>
        <time>2016-09-02T13:36:52Z</time>
      </trkpt>
      <trkpt lat="44.69715" lon="7.05685">
        <ele>2513.02</ele>
        <time>2016-09-02T13:36:55Z</time>
      </trkpt>
      <trkpt lat="44.69724" lon="7.05671">
        <ele>2512.54</ele>
        <time>2016-09-02T13:37:08Z</time>
      </trkpt>
      <trkpt lat="44.69724" lon="7.0567">
        <ele>2512.54</ele>
        <time>2016-09-02T13:37:09Z</time>
      </trkpt>
      <trkpt lat="44.69734" lon="7.05652">
        <ele>2513.98</ele>
        <time>2016-09-02T13:37:25Z</time>
      </trkpt>
      <trkpt lat="44.69738" lon="7.05643">
        <ele>2513.5</ele>
        <time>2016-09-02T13:37:33Z</time>
      </trkpt>
      <trkpt lat="44.6974" lon="7.05639">
        <ele>2512.54</ele>
        <time>2016-09-02T13:37:36Z</time>
      </trkpt>
      <trkpt lat="44.69743" lon="7.05633">
        <ele>2512.06</ele>
        <time>2016-09-02T13:37:41Z</time>
      </trkpt>
      <trkpt lat="44.69754" lon="7.05624">
        <ele>2511.58</ele>
        <time>2016-09-02T13:37:55Z</time>
      </trkpt>
      <trkpt lat="44.69769" lon="7.05606">
        <ele>2508.22</ele>
        <time>2016-09-02T13:38:12Z</time>
      </trkpt>
      <trkpt lat="44.69771" lon="7.05603">
        <ele>2507.26</ele>
        <time>2016-09-02T13:38:14Z</time>
      </trkpt>
      <trkpt lat="44.69788" lon="7.05582">
        <ele>2506.29</ele>
        <time>2016-09-02T13:38:31Z</time>
      </trkpt>
      <trkpt lat="44.69788" lon="7.05581">
        <ele>2506.29</ele>
        <time>2016-09-02T13:38:32Z</time>
      </trkpt>
      <trkpt lat="44.69794" lon="7.05578">
        <ele>2506.29</ele>
        <time>2016-09-02T13:38:36Z</time>
      </trkpt>
      <trkpt lat="44.69811" lon="7.05561">
        <ele>2505.33</ele>
        <time>2016-09-02T13:38:51Z</time>
      </trkpt>
      <trkpt lat="44.69828" lon="7.05538">
        <ele>2502.93</ele>
        <time>2016-09-02T13:39:07Z</time>
      </trkpt>
      <trkpt lat="44.69838" lon="7.05524">
        <ele>2502.93</ele>
        <time>2016-09-02T13:39:19Z</time>
      </trkpt>
      <trkpt lat="44.69841" lon="7.05502">
        <ele>2503.89</ele>
        <time>2016-09-02T13:39:32Z</time>
      </trkpt>
      <trkpt lat="44.69843" lon="7.05501">
        <ele>2503.89</ele>
        <time>2016-09-02T13:39:33Z</time>
      </trkpt>
      <trkpt lat="44.69844" lon="7.05498">
        <ele>2503.89</ele>
        <time>2016-09-02T13:39:35Z</time>
      </trkpt>
      <trkpt lat="44.69846" lon="7.05493">
        <ele>2502.45</ele>
        <time>2016-09-02T13:39:39Z</time>
      </trkpt>
      <trkpt lat="44.69846" lon="7.05492">
        <ele>2502.45</ele>
        <time>2016-09-02T13:39:40Z</time>
      </trkpt>
      <trkpt lat="44.69849" lon="7.05484">
        <ele>2501.01</ele>
        <time>2016-09-02T13:39:46Z</time>
      </trkpt>
      <trkpt lat="44.69851" lon="7.05476">
        <ele>2499.57</ele>
        <time>2016-09-02T13:39:51Z</time>
      </trkpt>
      <trkpt lat="44.69864" lon="7.05449">
        <ele>2498.12</ele>
        <time>2016-09-02T13:40:09Z</time>
      </trkpt>
      <trkpt lat="44.69874" lon="7.05438">
        <ele>2494.76</ele>
        <time>2016-09-02T13:40:21Z</time>
      </trkpt>
      <trkpt lat="44.69874" lon="7.05437">
        <ele>2494.76</ele>
        <time>2016-09-02T13:40:22Z</time>
      </trkpt>
      <trkpt lat="44.69875" lon="7.05434">
        <ele>2494.76</ele>
        <time>2016-09-02T13:40:24Z</time>
      </trkpt>
      <trkpt lat="44.69875" lon="7.05432">
        <ele>2494.28</ele>
        <time>2016-09-02T13:40:26Z</time>
      </trkpt>
      <trkpt lat="44.69878" lon="7.05423">
        <ele>2492.84</ele>
        <time>2016-09-02T13:40:33Z</time>
      </trkpt>
      <trkpt lat="44.69882" lon="7.05419">
        <ele>2491.87</ele>
        <time>2016-09-02T13:40:38Z</time>
      </trkpt>
      <trkpt lat="44.69883" lon="7.05416">
        <ele>2491.39</ele>
        <time>2016-09-02T13:40:40Z</time>
      </trkpt>
      <trkpt lat="44.69894" lon="7.054">
        <ele>2490.43</ele>
        <time>2016-09-02T13:40:53Z</time>
      </trkpt>
      <trkpt lat="44.69904" lon="7.05379">
        <ele>2489.95</ele>
        <time>2016-09-02T13:41:07Z</time>
      </trkpt>
      <trkpt lat="44.69911" lon="7.05366">
        <ele>2489.95</ele>
        <time>2016-09-02T13:41:15Z</time>
      </trkpt>
      <trkpt lat="44.69919" lon="7.0536">
        <ele>2488.99</ele>
        <time>2016-09-02T13:41:22Z</time>
      </trkpt>
      <trkpt lat="44.69926" lon="7.05351">
        <ele>2488.99</ele>
        <time>2016-09-02T13:41:29Z</time>
      </trkpt>
      <trkpt lat="44.69941" lon="7.05339">
        <ele>2488.03</ele>
        <time>2016-09-02T13:41:42Z</time>
      </trkpt>
      <trkpt lat="44.69958" lon="7.05323">
        <ele>2486.59</ele>
        <time>2016-09-02T13:41:56Z</time>
      </trkpt>
      <trkpt lat="44.69974" lon="7.05303">
        <ele>2486.11</ele>
        <time>2016-09-02T13:42:12Z</time>
      </trkpt>
      <trkpt lat="44.69983" lon="7.05282">
        <ele>2487.55</ele>
        <time>2016-09-02T13:42:25Z</time>
      </trkpt>
      <trkpt lat="44.69997" lon="7.05257">
        <ele>2485.15</ele>
        <time>2016-09-02T13:42:43Z</time>
      </trkpt>
      <trkpt lat="44.69998" lon="7.05256">
        <ele>2485.15</ele>
        <time>2016-09-02T13:42:44Z</time>
      </trkpt>
      <trkpt lat="44.70012" lon="7.05237">
        <ele>2484.18</ele>
        <time>2016-09-02T13:42:59Z</time>
      </trkpt>
      <trkpt lat="44.70028" lon="7.05225">
        <ele>2483.22</ele>
        <time>2016-09-02T13:43:13Z</time>
      </trkpt>
      <trkpt lat="44.70028" lon="7.05223">
        <ele>2483.22</ele>
        <time>2016-09-02T13:43:14Z</time>
      </trkpt>
      <trkpt lat="44.70031" lon="7.05216">
        <ele>2483.22</ele>
        <time>2016-09-02T13:43:19Z</time>
      </trkpt>
      <trkpt lat="44.70031" lon="7.05204">
        <ele>2482.26</ele>
        <time>2016-09-02T13:43:34Z</time>
      </trkpt>
      <trkpt lat="44.7003" lon="7.05204">
        <ele>2482.26</ele>
        <time>2016-09-02T13:43:42Z</time>
      </trkpt>
      <trkpt lat="44.70032" lon="7.052">
        <ele>2481.78</ele>
        <time>2016-09-02T13:43:45Z</time>
      </trkpt>
      <trkpt lat="44.70034" lon="7.0519">
        <ele>2481.3</ele>
        <time>2016-09-02T13:44:00Z</time>
      </trkpt>
      <trkpt lat="44.70034" lon="7.05189">
        <ele>2481.3</ele>
        <time>2016-09-02T13:44:07Z</time>
      </trkpt>
      <trkpt lat="44.70033" lon="7.05176">
        <ele>2480.34</ele>
        <time>2016-09-02T13:44:21Z</time>
      </trkpt>
      <trkpt lat="44.70038" lon="7.05173">
        <ele>2480.34</ele>
        <time>2016-09-02T13:44:39Z</time>
      </trkpt>
      <trkpt lat="44.70039" lon="7.05172">
        <ele>2481.78</ele>
        <time>2016-09-02T13:44:41Z</time>
      </trkpt>
      <trkpt lat="44.70048" lon="7.05173">
        <ele>2481.3</ele>
        <time>2016-09-02T13:44:57Z</time>
      </trkpt>
      <trkpt lat="44.70053" lon="7.05171">
        <ele>2483.22</ele>
        <time>2016-09-02T13:45:03Z</time>
      </trkpt>
      <trkpt lat="44.70063" lon="7.05161">
        <ele>2482.74</ele>
        <time>2016-09-02T13:45:14Z</time>
      </trkpt>
      <trkpt lat="44.7008" lon="7.05154">
        <ele>2479.86</ele>
        <time>2016-09-02T13:45:29Z</time>
      </trkpt>
      <trkpt lat="44.70084" lon="7.05155">
        <ele>2479.86</ele>
        <time>2016-09-02T13:45:33Z</time>
      </trkpt>
      <trkpt lat="44.70088" lon="7.05155">
        <ele>2479.86</ele>
        <time>2016-09-02T13:45:37Z</time>
      </trkpt>
      <trkpt lat="44.70095" lon="7.0516">
        <ele>2479.86</ele>
        <time>2016-09-02T13:45:42Z</time>
      </trkpt>
      <trkpt lat="44.70109" lon="7.05174">
        <ele>2478.42</ele>
        <time>2016-09-02T13:45:58Z</time>
      </trkpt>
      <trkpt lat="44.70114" lon="7.05175">
        <ele>2477.94</ele>
        <time>2016-09-02T13:46:02Z</time>
      </trkpt>
      <trkpt lat="44.70119" lon="7.05179">
        <ele>2477.45</ele>
        <time>2016-09-02T13:46:07Z</time>
      </trkpt>
      <trkpt lat="44.70139" lon="7.05178">
        <ele>2477.45</ele>
        <time>2016-09-02T13:46:23Z</time>
      </trkpt>
      <trkpt lat="44.70159" lon="7.0518">
        <ele>2476.97</ele>
        <time>2016-09-02T13:46:39Z</time>
      </trkpt>
      <trkpt lat="44.70174" lon="7.05184">
        <ele>2476.49</ele>
        <time>2016-09-02T13:46:51Z</time>
      </trkpt>
      <trkpt lat="44.70182" lon="7.05186">
        <ele>2476.49</ele>
        <time>2016-09-02T13:46:57Z</time>
      </trkpt>
      <trkpt lat="44.70197" lon="7.05188">
        <ele>2476.01</ele>
        <time>2016-09-02T13:47:08Z</time>
      </trkpt>
      <trkpt lat="44.70207" lon="7.05185">
        <ele>2476.01</ele>
        <time>2016-09-02T13:47:15Z</time>
      </trkpt>
      <trkpt lat="44.70213" lon="7.05184">
        <ele>2476.01</ele>
        <time>2016-09-02T13:47:20Z</time>
      </trkpt>
      <trkpt lat="44.70217" lon="7.05186">
        <ele>2476.01</ele>
        <time>2016-09-02T13:47:23Z</time>
      </trkpt>
      <trkpt lat="44.70233" lon="7.05186">
        <ele>2475.05</ele>
        <time>2016-09-02T13:47:36Z</time>
      </trkpt>
      <trkpt lat="44.70236" lon="7.05185">
        <ele>2475.05</ele>
        <time>2016-09-02T13:47:39Z</time>
      </trkpt>
      <trkpt lat="44.70241" lon="7.05183">
        <ele>2474.57</ele>
        <time>2016-09-02T13:47:44Z</time>
      </trkpt>
      <trkpt lat="44.70245" lon="7.0518">
        <ele>2474.57</ele>
        <time>2016-09-02T13:47:48Z</time>
      </trkpt>
      <trkpt lat="44.70259" lon="7.05174">
        <ele>2474.57</ele>
        <time>2016-09-02T13:48:01Z</time>
      </trkpt>
      <trkpt lat="44.7027" lon="7.05168">
        <ele>2475.53</ele>
        <time>2016-09-02T13:48:12Z</time>
      </trkpt>
      <trkpt lat="44.7029" lon="7.05153">
        <ele>2474.09</ele>
        <time>2016-09-02T13:48:28Z</time>
      </trkpt>
      <trkpt lat="44.7031" lon="7.05149">
        <ele>2474.09</ele>
        <time>2016-09-02T13:48:44Z</time>
      </trkpt>
      <trkpt lat="44.70316" lon="7.05148">
        <ele>2474.09</ele>
        <time>2016-09-02T13:48:49Z</time>
      </trkpt>
      <trkpt lat="44.7032" lon="7.05148">
        <ele>2474.09</ele>
        <time>2016-09-02T13:48:52Z</time>
      </trkpt>
      <trkpt lat="44.70328" lon="7.05142">
        <ele>2474.09</ele>
        <time>2016-09-02T13:48:59Z</time>
      </trkpt>
      <trkpt lat="44.70331" lon="7.05141">
        <ele>2474.09</ele>
        <time>2016-09-02T13:49:02Z</time>
      </trkpt>
      <trkpt lat="44.70333" lon="7.05139">
        <ele>2475.53</ele>
        <time>2016-09-02T13:49:04Z</time>
      </trkpt>
      <trkpt lat="44.70335" lon="7.05138">
        <ele>2475.53</ele>
        <time>2016-09-02T13:49:06Z</time>
      </trkpt>
      <trkpt lat="44.7034" lon="7.05134">
        <ele>2476.01</ele>
        <time>2016-09-02T13:49:10Z</time>
      </trkpt>
      <trkpt lat="44.70349" lon="7.05127">
        <ele>2476.49</ele>
        <time>2016-09-02T13:49:18Z</time>
      </trkpt>
      <trkpt lat="44.70354" lon="7.05125">
        <ele>2476.97</ele>
        <time>2016-09-02T13:49:22Z</time>
      </trkpt>
      <trkpt lat="44.70375" lon="7.05109">
        <ele>2476.97</ele>
        <time>2016-09-02T13:49:39Z</time>
      </trkpt>
      <trkpt lat="44.70377" lon="7.05107">
        <ele>2475.53</ele>
        <time>2016-09-02T13:49:41Z</time>
      </trkpt>
      <trkpt lat="44.7038" lon="7.05105">
        <ele>2474.57</ele>
        <time>2016-09-02T13:49:44Z</time>
      </trkpt>
      <trkpt lat="44.70382" lon="7.05104">
        <ele>2476.01</ele>
        <time>2016-09-02T13:49:46Z</time>
      </trkpt>
      <trkpt lat="44.70398" lon="7.05092">
        <ele>2476.01</ele>
        <time>2016-09-02T13:50:00Z</time>
      </trkpt>
      <trkpt lat="44.704" lon="7.05091">
        <ele>2474.57</ele>
        <time>2016-09-02T13:50:02Z</time>
      </trkpt>
      <trkpt lat="44.70419" lon="7.05077">
        <ele>2474.09</ele>
        <time>2016-09-02T13:50:17Z</time>
      </trkpt>
      <trkpt lat="44.70442" lon="7.05071">
        <ele>2473.13</ele>
        <time>2016-09-02T13:50:33Z</time>
      </trkpt>
      <trkpt lat="44.70458" lon="7.05066">
        <ele>2471.21</ele>
        <time>2016-09-02T13:50:46Z</time>
      </trkpt>
      <trkpt lat="44.70461" lon="7.05062">
        <ele>2469.76</ele>
        <time>2016-09-02T13:50:49Z</time>
      </trkpt>
      <trkpt lat="44.70471" lon="7.05053">
        <ele>2468.8</ele>
        <time>2016-09-02T13:51:00Z</time>
      </trkpt>
      <trkpt lat="44.70482" lon="7.05035">
        <ele>2466.88</ele>
        <time>2016-09-02T13:51:13Z</time>
      </trkpt>
      <trkpt lat="44.70493" lon="7.05029">
        <ele>2466.4</ele>
        <time>2016-09-02T13:51:21Z</time>
      </trkpt>
      <trkpt lat="44.7051" lon="7.05007">
        <ele>2467.36</ele>
        <time>2016-09-02T13:51:38Z</time>
      </trkpt>
      <trkpt lat="44.70521" lon="7.05">
        <ele>2467.36</ele>
        <time>2016-09-02T13:51:47Z</time>
      </trkpt>
      <trkpt lat="44.70524" lon="7.04995">
        <ele>2465.92</ele>
        <time>2016-09-02T13:51:50Z</time>
      </trkpt>
      <trkpt lat="44.7053" lon="7.04992">
        <ele>2464</ele>
        <time>2016-09-02T13:51:55Z</time>
      </trkpt>
      <trkpt lat="44.70541" lon="7.04991">
        <ele>2463.04</ele>
        <time>2016-09-02T13:52:03Z</time>
      </trkpt>
      <trkpt lat="44.70545" lon="7.04988">
        <ele>2462.55</ele>
        <time>2016-09-02T13:52:07Z</time>
      </trkpt>
      <trkpt lat="44.70551" lon="7.04985">
        <ele>2461.11</ele>
        <time>2016-09-02T13:52:12Z</time>
      </trkpt>
      <trkpt lat="44.70567" lon="7.04971">
        <ele>2458.71</ele>
        <time>2016-09-02T13:52:27Z</time>
      </trkpt>
      <trkpt lat="44.70571" lon="7.04968">
        <ele>2458.71</ele>
        <time>2016-09-02T13:52:31Z</time>
      </trkpt>
      <trkpt lat="44.70575" lon="7.04964">
        <ele>2458.71</ele>
        <time>2016-09-02T13:52:35Z</time>
      </trkpt>
      <trkpt lat="44.70587" lon="7.04955">
        <ele>2458.71</ele>
        <time>2016-09-02T13:52:45Z</time>
      </trkpt>
      <trkpt lat="44.7059" lon="7.04954">
        <ele>2460.63</ele>
        <time>2016-09-02T13:52:49Z</time>
      </trkpt>
      <trkpt lat="44.70603" lon="7.0495">
        <ele>2461.59</ele>
        <time>2016-09-02T13:53:00Z</time>
      </trkpt>
      <trkpt lat="44.70607" lon="7.04955">
        <ele>2462.07</ele>
        <time>2016-09-02T13:53:06Z</time>
      </trkpt>
      <trkpt lat="44.70619" lon="7.04969">
        <ele>2463.04</ele>
        <time>2016-09-02T13:53:20Z</time>
      </trkpt>
      <trkpt lat="44.7062" lon="7.04969">
        <ele>2463.04</ele>
        <time>2016-09-02T13:53:21Z</time>
      </trkpt>
      <trkpt lat="44.70622" lon="7.04971">
        <ele>2463.04</ele>
        <time>2016-09-02T13:53:23Z</time>
      </trkpt>
      <trkpt lat="44.70641" lon="7.04975">
        <ele>2461.59</ele>
        <time>2016-09-02T13:53:39Z</time>
      </trkpt>
      <trkpt lat="44.70649" lon="7.0498">
        <ele>2461.59</ele>
        <time>2016-09-02T13:53:46Z</time>
      </trkpt>
      <trkpt lat="44.70669" lon="7.04984">
        <ele>2458.71</ele>
        <time>2016-09-02T13:54:00Z</time>
      </trkpt>
      <trkpt lat="44.70686" lon="7.04984">
        <ele>2457.27</ele>
        <time>2016-09-02T13:54:13Z</time>
      </trkpt>
      <trkpt lat="44.70699" lon="7.04975">
        <ele>2455.34</ele>
        <time>2016-09-02T13:54:25Z</time>
      </trkpt>
      <trkpt lat="44.70712" lon="7.04961">
        <ele>2453.9</ele>
        <time>2016-09-02T13:54:36Z</time>
      </trkpt>
      <trkpt lat="44.70721" lon="7.04952">
        <ele>2453.42</ele>
        <time>2016-09-02T13:54:48Z</time>
      </trkpt>
      <trkpt lat="44.70722" lon="7.04946">
        <ele>2454.86</ele>
        <time>2016-09-02T13:54:52Z</time>
      </trkpt>
      <trkpt lat="44.70731" lon="7.04931">
        <ele>2455.82</ele>
        <time>2016-09-02T13:55:04Z</time>
      </trkpt>
      <trkpt lat="44.70732" lon="7.04922">
        <ele>2456.31</ele>
        <time>2016-09-02T13:55:19Z</time>
      </trkpt>
      <trkpt lat="44.70733" lon="7.04922">
        <ele>2456.31</ele>
        <time>2016-09-02T13:55:45Z</time>
      </trkpt>
      <trkpt lat="44.70734" lon="7.04924">
        <ele>2456.79</ele>
        <time>2016-09-02T13:56:03Z</time>
      </trkpt>
      <trkpt lat="44.70736" lon="7.04924">
        <ele>2455.82</ele>
        <time>2016-09-02T13:56:21Z</time>
      </trkpt>
      <trkpt lat="44.70735" lon="7.04922">
        <ele>2455.34</ele>
        <time>2016-09-02T13:56:37Z</time>
      </trkpt>
      <trkpt lat="44.70737" lon="7.04924">
        <ele>2455.34</ele>
        <time>2016-09-02T13:56:52Z</time>
      </trkpt>
      <trkpt lat="44.70737" lon="7.04924">
        <ele>2456.79</ele>
        <time>2016-09-02T13:57:08Z</time>
      </trkpt>
      <trkpt lat="44.70736" lon="7.04923">
        <ele>2456.31</ele>
        <time>2016-09-02T13:57:27Z</time>
      </trkpt>
      <trkpt lat="44.70734" lon="7.04922">
        <ele>2456.31</ele>
        <time>2016-09-02T13:57:40Z</time>
      </trkpt>
      <trkpt lat="44.70735" lon="7.04924">
        <ele>2416.41</ele>
        <time>2016-09-02T13:57:56Z</time>
      </trkpt>
      <trkpt lat="44.70735" lon="7.04924">
        <ele>2416.41</ele>
        <time>2016-09-02T13:57:57Z</time>
      </trkpt>
      <trkpt lat="44.70735" lon="7.04924">
        <ele>2437.08</ele>
        <time>2016-09-02T13:58:00Z</time>
      </trkpt>
      <trkpt lat="44.70735" lon="7.04924">
        <ele>2437.08</ele>
        <time>2016-09-02T13:58:01Z</time>
      </trkpt>
      <trkpt lat="44.70732" lon="7.04926">
        <ele>2437.08</ele>
        <time>2016-09-02T13:58:17Z</time>
      </trkpt>
      <trkpt lat="44.70734" lon="7.04921">
        <ele>2437.08</ele>
        <time>2016-09-02T13:58:34Z</time>
      </trkpt>
      <trkpt lat="44.70733" lon="7.04921">
        <ele>2436.6</ele>
        <time>2016-09-02T13:58:49Z</time>
      </trkpt>
      <trkpt lat="44.70731" lon="7.04924">
        <ele>2437.08</ele>
        <time>2016-09-02T13:59:19Z</time>
      </trkpt>
      <trkpt lat="44.70728" lon="7.04919">
        <ele>2437.08</ele>
        <time>2016-09-02T13:59:23Z</time>
      </trkpt>
      <trkpt lat="44.7072" lon="7.04888">
        <ele>2435.64</ele>
        <time>2016-09-02T13:59:40Z</time>
      </trkpt>
      <trkpt lat="44.70709" lon="7.04854">
        <ele>2434.68</ele>
        <time>2016-09-02T13:59:59Z</time>
      </trkpt>
      <trkpt lat="44.70699" lon="7.04821">
        <ele>2432.27</ele>
        <time>2016-09-02T14:00:18Z</time>
      </trkpt>
      <trkpt lat="44.70697" lon="7.04815">
        <ele>2431.79</ele>
        <time>2016-09-02T14:00:22Z</time>
      </trkpt>
      <trkpt lat="44.70693" lon="7.04799">
        <ele>2428.43</ele>
        <time>2016-09-02T14:00:33Z</time>
      </trkpt>
      <trkpt lat="44.70692" lon="7.04795">
        <ele>2427.47</ele>
        <time>2016-09-02T14:00:36Z</time>
      </trkpt>
      <trkpt lat="44.70689" lon="7.04787">
        <ele>2426.5</ele>
        <time>2016-09-02T14:00:41Z</time>
      </trkpt>
      <trkpt lat="44.70691" lon="7.04782">
        <ele>2426.02</ele>
        <time>2016-09-02T14:00:45Z</time>
      </trkpt>
      <trkpt lat="44.70692" lon="7.04773">
        <ele>2424.1</ele>
        <time>2016-09-02T14:00:51Z</time>
      </trkpt>
      <trkpt lat="44.70692" lon="7.04769">
        <ele>2423.14</ele>
        <time>2016-09-02T14:00:54Z</time>
      </trkpt>
      <trkpt lat="44.70693" lon="7.04757">
        <ele>2420.74</ele>
        <time>2016-09-02T14:01:01Z</time>
      </trkpt>
      <trkpt lat="44.70692" lon="7.0475">
        <ele>2419.3</ele>
        <time>2016-09-02T14:01:05Z</time>
      </trkpt>
      <trkpt lat="44.70694" lon="7.04737">
        <ele>2417.37</ele>
        <time>2016-09-02T14:01:13Z</time>
      </trkpt>
      <trkpt lat="44.70692" lon="7.04731">
        <ele>2415.45</ele>
        <time>2016-09-02T14:01:18Z</time>
      </trkpt>
      <trkpt lat="44.70688" lon="7.04726">
        <ele>2414.49</ele>
        <time>2016-09-02T14:01:25Z</time>
      </trkpt>
      <trkpt lat="44.70697" lon="7.04711">
        <ele>2411.12</ele>
        <time>2016-09-02T14:01:38Z</time>
      </trkpt>
      <trkpt lat="44.70704" lon="7.04701">
        <ele>2409.68</ele>
        <time>2016-09-02T14:01:46Z</time>
      </trkpt>
      <trkpt lat="44.70704" lon="7.04699">
        <ele>2409.2</ele>
        <time>2016-09-02T14:01:48Z</time>
      </trkpt>
      <trkpt lat="44.70687" lon="7.047">
        <ele>2406.32</ele>
        <time>2016-09-02T14:02:02Z</time>
      </trkpt>
      <trkpt lat="44.70689" lon="7.04688">
        <ele>2404.88</ele>
        <time>2016-09-02T14:02:11Z</time>
      </trkpt>
      <trkpt lat="44.70695" lon="7.04678">
        <ele>2401.51</ele>
        <time>2016-09-02T14:02:20Z</time>
      </trkpt>
      <trkpt lat="44.70704" lon="7.04662">
        <ele>2397.67</ele>
        <time>2016-09-02T14:02:34Z</time>
      </trkpt>
      <trkpt lat="44.7071" lon="7.0466">
        <ele>2396.7</ele>
        <time>2016-09-02T14:02:39Z</time>
      </trkpt>
      <trkpt lat="44.70716" lon="7.04659">
        <ele>2395.26</ele>
        <time>2016-09-02T14:02:44Z</time>
      </trkpt>
      <trkpt lat="44.70722" lon="7.04662">
        <ele>2395.26</ele>
        <time>2016-09-02T14:02:49Z</time>
      </trkpt>
      <trkpt lat="44.70731" lon="7.04656">
        <ele>2394.78</ele>
        <time>2016-09-02T14:03:04Z</time>
      </trkpt>
      <trkpt lat="44.70738" lon="7.04647">
        <ele>2391.42</ele>
        <time>2016-09-02T14:03:15Z</time>
      </trkpt>
      <trkpt lat="44.70743" lon="7.04636">
        <ele>2388.05</ele>
        <time>2016-09-02T14:03:26Z</time>
      </trkpt>
      <trkpt lat="44.70742" lon="7.04622">
        <ele>2385.17</ele>
        <time>2016-09-02T14:03:36Z</time>
      </trkpt>
      <trkpt lat="44.70741" lon="7.04619">
        <ele>2385.17</ele>
        <time>2016-09-02T14:03:38Z</time>
      </trkpt>
      <trkpt lat="44.70729" lon="7.04614">
        <ele>2382.76</ele>
        <time>2016-09-02T14:03:48Z</time>
      </trkpt>
      <trkpt lat="44.70723" lon="7.046">
        <ele>2378.92</ele>
        <time>2016-09-02T14:04:00Z</time>
      </trkpt>
      <trkpt lat="44.70717" lon="7.04589">
        <ele>2376.04</ele>
        <time>2016-09-02T14:04:09Z</time>
      </trkpt>
      <trkpt lat="44.70713" lon="7.04582">
        <ele>2374.11</ele>
        <time>2016-09-02T14:04:15Z</time>
      </trkpt>
      <trkpt lat="44.70719" lon="7.04573">
        <ele>2372.19</ele>
        <time>2016-09-02T14:04:24Z</time>
      </trkpt>
      <trkpt lat="44.70722" lon="7.04571">
        <ele>2371.23</ele>
        <time>2016-09-02T14:04:27Z</time>
      </trkpt>
      <trkpt lat="44.70729" lon="7.04569">
        <ele>2369.31</ele>
        <time>2016-09-02T14:04:34Z</time>
      </trkpt>
      <trkpt lat="44.70722" lon="7.04554">
        <ele>2366.42</ele>
        <time>2016-09-02T14:04:45Z</time>
      </trkpt>
      <trkpt lat="44.70722" lon="7.04552">
        <ele>2366.42</ele>
        <time>2016-09-02T14:04:46Z</time>
      </trkpt>
      <trkpt lat="44.70725" lon="7.04545">
        <ele>2364.98</ele>
        <time>2016-09-02T14:04:51Z</time>
      </trkpt>
      <trkpt lat="44.70728" lon="7.04529">
        <ele>2361.62</ele>
        <time>2016-09-02T14:05:01Z</time>
      </trkpt>
      <trkpt lat="44.7073" lon="7.04508">
        <ele>2358.73</ele>
        <time>2016-09-02T14:05:15Z</time>
      </trkpt>
      <trkpt lat="44.70732" lon="7.04489">
        <ele>2355.37</ele>
        <time>2016-09-02T14:05:27Z</time>
      </trkpt>
      <trkpt lat="44.70737" lon="7.04478">
        <ele>2353.44</ele>
        <time>2016-09-02T14:05:35Z</time>
      </trkpt>
      <trkpt lat="44.70743" lon="7.04456">
        <ele>2352.48</ele>
        <time>2016-09-02T14:05:49Z</time>
      </trkpt>
      <trkpt lat="44.70745" lon="7.04451">
        <ele>2352</ele>
        <time>2016-09-02T14:05:53Z</time>
      </trkpt>
      <trkpt lat="44.70751" lon="7.04434">
        <ele>2347.68</ele>
        <time>2016-09-02T14:06:05Z</time>
      </trkpt>
      <trkpt lat="44.70752" lon="7.04431">
        <ele>2347.2</ele>
        <time>2016-09-02T14:06:07Z</time>
      </trkpt>
      <trkpt lat="44.70754" lon="7.04429">
        <ele>2346.72</ele>
        <time>2016-09-02T14:06:09Z</time>
      </trkpt>
      <trkpt lat="44.70754" lon="7.04419">
        <ele>2345.75</ele>
        <time>2016-09-02T14:06:15Z</time>
      </trkpt>
      <trkpt lat="44.70757" lon="7.04397">
        <ele>2341.91</ele>
        <time>2016-09-02T14:06:29Z</time>
      </trkpt>
      <trkpt lat="44.70761" lon="7.04385">
        <ele>2339.02</ele>
        <time>2016-09-02T14:06:38Z</time>
      </trkpt>
      <trkpt lat="44.70771" lon="7.04369">
        <ele>2335.66</ele>
        <time>2016-09-02T14:06:49Z</time>
      </trkpt>
      <trkpt lat="44.70777" lon="7.04344">
        <ele>2332.3</ele>
        <time>2016-09-02T14:07:05Z</time>
      </trkpt>
      <trkpt lat="44.70782" lon="7.04326">
        <ele>2330.37</ele>
        <time>2016-09-02T14:07:18Z</time>
      </trkpt>
      <trkpt lat="44.70786" lon="7.04307">
        <ele>2327.97</ele>
        <time>2016-09-02T14:07:31Z</time>
      </trkpt>
      <trkpt lat="44.70789" lon="7.04294">
        <ele>2326.05</ele>
        <time>2016-09-02T14:07:46Z</time>
      </trkpt>
      <trkpt lat="44.70789" lon="7.04291">
        <ele>2325.09</ele>
        <time>2016-09-02T14:07:49Z</time>
      </trkpt>
      <trkpt lat="44.70793" lon="7.04269">
        <ele>2321.72</ele>
        <time>2016-09-02T14:08:03Z</time>
      </trkpt>
      <trkpt lat="44.70793" lon="7.04256">
        <ele>2319.8</ele>
        <time>2016-09-02T14:08:10Z</time>
      </trkpt>
      <trkpt lat="44.70802" lon="7.04236">
        <ele>2316.91</ele>
        <time>2016-09-02T14:08:23Z</time>
      </trkpt>
      <trkpt lat="44.70805" lon="7.04225">
        <ele>2314.51</ele>
        <time>2016-09-02T14:08:30Z</time>
      </trkpt>
      <trkpt lat="44.70799" lon="7.04212">
        <ele>2311.15</ele>
        <time>2016-09-02T14:08:39Z</time>
      </trkpt>
      <trkpt lat="44.70794" lon="7.04201">
        <ele>2309.7</ele>
        <time>2016-09-02T14:08:46Z</time>
      </trkpt>
      <trkpt lat="44.70786" lon="7.04186">
        <ele>2306.82</ele>
        <time>2016-09-02T14:08:58Z</time>
      </trkpt>
      <trkpt lat="44.70785" lon="7.04176">
        <ele>2304.9</ele>
        <time>2016-09-02T14:09:04Z</time>
      </trkpt>
      <trkpt lat="44.70787" lon="7.04167">
        <ele>2302.98</ele>
        <time>2016-09-02T14:09:10Z</time>
      </trkpt>
      <trkpt lat="44.70787" lon="7.04159">
        <ele>2301.53</ele>
        <time>2016-09-02T14:09:15Z</time>
      </trkpt>
      <trkpt lat="44.70785" lon="7.04133">
        <ele>2298.17</ele>
        <time>2016-09-02T14:09:29Z</time>
      </trkpt>
      <trkpt lat="44.70779" lon="7.04111">
        <ele>2295.28</ele>
        <time>2016-09-02T14:09:42Z</time>
      </trkpt>
      <trkpt lat="44.70779" lon="7.04103">
        <ele>2293.84</ele>
        <time>2016-09-02T14:09:46Z</time>
      </trkpt>
      <trkpt lat="44.70785" lon="7.04079">
        <ele>2290.48</ele>
        <time>2016-09-02T14:09:59Z</time>
      </trkpt>
      <trkpt lat="44.70789" lon="7.04071">
        <ele>2289.52</ele>
        <time>2016-09-02T14:10:04Z</time>
      </trkpt>
      <trkpt lat="44.70788" lon="7.04048">
        <ele>2286.15</ele>
        <time>2016-09-02T14:10:17Z</time>
      </trkpt>
      <trkpt lat="44.70781" lon="7.04044">
        <ele>2284.23</ele>
        <time>2016-09-02T14:10:23Z</time>
      </trkpt>
      <trkpt lat="44.70764" lon="7.04028">
        <ele>2279.9</ele>
        <time>2016-09-02T14:10:38Z</time>
      </trkpt>
      <trkpt lat="44.70765" lon="7.04006">
        <ele>2277.02</ele>
        <time>2016-09-02T14:10:51Z</time>
      </trkpt>
      <trkpt lat="44.70772" lon="7.03979">
        <ele>2273.17</ele>
        <time>2016-09-02T14:11:07Z</time>
      </trkpt>
      <trkpt lat="44.7078" lon="7.0396">
        <ele>2270.29</ele>
        <time>2016-09-02T14:11:18Z</time>
      </trkpt>
      <trkpt lat="44.70781" lon="7.03957">
        <ele>2269.33</ele>
        <time>2016-09-02T14:11:20Z</time>
      </trkpt>
      <trkpt lat="44.70785" lon="7.0395">
        <ele>2268.37</ele>
        <time>2016-09-02T14:11:25Z</time>
      </trkpt>
      <trkpt lat="44.70791" lon="7.0393">
        <ele>2265</ele>
        <time>2016-09-02T14:11:37Z</time>
      </trkpt>
      <trkpt lat="44.708" lon="7.0391">
        <ele>2262.6</ele>
        <time>2016-09-02T14:11:49Z</time>
      </trkpt>
      <trkpt lat="44.70801" lon="7.03909">
        <ele>2262.6</ele>
        <time>2016-09-02T14:11:50Z</time>
      </trkpt>
      <trkpt lat="44.70813" lon="7.03895">
        <ele>2259.24</ele>
        <time>2016-09-02T14:12:01Z</time>
      </trkpt>
      <trkpt lat="44.70827" lon="7.03877">
        <ele>2258.27</ele>
        <time>2016-09-02T14:12:15Z</time>
      </trkpt>
      <trkpt lat="44.70836" lon="7.03853">
        <ele>2256.83</ele>
        <time>2016-09-02T14:12:29Z</time>
      </trkpt>
      <trkpt lat="44.70844" lon="7.0384">
        <ele>2255.87</ele>
        <time>2016-09-02T14:12:38Z</time>
      </trkpt>
      <trkpt lat="44.70844" lon="7.03838">
        <ele>2255.39</ele>
        <time>2016-09-02T14:12:39Z</time>
      </trkpt>
      <trkpt lat="44.70849" lon="7.03806">
        <ele>2254.43</ele>
        <time>2016-09-02T14:12:56Z</time>
      </trkpt>
      <trkpt lat="44.70852" lon="7.03782">
        <ele>2254.43</ele>
        <time>2016-09-02T14:13:10Z</time>
      </trkpt>
      <trkpt lat="44.70852" lon="7.0378">
        <ele>2254.43</ele>
        <time>2016-09-02T14:13:11Z</time>
      </trkpt>
      <trkpt lat="44.70852" lon="7.03778">
        <ele>2254.43</ele>
        <time>2016-09-02T14:13:12Z</time>
      </trkpt>
      <trkpt lat="44.70852" lon="7.03776">
        <ele>2254.43</ele>
        <time>2016-09-02T14:13:13Z</time>
      </trkpt>
      <trkpt lat="44.70864" lon="7.03763">
        <ele>2253.95</ele>
        <time>2016-09-02T14:13:26Z</time>
      </trkpt>
      <trkpt lat="44.70867" lon="7.03755">
        <ele>2251.06</ele>
        <time>2016-09-02T14:13:32Z</time>
      </trkpt>
      <trkpt lat="44.70867" lon="7.0375">
        <ele>2250.1</ele>
        <time>2016-09-02T14:13:35Z</time>
      </trkpt>
      <trkpt lat="44.70872" lon="7.03743">
        <ele>2247.7</ele>
        <time>2016-09-02T14:13:42Z</time>
      </trkpt>
      <trkpt lat="44.70878" lon="7.03725">
        <ele>2244.33</ele>
        <time>2016-09-02T14:13:53Z</time>
      </trkpt>
      <trkpt lat="44.70886" lon="7.03709">
        <ele>2240.97</ele>
        <time>2016-09-02T14:14:04Z</time>
      </trkpt>
      <trkpt lat="44.70887" lon="7.03707">
        <ele>2240.97</ele>
        <time>2016-09-02T14:14:05Z</time>
      </trkpt>
      <trkpt lat="44.70892" lon="7.03678">
        <ele>2238.09</ele>
        <time>2016-09-02T14:14:21Z</time>
      </trkpt>
      <trkpt lat="44.70892" lon="7.03675">
        <ele>2237.61</ele>
        <time>2016-09-02T14:14:23Z</time>
      </trkpt>
      <trkpt lat="44.7089" lon="7.03674">
        <ele>2237.13</ele>
        <time>2016-09-02T14:14:25Z</time>
      </trkpt>
      <trkpt lat="44.7088" lon="7.03688">
        <ele>2234.24</ele>
        <time>2016-09-02T14:14:36Z</time>
      </trkpt>
      <trkpt lat="44.70877" lon="7.03693">
        <ele>2233.76</ele>
        <time>2016-09-02T14:14:40Z</time>
      </trkpt>
      <trkpt lat="44.70873" lon="7.03699">
        <ele>2233.28</ele>
        <time>2016-09-02T14:14:45Z</time>
      </trkpt>
      <trkpt lat="44.70871" lon="7.03701">
        <ele>2233.28</ele>
        <time>2016-09-02T14:14:47Z</time>
      </trkpt>
      <trkpt lat="44.70871" lon="7.03682">
        <ele>2229.43</ele>
        <time>2016-09-02T14:15:00Z</time>
      </trkpt>
      <trkpt lat="44.70874" lon="7.0366">
        <ele>2226.07</ele>
        <time>2016-09-02T14:15:12Z</time>
      </trkpt>
      <trkpt lat="44.70874" lon="7.03653">
        <ele>2225.11</ele>
        <time>2016-09-02T14:15:16Z</time>
      </trkpt>
      <trkpt lat="44.70877" lon="7.03644">
        <ele>2222.22</ele>
        <time>2016-09-02T14:15:23Z</time>
      </trkpt>
      <trkpt lat="44.70878" lon="7.03625">
        <ele>2219.34</ele>
        <time>2016-09-02T14:15:34Z</time>
      </trkpt>
      <trkpt lat="44.70881" lon="7.03596">
        <ele>2215.98</ele>
        <time>2016-09-02T14:15:48Z</time>
      </trkpt>
      <trkpt lat="44.7088" lon="7.03561">
        <ele>2213.57</ele>
        <time>2016-09-02T14:16:05Z</time>
      </trkpt>
      <trkpt lat="44.70878" lon="7.03526">
        <ele>2211.17</ele>
        <time>2016-09-02T14:16:22Z</time>
      </trkpt>
      <trkpt lat="44.70885" lon="7.03504">
        <ele>2207.81</ele>
        <time>2016-09-02T14:16:36Z</time>
      </trkpt>
      <trkpt lat="44.70896" lon="7.03486">
        <ele>2204.44</ele>
        <time>2016-09-02T14:16:48Z</time>
      </trkpt>
      <trkpt lat="44.70903" lon="7.03456">
        <ele>2202.04</ele>
        <time>2016-09-02T14:17:03Z</time>
      </trkpt>
      <trkpt lat="44.70907" lon="7.0342">
        <ele>2202.04</ele>
        <time>2016-09-02T14:17:21Z</time>
      </trkpt>
      <trkpt lat="44.70907" lon="7.03388">
        <ele>2200.59</ele>
        <time>2016-09-02T14:17:37Z</time>
      </trkpt>
      <trkpt lat="44.70906" lon="7.03386">
        <ele>2200.11</ele>
        <time>2016-09-02T14:17:38Z</time>
      </trkpt>
      <trkpt lat="44.70904" lon="7.03369">
        <ele>2198.19</ele>
        <time>2016-09-02T14:17:47Z</time>
      </trkpt>
      <trkpt lat="44.70903" lon="7.03355">
        <ele>2197.71</ele>
        <time>2016-09-02T14:17:55Z</time>
      </trkpt>
      <trkpt lat="44.70902" lon="7.0334">
        <ele>2196.75</ele>
        <time>2016-09-02T14:18:04Z</time>
      </trkpt>
      <trkpt lat="44.70901" lon="7.03332">
        <ele>2194.83</ele>
        <time>2016-09-02T14:18:09Z</time>
      </trkpt>
      <trkpt lat="44.709" lon="7.03321">
        <ele>2191.94</ele>
        <time>2016-09-02T14:18:17Z</time>
      </trkpt>
      <trkpt lat="44.70899" lon="7.03319">
        <ele>2191.94</ele>
        <time>2016-09-02T14:18:19Z</time>
      </trkpt>
      <trkpt lat="44.70898" lon="7.03316">
        <ele>2190.5</ele>
        <time>2016-09-02T14:18:21Z</time>
      </trkpt>
      <trkpt lat="44.70898" lon="7.03313">
        <ele>2190.02</ele>
        <time>2016-09-02T14:18:23Z</time>
      </trkpt>
      <trkpt lat="44.70899" lon="7.03297">
        <ele>2187.62</ele>
        <time>2016-09-02T14:18:33Z</time>
      </trkpt>
      <trkpt lat="44.70889" lon="7.03297">
        <ele>2184.25</ele>
        <time>2016-09-02T14:18:43Z</time>
      </trkpt>
      <trkpt lat="44.70897" lon="7.03278">
        <ele>2182.33</ele>
        <time>2016-09-02T14:18:58Z</time>
      </trkpt>
      <trkpt lat="44.70904" lon="7.03258">
        <ele>2179.93</ele>
        <time>2016-09-02T14:19:11Z</time>
      </trkpt>
      <trkpt lat="44.70913" lon="7.03241">
        <ele>2178</ele>
        <time>2016-09-02T14:19:24Z</time>
      </trkpt>
      <trkpt lat="44.70915" lon="7.03234">
        <ele>2176.56</ele>
        <time>2016-09-02T14:19:30Z</time>
      </trkpt>
      <trkpt lat="44.70906" lon="7.03232">
        <ele>2174.64</ele>
        <time>2016-09-02T14:19:38Z</time>
      </trkpt>
      <trkpt lat="44.70895" lon="7.03233">
        <ele>2172.72</ele>
        <time>2016-09-02T14:19:49Z</time>
      </trkpt>
      <trkpt lat="44.70894" lon="7.03227">
        <ele>2171.76</ele>
        <time>2016-09-02T14:19:57Z</time>
      </trkpt>
      <trkpt lat="44.709" lon="7.03219">
        <ele>2169.83</ele>
        <time>2016-09-02T14:20:08Z</time>
      </trkpt>
      <trkpt lat="44.70902" lon="7.03213">
        <ele>2168.87</ele>
        <time>2016-09-02T14:20:12Z</time>
      </trkpt>
      <trkpt lat="44.70908" lon="7.03195">
        <ele>2166.47</ele>
        <time>2016-09-02T14:20:26Z</time>
      </trkpt>
      <trkpt lat="44.70919" lon="7.03178">
        <ele>2164.55</ele>
        <time>2016-09-02T14:20:40Z</time>
      </trkpt>
      <trkpt lat="44.70919" lon="7.03175">
        <ele>2164.06</ele>
        <time>2016-09-02T14:20:42Z</time>
      </trkpt>
      <trkpt lat="44.70922" lon="7.03166">
        <ele>2162.14</ele>
        <time>2016-09-02T14:20:49Z</time>
      </trkpt>
      <trkpt lat="44.70922" lon="7.03154">
        <ele>2158.3</ele>
        <time>2016-09-02T14:20:57Z</time>
      </trkpt>
      <trkpt lat="44.70912" lon="7.03139">
        <ele>2155.41</ele>
        <time>2016-09-02T14:21:10Z</time>
      </trkpt>
      <trkpt lat="44.70897" lon="7.03146">
        <ele>2154.93</ele>
        <time>2016-09-02T14:21:25Z</time>
      </trkpt>
      <trkpt lat="44.70897" lon="7.03146">
        <ele>2155.89</ele>
        <time>2016-09-02T14:21:32Z</time>
      </trkpt>
      <trkpt lat="44.70895" lon="7.03146">
        <ele>2155.89</ele>
        <time>2016-09-02T14:21:57Z</time>
      </trkpt>
      <trkpt lat="44.7089" lon="7.03142">
        <ele>2155.89</ele>
        <time>2016-09-02T14:22:04Z</time>
      </trkpt>
      <trkpt lat="44.7089" lon="7.03138">
        <ele>2153.97</ele>
        <time>2016-09-02T14:22:06Z</time>
      </trkpt>
      <trkpt lat="44.7089" lon="7.03132">
        <ele>2152.53</ele>
        <time>2016-09-02T14:22:09Z</time>
      </trkpt>
      <trkpt lat="44.7089" lon="7.0313">
        <ele>2152.05</ele>
        <time>2016-09-02T14:22:10Z</time>
      </trkpt>
      <trkpt lat="44.70891" lon="7.03111">
        <ele>2148.68</ele>
        <time>2016-09-02T14:22:20Z</time>
      </trkpt>
      <trkpt lat="44.70891" lon="7.03104">
        <ele>2147.72</ele>
        <time>2016-09-02T14:22:24Z</time>
      </trkpt>
      <trkpt lat="44.70887" lon="7.03099">
        <ele>2145.32</ele>
        <time>2016-09-02T14:22:28Z</time>
      </trkpt>
      <trkpt lat="44.70886" lon="7.03086">
        <ele>2143.4</ele>
        <time>2016-09-02T14:22:36Z</time>
      </trkpt>
      <trkpt lat="44.70883" lon="7.03079">
        <ele>2141.47</ele>
        <time>2016-09-02T14:22:41Z</time>
      </trkpt>
      <trkpt lat="44.70884" lon="7.03069">
        <ele>2138.11</ele>
        <time>2016-09-02T14:22:49Z</time>
      </trkpt>
      <trkpt lat="44.70883" lon="7.03061">
        <ele>2135.23</ele>
        <time>2016-09-02T14:22:56Z</time>
      </trkpt>
      <trkpt lat="44.70884" lon="7.03053">
        <ele>2133.78</ele>
        <time>2016-09-02T14:23:01Z</time>
      </trkpt>
      <trkpt lat="44.70886" lon="7.03043">
        <ele>2131.86</ele>
        <time>2016-09-02T14:23:07Z</time>
      </trkpt>
      <trkpt lat="44.70887" lon="7.03038">
        <ele>2130.9</ele>
        <time>2016-09-02T14:23:11Z</time>
      </trkpt>
      <trkpt lat="44.70888" lon="7.03019">
        <ele>2126.57</ele>
        <time>2016-09-02T14:23:22Z</time>
      </trkpt>
      <trkpt lat="44.70889" lon="7.03015">
        <ele>2126.09</ele>
        <time>2016-09-02T14:23:25Z</time>
      </trkpt>
      <trkpt lat="44.70892" lon="7.02994">
        <ele>2123.69</ele>
        <time>2016-09-02T14:23:36Z</time>
      </trkpt>
      <trkpt lat="44.70899" lon="7.02972">
        <ele>2119.84</ele>
        <time>2016-09-02T14:23:49Z</time>
      </trkpt>
      <trkpt lat="44.70905" lon="7.02947">
        <ele>2116.48</ele>
        <time>2016-09-02T14:24:03Z</time>
      </trkpt>
      <trkpt lat="44.70907" lon="7.02933">
        <ele>2116</ele>
        <time>2016-09-02T14:24:11Z</time>
      </trkpt>
      <trkpt lat="44.70908" lon="7.02927">
        <ele>2114.08</ele>
        <time>2016-09-02T14:24:15Z</time>
      </trkpt>
      <trkpt lat="44.70913" lon="7.02911">
        <ele>2110.23</ele>
        <time>2016-09-02T14:24:27Z</time>
      </trkpt>
      <trkpt lat="44.70914" lon="7.02899">
        <ele>2107.35</ele>
        <time>2016-09-02T14:24:34Z</time>
      </trkpt>
      <trkpt lat="44.70915" lon="7.02896">
        <ele>2107.35</ele>
        <time>2016-09-02T14:24:36Z</time>
      </trkpt>
      <trkpt lat="44.70915" lon="7.02891">
        <ele>2105.91</ele>
        <time>2016-09-02T14:24:41Z</time>
      </trkpt>
      <trkpt lat="44.70909" lon="7.02898">
        <ele>2103.5</ele>
        <time>2016-09-02T14:24:49Z</time>
      </trkpt>
      <trkpt lat="44.70912" lon="7.02887">
        <ele>2101.1</ele>
        <time>2016-09-02T14:24:57Z</time>
      </trkpt>
      <trkpt lat="44.70914" lon="7.02883">
        <ele>2099.66</ele>
        <time>2016-09-02T14:25:01Z</time>
      </trkpt>
      <trkpt lat="44.70912" lon="7.02875">
        <ele>2096.77</ele>
        <time>2016-09-02T14:25:09Z</time>
      </trkpt>
      <trkpt lat="44.70916" lon="7.02868">
        <ele>2092.93</ele>
        <time>2016-09-02T14:25:20Z</time>
      </trkpt>
      <trkpt lat="44.70916" lon="7.02861">
        <ele>2090.52</ele>
        <time>2016-09-02T14:25:29Z</time>
      </trkpt>
      <trkpt lat="44.70917" lon="7.02854">
        <ele>2087.64</ele>
        <time>2016-09-02T14:25:36Z</time>
      </trkpt>
      <trkpt lat="44.70923" lon="7.02838">
        <ele>2084.28</ele>
        <time>2016-09-02T14:25:46Z</time>
      </trkpt>
      <trkpt lat="44.70925" lon="7.02833">
        <ele>2084.28</ele>
        <time>2016-09-02T14:25:49Z</time>
      </trkpt>
      <trkpt lat="44.70939" lon="7.0281">
        <ele>2082.35</ele>
        <time>2016-09-02T14:26:05Z</time>
      </trkpt>
      <trkpt lat="44.70943" lon="7.02808">
        <ele>2082.35</ele>
        <time>2016-09-02T14:26:08Z</time>
      </trkpt>
      <trkpt lat="44.70947" lon="7.02806">
        <ele>2082.35</ele>
        <time>2016-09-02T14:26:12Z</time>
      </trkpt>
      <trkpt lat="44.70961" lon="7.02792">
        <ele>2083.31</ele>
        <time>2016-09-02T14:26:24Z</time>
      </trkpt>
      <trkpt lat="44.70965" lon="7.02784">
        <ele>2083.31</ele>
        <time>2016-09-02T14:26:29Z</time>
      </trkpt>
      <trkpt lat="44.70975" lon="7.02766">
        <ele>2081.39</ele>
        <time>2016-09-02T14:26:40Z</time>
      </trkpt>
      <trkpt lat="44.70987" lon="7.02743">
        <ele>2079.47</ele>
        <time>2016-09-02T14:26:54Z</time>
      </trkpt>
      <trkpt lat="44.7099" lon="7.02739">
        <ele>2078.99</ele>
        <time>2016-09-02T14:26:57Z</time>
      </trkpt>
      <trkpt lat="44.70996" lon="7.02733">
        <ele>2078.99</ele>
        <time>2016-09-02T14:27:02Z</time>
      </trkpt>
      <trkpt lat="44.70999" lon="7.02727">
        <ele>2078.99</ele>
        <time>2016-09-02T14:27:06Z</time>
      </trkpt>
      <trkpt lat="44.71005" lon="7.02721">
        <ele>2078.51</ele>
        <time>2016-09-02T14:27:12Z</time>
      </trkpt>
      <trkpt lat="44.71014" lon="7.02707">
        <ele>2079.95</ele>
        <time>2016-09-02T14:27:23Z</time>
      </trkpt>
      <trkpt lat="44.7102" lon="7.027">
        <ele>2080.43</ele>
        <time>2016-09-02T14:27:30Z</time>
      </trkpt>
      <trkpt lat="44.71026" lon="7.02686">
        <ele>2077.55</ele>
        <time>2016-09-02T14:27:39Z</time>
      </trkpt>
      <trkpt lat="44.71031" lon="7.02676">
        <ele>2076.1</ele>
        <time>2016-09-02T14:27:48Z</time>
      </trkpt>
      <trkpt lat="44.71033" lon="7.02671">
        <ele>2074.66</ele>
        <time>2016-09-02T14:27:51Z</time>
      </trkpt>
      <trkpt lat="44.71035" lon="7.02668">
        <ele>2074.18</ele>
        <time>2016-09-02T14:27:53Z</time>
      </trkpt>
      <trkpt lat="44.71037" lon="7.02663">
        <ele>2072.74</ele>
        <time>2016-09-02T14:27:56Z</time>
      </trkpt>
      <trkpt lat="44.71047" lon="7.0265">
        <ele>2070.34</ele>
        <time>2016-09-02T14:28:07Z</time>
      </trkpt>
      <trkpt lat="44.71052" lon="7.02641">
        <ele>2069.86</ele>
        <time>2016-09-02T14:28:13Z</time>
      </trkpt>
      <trkpt lat="44.71058" lon="7.02631">
        <ele>2068.41</ele>
        <time>2016-09-02T14:28:23Z</time>
      </trkpt>
      <trkpt lat="44.71066" lon="7.02621">
        <ele>2064.09</ele>
        <time>2016-09-02T14:28:34Z</time>
      </trkpt>
      <trkpt lat="44.71078" lon="7.02616">
        <ele>2060.72</ele>
        <time>2016-09-02T14:28:45Z</time>
      </trkpt>
      <trkpt lat="44.71086" lon="7.02614">
        <ele>2057.84</ele>
        <time>2016-09-02T14:28:55Z</time>
      </trkpt>
      <trkpt lat="44.71094" lon="7.02607">
        <ele>2054.47</ele>
        <time>2016-09-02T14:29:04Z</time>
      </trkpt>
      <trkpt lat="44.71096" lon="7.02601">
        <ele>2053.51</ele>
        <time>2016-09-02T14:29:07Z</time>
      </trkpt>
      <trkpt lat="44.71104" lon="7.02593">
        <ele>2051.11</ele>
        <time>2016-09-02T14:29:14Z</time>
      </trkpt>
      <trkpt lat="44.7112" lon="7.0257">
        <ele>2047.75</ele>
        <time>2016-09-02T14:29:28Z</time>
      </trkpt>
      <trkpt lat="44.71139" lon="7.02552">
        <ele>2046.78</ele>
        <time>2016-09-02T14:29:44Z</time>
      </trkpt>
      <trkpt lat="44.71159" lon="7.02533">
        <ele>2043.42</ele>
        <time>2016-09-02T14:29:59Z</time>
      </trkpt>
      <trkpt lat="44.71176" lon="7.02503">
        <ele>2041.5</ele>
        <time>2016-09-02T14:30:16Z</time>
      </trkpt>
      <trkpt lat="44.71188" lon="7.02484">
        <ele>2041.02</ele>
        <time>2016-09-02T14:30:28Z</time>
      </trkpt>
      <trkpt lat="44.71196" lon="7.02448">
        <ele>2039.57</ele>
        <time>2016-09-02T14:30:46Z</time>
      </trkpt>
      <trkpt lat="44.71207" lon="7.02409">
        <ele>2038.61</ele>
        <time>2016-09-02T14:31:05Z</time>
      </trkpt>
      <trkpt lat="44.71218" lon="7.0238">
        <ele>2037.65</ele>
        <time>2016-09-02T14:31:21Z</time>
      </trkpt>
      <trkpt lat="44.71234" lon="7.0235">
        <ele>2036.21</ele>
        <time>2016-09-02T14:31:39Z</time>
      </trkpt>
      <trkpt lat="44.71254" lon="7.02308">
        <ele>2034.77</ele>
        <time>2016-09-02T14:32:02Z</time>
      </trkpt>
      <trkpt lat="44.71273" lon="7.02267">
        <ele>2034.29</ele>
        <time>2016-09-02T14:32:25Z</time>
      </trkpt>
      <trkpt lat="44.71289" lon="7.02228">
        <ele>2034.29</ele>
        <time>2016-09-02T14:32:46Z</time>
      </trkpt>
      <trkpt lat="44.71315" lon="7.02207">
        <ele>2033.81</ele>
        <time>2016-09-02T14:33:05Z</time>
      </trkpt>
      <trkpt lat="44.71344" lon="7.02205">
        <ele>2032.36</ele>
        <time>2016-09-02T14:33:23Z</time>
      </trkpt>
      <trkpt lat="44.71372" lon="7.022">
        <ele>2031.4</ele>
        <time>2016-09-02T14:33:41Z</time>
      </trkpt>
      <trkpt lat="44.71399" lon="7.02192">
        <ele>2029.96</ele>
        <time>2016-09-02T14:33:59Z</time>
      </trkpt>
      <trkpt lat="44.71426" lon="7.02179">
        <ele>2028.04</ele>
        <time>2016-09-02T14:34:17Z</time>
      </trkpt>
      <trkpt lat="44.71451" lon="7.02158">
        <ele>2026.6</ele>
        <time>2016-09-02T14:34:36Z</time>
      </trkpt>
      <trkpt lat="44.7147" lon="7.02137">
        <ele>2025.64</ele>
        <time>2016-09-02T14:34:52Z</time>
      </trkpt>
      <trkpt lat="44.71484" lon="7.02115">
        <ele>2024.67</ele>
        <time>2016-09-02T14:35:07Z</time>
      </trkpt>
      <trkpt lat="44.71495" lon="7.02101">
        <ele>2024.19</ele>
        <time>2016-09-02T14:35:19Z</time>
      </trkpt>
      <trkpt lat="44.71502" lon="7.02096">
        <ele>2023.71</ele>
        <time>2016-09-02T14:35:25Z</time>
      </trkpt>
      <trkpt lat="44.71525" lon="7.02087">
        <ele>2023.23</ele>
        <time>2016-09-02T14:35:42Z</time>
      </trkpt>
      <trkpt lat="44.71546" lon="7.02074">
        <ele>2024.67</ele>
        <time>2016-09-02T14:35:58Z</time>
      </trkpt>
      <trkpt lat="44.71568" lon="7.02059">
        <ele>2025.64</ele>
        <time>2016-09-02T14:36:15Z</time>
      </trkpt>
      <trkpt lat="44.71589" lon="7.02029">
        <ele>2025.64</ele>
        <time>2016-09-02T14:36:35Z</time>
      </trkpt>
      <trkpt lat="44.71595" lon="7.01999">
        <ele>2025.64</ele>
        <time>2016-09-02T14:36:49Z</time>
      </trkpt>
      <trkpt lat="44.71596" lon="7.01993">
        <ele>2025.64</ele>
        <time>2016-09-02T14:36:52Z</time>
      </trkpt>
      <trkpt lat="44.71601" lon="7.01983">
        <ele>2025.64</ele>
        <time>2016-09-02T14:36:58Z</time>
      </trkpt>
      <trkpt lat="44.71621" lon="7.01954">
        <ele>2025.15</ele>
        <time>2016-09-02T14:37:17Z</time>
      </trkpt>
      <trkpt lat="44.71639" lon="7.01924">
        <ele>2024.19</ele>
        <time>2016-09-02T14:37:36Z</time>
      </trkpt>
      <trkpt lat="44.7166" lon="7.0189">
        <ele>2023.71</ele>
        <time>2016-09-02T14:37:57Z</time>
      </trkpt>
      <trkpt lat="44.71675" lon="7.0186">
        <ele>2022.75</ele>
        <time>2016-09-02T14:38:15Z</time>
      </trkpt>
      <trkpt lat="44.71688" lon="7.01821">
        <ele>2022.27</ele>
        <time>2016-09-02T14:38:36Z</time>
      </trkpt>
      <trkpt lat="44.71693" lon="7.01812">
        <ele>2022.27</ele>
        <time>2016-09-02T14:38:52Z</time>
      </trkpt>
      <trkpt lat="44.717" lon="7.01795">
        <ele>2021.79</ele>
        <time>2016-09-02T14:39:05Z</time>
      </trkpt>
      <trkpt lat="44.71719" lon="7.01765">
        <ele>2021.31</ele>
        <time>2016-09-02T14:39:24Z</time>
      </trkpt>
      <trkpt lat="44.71742" lon="7.01739">
        <ele>2019.39</ele>
        <time>2016-09-02T14:39:44Z</time>
      </trkpt>
      <trkpt lat="44.71764" lon="7.01715">
        <ele>2018.43</ele>
        <time>2016-09-02T14:40:03Z</time>
      </trkpt>
      <trkpt lat="44.71786" lon="7.01696">
        <ele>2016.5</ele>
        <time>2016-09-02T14:40:21Z</time>
      </trkpt>
      <trkpt lat="44.71807" lon="7.0167">
        <ele>2014.1</ele>
        <time>2016-09-02T14:40:40Z</time>
      </trkpt>
      <trkpt lat="44.71814" lon="7.01659">
        <ele>2011.22</ele>
        <time>2016-09-02T14:40:47Z</time>
      </trkpt>
      <trkpt lat="44.71815" lon="7.01658">
        <ele>2014.1</ele>
        <time>2016-09-02T14:40:48Z</time>
      </trkpt>
      <trkpt lat="44.71827" lon="7.01638">
        <ele>2011.22</ele>
        <time>2016-09-02T14:41:00Z</time>
      </trkpt>
      <trkpt lat="44.7185" lon="7.01612">
        <ele>2008.81</ele>
        <time>2016-09-02T14:41:20Z</time>
      </trkpt>
      <trkpt lat="44.71873" lon="7.0159">
        <ele>2006.89</ele>
        <time>2016-09-02T14:41:38Z</time>
      </trkpt>
      <trkpt lat="44.71897" lon="7.01562">
        <ele>2004.49</ele>
        <time>2016-09-02T14:41:59Z</time>
      </trkpt>
      <trkpt lat="44.71914" lon="7.01531">
        <ele>2002.08</ele>
        <time>2016-09-02T14:42:17Z</time>
      </trkpt>
      <trkpt lat="44.7193" lon="7.01506">
        <ele>2000.16</ele>
        <time>2016-09-02T14:42:33Z</time>
      </trkpt>
      <trkpt lat="44.71946" lon="7.01485">
        <ele>1998.24</ele>
        <time>2016-09-02T14:42:48Z</time>
      </trkpt>
      <trkpt lat="44.71967" lon="7.01464">
        <ele>1997.28</ele>
        <time>2016-09-02T14:43:04Z</time>
      </trkpt>
      <trkpt lat="44.71993" lon="7.01454">
        <ele>1997.28</ele>
        <time>2016-09-02T14:43:22Z</time>
      </trkpt>
      <trkpt lat="44.72018" lon="7.01442">
        <ele>1997.28</ele>
        <time>2016-09-02T14:43:39Z</time>
      </trkpt>
      <trkpt lat="44.72037" lon="7.01432">
        <ele>1998.24</ele>
        <time>2016-09-02T14:43:53Z</time>
      </trkpt>
      <trkpt lat="44.72057" lon="7.01408">
        <ele>2000.16</ele>
        <time>2016-09-02T14:44:11Z</time>
      </trkpt>
      <trkpt lat="44.7208" lon="7.01391">
        <ele>2001.12</ele>
        <time>2016-09-02T14:44:29Z</time>
      </trkpt>
      <trkpt lat="44.72105" lon="7.01376">
        <ele>2001.6</ele>
        <time>2016-09-02T14:44:47Z</time>
      </trkpt>
      <trkpt lat="44.72124" lon="7.01364">
        <ele>2000.64</ele>
        <time>2016-09-02T14:45:01Z</time>
      </trkpt>
      <trkpt lat="44.72129" lon="7.01363">
        <ele>1999.68</ele>
        <time>2016-09-02T14:45:04Z</time>
      </trkpt>
      <trkpt lat="44.72152" lon="7.01339">
        <ele>1998.72</ele>
        <time>2016-09-02T14:45:23Z</time>
      </trkpt>
      <trkpt lat="44.72171" lon="7.01319">
        <ele>1997.76</ele>
        <time>2016-09-02T14:45:39Z</time>
      </trkpt>
      <trkpt lat="44.72196" lon="7.01306">
        <ele>1997.28</ele>
        <time>2016-09-02T14:45:57Z</time>
      </trkpt>
      <trkpt lat="44.72221" lon="7.0129">
        <ele>1995.83</ele>
        <time>2016-09-02T14:46:14Z</time>
      </trkpt>
      <trkpt lat="44.72244" lon="7.01269">
        <ele>1993.43</ele>
        <time>2016-09-02T14:46:31Z</time>
      </trkpt>
      <trkpt lat="44.72266" lon="7.01246">
        <ele>1991.99</ele>
        <time>2016-09-02T14:46:48Z</time>
      </trkpt>
      <trkpt lat="44.72291" lon="7.01221">
        <ele>1991.03</ele>
        <time>2016-09-02T14:47:08Z</time>
      </trkpt>
      <trkpt lat="44.72314" lon="7.01193">
        <ele>1989.59</ele>
        <time>2016-09-02T14:47:27Z</time>
      </trkpt>
      <trkpt lat="44.72339" lon="7.01175">
        <ele>1989.1</ele>
        <time>2016-09-02T14:47:46Z</time>
      </trkpt>
      <trkpt lat="44.7236" lon="7.01148">
        <ele>1987.18</ele>
        <time>2016-09-02T14:48:05Z</time>
      </trkpt>
      <trkpt lat="44.72372" lon="7.01106">
        <ele>1985.74</ele>
        <time>2016-09-02T14:48:26Z</time>
      </trkpt>
      <trkpt lat="44.72384" lon="7.0108">
        <ele>1985.26</ele>
        <time>2016-09-02T14:48:40Z</time>
      </trkpt>
      <trkpt lat="44.72395" lon="7.01046">
        <ele>1984.78</ele>
        <time>2016-09-02T14:48:58Z</time>
      </trkpt>
      <trkpt lat="44.72396" lon="7.01041">
        <ele>1984.78</ele>
        <time>2016-09-02T14:49:00Z</time>
      </trkpt>
      <trkpt lat="44.72396" lon="7.01038">
        <ele>1984.78</ele>
        <time>2016-09-02T14:49:01Z</time>
      </trkpt>
      <trkpt lat="44.72397" lon="7.01037">
        <ele>1984.78</ele>
        <time>2016-09-02T14:49:02Z</time>
      </trkpt>
      <trkpt lat="44.7241" lon="7.01007">
        <ele>1984.78</ele>
        <time>2016-09-02T14:49:19Z</time>
      </trkpt>
      <trkpt lat="44.72422" lon="7.00979">
        <ele>1984.78</ele>
        <time>2016-09-02T14:49:34Z</time>
      </trkpt>
      <trkpt lat="44.72436" lon="7.00951">
        <ele>1984.78</ele>
        <time>2016-09-02T14:49:50Z</time>
      </trkpt>
      <trkpt lat="44.72448" lon="7.00925">
        <ele>1983.34</ele>
        <time>2016-09-02T14:50:05Z</time>
      </trkpt>
      <trkpt lat="44.72454" lon="7.00909">
        <ele>1983.34</ele>
        <time>2016-09-02T14:50:14Z</time>
      </trkpt>
      <trkpt lat="44.72455" lon="7.00908">
        <ele>1983.34</ele>
        <time>2016-09-02T14:50:15Z</time>
      </trkpt>
      <trkpt lat="44.72456" lon="7.00907">
        <ele>1983.34</ele>
        <time>2016-09-02T14:50:16Z</time>
      </trkpt>
      <trkpt lat="44.72458" lon="7.00906">
        <ele>1983.34</ele>
        <time>2016-09-02T14:50:17Z</time>
      </trkpt>
      <trkpt lat="44.72459" lon="7.00905">
        <ele>1983.34</ele>
        <time>2016-09-02T14:50:18Z</time>
      </trkpt>
      <trkpt lat="44.7246" lon="7.00903">
        <ele>1983.34</ele>
        <time>2016-09-02T14:50:19Z</time>
      </trkpt>
      <trkpt lat="44.72461" lon="7.00902">
        <ele>1983.34</ele>
        <time>2016-09-02T14:50:20Z</time>
      </trkpt>
      <trkpt lat="44.72462" lon="7.00901">
        <ele>1983.34</ele>
        <time>2016-09-02T14:50:21Z</time>
      </trkpt>
      <trkpt lat="44.72465" lon="7.00898">
        <ele>1983.34</ele>
        <time>2016-09-02T14:50:23Z</time>
      </trkpt>
      <trkpt lat="44.72466" lon="7.00897">
        <ele>1983.34</ele>
        <time>2016-09-02T14:50:24Z</time>
      </trkpt>
      <trkpt lat="44.72468" lon="7.00895">
        <ele>1983.34</ele>
        <time>2016-09-02T14:50:25Z</time>
      </trkpt>
      <trkpt lat="44.72469" lon="7.00894">
        <ele>1982.86</ele>
        <time>2016-09-02T14:50:26Z</time>
      </trkpt>
      <trkpt lat="44.7247" lon="7.00892">
        <ele>1982.86</ele>
        <time>2016-09-02T14:50:27Z</time>
      </trkpt>
      <trkpt lat="44.72471" lon="7.0089">
        <ele>1982.86</ele>
        <time>2016-09-02T14:50:28Z</time>
      </trkpt>
      <trkpt lat="44.72472" lon="7.00889">
        <ele>1982.86</ele>
        <time>2016-09-02T14:50:29Z</time>
      </trkpt>
      <trkpt lat="44.72472" lon="7.00886">
        <ele>1982.38</ele>
        <time>2016-09-02T14:50:30Z</time>
      </trkpt>
      <trkpt lat="44.72479" lon="7.00854">
        <ele>1981.9</ele>
        <time>2016-09-02T14:50:45Z</time>
      </trkpt>
      <trkpt lat="44.7248" lon="7.00819">
        <ele>1981.9</ele>
        <time>2016-09-02T14:51:02Z</time>
      </trkpt>
      <trkpt lat="44.72489" lon="7.00787">
        <ele>1981.9</ele>
        <time>2016-09-02T14:51:20Z</time>
      </trkpt>
      <trkpt lat="44.72492" lon="7.00785">
        <ele>1981.9</ele>
        <time>2016-09-02T14:51:22Z</time>
      </trkpt>
      <trkpt lat="44.72493" lon="7.00784">
        <ele>1981.9</ele>
        <time>2016-09-02T14:51:23Z</time>
      </trkpt>
      <trkpt lat="44.72512" lon="7.00779">
        <ele>1979.97</ele>
        <time>2016-09-02T14:51:36Z</time>
      </trkpt>
      <trkpt lat="44.72527" lon="7.00754">
        <ele>1979.01</ele>
        <time>2016-09-02T14:51:51Z</time>
      </trkpt>
      <trkpt lat="44.72542" lon="7.00732">
        <ele>1978.53</ele>
        <time>2016-09-02T14:52:07Z</time>
      </trkpt>
      <trkpt lat="44.72568" lon="7.00716">
        <ele>1978.05</ele>
        <time>2016-09-02T14:52:26Z</time>
      </trkpt>
      <trkpt lat="44.72593" lon="7.00721">
        <ele>1978.05</ele>
        <time>2016-09-02T14:52:42Z</time>
      </trkpt>
      <trkpt lat="44.72609" lon="7.00706">
        <ele>1977.57</ele>
        <time>2016-09-02T14:52:58Z</time>
      </trkpt>
      <trkpt lat="44.72618" lon="7.00673">
        <ele>1975.65</ele>
        <time>2016-09-02T14:53:15Z</time>
      </trkpt>
      <trkpt lat="44.72628" lon="7.00646">
        <ele>1973.24</ele>
        <time>2016-09-02T14:53:30Z</time>
      </trkpt>
      <trkpt lat="44.72646" lon="7.00627">
        <ele>1970.84</ele>
        <time>2016-09-02T14:53:44Z</time>
      </trkpt>
      <trkpt lat="44.7267" lon="7.00628">
        <ele>1969.4</ele>
        <time>2016-09-02T14:54:00Z</time>
      </trkpt>
      <trkpt lat="44.72692" lon="7.00632">
        <ele>1967.48</ele>
        <time>2016-09-02T14:54:15Z</time>
      </trkpt>
      <trkpt lat="44.72713" lon="7.00613">
        <ele>1964.11</ele>
        <time>2016-09-02T14:54:33Z</time>
      </trkpt>
      <trkpt lat="44.72714" lon="7.00613">
        <ele>1967.48</ele>
        <time>2016-09-02T14:54:34Z</time>
      </trkpt>
      <trkpt lat="44.72737" lon="7.00602">
        <ele>1964.59</ele>
        <time>2016-09-02T14:54:51Z</time>
      </trkpt>
      <trkpt lat="44.72741" lon="7.00599">
        <ele>1964.11</ele>
        <time>2016-09-02T14:54:54Z</time>
      </trkpt>
      <trkpt lat="44.72742" lon="7.00597">
        <ele>1964.11</ele>
        <time>2016-09-02T14:54:55Z</time>
      </trkpt>
      <trkpt lat="44.72758" lon="7.00574">
        <ele>1961.23</ele>
        <time>2016-09-02T14:55:11Z</time>
      </trkpt>
      <trkpt lat="44.72773" lon="7.00552">
        <ele>1958.34</ele>
        <time>2016-09-02T14:55:27Z</time>
      </trkpt>
      <trkpt lat="44.72792" lon="7.0053">
        <ele>1956.9</ele>
        <time>2016-09-02T14:55:44Z</time>
      </trkpt>
      <trkpt lat="44.72813" lon="7.005">
        <ele>1954.5</ele>
        <time>2016-09-02T14:56:04Z</time>
      </trkpt>
      <trkpt lat="44.72832" lon="7.0047">
        <ele>1952.09</ele>
        <time>2016-09-02T14:56:23Z</time>
      </trkpt>
      <trkpt lat="44.72851" lon="7.00446">
        <ele>1949.69</ele>
        <time>2016-09-02T14:56:40Z</time>
      </trkpt>
      <trkpt lat="44.72869" lon="7.00423">
        <ele>1947.77</ele>
        <time>2016-09-02T14:56:57Z</time>
      </trkpt>
      <trkpt lat="44.72882" lon="7.00408">
        <ele>1946.33</ele>
        <time>2016-09-02T14:57:08Z</time>
      </trkpt>
      <trkpt lat="44.72883" lon="7.00406">
        <ele>1946.33</ele>
        <time>2016-09-02T14:57:09Z</time>
      </trkpt>
      <trkpt lat="44.72884" lon="7.00404">
        <ele>1946.33</ele>
        <time>2016-09-02T14:57:10Z</time>
      </trkpt>
      <trkpt lat="44.72885" lon="7.00403">
        <ele>1946.33</ele>
        <time>2016-09-02T14:57:11Z</time>
      </trkpt>
      <trkpt lat="44.72886" lon="7.00401">
        <ele>1945.85</ele>
        <time>2016-09-02T14:57:12Z</time>
      </trkpt>
      <trkpt lat="44.72887" lon="7.004">
        <ele>1945.85</ele>
        <time>2016-09-02T14:57:13Z</time>
      </trkpt>
      <trkpt lat="44.72888" lon="7.00398">
        <ele>1945.85</ele>
        <time>2016-09-02T14:57:14Z</time>
      </trkpt>
      <trkpt lat="44.72888" lon="7.00397">
        <ele>1945.85</ele>
        <time>2016-09-02T14:57:15Z</time>
      </trkpt>
      <trkpt lat="44.72889" lon="7.00395">
        <ele>1945.36</ele>
        <time>2016-09-02T14:57:16Z</time>
      </trkpt>
      <trkpt lat="44.7289" lon="7.00394">
        <ele>1945.36</ele>
        <time>2016-09-02T14:57:17Z</time>
      </trkpt>
      <trkpt lat="44.72891" lon="7.00393">
        <ele>1944.88</ele>
        <time>2016-09-02T14:57:18Z</time>
      </trkpt>
      <trkpt lat="44.72892" lon="7.00391">
        <ele>1944.88</ele>
        <time>2016-09-02T14:57:19Z</time>
      </trkpt>
      <trkpt lat="44.72898" lon="7.00383">
        <ele>1943.92</ele>
        <time>2016-09-02T14:57:24Z</time>
      </trkpt>
      <trkpt lat="44.72899" lon="7.00382">
        <ele>1943.92</ele>
        <time>2016-09-02T14:57:25Z</time>
      </trkpt>
      <trkpt lat="44.729" lon="7.0038">
        <ele>1943.92</ele>
        <time>2016-09-02T14:57:26Z</time>
      </trkpt>
      <trkpt lat="44.72902" lon="7.00379">
        <ele>1943.44</ele>
        <time>2016-09-02T14:57:27Z</time>
      </trkpt>
      <trkpt lat="44.72903" lon="7.00377">
        <ele>1943.44</ele>
        <time>2016-09-02T14:57:28Z</time>
      </trkpt>
      <trkpt lat="44.72915" lon="7.00353">
        <ele>1942</ele>
        <time>2016-09-02T14:57:43Z</time>
      </trkpt>
      <trkpt lat="44.72913" lon="7.0035">
        <ele>1941.04</ele>
        <time>2016-09-02T14:57:46Z</time>
      </trkpt>
      <trkpt lat="44.72912" lon="7.00349">
        <ele>1941.04</ele>
        <time>2016-09-02T14:57:47Z</time>
      </trkpt>
      <trkpt lat="44.72911" lon="7.00339">
        <ele>1938.16</ele>
        <time>2016-09-02T14:57:55Z</time>
      </trkpt>
      <trkpt lat="44.72908" lon="7.00325">
        <ele>1935.27</ele>
        <time>2016-09-02T14:58:04Z</time>
      </trkpt>
      <trkpt lat="44.72901" lon="7.00304">
        <ele>1932.39</ele>
        <time>2016-09-02T14:58:16Z</time>
      </trkpt>
      <trkpt lat="44.72901" lon="7.00301">
        <ele>1931.91</ele>
        <time>2016-09-02T14:58:18Z</time>
      </trkpt>
      <trkpt lat="44.72905" lon="7.00288">
        <ele>1929.98</ele>
        <time>2016-09-02T14:58:24Z</time>
      </trkpt>
      <trkpt lat="44.72914" lon="7.00263">
        <ele>1926.62</ele>
        <time>2016-09-02T14:58:38Z</time>
      </trkpt>
      <trkpt lat="44.72929" lon="7.00233">
        <ele>1923.25</ele>
        <time>2016-09-02T14:58:55Z</time>
      </trkpt>
      <trkpt lat="44.72932" lon="7.0023">
        <ele>1923.25</ele>
        <time>2016-09-02T14:58:57Z</time>
      </trkpt>
      <trkpt lat="44.72926" lon="7.00225">
        <ele>1920.37</ele>
        <time>2016-09-02T14:59:05Z</time>
      </trkpt>
      <trkpt lat="44.72929" lon="7.00218">
        <ele>1918.45</ele>
        <time>2016-09-02T14:59:10Z</time>
      </trkpt>
      <trkpt lat="44.72935" lon="7.00206">
        <ele>1915.08</ele>
        <time>2016-09-02T14:59:19Z</time>
      </trkpt>
      <trkpt lat="44.72937" lon="7.002">
        <ele>1913.16</ele>
        <time>2016-09-02T14:59:24Z</time>
      </trkpt>
      <trkpt lat="44.72938" lon="7.00196">
        <ele>1912.2</ele>
        <time>2016-09-02T14:59:26Z</time>
      </trkpt>
      <trkpt lat="44.72944" lon="7.00188">
        <ele>1910.28</ele>
        <time>2016-09-02T14:59:32Z</time>
      </trkpt>
      <trkpt lat="44.72947" lon="7.00186">
        <ele>1908.83</ele>
        <time>2016-09-02T14:59:36Z</time>
      </trkpt>
      <trkpt lat="44.72949" lon="7.00183">
        <ele>1907.87</ele>
        <time>2016-09-02T14:59:39Z</time>
      </trkpt>
      <trkpt lat="44.72951" lon="7.00181">
        <ele>1907.39</ele>
        <time>2016-09-02T14:59:41Z</time>
      </trkpt>
      <trkpt lat="44.72962" lon="7.00179">
        <ele>1906.91</ele>
        <time>2016-09-02T14:59:51Z</time>
      </trkpt>
      <trkpt lat="44.72977" lon="7.00174">
        <ele>1905.95</ele>
        <time>2016-09-02T15:00:03Z</time>
      </trkpt>
      <trkpt lat="44.72995" lon="7.00168">
        <ele>1904.03</ele>
        <time>2016-09-02T15:00:18Z</time>
      </trkpt>
      <trkpt lat="44.72995" lon="7.00166">
        <ele>1903.55</ele>
        <time>2016-09-02T15:00:20Z</time>
      </trkpt>
      <trkpt lat="44.72992" lon="7.00163">
        <ele>1902.59</ele>
        <time>2016-09-02T15:00:23Z</time>
      </trkpt>
      <trkpt lat="44.72991" lon="7.0016">
        <ele>1902.11</ele>
        <time>2016-09-02T15:00:26Z</time>
      </trkpt>
      <trkpt lat="44.72989" lon="7.00147">
        <ele>1901.14</ele>
        <time>2016-09-02T15:00:39Z</time>
      </trkpt>
      <trkpt lat="44.72989" lon="7.00145">
        <ele>1901.14</ele>
        <time>2016-09-02T15:00:40Z</time>
      </trkpt>
      <trkpt lat="44.72982" lon="7.00132">
        <ele>1900.66</ele>
        <time>2016-09-02T15:00:53Z</time>
      </trkpt>
      <trkpt lat="44.72977" lon="7.00133">
        <ele>1902.11</ele>
        <time>2016-09-02T15:00:59Z</time>
      </trkpt>
      <trkpt lat="44.72981" lon="7.00124">
        <ele>1903.55</ele>
        <time>2016-09-02T15:01:09Z</time>
      </trkpt>
      <trkpt lat="44.72991" lon="7.00114">
        <ele>1906.43</ele>
        <time>2016-09-02T15:01:24Z</time>
      </trkpt>
      <trkpt lat="44.72997" lon="7.0011">
        <ele>1905.95</ele>
        <time>2016-09-02T15:01:29Z</time>
      </trkpt>
      <trkpt lat="44.73004" lon="7.00107">
        <ele>1905.95</ele>
        <time>2016-09-02T15:01:35Z</time>
      </trkpt>
      <trkpt lat="44.73018" lon="7.00105">
        <ele>1908.83</ele>
        <time>2016-09-02T15:01:50Z</time>
      </trkpt>
      <trkpt lat="44.73039" lon="7.00086">
        <ele>1907.39</ele>
        <time>2016-09-02T15:02:06Z</time>
      </trkpt>
      <trkpt lat="44.7304" lon="7.00084">
        <ele>1907.39</ele>
        <time>2016-09-02T15:02:07Z</time>
      </trkpt>
      <trkpt lat="44.73046" lon="7.00058">
        <ele>1904.99</ele>
        <time>2016-09-02T15:02:22Z</time>
      </trkpt>
      <trkpt lat="44.73049" lon="7.00034">
        <ele>1904.03</ele>
        <time>2016-09-02T15:02:34Z</time>
      </trkpt>
      <trkpt lat="44.73054" lon="7.00029">
        <ele>1904.03</ele>
        <time>2016-09-02T15:02:38Z</time>
      </trkpt>
      <trkpt lat="44.73076" lon="7.00005">
        <ele>1902.11</ele>
        <time>2016-09-02T15:02:58Z</time>
      </trkpt>
      <trkpt lat="44.73097" lon="6.99989">
        <ele>1901.63</ele>
        <time>2016-09-02T15:03:13Z</time>
      </trkpt>
      <trkpt lat="44.73114" lon="6.99978">
        <ele>1902.59</ele>
        <time>2016-09-02T15:03:26Z</time>
      </trkpt>
      <trkpt lat="44.73116" lon="6.99974">
        <ele>1902.59</ele>
        <time>2016-09-02T15:03:29Z</time>
      </trkpt>
      <trkpt lat="44.7312" lon="6.99972">
        <ele>1903.07</ele>
        <time>2016-09-02T15:03:32Z</time>
      </trkpt>
      <trkpt lat="44.73145" lon="6.99965">
        <ele>1903.07</ele>
        <time>2016-09-02T15:03:50Z</time>
      </trkpt>
      <trkpt lat="44.73167" lon="6.99945">
        <ele>1903.07</ele>
        <time>2016-09-02T15:04:07Z</time>
      </trkpt>
      <trkpt lat="44.7318" lon="6.99924">
        <ele>1901.63</ele>
        <time>2016-09-02T15:04:22Z</time>
      </trkpt>
      <trkpt lat="44.7318" lon="6.99922">
        <ele>1901.63</ele>
        <time>2016-09-02T15:04:23Z</time>
      </trkpt>
      <trkpt lat="44.73187" lon="6.99912">
        <ele>1899.22</ele>
        <time>2016-09-02T15:04:32Z</time>
      </trkpt>
      <trkpt lat="44.7319" lon="6.9991">
        <ele>1898.26</ele>
        <time>2016-09-02T15:04:35Z</time>
      </trkpt>
      <trkpt lat="44.73195" lon="6.99906">
        <ele>1897.78</ele>
        <time>2016-09-02T15:04:40Z</time>
      </trkpt>
      <trkpt lat="44.73201" lon="6.99904">
        <ele>1896.34</ele>
        <time>2016-09-02T15:04:45Z</time>
      </trkpt>
      <trkpt lat="44.73209" lon="6.99904">
        <ele>1895.38</ele>
        <time>2016-09-02T15:04:51Z</time>
      </trkpt>
      <trkpt lat="44.73221" lon="6.99905">
        <ele>1893.45</ele>
        <time>2016-09-02T15:05:00Z</time>
      </trkpt>
      <trkpt lat="44.73227" lon="6.9991">
        <ele>1891.53</ele>
        <time>2016-09-02T15:05:08Z</time>
      </trkpt>
      <trkpt lat="44.73235" lon="6.99912">
        <ele>1889.13</ele>
        <time>2016-09-02T15:05:14Z</time>
      </trkpt>
      <trkpt lat="44.73245" lon="6.99913">
        <ele>1885.28</ele>
        <time>2016-09-02T15:05:24Z</time>
      </trkpt>
      <trkpt lat="44.73248" lon="6.99908">
        <ele>1883.84</ele>
        <time>2016-09-02T15:05:30Z</time>
      </trkpt>
      <trkpt lat="44.73257" lon="6.99906">
        <ele>1880</ele>
        <time>2016-09-02T15:05:39Z</time>
      </trkpt>
      <trkpt lat="44.73253" lon="6.99896">
        <ele>1876.63</ele>
        <time>2016-09-02T15:05:49Z</time>
      </trkpt>
      <trkpt lat="44.73253" lon="6.9989">
        <ele>1873.75</ele>
        <time>2016-09-02T15:06:00Z</time>
      </trkpt>
      <trkpt lat="44.73248" lon="6.99886">
        <ele>1870.86</ele>
        <time>2016-09-02T15:06:11Z</time>
      </trkpt>
      <trkpt lat="44.7325" lon="6.99882">
        <ele>1869.42</ele>
        <time>2016-09-02T15:06:16Z</time>
      </trkpt>
      <trkpt lat="44.73247" lon="6.99861">
        <ele>1868.46</ele>
        <time>2016-09-02T15:06:28Z</time>
      </trkpt>
      <trkpt lat="44.73253" lon="6.99855">
        <ele>1869.9</ele>
        <time>2016-09-02T15:06:36Z</time>
      </trkpt>
      <trkpt lat="44.73255" lon="6.99857">
        <ele>1868.46</ele>
        <time>2016-09-02T15:06:39Z</time>
      </trkpt>
      <trkpt lat="44.73266" lon="6.99859">
        <ele>1865.09</ele>
        <time>2016-09-02T15:06:50Z</time>
      </trkpt>
      <trkpt lat="44.73274" lon="6.99868">
        <ele>1864.13</ele>
        <time>2016-09-02T15:06:58Z</time>
      </trkpt>
      <trkpt lat="44.73292" lon="6.99874">
        <ele>1862.69</ele>
        <time>2016-09-02T15:07:13Z</time>
      </trkpt>
      <trkpt lat="44.73294" lon="6.99877">
        <ele>1862.21</ele>
        <time>2016-09-02T15:07:15Z</time>
      </trkpt>
      <trkpt lat="44.73314" lon="6.99882">
        <ele>1859.33</ele>
        <time>2016-09-02T15:07:30Z</time>
      </trkpt>
      <trkpt lat="44.73328" lon="6.99875">
        <ele>1856.44</ele>
        <time>2016-09-02T15:07:42Z</time>
      </trkpt>
      <trkpt lat="44.73331" lon="6.99868">
        <ele>1854.52</ele>
        <time>2016-09-02T15:07:48Z</time>
      </trkpt>
      <trkpt lat="44.73337" lon="6.9986">
        <ele>1852.6</ele>
        <time>2016-09-02T15:07:55Z</time>
      </trkpt>
      <trkpt lat="44.73349" lon="6.99835">
        <ele>1849.23</ele>
        <time>2016-09-02T15:08:09Z</time>
      </trkpt>
      <trkpt lat="44.73354" lon="6.99826">
        <ele>1847.79</ele>
        <time>2016-09-02T15:08:15Z</time>
      </trkpt>
      <trkpt lat="44.73358" lon="6.99821">
        <ele>1846.83</ele>
        <time>2016-09-02T15:08:19Z</time>
      </trkpt>
      <trkpt lat="44.73364" lon="6.99814">
        <ele>1844.91</ele>
        <time>2016-09-02T15:08:25Z</time>
      </trkpt>
      <trkpt lat="44.73379" lon="6.99802">
        <ele>1840.58</ele>
        <time>2016-09-02T15:08:37Z</time>
      </trkpt>
      <trkpt lat="44.73389" lon="6.99794">
        <ele>1837.7</ele>
        <time>2016-09-02T15:08:48Z</time>
      </trkpt>
      <trkpt lat="44.73397" lon="6.99787">
        <ele>1836.26</ele>
        <time>2016-09-02T15:09:00Z</time>
      </trkpt>
      <trkpt lat="44.73407" lon="6.99782">
        <ele>1834.33</ele>
        <time>2016-09-02T15:09:07Z</time>
      </trkpt>
      <trkpt lat="44.73431" lon="6.99781">
        <ele>1831.45</ele>
        <time>2016-09-02T15:09:24Z</time>
      </trkpt>
      <trkpt lat="44.73451" lon="6.99785">
        <ele>1828.08</ele>
        <time>2016-09-02T15:09:38Z</time>
      </trkpt>
      <trkpt lat="44.73473" lon="6.99779">
        <ele>1825.2</ele>
        <time>2016-09-02T15:09:53Z</time>
      </trkpt>
      <trkpt lat="44.73488" lon="6.99774">
        <ele>1823.76</ele>
        <time>2016-09-02T15:10:04Z</time>
      </trkpt>
      <trkpt lat="44.73491" lon="6.99775">
        <ele>1823.28</ele>
        <time>2016-09-02T15:10:07Z</time>
      </trkpt>
      <trkpt lat="44.73498" lon="6.99772">
        <ele>1822.32</ele>
        <time>2016-09-02T15:10:13Z</time>
      </trkpt>
      <trkpt lat="44.73505" lon="6.99767">
        <ele>1821.35</ele>
        <time>2016-09-02T15:10:23Z</time>
      </trkpt>
      <trkpt lat="44.73504" lon="6.9977">
        <ele>1820.87</ele>
        <time>2016-09-02T15:10:25Z</time>
      </trkpt>
      <trkpt lat="44.73498" lon="6.99782">
        <ele>1817.51</ele>
        <time>2016-09-02T15:10:36Z</time>
      </trkpt>
      <trkpt lat="44.73496" lon="6.99788">
        <ele>1816.55</ele>
        <time>2016-09-02T15:10:41Z</time>
      </trkpt>
      <trkpt lat="44.73492" lon="6.998">
        <ele>1814.15</ele>
        <time>2016-09-02T15:10:49Z</time>
      </trkpt>
      <trkpt lat="44.73491" lon="6.99806">
        <ele>1812.7</ele>
        <time>2016-09-02T15:10:53Z</time>
      </trkpt>
      <trkpt lat="44.73494" lon="6.9981">
        <ele>1811.74</ele>
        <time>2016-09-02T15:10:59Z</time>
      </trkpt>
      <trkpt lat="44.73494" lon="6.99814">
        <ele>1811.74</ele>
        <time>2016-09-02T15:11:04Z</time>
      </trkpt>
      <trkpt lat="44.73491" lon="6.99817">
        <ele>1811.26</ele>
        <time>2016-09-02T15:11:07Z</time>
      </trkpt>
      <trkpt lat="44.73492" lon="6.99832">
        <ele>1812.7</ele>
        <time>2016-09-02T15:11:16Z</time>
      </trkpt>
      <trkpt lat="44.73502" lon="6.99862">
        <ele>1814.15</ele>
        <time>2016-09-02T15:11:34Z</time>
      </trkpt>
      <trkpt lat="44.7352" lon="6.99878">
        <ele>1813.66</ele>
        <time>2016-09-02T15:11:50Z</time>
      </trkpt>
      <trkpt lat="44.73546" lon="6.99884">
        <ele>1814.15</ele>
        <time>2016-09-02T15:12:06Z</time>
      </trkpt>
      <trkpt lat="44.73565" lon="6.99873">
        <ele>1814.63</ele>
        <time>2016-09-02T15:12:22Z</time>
      </trkpt>
      <trkpt lat="44.73568" lon="6.99866">
        <ele>1814.63</ele>
        <time>2016-09-02T15:12:26Z</time>
      </trkpt>
      <trkpt lat="44.73574" lon="6.99859">
        <ele>1813.18</ele>
        <time>2016-09-02T15:12:32Z</time>
      </trkpt>
      <trkpt lat="44.73595" lon="6.99847">
        <ele>1811.26</ele>
        <time>2016-09-02T15:12:48Z</time>
      </trkpt>
      <trkpt lat="44.73612" lon="6.99827">
        <ele>1809.82</ele>
        <time>2016-09-02T15:13:04Z</time>
      </trkpt>
      <trkpt lat="44.73628" lon="6.99813">
        <ele>1808.38</ele>
        <time>2016-09-02T15:13:17Z</time>
      </trkpt>
      <trkpt lat="44.73644" lon="6.99804">
        <ele>1805.49</ele>
        <time>2016-09-02T15:13:29Z</time>
      </trkpt>
      <trkpt lat="44.73658" lon="6.99792">
        <ele>1802.13</ele>
        <time>2016-09-02T15:13:41Z</time>
      </trkpt>
      <trkpt lat="44.73675" lon="6.99767">
        <ele>1800.21</ele>
        <time>2016-09-02T15:13:57Z</time>
      </trkpt>
      <trkpt lat="44.73694" lon="6.99744">
        <ele>1799.24</ele>
        <time>2016-09-02T15:14:14Z</time>
      </trkpt>
      <trkpt lat="44.7371" lon="6.99719">
        <ele>1796.36</ele>
        <time>2016-09-02T15:14:31Z</time>
      </trkpt>
      <trkpt lat="44.73728" lon="6.99693">
        <ele>1795.4</ele>
        <time>2016-09-02T15:14:49Z</time>
      </trkpt>
      <trkpt lat="44.73735" lon="6.9968">
        <ele>1795.88</ele>
        <time>2016-09-02T15:15:03Z</time>
      </trkpt>
    </trkseg>
  </trk>
</gpx>